<?xml version="1.0" encoding="UTF-8" standalone="no" ?>
<gpx xmlns="http://www.topografix.com/GPX/1/1" xmlns:xsi="http://www.w3.org/2001/XMLSchema-instance" xsi:schemaLocation="http://www.topografix.com/GPX/1/1 http://www.topografix.com/GPX/1/1/gpx.xsd" version="1.1" creator="VisuGPX - https://www.visugpx.com">
  <metadata>
    <name>Rte DALI11 13:48:50</name>
  </metadata>
  <trk>
    <name><![CDATA[Rte DALI11 13:48:50]]></name>
    <trkseg>
      <trkpt lat="42.46089" lon="2.64244">
        <ele>270</ele>
        <time>2018-10-11T06:43:03Z</time>
      </trkpt>
      <trkpt lat="42.46089" lon="2.64244">
        <ele>270</ele>
        <time>2018-10-11T06:43:04Z</time>
      </trkpt>
      <trkpt lat="42.46087" lon="2.64244">
        <ele>270</ele>
        <time>2018-10-11T06:43:13Z</time>
      </trkpt>
      <trkpt lat="42.46087" lon="2.64252">
        <ele>271</ele>
        <time>2018-10-11T06:43:17Z</time>
      </trkpt>
      <trkpt lat="42.46088" lon="2.64285">
        <ele>270</ele>
        <time>2018-10-11T06:43:24Z</time>
      </trkpt>
      <trkpt lat="42.46088" lon="2.64317">
        <ele>271</ele>
        <time>2018-10-11T06:43:30Z</time>
      </trkpt>
      <trkpt lat="42.46083" lon="2.64331">
        <ele>274</ele>
        <time>2018-10-11T06:43:34Z</time>
      </trkpt>
      <trkpt lat="42.46087" lon="2.64343">
        <ele>273</ele>
        <time>2018-10-11T06:43:36Z</time>
      </trkpt>
      <trkpt lat="42.46114" lon="2.64365">
        <ele>273</ele>
        <time>2018-10-11T06:43:41Z</time>
      </trkpt>
      <trkpt lat="42.46122" lon="2.64364">
        <ele>272</ele>
        <time>2018-10-11T06:43:42Z</time>
      </trkpt>
      <trkpt lat="42.46148" lon="2.64364">
        <ele>270</ele>
        <time>2018-10-11T06:43:45Z</time>
      </trkpt>
      <trkpt lat="42.46181" lon="2.64374">
        <ele>263</ele>
        <time>2018-10-11T06:43:49Z</time>
      </trkpt>
      <trkpt lat="42.46206" lon="2.64383">
        <ele>263</ele>
        <time>2018-10-11T06:43:52Z</time>
      </trkpt>
      <trkpt lat="42.46232" lon="2.64393">
        <ele>261</ele>
        <time>2018-10-11T06:43:55Z</time>
      </trkpt>
      <trkpt lat="42.46275" lon="2.64431">
        <ele>260</ele>
        <time>2018-10-11T06:44:00Z</time>
      </trkpt>
      <trkpt lat="42.46284" lon="2.6444">
        <ele>260</ele>
        <time>2018-10-11T06:44:01Z</time>
      </trkpt>
      <trkpt lat="42.4631" lon="2.64482">
        <ele>261</ele>
        <time>2018-10-11T06:44:05Z</time>
      </trkpt>
      <trkpt lat="42.46346" lon="2.6452">
        <ele>266</ele>
        <time>2018-10-11T06:44:10Z</time>
      </trkpt>
      <trkpt lat="42.4636" lon="2.64527">
        <ele>267</ele>
        <time>2018-10-11T06:44:12Z</time>
      </trkpt>
      <trkpt lat="42.46378" lon="2.64543">
        <ele>268</ele>
        <time>2018-10-11T06:44:17Z</time>
      </trkpt>
      <trkpt lat="42.46377" lon="2.64543">
        <ele>268</ele>
        <time>2018-10-11T06:44:22Z</time>
      </trkpt>
      <trkpt lat="42.46384" lon="2.64545">
        <ele>268</ele>
        <time>2018-10-11T06:44:26Z</time>
      </trkpt>
      <trkpt lat="42.46391" lon="2.64517">
        <ele>264</ele>
        <time>2018-10-11T06:44:31Z</time>
      </trkpt>
      <trkpt lat="42.46397" lon="2.64474">
        <ele>258</ele>
        <time>2018-10-11T06:44:35Z</time>
      </trkpt>
      <trkpt lat="42.46401" lon="2.64438">
        <ele>259</ele>
        <time>2018-10-11T06:44:38Z</time>
      </trkpt>
      <trkpt lat="42.46392" lon="2.64385">
        <ele>266</ele>
        <time>2018-10-11T06:44:42Z</time>
      </trkpt>
      <trkpt lat="42.46388" lon="2.64371">
        <ele>267</ele>
        <time>2018-10-11T06:44:43Z</time>
      </trkpt>
      <trkpt lat="42.46384" lon="2.64356">
        <ele>268</ele>
        <time>2018-10-11T06:44:44Z</time>
      </trkpt>
      <trkpt lat="42.46383" lon="2.64276">
        <ele>276</ele>
        <time>2018-10-11T06:44:49Z</time>
      </trkpt>
      <trkpt lat="42.46387" lon="2.6426">
        <ele>278</ele>
        <time>2018-10-11T06:44:50Z</time>
      </trkpt>
      <trkpt lat="42.46397" lon="2.64229">
        <ele>280</ele>
        <time>2018-10-11T06:44:52Z</time>
      </trkpt>
      <trkpt lat="42.46404" lon="2.6418">
        <ele>281</ele>
        <time>2018-10-11T06:44:55Z</time>
      </trkpt>
      <trkpt lat="42.46397" lon="2.64146">
        <ele>279</ele>
        <time>2018-10-11T06:44:57Z</time>
      </trkpt>
      <trkpt lat="42.46352" lon="2.63985">
        <ele>275</ele>
        <time>2018-10-11T06:45:07Z</time>
      </trkpt>
      <trkpt lat="42.46321" lon="2.63906">
        <ele>269</ele>
        <time>2018-10-11T06:45:13Z</time>
      </trkpt>
      <trkpt lat="42.46275" lon="2.63846">
        <ele>268</ele>
        <time>2018-10-11T06:45:18Z</time>
      </trkpt>
      <trkpt lat="42.46203" lon="2.63769">
        <ele>273</ele>
        <time>2018-10-11T06:45:25Z</time>
      </trkpt>
      <trkpt lat="42.46133" lon="2.63697">
        <ele>278</ele>
        <time>2018-10-11T06:45:32Z</time>
      </trkpt>
      <trkpt lat="42.46115" lon="2.63683">
        <ele>278</ele>
        <time>2018-10-11T06:45:34Z</time>
      </trkpt>
      <trkpt lat="42.46062" lon="2.63642">
        <ele>284</ele>
        <time>2018-10-11T06:45:40Z</time>
      </trkpt>
      <trkpt lat="42.45995" lon="2.63606">
        <ele>282</ele>
        <time>2018-10-11T06:45:46Z</time>
      </trkpt>
      <trkpt lat="42.45931" lon="2.63581">
        <ele>285</ele>
        <time>2018-10-11T06:45:52Z</time>
      </trkpt>
      <trkpt lat="42.45879" lon="2.63558">
        <ele>283</ele>
        <time>2018-10-11T06:45:57Z</time>
      </trkpt>
      <trkpt lat="42.45869" lon="2.63551">
        <ele>283</ele>
        <time>2018-10-11T06:45:58Z</time>
      </trkpt>
      <trkpt lat="42.45846" lon="2.6353">
        <ele>284</ele>
        <time>2018-10-11T06:46:01Z</time>
      </trkpt>
      <trkpt lat="42.45815" lon="2.63511">
        <ele>282</ele>
        <time>2018-10-11T06:46:05Z</time>
      </trkpt>
      <trkpt lat="42.45803" lon="2.63501">
        <ele>282</ele>
        <time>2018-10-11T06:46:07Z</time>
      </trkpt>
      <trkpt lat="42.45768" lon="2.63481">
        <ele>286</ele>
        <time>2018-10-11T06:46:13Z</time>
      </trkpt>
      <trkpt lat="42.45763" lon="2.63455">
        <ele>287</ele>
        <time>2018-10-11T06:46:16Z</time>
      </trkpt>
      <trkpt lat="42.45751" lon="2.63408">
        <ele>291</ele>
        <time>2018-10-11T06:46:21Z</time>
      </trkpt>
      <trkpt lat="42.45741" lon="2.63389">
        <ele>292</ele>
        <time>2018-10-11T06:46:23Z</time>
      </trkpt>
      <trkpt lat="42.4573" lon="2.6337">
        <ele>292</ele>
        <time>2018-10-11T06:46:25Z</time>
      </trkpt>
      <trkpt lat="42.45706" lon="2.63349">
        <ele>293</ele>
        <time>2018-10-11T06:46:29Z</time>
      </trkpt>
      <trkpt lat="42.45698" lon="2.63347">
        <ele>293</ele>
        <time>2018-10-11T06:46:32Z</time>
      </trkpt>
      <trkpt lat="42.45696" lon="2.63349">
        <ele>293</ele>
        <time>2018-10-11T06:46:39Z</time>
      </trkpt>
      <trkpt lat="42.45694" lon="2.63349">
        <ele>293</ele>
        <time>2018-10-11T06:46:47Z</time>
      </trkpt>
      <trkpt lat="42.45688" lon="2.63346">
        <ele>293</ele>
        <time>2018-10-11T06:46:50Z</time>
      </trkpt>
      <trkpt lat="42.45658" lon="2.63336">
        <ele>293</ele>
        <time>2018-10-11T06:46:58Z</time>
      </trkpt>
      <trkpt lat="42.45642" lon="2.6332">
        <ele>294</ele>
        <time>2018-10-11T06:47:02Z</time>
      </trkpt>
      <trkpt lat="42.45636" lon="2.63303">
        <ele>295</ele>
        <time>2018-10-11T06:47:04Z</time>
      </trkpt>
      <trkpt lat="42.45628" lon="2.6327">
        <ele>295</ele>
        <time>2018-10-11T06:47:07Z</time>
      </trkpt>
      <trkpt lat="42.4561" lon="2.63193">
        <ele>295</ele>
        <time>2018-10-11T06:47:13Z</time>
      </trkpt>
      <trkpt lat="42.45598" lon="2.63148">
        <ele>294</ele>
        <time>2018-10-11T06:47:17Z</time>
      </trkpt>
      <trkpt lat="42.45596" lon="2.6314">
        <ele>294</ele>
        <time>2018-10-11T06:47:18Z</time>
      </trkpt>
      <trkpt lat="42.45576" lon="2.63091">
        <ele>292</ele>
        <time>2018-10-11T06:47:23Z</time>
      </trkpt>
      <trkpt lat="42.45533" lon="2.62996">
        <ele>292</ele>
        <time>2018-10-11T06:47:31Z</time>
      </trkpt>
      <trkpt lat="42.4552" lon="2.62968">
        <ele>292</ele>
        <time>2018-10-11T06:47:33Z</time>
      </trkpt>
      <trkpt lat="42.45499" lon="2.62922">
        <ele>292</ele>
        <time>2018-10-11T06:47:36Z</time>
      </trkpt>
      <trkpt lat="42.4546" lon="2.62826">
        <ele>297</ele>
        <time>2018-10-11T06:47:42Z</time>
      </trkpt>
      <trkpt lat="42.45443" lon="2.62733">
        <ele>297</ele>
        <time>2018-10-11T06:47:47Z</time>
      </trkpt>
      <trkpt lat="42.45444" lon="2.62652">
        <ele>297</ele>
        <time>2018-10-11T06:47:52Z</time>
      </trkpt>
      <trkpt lat="42.45448" lon="2.62564">
        <ele>298</ele>
        <time>2018-10-11T06:47:57Z</time>
      </trkpt>
      <trkpt lat="42.45449" lon="2.62528">
        <ele>299</ele>
        <time>2018-10-11T06:47:59Z</time>
      </trkpt>
      <trkpt lat="42.45431" lon="2.62429">
        <ele>301</ele>
        <time>2018-10-11T06:48:04Z</time>
      </trkpt>
      <trkpt lat="42.45405" lon="2.6233">
        <ele>301</ele>
        <time>2018-10-11T06:48:09Z</time>
      </trkpt>
      <trkpt lat="42.45397" lon="2.62294">
        <ele>299</ele>
        <time>2018-10-11T06:48:11Z</time>
      </trkpt>
      <trkpt lat="42.45361" lon="2.62237">
        <ele>300</ele>
        <time>2018-10-11T06:48:15Z</time>
      </trkpt>
      <trkpt lat="42.45314" lon="2.62178">
        <ele>297</ele>
        <time>2018-10-11T06:48:19Z</time>
      </trkpt>
      <trkpt lat="42.4528" lon="2.62123">
        <ele>300</ele>
        <time>2018-10-11T06:48:22Z</time>
      </trkpt>
      <trkpt lat="42.45191" lon="2.62031">
        <ele>303</ele>
        <time>2018-10-11T06:48:28Z</time>
      </trkpt>
      <trkpt lat="42.45085" lon="2.61929">
        <ele>305</ele>
        <time>2018-10-11T06:48:35Z</time>
      </trkpt>
      <trkpt lat="42.45012" lon="2.61858">
        <ele>312</ele>
        <time>2018-10-11T06:48:40Z</time>
      </trkpt>
      <trkpt lat="42.44967" lon="2.61816">
        <ele>313</ele>
        <time>2018-10-11T06:48:43Z</time>
      </trkpt>
      <trkpt lat="42.44941" lon="2.61791">
        <ele>312</ele>
        <time>2018-10-11T06:48:45Z</time>
      </trkpt>
      <trkpt lat="42.44918" lon="2.61768">
        <ele>310</ele>
        <time>2018-10-11T06:48:47Z</time>
      </trkpt>
      <trkpt lat="42.44897" lon="2.61746">
        <ele>306</ele>
        <time>2018-10-11T06:48:49Z</time>
      </trkpt>
      <trkpt lat="42.44878" lon="2.61691">
        <ele>306</ele>
        <time>2018-10-11T06:48:53Z</time>
      </trkpt>
      <trkpt lat="42.44887" lon="2.61659">
        <ele>307</ele>
        <time>2018-10-11T06:48:55Z</time>
      </trkpt>
      <trkpt lat="42.44903" lon="2.61628">
        <ele>306</ele>
        <time>2018-10-11T06:48:57Z</time>
      </trkpt>
      <trkpt lat="42.44912" lon="2.61613">
        <ele>305</ele>
        <time>2018-10-11T06:48:58Z</time>
      </trkpt>
      <trkpt lat="42.44923" lon="2.61598">
        <ele>313</ele>
        <time>2018-10-11T06:48:59Z</time>
      </trkpt>
      <trkpt lat="42.44982" lon="2.61528">
        <ele>310</ele>
        <time>2018-10-11T06:49:05Z</time>
      </trkpt>
      <trkpt lat="42.4499" lon="2.61521">
        <ele>309</ele>
        <time>2018-10-11T06:49:06Z</time>
      </trkpt>
      <trkpt lat="42.45033" lon="2.61515">
        <ele>318</ele>
        <time>2018-10-11T06:49:10Z</time>
      </trkpt>
      <trkpt lat="42.45071" lon="2.6152">
        <ele>319</ele>
        <time>2018-10-11T06:49:13Z</time>
      </trkpt>
      <trkpt lat="42.45085" lon="2.6152">
        <ele>326</ele>
        <time>2018-10-11T06:49:14Z</time>
      </trkpt>
      <trkpt lat="42.45112" lon="2.6152">
        <ele>330</ele>
        <time>2018-10-11T06:49:16Z</time>
      </trkpt>
      <trkpt lat="42.45165" lon="2.61503">
        <ele>323</ele>
        <time>2018-10-11T06:49:20Z</time>
      </trkpt>
      <trkpt lat="42.45194" lon="2.61491">
        <ele>320</ele>
        <time>2018-10-11T06:49:22Z</time>
      </trkpt>
      <trkpt lat="42.45208" lon="2.61486">
        <ele>321</ele>
        <time>2018-10-11T06:49:23Z</time>
      </trkpt>
      <trkpt lat="42.45247" lon="2.61464">
        <ele>321</ele>
        <time>2018-10-11T06:49:26Z</time>
      </trkpt>
      <trkpt lat="42.45259" lon="2.61452">
        <ele>333</ele>
        <time>2018-10-11T06:49:27Z</time>
      </trkpt>
      <trkpt lat="42.45282" lon="2.61424">
        <ele>333</ele>
        <time>2018-10-11T06:49:29Z</time>
      </trkpt>
      <trkpt lat="42.4531" lon="2.61371">
        <ele>324</ele>
        <time>2018-10-11T06:49:32Z</time>
      </trkpt>
      <trkpt lat="42.45325" lon="2.61314">
        <ele>319</ele>
        <time>2018-10-11T06:49:35Z</time>
      </trkpt>
      <trkpt lat="42.45327" lon="2.61296">
        <ele>318</ele>
        <time>2018-10-11T06:49:36Z</time>
      </trkpt>
      <trkpt lat="42.45328" lon="2.61279">
        <ele>317</ele>
        <time>2018-10-11T06:49:37Z</time>
      </trkpt>
      <trkpt lat="42.45344" lon="2.61214">
        <ele>324</ele>
        <time>2018-10-11T06:49:42Z</time>
      </trkpt>
      <trkpt lat="42.45368" lon="2.61154">
        <ele>328</ele>
        <time>2018-10-11T06:49:47Z</time>
      </trkpt>
      <trkpt lat="42.45365" lon="2.61125">
        <ele>331</ele>
        <time>2018-10-11T06:49:49Z</time>
      </trkpt>
      <trkpt lat="42.45341" lon="2.61094">
        <ele>332</ele>
        <time>2018-10-11T06:49:52Z</time>
      </trkpt>
      <trkpt lat="42.45281" lon="2.61065">
        <ele>332</ele>
        <time>2018-10-11T06:49:57Z</time>
      </trkpt>
      <trkpt lat="42.45246" lon="2.61039">
        <ele>324</ele>
        <time>2018-10-11T06:50:00Z</time>
      </trkpt>
      <trkpt lat="42.45197" lon="2.61023">
        <ele>324</ele>
        <time>2018-10-11T06:50:04Z</time>
      </trkpt>
      <trkpt lat="42.45146" lon="2.61003">
        <ele>323</ele>
        <time>2018-10-11T06:50:08Z</time>
      </trkpt>
      <trkpt lat="42.45132" lon="2.61">
        <ele>334</ele>
        <time>2018-10-11T06:50:09Z</time>
      </trkpt>
      <trkpt lat="42.45105" lon="2.60997">
        <ele>331</ele>
        <time>2018-10-11T06:50:11Z</time>
      </trkpt>
      <trkpt lat="42.45077" lon="2.60988">
        <ele>330</ele>
        <time>2018-10-11T06:50:13Z</time>
      </trkpt>
      <trkpt lat="42.45022" lon="2.60986">
        <ele>334</ele>
        <time>2018-10-11T06:50:17Z</time>
      </trkpt>
      <trkpt lat="42.44969" lon="2.60985">
        <ele>329</ele>
        <time>2018-10-11T06:50:21Z</time>
      </trkpt>
      <trkpt lat="42.44939" lon="2.6097">
        <ele>327</ele>
        <time>2018-10-11T06:50:24Z</time>
      </trkpt>
      <trkpt lat="42.44934" lon="2.60959">
        <ele>328</ele>
        <time>2018-10-11T06:50:25Z</time>
      </trkpt>
      <trkpt lat="42.44938" lon="2.60932">
        <ele>328</ele>
        <time>2018-10-11T06:50:27Z</time>
      </trkpt>
      <trkpt lat="42.44943" lon="2.6092">
        <ele>329</ele>
        <time>2018-10-11T06:50:28Z</time>
      </trkpt>
      <trkpt lat="42.44963" lon="2.60884">
        <ele>334</ele>
        <time>2018-10-11T06:50:31Z</time>
      </trkpt>
      <trkpt lat="42.44983" lon="2.60831">
        <ele>335</ele>
        <time>2018-10-11T06:50:35Z</time>
      </trkpt>
      <trkpt lat="42.4499" lon="2.60819">
        <ele>335</ele>
        <time>2018-10-11T06:50:36Z</time>
      </trkpt>
      <trkpt lat="42.45005" lon="2.60795">
        <ele>349</ele>
        <time>2018-10-11T06:50:38Z</time>
      </trkpt>
      <trkpt lat="42.45015" lon="2.60754">
        <ele>345</ele>
        <time>2018-10-11T06:50:41Z</time>
      </trkpt>
      <trkpt lat="42.45015" lon="2.60721">
        <ele>347</ele>
        <time>2018-10-11T06:50:43Z</time>
      </trkpt>
      <trkpt lat="42.45031" lon="2.60656">
        <ele>346</ele>
        <time>2018-10-11T06:50:47Z</time>
      </trkpt>
      <trkpt lat="42.45053" lon="2.60572">
        <ele>352</ele>
        <time>2018-10-11T06:50:52Z</time>
      </trkpt>
      <trkpt lat="42.4504" lon="2.60518">
        <ele>350</ele>
        <time>2018-10-11T06:50:55Z</time>
      </trkpt>
      <trkpt lat="42.45021" lon="2.60488">
        <ele>351</ele>
        <time>2018-10-11T06:50:57Z</time>
      </trkpt>
      <trkpt lat="42.44999" lon="2.60463">
        <ele>338</ele>
        <time>2018-10-11T06:50:59Z</time>
      </trkpt>
      <trkpt lat="42.44946" lon="2.60427">
        <ele>339</ele>
        <time>2018-10-11T06:51:03Z</time>
      </trkpt>
      <trkpt lat="42.44887" lon="2.60406">
        <ele>351</ele>
        <time>2018-10-11T06:51:07Z</time>
      </trkpt>
      <trkpt lat="42.44812" lon="2.60409">
        <ele>356</ele>
        <time>2018-10-11T06:51:12Z</time>
      </trkpt>
      <trkpt lat="42.44741" lon="2.60423">
        <ele>350</ele>
        <time>2018-10-11T06:51:17Z</time>
      </trkpt>
      <trkpt lat="42.44687" lon="2.6042">
        <ele>351</ele>
        <time>2018-10-11T06:51:21Z</time>
      </trkpt>
      <trkpt lat="42.44674" lon="2.60419">
        <ele>356</ele>
        <time>2018-10-11T06:51:22Z</time>
      </trkpt>
      <trkpt lat="42.44605" lon="2.60435">
        <ele>359</ele>
        <time>2018-10-11T06:51:27Z</time>
      </trkpt>
      <trkpt lat="42.44579" lon="2.60449">
        <ele>365</ele>
        <time>2018-10-11T06:51:29Z</time>
      </trkpt>
      <trkpt lat="42.44558" lon="2.60474">
        <ele>360</ele>
        <time>2018-10-11T06:51:31Z</time>
      </trkpt>
      <trkpt lat="42.44542" lon="2.60504">
        <ele>345</ele>
        <time>2018-10-11T06:51:33Z</time>
      </trkpt>
      <trkpt lat="42.44497" lon="2.60543">
        <ele>346</ele>
        <time>2018-10-11T06:51:37Z</time>
      </trkpt>
      <trkpt lat="42.44456" lon="2.60538">
        <ele>345</ele>
        <time>2018-10-11T06:51:40Z</time>
      </trkpt>
      <trkpt lat="42.44421" lon="2.60501">
        <ele>343</ele>
        <time>2018-10-11T06:51:43Z</time>
      </trkpt>
      <trkpt lat="42.44388" lon="2.60436">
        <ele>348</ele>
        <time>2018-10-11T06:51:47Z</time>
      </trkpt>
      <trkpt lat="42.44382" lon="2.60418">
        <ele>348</ele>
        <time>2018-10-11T06:51:48Z</time>
      </trkpt>
      <trkpt lat="42.44351" lon="2.60334">
        <ele>352</ele>
        <time>2018-10-11T06:51:53Z</time>
      </trkpt>
      <trkpt lat="42.4431" lon="2.60284">
        <ele>349</ele>
        <time>2018-10-11T06:51:57Z</time>
      </trkpt>
      <trkpt lat="42.4424" lon="2.60225">
        <ele>341</ele>
        <time>2018-10-11T06:52:03Z</time>
      </trkpt>
      <trkpt lat="42.44185" lon="2.60169">
        <ele>340</ele>
        <time>2018-10-11T06:52:08Z</time>
      </trkpt>
      <trkpt lat="42.44129" lon="2.60079">
        <ele>342</ele>
        <time>2018-10-11T06:52:14Z</time>
      </trkpt>
      <trkpt lat="42.44094" lon="2.5999">
        <ele>343</ele>
        <time>2018-10-11T06:52:19Z</time>
      </trkpt>
      <trkpt lat="42.44049" lon="2.59863">
        <ele>346</ele>
        <time>2018-10-11T06:52:26Z</time>
      </trkpt>
      <trkpt lat="42.44002" lon="2.59738">
        <ele>352</ele>
        <time>2018-10-11T06:52:33Z</time>
      </trkpt>
      <trkpt lat="42.43991" lon="2.59681">
        <ele>348</ele>
        <time>2018-10-11T06:52:36Z</time>
      </trkpt>
      <trkpt lat="42.43971" lon="2.59588">
        <ele>350</ele>
        <time>2018-10-11T06:52:41Z</time>
      </trkpt>
      <trkpt lat="42.43936" lon="2.59468">
        <ele>355</ele>
        <time>2018-10-11T06:52:48Z</time>
      </trkpt>
      <trkpt lat="42.43929" lon="2.59416">
        <ele>360</ele>
        <time>2018-10-11T06:52:51Z</time>
      </trkpt>
      <trkpt lat="42.43908" lon="2.59356">
        <ele>362</ele>
        <time>2018-10-11T06:52:55Z</time>
      </trkpt>
      <trkpt lat="42.43898" lon="2.59345">
        <ele>362</ele>
        <time>2018-10-11T06:52:56Z</time>
      </trkpt>
      <trkpt lat="42.43866" lon="2.59326">
        <ele>368</ele>
        <time>2018-10-11T06:52:59Z</time>
      </trkpt>
      <trkpt lat="42.43854" lon="2.59324">
        <ele>366</ele>
        <time>2018-10-11T06:53:00Z</time>
      </trkpt>
      <trkpt lat="42.43791" lon="2.59316">
        <ele>363</ele>
        <time>2018-10-11T06:53:05Z</time>
      </trkpt>
      <trkpt lat="42.43778" lon="2.59317">
        <ele>363</ele>
        <time>2018-10-11T06:53:06Z</time>
      </trkpt>
      <trkpt lat="42.43729" lon="2.59332">
        <ele>364</ele>
        <time>2018-10-11T06:53:10Z</time>
      </trkpt>
      <trkpt lat="42.43613" lon="2.59392">
        <ele>365</ele>
        <time>2018-10-11T06:53:20Z</time>
      </trkpt>
      <trkpt lat="42.43593" lon="2.59402">
        <ele>365</ele>
        <time>2018-10-11T06:53:22Z</time>
      </trkpt>
      <trkpt lat="42.43573" lon="2.59429">
        <ele>365</ele>
        <time>2018-10-11T06:53:26Z</time>
      </trkpt>
      <trkpt lat="42.43566" lon="2.59444">
        <ele>365</ele>
        <time>2018-10-11T06:53:29Z</time>
      </trkpt>
      <trkpt lat="42.43561" lon="2.59449">
        <ele>365</ele>
        <time>2018-10-11T06:53:34Z</time>
      </trkpt>
      <trkpt lat="42.43563" lon="2.59452">
        <ele>365</ele>
        <time>2018-10-11T06:53:54Z</time>
      </trkpt>
      <trkpt lat="42.43562" lon="2.59452">
        <ele>365</ele>
        <time>2018-10-11T06:53:55Z</time>
      </trkpt>
      <trkpt lat="42.43555" lon="2.5946">
        <ele>365</ele>
        <time>2018-10-11T06:53:58Z</time>
      </trkpt>
      <trkpt lat="42.43541" lon="2.59476">
        <ele>365</ele>
        <time>2018-10-11T06:54:01Z</time>
      </trkpt>
      <trkpt lat="42.43535" lon="2.59482">
        <ele>365</ele>
        <time>2018-10-11T06:54:02Z</time>
      </trkpt>
      <trkpt lat="42.43497" lon="2.59523">
        <ele>363</ele>
        <time>2018-10-11T06:54:07Z</time>
      </trkpt>
      <trkpt lat="42.43482" lon="2.59541">
        <ele>361</ele>
        <time>2018-10-11T06:54:09Z</time>
      </trkpt>
      <trkpt lat="42.43475" lon="2.59562">
        <ele>360</ele>
        <time>2018-10-11T06:54:11Z</time>
      </trkpt>
      <trkpt lat="42.43477" lon="2.59601">
        <ele>363</ele>
        <time>2018-10-11T06:54:14Z</time>
      </trkpt>
      <trkpt lat="42.43479" lon="2.59628">
        <ele>366</ele>
        <time>2018-10-11T06:54:16Z</time>
      </trkpt>
      <trkpt lat="42.43493" lon="2.59651">
        <ele>369</ele>
        <time>2018-10-11T06:54:19Z</time>
      </trkpt>
      <trkpt lat="42.43511" lon="2.59647">
        <ele>367</ele>
        <time>2018-10-11T06:54:21Z</time>
      </trkpt>
      <trkpt lat="42.43555" lon="2.59637">
        <ele>365</ele>
        <time>2018-10-11T06:54:25Z</time>
      </trkpt>
      <trkpt lat="42.436" lon="2.59612">
        <ele>361</ele>
        <time>2018-10-11T06:54:29Z</time>
      </trkpt>
      <trkpt lat="42.4363" lon="2.59612">
        <ele>361</ele>
        <time>2018-10-11T06:54:33Z</time>
      </trkpt>
      <trkpt lat="42.43634" lon="2.59641">
        <ele>364</ele>
        <time>2018-10-11T06:54:36Z</time>
      </trkpt>
      <trkpt lat="42.4362" lon="2.59656">
        <ele>365</ele>
        <time>2018-10-11T06:54:38Z</time>
      </trkpt>
      <trkpt lat="42.43579" lon="2.59673">
        <ele>373</ele>
        <time>2018-10-11T06:54:42Z</time>
      </trkpt>
      <trkpt lat="42.43567" lon="2.59679">
        <ele>375</ele>
        <time>2018-10-11T06:54:43Z</time>
      </trkpt>
      <trkpt lat="42.43556" lon="2.59683">
        <ele>377</ele>
        <time>2018-10-11T06:54:44Z</time>
      </trkpt>
      <trkpt lat="42.43505" lon="2.59686">
        <ele>378</ele>
        <time>2018-10-11T06:54:48Z</time>
      </trkpt>
      <trkpt lat="42.43492" lon="2.59687">
        <ele>384</ele>
        <time>2018-10-11T06:54:49Z</time>
      </trkpt>
      <trkpt lat="42.43452" lon="2.5969">
        <ele>388</ele>
        <time>2018-10-11T06:54:52Z</time>
      </trkpt>
      <trkpt lat="42.4344" lon="2.59687">
        <ele>388</ele>
        <time>2018-10-11T06:54:53Z</time>
      </trkpt>
      <trkpt lat="42.43394" lon="2.59697">
        <ele>395</ele>
        <time>2018-10-11T06:54:57Z</time>
      </trkpt>
      <trkpt lat="42.43382" lon="2.59701">
        <ele>397</ele>
        <time>2018-10-11T06:54:58Z</time>
      </trkpt>
      <trkpt lat="42.4337" lon="2.59702">
        <ele>397</ele>
        <time>2018-10-11T06:54:59Z</time>
      </trkpt>
      <trkpt lat="42.43334" lon="2.59706">
        <ele>398</ele>
        <time>2018-10-11T06:55:02Z</time>
      </trkpt>
      <trkpt lat="42.43298" lon="2.59721">
        <ele>415</ele>
        <time>2018-10-11T06:55:06Z</time>
      </trkpt>
      <trkpt lat="42.43284" lon="2.59712">
        <ele>416</ele>
        <time>2018-10-11T06:55:08Z</time>
      </trkpt>
      <trkpt lat="42.43282" lon="2.597">
        <ele>414</ele>
        <time>2018-10-11T06:55:09Z</time>
      </trkpt>
      <trkpt lat="42.43269" lon="2.5965">
        <ele>398</ele>
        <time>2018-10-11T06:55:13Z</time>
      </trkpt>
      <trkpt lat="42.43239" lon="2.59633">
        <ele>421</ele>
        <time>2018-10-11T06:55:16Z</time>
      </trkpt>
      <trkpt lat="42.43231" lon="2.59626">
        <ele>421</ele>
        <time>2018-10-11T06:55:17Z</time>
      </trkpt>
      <trkpt lat="42.43223" lon="2.59604">
        <ele>419</ele>
        <time>2018-10-11T06:55:19Z</time>
      </trkpt>
      <trkpt lat="42.43215" lon="2.5958">
        <ele>410</ele>
        <time>2018-10-11T06:55:21Z</time>
      </trkpt>
      <trkpt lat="42.43195" lon="2.59545">
        <ele>414</ele>
        <time>2018-10-11T06:55:24Z</time>
      </trkpt>
      <trkpt lat="42.43183" lon="2.59517">
        <ele>416</ele>
        <time>2018-10-11T06:55:26Z</time>
      </trkpt>
      <trkpt lat="42.43158" lon="2.59482">
        <ele>433</ele>
        <time>2018-10-11T06:55:29Z</time>
      </trkpt>
      <trkpt lat="42.43145" lon="2.59446">
        <ele>431</ele>
        <time>2018-10-11T06:55:32Z</time>
      </trkpt>
      <trkpt lat="42.43121" lon="2.59394">
        <ele>424</ele>
        <time>2018-10-11T06:55:36Z</time>
      </trkpt>
      <trkpt lat="42.43107" lon="2.59366">
        <ele>424</ele>
        <time>2018-10-11T06:55:38Z</time>
      </trkpt>
      <trkpt lat="42.43085" lon="2.59332">
        <ele>431</ele>
        <time>2018-10-11T06:55:41Z</time>
      </trkpt>
      <trkpt lat="42.43066" lon="2.59295">
        <ele>418</ele>
        <time>2018-10-11T06:55:44Z</time>
      </trkpt>
      <trkpt lat="42.43061" lon="2.59283">
        <ele>415</ele>
        <time>2018-10-11T06:55:45Z</time>
      </trkpt>
      <trkpt lat="42.43043" lon="2.59264">
        <ele>412</ele>
        <time>2018-10-11T06:55:48Z</time>
      </trkpt>
      <trkpt lat="42.43023" lon="2.59284">
        <ele>413</ele>
        <time>2018-10-11T06:55:51Z</time>
      </trkpt>
      <trkpt lat="42.43017" lon="2.59296">
        <ele>414</ele>
        <time>2018-10-11T06:55:52Z</time>
      </trkpt>
      <trkpt lat="42.43" lon="2.59337">
        <ele>423</ele>
        <time>2018-10-11T06:55:55Z</time>
      </trkpt>
      <trkpt lat="42.42988" lon="2.59387">
        <ele>429</ele>
        <time>2018-10-11T06:55:58Z</time>
      </trkpt>
      <trkpt lat="42.42963" lon="2.59437">
        <ele>455</ele>
        <time>2018-10-11T06:56:02Z</time>
      </trkpt>
      <trkpt lat="42.42952" lon="2.59445">
        <ele>455</ele>
        <time>2018-10-11T06:56:04Z</time>
      </trkpt>
      <trkpt lat="42.42945" lon="2.59449">
        <ele>454</ele>
        <time>2018-10-11T06:56:08Z</time>
      </trkpt>
      <trkpt lat="42.42945" lon="2.59449">
        <ele>454</ele>
        <time>2018-10-11T06:56:10Z</time>
      </trkpt>
      <trkpt lat="42.42935" lon="2.59458">
        <ele>456</ele>
        <time>2018-10-11T06:56:14Z</time>
      </trkpt>
      <trkpt lat="42.42921" lon="2.59471">
        <ele>459</ele>
        <time>2018-10-11T06:56:17Z</time>
      </trkpt>
      <trkpt lat="42.42899" lon="2.59486">
        <ele>456</ele>
        <time>2018-10-11T06:56:20Z</time>
      </trkpt>
      <trkpt lat="42.42874" lon="2.59518">
        <ele>481</ele>
        <time>2018-10-11T06:56:24Z</time>
      </trkpt>
      <trkpt lat="42.4286" lon="2.5953">
        <ele>483</ele>
        <time>2018-10-11T06:56:27Z</time>
      </trkpt>
      <trkpt lat="42.42848" lon="2.59518">
        <ele>478</ele>
        <time>2018-10-11T06:56:30Z</time>
      </trkpt>
      <trkpt lat="42.42845" lon="2.59509">
        <ele>475</ele>
        <time>2018-10-11T06:56:31Z</time>
      </trkpt>
      <trkpt lat="42.42825" lon="2.59465">
        <ele>471</ele>
        <time>2018-10-11T06:56:35Z</time>
      </trkpt>
      <trkpt lat="42.42818" lon="2.59456">
        <ele>470</ele>
        <time>2018-10-11T06:56:36Z</time>
      </trkpt>
      <trkpt lat="42.42793" lon="2.59419">
        <ele>472</ele>
        <time>2018-10-11T06:56:40Z</time>
      </trkpt>
      <trkpt lat="42.42785" lon="2.59409">
        <ele>457</ele>
        <time>2018-10-11T06:56:41Z</time>
      </trkpt>
      <trkpt lat="42.42762" lon="2.59388">
        <ele>461</ele>
        <time>2018-10-11T06:56:44Z</time>
      </trkpt>
      <trkpt lat="42.4275" lon="2.59371">
        <ele>458</ele>
        <time>2018-10-11T06:56:46Z</time>
      </trkpt>
      <trkpt lat="42.42734" lon="2.59325">
        <ele>473</ele>
        <time>2018-10-11T06:56:50Z</time>
      </trkpt>
      <trkpt lat="42.42728" lon="2.59273">
        <ele>472</ele>
        <time>2018-10-11T06:56:54Z</time>
      </trkpt>
      <trkpt lat="42.42723" lon="2.59222">
        <ele>458</ele>
        <time>2018-10-11T06:56:58Z</time>
      </trkpt>
      <trkpt lat="42.42699" lon="2.59196">
        <ele>459</ele>
        <time>2018-10-11T06:57:01Z</time>
      </trkpt>
      <trkpt lat="42.42668" lon="2.59181">
        <ele>459</ele>
        <time>2018-10-11T06:57:04Z</time>
      </trkpt>
      <trkpt lat="42.42657" lon="2.5918">
        <ele>468</ele>
        <time>2018-10-11T06:57:05Z</time>
      </trkpt>
      <trkpt lat="42.42598" lon="2.59179">
        <ele>472</ele>
        <time>2018-10-11T06:57:10Z</time>
      </trkpt>
      <trkpt lat="42.42587" lon="2.5918">
        <ele>471</ele>
        <time>2018-10-11T06:57:11Z</time>
      </trkpt>
      <trkpt lat="42.42545" lon="2.59192">
        <ele>484</ele>
        <time>2018-10-11T06:57:15Z</time>
      </trkpt>
      <trkpt lat="42.42523" lon="2.59192">
        <ele>484</ele>
        <time>2018-10-11T06:57:17Z</time>
      </trkpt>
      <trkpt lat="42.42489" lon="2.59192">
        <ele>494</ele>
        <time>2018-10-11T06:57:20Z</time>
      </trkpt>
      <trkpt lat="42.42478" lon="2.59192">
        <ele>497</ele>
        <time>2018-10-11T06:57:21Z</time>
      </trkpt>
      <trkpt lat="42.4243" lon="2.59163">
        <ele>485</ele>
        <time>2018-10-11T06:57:26Z</time>
      </trkpt>
      <trkpt lat="42.424" lon="2.59142">
        <ele>498</ele>
        <time>2018-10-11T06:57:29Z</time>
      </trkpt>
      <trkpt lat="42.42355" lon="2.59101">
        <ele>497</ele>
        <time>2018-10-11T06:57:34Z</time>
      </trkpt>
      <trkpt lat="42.42318" lon="2.59078">
        <ele>498</ele>
        <time>2018-10-11T06:57:38Z</time>
      </trkpt>
      <trkpt lat="42.4228" lon="2.59036">
        <ele>500</ele>
        <time>2018-10-11T06:57:43Z</time>
      </trkpt>
      <trkpt lat="42.42266" lon="2.59019">
        <ele>500</ele>
        <time>2018-10-11T06:57:45Z</time>
      </trkpt>
      <trkpt lat="42.42249" lon="2.58992">
        <ele>500</ele>
        <time>2018-10-11T06:57:48Z</time>
      </trkpt>
      <trkpt lat="42.42217" lon="2.58964">
        <ele>494</ele>
        <time>2018-10-11T06:57:53Z</time>
      </trkpt>
      <trkpt lat="42.42202" lon="2.5896">
        <ele>493</ele>
        <time>2018-10-11T06:57:55Z</time>
      </trkpt>
      <trkpt lat="42.42186" lon="2.58959">
        <ele>493</ele>
        <time>2018-10-11T06:57:57Z</time>
      </trkpt>
      <trkpt lat="42.42154" lon="2.58973">
        <ele>484</ele>
        <time>2018-10-11T06:58:01Z</time>
      </trkpt>
      <trkpt lat="42.42142" lon="2.58992">
        <ele>485</ele>
        <time>2018-10-11T06:58:03Z</time>
      </trkpt>
      <trkpt lat="42.4213" lon="2.59015">
        <ele>491</ele>
        <time>2018-10-11T06:58:05Z</time>
      </trkpt>
      <trkpt lat="42.4212" lon="2.59065">
        <ele>492</ele>
        <time>2018-10-11T06:58:09Z</time>
      </trkpt>
      <trkpt lat="42.42122" lon="2.5909">
        <ele>504</ele>
        <time>2018-10-11T06:58:11Z</time>
      </trkpt>
      <trkpt lat="42.42116" lon="2.59159">
        <ele>509</ele>
        <time>2018-10-11T06:58:18Z</time>
      </trkpt>
      <trkpt lat="42.42103" lon="2.59181">
        <ele>517</ele>
        <time>2018-10-11T06:58:21Z</time>
      </trkpt>
      <trkpt lat="42.42093" lon="2.5921">
        <ele>522</ele>
        <time>2018-10-11T06:58:24Z</time>
      </trkpt>
      <trkpt lat="42.42093" lon="2.59221">
        <ele>524</ele>
        <time>2018-10-11T06:58:25Z</time>
      </trkpt>
      <trkpt lat="42.4208" lon="2.59266">
        <ele>521</ele>
        <time>2018-10-11T06:58:30Z</time>
      </trkpt>
      <trkpt lat="42.42065" lon="2.59278">
        <ele>520</ele>
        <time>2018-10-11T06:58:32Z</time>
      </trkpt>
      <trkpt lat="42.42049" lon="2.59286">
        <ele>518</ele>
        <time>2018-10-11T06:58:34Z</time>
      </trkpt>
      <trkpt lat="42.42015" lon="2.59306">
        <ele>512</ele>
        <time>2018-10-11T06:58:39Z</time>
      </trkpt>
      <trkpt lat="42.4201" lon="2.59332">
        <ele>508</ele>
        <time>2018-10-11T06:58:42Z</time>
      </trkpt>
      <trkpt lat="42.42011" lon="2.59341">
        <ele>515</ele>
        <time>2018-10-11T06:58:43Z</time>
      </trkpt>
      <trkpt lat="42.42015" lon="2.5937">
        <ele>526</ele>
        <time>2018-10-11T06:58:46Z</time>
      </trkpt>
      <trkpt lat="42.42015" lon="2.5938">
        <ele>528</ele>
        <time>2018-10-11T06:58:47Z</time>
      </trkpt>
      <trkpt lat="42.42011" lon="2.59421">
        <ele>532</ele>
        <time>2018-10-11T06:58:51Z</time>
      </trkpt>
      <trkpt lat="42.41997" lon="2.5947">
        <ele>523</ele>
        <time>2018-10-11T06:58:56Z</time>
      </trkpt>
      <trkpt lat="42.41995" lon="2.59497">
        <ele>533</ele>
        <time>2018-10-11T06:58:59Z</time>
      </trkpt>
      <trkpt lat="42.41995" lon="2.59538">
        <ele>544</ele>
        <time>2018-10-11T06:59:04Z</time>
      </trkpt>
      <trkpt lat="42.41979" lon="2.59552">
        <ele>546</ele>
        <time>2018-10-11T06:59:07Z</time>
      </trkpt>
      <trkpt lat="42.41972" lon="2.59554">
        <ele>545</ele>
        <time>2018-10-11T06:59:08Z</time>
      </trkpt>
      <trkpt lat="42.41964" lon="2.59555">
        <ele>544</ele>
        <time>2018-10-11T06:59:09Z</time>
      </trkpt>
      <trkpt lat="42.4194" lon="2.59555">
        <ele>542</ele>
        <time>2018-10-11T06:59:12Z</time>
      </trkpt>
      <trkpt lat="42.41891" lon="2.59575">
        <ele>531</ele>
        <time>2018-10-11T06:59:18Z</time>
      </trkpt>
      <trkpt lat="42.41875" lon="2.59589">
        <ele>539</ele>
        <time>2018-10-11T06:59:20Z</time>
      </trkpt>
      <trkpt lat="42.41855" lon="2.59613">
        <ele>537</ele>
        <time>2018-10-11T06:59:23Z</time>
      </trkpt>
      <trkpt lat="42.41845" lon="2.59631">
        <ele>537</ele>
        <time>2018-10-11T06:59:25Z</time>
      </trkpt>
      <trkpt lat="42.41838" lon="2.59673">
        <ele>535</ele>
        <time>2018-10-11T06:59:30Z</time>
      </trkpt>
      <trkpt lat="42.41847" lon="2.5969">
        <ele>542</ele>
        <time>2018-10-11T06:59:32Z</time>
      </trkpt>
      <trkpt lat="42.41869" lon="2.59757">
        <ele>551</ele>
        <time>2018-10-11T06:59:38Z</time>
      </trkpt>
      <trkpt lat="42.41866" lon="2.59795">
        <ele>553</ele>
        <time>2018-10-11T06:59:41Z</time>
      </trkpt>
      <trkpt lat="42.41842" lon="2.59886">
        <ele>561</ele>
        <time>2018-10-11T06:59:48Z</time>
      </trkpt>
      <trkpt lat="42.41832" lon="2.59912">
        <ele>552</ele>
        <time>2018-10-11T06:59:50Z</time>
      </trkpt>
      <trkpt lat="42.4182" lon="2.59937">
        <ele>556</ele>
        <time>2018-10-11T06:59:52Z</time>
      </trkpt>
      <trkpt lat="42.41767" lon="2.60005">
        <ele>561</ele>
        <time>2018-10-11T06:59:59Z</time>
      </trkpt>
      <trkpt lat="42.41736" lon="2.6005">
        <ele>562</ele>
        <time>2018-10-11T07:00:03Z</time>
      </trkpt>
      <trkpt lat="42.41695" lon="2.60083">
        <ele>563</ele>
        <time>2018-10-11T07:00:08Z</time>
      </trkpt>
      <trkpt lat="42.41673" lon="2.60099">
        <ele>571</ele>
        <time>2018-10-11T07:00:12Z</time>
      </trkpt>
      <trkpt lat="42.41651" lon="2.601">
        <ele>575</ele>
        <time>2018-10-11T07:00:17Z</time>
      </trkpt>
      <trkpt lat="42.41642" lon="2.60073">
        <ele>571</ele>
        <time>2018-10-11T07:00:21Z</time>
      </trkpt>
      <trkpt lat="42.41651" lon="2.6005">
        <ele>571</ele>
        <time>2018-10-11T07:00:24Z</time>
      </trkpt>
      <trkpt lat="42.41657" lon="2.60043">
        <ele>570</ele>
        <time>2018-10-11T07:00:25Z</time>
      </trkpt>
      <trkpt lat="42.41685" lon="2.60004">
        <ele>561</ele>
        <time>2018-10-11T07:00:30Z</time>
      </trkpt>
      <trkpt lat="42.41705" lon="2.59947">
        <ele>552</ele>
        <time>2018-10-11T07:00:35Z</time>
      </trkpt>
      <trkpt lat="42.41705" lon="2.59917">
        <ele>551</ele>
        <time>2018-10-11T07:00:38Z</time>
      </trkpt>
      <trkpt lat="42.41688" lon="2.59902">
        <ele>545</ele>
        <time>2018-10-11T07:00:41Z</time>
      </trkpt>
      <trkpt lat="42.41672" lon="2.59902">
        <ele>548</ele>
        <time>2018-10-11T07:00:43Z</time>
      </trkpt>
      <trkpt lat="42.41596" lon="2.59915">
        <ele>556</ele>
        <time>2018-10-11T07:00:51Z</time>
      </trkpt>
      <trkpt lat="42.41551" lon="2.59928">
        <ele>571</ele>
        <time>2018-10-11T07:00:56Z</time>
      </trkpt>
      <trkpt lat="42.41523" lon="2.59935">
        <ele>572</ele>
        <time>2018-10-11T07:00:59Z</time>
      </trkpt>
      <trkpt lat="42.4148" lon="2.59937">
        <ele>578</ele>
        <time>2018-10-11T07:01:04Z</time>
      </trkpt>
      <trkpt lat="42.41451" lon="2.59926">
        <ele>581</ele>
        <time>2018-10-11T07:01:08Z</time>
      </trkpt>
      <trkpt lat="42.41437" lon="2.59916">
        <ele>567</ele>
        <time>2018-10-11T07:01:10Z</time>
      </trkpt>
      <trkpt lat="42.41386" lon="2.59899">
        <ele>575</ele>
        <time>2018-10-11T07:01:16Z</time>
      </trkpt>
      <trkpt lat="42.41355" lon="2.59881">
        <ele>575</ele>
        <time>2018-10-11T07:01:20Z</time>
      </trkpt>
      <trkpt lat="42.41323" lon="2.59853">
        <ele>574</ele>
        <time>2018-10-11T07:01:25Z</time>
      </trkpt>
      <trkpt lat="42.41301" lon="2.59859">
        <ele>577</ele>
        <time>2018-10-11T07:01:28Z</time>
      </trkpt>
      <trkpt lat="42.41275" lon="2.59873">
        <ele>579</ele>
        <time>2018-10-11T07:01:31Z</time>
      </trkpt>
      <trkpt lat="42.41234" lon="2.59882">
        <ele>578</ele>
        <time>2018-10-11T07:01:36Z</time>
      </trkpt>
      <trkpt lat="42.41227" lon="2.59882">
        <ele>577</ele>
        <time>2018-10-11T07:01:37Z</time>
      </trkpt>
      <trkpt lat="42.41193" lon="2.59899">
        <ele>576</ele>
        <time>2018-10-11T07:01:42Z</time>
      </trkpt>
      <trkpt lat="42.41187" lon="2.59905">
        <ele>576</ele>
        <time>2018-10-11T07:01:43Z</time>
      </trkpt>
      <trkpt lat="42.41167" lon="2.59951">
        <ele>585</ele>
        <time>2018-10-11T07:01:49Z</time>
      </trkpt>
      <trkpt lat="42.41164" lon="2.59966">
        <ele>584</ele>
        <time>2018-10-11T07:01:51Z</time>
      </trkpt>
      <trkpt lat="42.41157" lon="2.59984">
        <ele>586</ele>
        <time>2018-10-11T07:01:54Z</time>
      </trkpt>
      <trkpt lat="42.41137" lon="2.59992">
        <ele>586</ele>
        <time>2018-10-11T07:01:58Z</time>
      </trkpt>
      <trkpt lat="42.41122" lon="2.59981">
        <ele>586</ele>
        <time>2018-10-11T07:02:01Z</time>
      </trkpt>
      <trkpt lat="42.41119" lon="2.59973">
        <ele>586</ele>
        <time>2018-10-11T07:02:02Z</time>
      </trkpt>
      <trkpt lat="42.41097" lon="2.59942">
        <ele>584</ele>
        <time>2018-10-11T07:02:07Z</time>
      </trkpt>
      <trkpt lat="42.41084" lon="2.59941">
        <ele>584</ele>
        <time>2018-10-11T07:02:09Z</time>
      </trkpt>
      <trkpt lat="42.41055" lon="2.59936">
        <ele>597</ele>
        <time>2018-10-11T07:02:13Z</time>
      </trkpt>
      <trkpt lat="42.41032" lon="2.59909">
        <ele>597</ele>
        <time>2018-10-11T07:02:18Z</time>
      </trkpt>
      <trkpt lat="42.41032" lon="2.59879">
        <ele>596</ele>
        <time>2018-10-11T07:02:22Z</time>
      </trkpt>
      <trkpt lat="42.41034" lon="2.59862">
        <ele>595</ele>
        <time>2018-10-11T07:02:24Z</time>
      </trkpt>
      <trkpt lat="42.41033" lon="2.59842">
        <ele>596</ele>
        <time>2018-10-11T07:02:26Z</time>
      </trkpt>
      <trkpt lat="42.41028" lon="2.59819">
        <ele>596</ele>
        <time>2018-10-11T07:02:28Z</time>
      </trkpt>
      <trkpt lat="42.41025" lon="2.5977">
        <ele>597</ele>
        <time>2018-10-11T07:02:32Z</time>
      </trkpt>
      <trkpt lat="42.41043" lon="2.59687">
        <ele>594</ele>
        <time>2018-10-11T07:02:39Z</time>
      </trkpt>
      <trkpt lat="42.41053" lon="2.59651">
        <ele>589</ele>
        <time>2018-10-11T07:02:42Z</time>
      </trkpt>
      <trkpt lat="42.41051" lon="2.59596">
        <ele>588</ele>
        <time>2018-10-11T07:02:47Z</time>
      </trkpt>
      <trkpt lat="42.41033" lon="2.59563">
        <ele>589</ele>
        <time>2018-10-11T07:02:51Z</time>
      </trkpt>
      <trkpt lat="42.41013" lon="2.59552">
        <ele>591</ele>
        <time>2018-10-11T07:02:54Z</time>
      </trkpt>
      <trkpt lat="42.40991" lon="2.59549">
        <ele>597</ele>
        <time>2018-10-11T07:02:57Z</time>
      </trkpt>
      <trkpt lat="42.40953" lon="2.59566">
        <ele>596</ele>
        <time>2018-10-11T07:03:02Z</time>
      </trkpt>
      <trkpt lat="42.40944" lon="2.59571">
        <ele>596</ele>
        <time>2018-10-11T07:03:03Z</time>
      </trkpt>
      <trkpt lat="42.40927" lon="2.59581">
        <ele>596</ele>
        <time>2018-10-11T07:03:05Z</time>
      </trkpt>
      <trkpt lat="42.40898" lon="2.59616">
        <ele>603</ele>
        <time>2018-10-11T07:03:10Z</time>
      </trkpt>
      <trkpt lat="42.40892" lon="2.59632">
        <ele>605</ele>
        <time>2018-10-11T07:03:12Z</time>
      </trkpt>
      <trkpt lat="42.40876" lon="2.59708">
        <ele>610</ele>
        <time>2018-10-11T07:03:19Z</time>
      </trkpt>
      <trkpt lat="42.40871" lon="2.59732">
        <ele>610</ele>
        <time>2018-10-11T07:03:21Z</time>
      </trkpt>
      <trkpt lat="42.40848" lon="2.59784">
        <ele>612</ele>
        <time>2018-10-11T07:03:26Z</time>
      </trkpt>
      <trkpt lat="42.40806" lon="2.59831">
        <ele>608</ele>
        <time>2018-10-11T07:03:32Z</time>
      </trkpt>
      <trkpt lat="42.40791" lon="2.59842">
        <ele>610</ele>
        <time>2018-10-11T07:03:34Z</time>
      </trkpt>
      <trkpt lat="42.40772" lon="2.59862">
        <ele>610</ele>
        <time>2018-10-11T07:03:37Z</time>
      </trkpt>
      <trkpt lat="42.40746" lon="2.59874">
        <ele>604</ele>
        <time>2018-10-11T07:03:41Z</time>
      </trkpt>
      <trkpt lat="42.40714" lon="2.59897">
        <ele>604</ele>
        <time>2018-10-11T07:03:46Z</time>
      </trkpt>
      <trkpt lat="42.40701" lon="2.59914">
        <ele>604</ele>
        <time>2018-10-11T07:03:48Z</time>
      </trkpt>
      <trkpt lat="42.40647" lon="2.59956">
        <ele>608</ele>
        <time>2018-10-11T07:03:54Z</time>
      </trkpt>
      <trkpt lat="42.40602" lon="2.59965">
        <ele>608</ele>
        <time>2018-10-11T07:03:59Z</time>
      </trkpt>
      <trkpt lat="42.40594" lon="2.59963">
        <ele>607</ele>
        <time>2018-10-11T07:04:00Z</time>
      </trkpt>
      <trkpt lat="42.40551" lon="2.59967">
        <ele>604</ele>
        <time>2018-10-11T07:04:06Z</time>
      </trkpt>
      <trkpt lat="42.40541" lon="2.59977">
        <ele>605</ele>
        <time>2018-10-11T07:04:08Z</time>
      </trkpt>
      <trkpt lat="42.40518" lon="2.60003">
        <ele>617</ele>
        <time>2018-10-11T07:04:13Z</time>
      </trkpt>
      <trkpt lat="42.40484" lon="2.60012">
        <ele>616</ele>
        <time>2018-10-11T07:04:18Z</time>
      </trkpt>
      <trkpt lat="42.40476" lon="2.60008">
        <ele>616</ele>
        <time>2018-10-11T07:04:19Z</time>
      </trkpt>
      <trkpt lat="42.40434" lon="2.59987">
        <ele>607</ele>
        <time>2018-10-11T07:04:24Z</time>
      </trkpt>
      <trkpt lat="42.40383" lon="2.59977">
        <ele>606</ele>
        <time>2018-10-11T07:04:30Z</time>
      </trkpt>
      <trkpt lat="42.40342" lon="2.59982">
        <ele>608</ele>
        <time>2018-10-11T07:04:36Z</time>
      </trkpt>
      <trkpt lat="42.40316" lon="2.59985">
        <ele>609</ele>
        <time>2018-10-11T07:04:39Z</time>
      </trkpt>
      <trkpt lat="42.40245" lon="2.59996">
        <ele>615</ele>
        <time>2018-10-11T07:04:46Z</time>
      </trkpt>
      <trkpt lat="42.40207" lon="2.59981">
        <ele>614</ele>
        <time>2018-10-11T07:04:51Z</time>
      </trkpt>
      <trkpt lat="42.40194" lon="2.59963">
        <ele>614</ele>
        <time>2018-10-11T07:04:53Z</time>
      </trkpt>
      <trkpt lat="42.40162" lon="2.59881">
        <ele>616</ele>
        <time>2018-10-11T07:05:00Z</time>
      </trkpt>
      <trkpt lat="42.40159" lon="2.59868">
        <ele>615</ele>
        <time>2018-10-11T07:05:01Z</time>
      </trkpt>
      <trkpt lat="42.40139" lon="2.59824">
        <ele>610</ele>
        <time>2018-10-11T07:05:05Z</time>
      </trkpt>
      <trkpt lat="42.40082" lon="2.59748">
        <ele>613</ele>
        <time>2018-10-11T07:05:13Z</time>
      </trkpt>
      <trkpt lat="42.40076" lon="2.5974">
        <ele>612</ele>
        <time>2018-10-11T07:05:14Z</time>
      </trkpt>
      <trkpt lat="42.40046" lon="2.59726">
        <ele>611</ele>
        <time>2018-10-11T07:05:18Z</time>
      </trkpt>
      <trkpt lat="42.40031" lon="2.59733">
        <ele>611</ele>
        <time>2018-10-11T07:05:20Z</time>
      </trkpt>
      <trkpt lat="42.39998" lon="2.59759">
        <ele>618</ele>
        <time>2018-10-11T07:05:24Z</time>
      </trkpt>
      <trkpt lat="42.3996" lon="2.59775">
        <ele>620</ele>
        <time>2018-10-11T07:05:28Z</time>
      </trkpt>
      <trkpt lat="42.39919" lon="2.59811">
        <ele>621</ele>
        <time>2018-10-11T07:05:33Z</time>
      </trkpt>
      <trkpt lat="42.39905" lon="2.59835">
        <ele>621</ele>
        <time>2018-10-11T07:05:35Z</time>
      </trkpt>
      <trkpt lat="42.39872" lon="2.59893">
        <ele>622</ele>
        <time>2018-10-11T07:05:40Z</time>
      </trkpt>
      <trkpt lat="42.39836" lon="2.59926">
        <ele>624</ele>
        <time>2018-10-11T07:05:45Z</time>
      </trkpt>
      <trkpt lat="42.39785" lon="2.59952">
        <ele>622</ele>
        <time>2018-10-11T07:05:51Z</time>
      </trkpt>
      <trkpt lat="42.39754" lon="2.59961">
        <ele>622</ele>
        <time>2018-10-11T07:05:55Z</time>
      </trkpt>
      <trkpt lat="42.39727" lon="2.59985">
        <ele>624</ele>
        <time>2018-10-11T07:06:00Z</time>
      </trkpt>
      <trkpt lat="42.39698" lon="2.60001">
        <ele>633</ele>
        <time>2018-10-11T07:06:06Z</time>
      </trkpt>
      <trkpt lat="42.3968" lon="2.59978">
        <ele>626</ele>
        <time>2018-10-11T07:06:10Z</time>
      </trkpt>
      <trkpt lat="42.39674" lon="2.59971">
        <ele>625</ele>
        <time>2018-10-11T07:06:13Z</time>
      </trkpt>
      <trkpt lat="42.39673" lon="2.59971">
        <ele>625</ele>
        <time>2018-10-11T07:06:18Z</time>
      </trkpt>
      <trkpt lat="42.39662" lon="2.59965">
        <ele>628</ele>
        <time>2018-10-11T07:06:25Z</time>
      </trkpt>
      <trkpt lat="42.39649" lon="2.59962">
        <ele>628</ele>
        <time>2018-10-11T07:06:32Z</time>
      </trkpt>
      <trkpt lat="42.3963" lon="2.59963">
        <ele>629</ele>
        <time>2018-10-11T07:06:36Z</time>
      </trkpt>
      <trkpt lat="42.39598" lon="2.59955">
        <ele>629</ele>
        <time>2018-10-11T07:06:41Z</time>
      </trkpt>
      <trkpt lat="42.39546" lon="2.5994">
        <ele>630</ele>
        <time>2018-10-11T07:06:48Z</time>
      </trkpt>
      <trkpt lat="42.39514" lon="2.59942">
        <ele>630</ele>
        <time>2018-10-11T07:06:52Z</time>
      </trkpt>
      <trkpt lat="42.39464" lon="2.59936">
        <ele>628</ele>
        <time>2018-10-11T07:06:58Z</time>
      </trkpt>
      <trkpt lat="42.39448" lon="2.59928">
        <ele>627</ele>
        <time>2018-10-11T07:07:00Z</time>
      </trkpt>
      <trkpt lat="42.39414" lon="2.59932">
        <ele>623</ele>
        <time>2018-10-11T07:07:05Z</time>
      </trkpt>
      <trkpt lat="42.39395" lon="2.59953">
        <ele>624</ele>
        <time>2018-10-11T07:07:08Z</time>
      </trkpt>
      <trkpt lat="42.39372" lon="2.60018">
        <ele>632</ele>
        <time>2018-10-11T07:07:14Z</time>
      </trkpt>
      <trkpt lat="42.39347" lon="2.60083">
        <ele>632</ele>
        <time>2018-10-11T07:07:20Z</time>
      </trkpt>
      <trkpt lat="42.39313" lon="2.6012">
        <ele>637</ele>
        <time>2018-10-11T07:07:25Z</time>
      </trkpt>
      <trkpt lat="42.39282" lon="2.60124">
        <ele>638</ele>
        <time>2018-10-11T07:07:29Z</time>
      </trkpt>
      <trkpt lat="42.39275" lon="2.60123">
        <ele>637</ele>
        <time>2018-10-11T07:07:30Z</time>
      </trkpt>
      <trkpt lat="42.39245" lon="2.60103">
        <ele>630</ele>
        <time>2018-10-11T07:07:35Z</time>
      </trkpt>
      <trkpt lat="42.39217" lon="2.60092">
        <ele>629</ele>
        <time>2018-10-11T07:07:40Z</time>
      </trkpt>
      <trkpt lat="42.39193" lon="2.60112">
        <ele>630</ele>
        <time>2018-10-11T07:07:44Z</time>
      </trkpt>
      <trkpt lat="42.39188" lon="2.60121">
        <ele>630</ele>
        <time>2018-10-11T07:07:45Z</time>
      </trkpt>
      <trkpt lat="42.39179" lon="2.60143">
        <ele>632</ele>
        <time>2018-10-11T07:07:47Z</time>
      </trkpt>
      <trkpt lat="42.39138" lon="2.60226">
        <ele>635</ele>
        <time>2018-10-11T07:07:54Z</time>
      </trkpt>
      <trkpt lat="42.39134" lon="2.60237">
        <ele>635</ele>
        <time>2018-10-11T07:07:55Z</time>
      </trkpt>
      <trkpt lat="42.39109" lon="2.60264">
        <ele>642</ele>
        <time>2018-10-11T07:07:59Z</time>
      </trkpt>
      <trkpt lat="42.39101" lon="2.60268">
        <ele>641</ele>
        <time>2018-10-11T07:08:00Z</time>
      </trkpt>
      <trkpt lat="42.39085" lon="2.60275">
        <ele>641</ele>
        <time>2018-10-11T07:08:02Z</time>
      </trkpt>
      <trkpt lat="42.39052" lon="2.60297">
        <ele>638</ele>
        <time>2018-10-11T07:08:06Z</time>
      </trkpt>
      <trkpt lat="42.39028" lon="2.60319">
        <ele>638</ele>
        <time>2018-10-11T07:08:09Z</time>
      </trkpt>
      <trkpt lat="42.39012" lon="2.60333">
        <ele>639</ele>
        <time>2018-10-11T07:08:11Z</time>
      </trkpt>
      <trkpt lat="42.38988" lon="2.60342">
        <ele>639</ele>
        <time>2018-10-11T07:08:14Z</time>
      </trkpt>
      <trkpt lat="42.3898" lon="2.60342">
        <ele>639</ele>
        <time>2018-10-11T07:08:15Z</time>
      </trkpt>
      <trkpt lat="42.38964" lon="2.60341">
        <ele>638</ele>
        <time>2018-10-11T07:08:17Z</time>
      </trkpt>
      <trkpt lat="42.38932" lon="2.60359">
        <ele>636</ele>
        <time>2018-10-11T07:08:22Z</time>
      </trkpt>
      <trkpt lat="42.38925" lon="2.60386">
        <ele>638</ele>
        <time>2018-10-11T07:08:25Z</time>
      </trkpt>
      <trkpt lat="42.38924" lon="2.60416">
        <ele>637</ele>
        <time>2018-10-11T07:08:28Z</time>
      </trkpt>
      <trkpt lat="42.38933" lon="2.60459">
        <ele>642</ele>
        <time>2018-10-11T07:08:32Z</time>
      </trkpt>
      <trkpt lat="42.38942" lon="2.60481">
        <ele>642</ele>
        <time>2018-10-11T07:08:34Z</time>
      </trkpt>
      <trkpt lat="42.3895" lon="2.60503">
        <ele>644</ele>
        <time>2018-10-11T07:08:36Z</time>
      </trkpt>
      <trkpt lat="42.38955" lon="2.60527">
        <ele>646</ele>
        <time>2018-10-11T07:08:38Z</time>
      </trkpt>
      <trkpt lat="42.38955" lon="2.6055">
        <ele>646</ele>
        <time>2018-10-11T07:08:40Z</time>
      </trkpt>
      <trkpt lat="42.38953" lon="2.60586">
        <ele>652</ele>
        <time>2018-10-11T07:08:43Z</time>
      </trkpt>
      <trkpt lat="42.38938" lon="2.60626">
        <ele>653</ele>
        <time>2018-10-11T07:08:47Z</time>
      </trkpt>
      <trkpt lat="42.38926" lon="2.60642">
        <ele>652</ele>
        <time>2018-10-11T07:08:49Z</time>
      </trkpt>
      <trkpt lat="42.38908" lon="2.60691">
        <ele>648</ele>
        <time>2018-10-11T07:08:54Z</time>
      </trkpt>
      <trkpt lat="42.38905" lon="2.6071">
        <ele>648</ele>
        <time>2018-10-11T07:08:56Z</time>
      </trkpt>
      <trkpt lat="42.3891" lon="2.60761">
        <ele>658</ele>
        <time>2018-10-11T07:09:02Z</time>
      </trkpt>
      <trkpt lat="42.38909" lon="2.60792">
        <ele>658</ele>
        <time>2018-10-11T07:09:05Z</time>
      </trkpt>
      <trkpt lat="42.38897" lon="2.60821">
        <ele>660</ele>
        <time>2018-10-11T07:09:08Z</time>
      </trkpt>
      <trkpt lat="42.38883" lon="2.60884">
        <ele>665</ele>
        <time>2018-10-11T07:09:14Z</time>
      </trkpt>
      <trkpt lat="42.38887" lon="2.60939">
        <ele>675</ele>
        <time>2018-10-11T07:09:19Z</time>
      </trkpt>
      <trkpt lat="42.38878" lon="2.60973">
        <ele>676</ele>
        <time>2018-10-11T07:09:24Z</time>
      </trkpt>
      <trkpt lat="42.38868" lon="2.6098">
        <ele>675</ele>
        <time>2018-10-11T07:09:26Z</time>
      </trkpt>
      <trkpt lat="42.38857" lon="2.60986">
        <ele>674</ele>
        <time>2018-10-11T07:09:28Z</time>
      </trkpt>
      <trkpt lat="42.38829" lon="2.6102">
        <ele>673</ele>
        <time>2018-10-11T07:09:33Z</time>
      </trkpt>
      <trkpt lat="42.38821" lon="2.61037">
        <ele>675</ele>
        <time>2018-10-11T07:09:35Z</time>
      </trkpt>
      <trkpt lat="42.38805" lon="2.6106">
        <ele>677</ele>
        <time>2018-10-11T07:09:38Z</time>
      </trkpt>
      <trkpt lat="42.38792" lon="2.61068">
        <ele>676</ele>
        <time>2018-10-11T07:09:40Z</time>
      </trkpt>
      <trkpt lat="42.38777" lon="2.61073">
        <ele>675</ele>
        <time>2018-10-11T07:09:42Z</time>
      </trkpt>
      <trkpt lat="42.3875" lon="2.6109">
        <ele>679</ele>
        <time>2018-10-11T07:09:46Z</time>
      </trkpt>
      <trkpt lat="42.38731" lon="2.61109">
        <ele>676</ele>
        <time>2018-10-11T07:09:49Z</time>
      </trkpt>
      <trkpt lat="42.38703" lon="2.61142">
        <ele>677</ele>
        <time>2018-10-11T07:09:55Z</time>
      </trkpt>
      <trkpt lat="42.38696" lon="2.61156">
        <ele>677</ele>
        <time>2018-10-11T07:10:00Z</time>
      </trkpt>
      <trkpt lat="42.38692" lon="2.61162">
        <ele>677</ele>
        <time>2018-10-11T07:10:03Z</time>
      </trkpt>
      <trkpt lat="42.38677" lon="2.61178">
        <ele>682</ele>
        <time>2018-10-11T07:10:10Z</time>
      </trkpt>
      <trkpt lat="42.38672" lon="2.6118">
        <ele>682</ele>
        <time>2018-10-11T07:10:18Z</time>
      </trkpt>
      <trkpt lat="42.38666" lon="2.61182">
        <ele>678</ele>
        <time>2018-10-11T07:10:23Z</time>
      </trkpt>
      <trkpt lat="42.38648" lon="2.61188">
        <ele>679</ele>
        <time>2018-10-11T07:10:31Z</time>
      </trkpt>
      <trkpt lat="42.38625" lon="2.61197">
        <ele>679</ele>
        <time>2018-10-11T07:10:36Z</time>
      </trkpt>
      <trkpt lat="42.38598" lon="2.61206">
        <ele>678</ele>
        <time>2018-10-11T07:10:44Z</time>
      </trkpt>
      <trkpt lat="42.38563" lon="2.61215">
        <ele>677</ele>
        <time>2018-10-11T07:10:50Z</time>
      </trkpt>
      <trkpt lat="42.38529" lon="2.61207">
        <ele>676</ele>
        <time>2018-10-11T07:10:55Z</time>
      </trkpt>
      <trkpt lat="42.38515" lon="2.61188">
        <ele>674</ele>
        <time>2018-10-11T07:10:58Z</time>
      </trkpt>
      <trkpt lat="42.38505" lon="2.6117">
        <ele>672</ele>
        <time>2018-10-11T07:11:00Z</time>
      </trkpt>
      <trkpt lat="42.38475" lon="2.6115">
        <ele>666</ele>
        <time>2018-10-11T07:11:04Z</time>
      </trkpt>
      <trkpt lat="42.38458" lon="2.61158">
        <ele>665</ele>
        <time>2018-10-11T07:11:06Z</time>
      </trkpt>
      <trkpt lat="42.38424" lon="2.61189">
        <ele>669</ele>
        <time>2018-10-11T07:11:10Z</time>
      </trkpt>
      <trkpt lat="42.38404" lon="2.61229">
        <ele>665</ele>
        <time>2018-10-11T07:11:14Z</time>
      </trkpt>
      <trkpt lat="42.38389" lon="2.61283">
        <ele>666</ele>
        <time>2018-10-11T07:11:18Z</time>
      </trkpt>
      <trkpt lat="42.38382" lon="2.61331">
        <ele>667</ele>
        <time>2018-10-11T07:11:22Z</time>
      </trkpt>
      <trkpt lat="42.38391" lon="2.61412">
        <ele>664</ele>
        <time>2018-10-11T07:11:28Z</time>
      </trkpt>
      <trkpt lat="42.38396" lon="2.61445">
        <ele>662</ele>
        <time>2018-10-11T07:11:31Z</time>
      </trkpt>
      <trkpt lat="42.38395" lon="2.61468">
        <ele>661</ele>
        <time>2018-10-11T07:11:34Z</time>
      </trkpt>
      <trkpt lat="42.38371" lon="2.61509">
        <ele>662</ele>
        <time>2018-10-11T07:11:39Z</time>
      </trkpt>
      <trkpt lat="42.38348" lon="2.61515">
        <ele>662</ele>
        <time>2018-10-11T07:11:41Z</time>
      </trkpt>
      <trkpt lat="42.38324" lon="2.61515">
        <ele>663</ele>
        <time>2018-10-11T07:11:43Z</time>
      </trkpt>
      <trkpt lat="42.38298" lon="2.615">
        <ele>664</ele>
        <time>2018-10-11T07:11:46Z</time>
      </trkpt>
      <trkpt lat="42.38294" lon="2.61489">
        <ele>660</ele>
        <time>2018-10-11T07:11:47Z</time>
      </trkpt>
      <trkpt lat="42.38274" lon="2.61451">
        <ele>658</ele>
        <time>2018-10-11T07:11:52Z</time>
      </trkpt>
      <trkpt lat="42.38254" lon="2.61466">
        <ele>659</ele>
        <time>2018-10-11T07:11:55Z</time>
      </trkpt>
      <trkpt lat="42.38248" lon="2.61476">
        <ele>659</ele>
        <time>2018-10-11T07:11:56Z</time>
      </trkpt>
      <trkpt lat="42.38224" lon="2.61548">
        <ele>663</ele>
        <time>2018-10-11T07:12:02Z</time>
      </trkpt>
      <trkpt lat="42.38205" lon="2.61597">
        <ele>666</ele>
        <time>2018-10-11T07:12:06Z</time>
      </trkpt>
      <trkpt lat="42.38156" lon="2.61665">
        <ele>663</ele>
        <time>2018-10-11T07:12:11Z</time>
      </trkpt>
      <trkpt lat="42.38091" lon="2.61753">
        <ele>666</ele>
        <time>2018-10-11T07:12:17Z</time>
      </trkpt>
      <trkpt lat="42.38051" lon="2.61808">
        <ele>666</ele>
        <time>2018-10-11T07:12:21Z</time>
      </trkpt>
      <trkpt lat="42.38004" lon="2.6184">
        <ele>666</ele>
        <time>2018-10-11T07:12:25Z</time>
      </trkpt>
      <trkpt lat="42.37991" lon="2.61842">
        <ele>666</ele>
        <time>2018-10-11T07:12:26Z</time>
      </trkpt>
      <trkpt lat="42.37948" lon="2.61867">
        <ele>671</ele>
        <time>2018-10-11T07:12:31Z</time>
      </trkpt>
      <trkpt lat="42.37925" lon="2.61903">
        <ele>670</ele>
        <time>2018-10-11T07:12:34Z</time>
      </trkpt>
      <trkpt lat="42.37883" lon="2.61938">
        <ele>668</ele>
        <time>2018-10-11T07:12:38Z</time>
      </trkpt>
      <trkpt lat="42.37856" lon="2.61949">
        <ele>668</ele>
        <time>2018-10-11T07:12:40Z</time>
      </trkpt>
      <trkpt lat="42.37809" lon="2.61964">
        <ele>670</ele>
        <time>2018-10-11T07:12:43Z</time>
      </trkpt>
      <trkpt lat="42.37749" lon="2.61964">
        <ele>675</ele>
        <time>2018-10-11T07:12:47Z</time>
      </trkpt>
      <trkpt lat="42.3769" lon="2.61978">
        <ele>676</ele>
        <time>2018-10-11T07:12:51Z</time>
      </trkpt>
      <trkpt lat="42.37627" lon="2.61983">
        <ele>679</ele>
        <time>2018-10-11T07:12:55Z</time>
      </trkpt>
      <trkpt lat="42.37572" lon="2.6201">
        <ele>682</ele>
        <time>2018-10-11T07:12:59Z</time>
      </trkpt>
      <trkpt lat="42.37521" lon="2.62029">
        <ele>683</ele>
        <time>2018-10-11T07:13:03Z</time>
      </trkpt>
      <trkpt lat="42.37504" lon="2.62043">
        <ele>684</ele>
        <time>2018-10-11T07:13:05Z</time>
      </trkpt>
      <trkpt lat="42.37494" lon="2.62069">
        <ele>685</ele>
        <time>2018-10-11T07:13:07Z</time>
      </trkpt>
      <trkpt lat="42.37463" lon="2.62167">
        <ele>697</ele>
        <time>2018-10-11T07:13:13Z</time>
      </trkpt>
      <trkpt lat="42.37449" lon="2.62203">
        <ele>697</ele>
        <time>2018-10-11T07:13:15Z</time>
      </trkpt>
      <trkpt lat="42.37408" lon="2.62269">
        <ele>694</ele>
        <time>2018-10-11T07:13:19Z</time>
      </trkpt>
      <trkpt lat="42.37362" lon="2.62302">
        <ele>698</ele>
        <time>2018-10-11T07:13:23Z</time>
      </trkpt>
      <trkpt lat="42.3732" lon="2.6229">
        <ele>697</ele>
        <time>2018-10-11T07:13:26Z</time>
      </trkpt>
      <trkpt lat="42.37293" lon="2.62273">
        <ele>696</ele>
        <time>2018-10-11T07:13:28Z</time>
      </trkpt>
      <trkpt lat="42.37253" lon="2.62272">
        <ele>697</ele>
        <time>2018-10-11T07:13:31Z</time>
      </trkpt>
      <trkpt lat="42.37241" lon="2.62281">
        <ele>700</ele>
        <time>2018-10-11T07:13:32Z</time>
      </trkpt>
      <trkpt lat="42.37175" lon="2.62339">
        <ele>705</ele>
        <time>2018-10-11T07:13:37Z</time>
      </trkpt>
      <trkpt lat="42.37162" lon="2.62351">
        <ele>707</ele>
        <time>2018-10-11T07:13:38Z</time>
      </trkpt>
      <trkpt lat="42.37119" lon="2.62356">
        <ele>710</ele>
        <time>2018-10-11T07:13:41Z</time>
      </trkpt>
      <trkpt lat="42.37104" lon="2.6235">
        <ele>708</ele>
        <time>2018-10-11T07:13:42Z</time>
      </trkpt>
      <trkpt lat="42.3706" lon="2.62327">
        <ele>707</ele>
        <time>2018-10-11T07:13:45Z</time>
      </trkpt>
      <trkpt lat="42.37023" lon="2.62332">
        <ele>707</ele>
        <time>2018-10-11T07:13:48Z</time>
      </trkpt>
      <trkpt lat="42.37006" lon="2.62358">
        <ele>707</ele>
        <time>2018-10-11T07:13:50Z</time>
      </trkpt>
      <trkpt lat="42.36975" lon="2.62426">
        <ele>712</ele>
        <time>2018-10-11T07:13:54Z</time>
      </trkpt>
      <trkpt lat="42.3694" lon="2.62501">
        <ele>714</ele>
        <time>2018-10-11T07:13:58Z</time>
      </trkpt>
      <trkpt lat="42.36921" lon="2.62541">
        <ele>717</ele>
        <time>2018-10-11T07:14:00Z</time>
      </trkpt>
      <trkpt lat="42.36898" lon="2.62623">
        <ele>714</ele>
        <time>2018-10-11T07:14:04Z</time>
      </trkpt>
      <trkpt lat="42.369" lon="2.62714">
        <ele>719</ele>
        <time>2018-10-11T07:14:08Z</time>
      </trkpt>
      <trkpt lat="42.36906" lon="2.62761">
        <ele>723</ele>
        <time>2018-10-11T07:14:10Z</time>
      </trkpt>
      <trkpt lat="42.36915" lon="2.62831">
        <ele>724</ele>
        <time>2018-10-11T07:14:13Z</time>
      </trkpt>
      <trkpt lat="42.36906" lon="2.62946">
        <ele>727</ele>
        <time>2018-10-11T07:14:18Z</time>
      </trkpt>
      <trkpt lat="42.36896" lon="2.63014">
        <ele>730</ele>
        <time>2018-10-11T07:14:21Z</time>
      </trkpt>
      <trkpt lat="42.36902" lon="2.63108">
        <ele>732</ele>
        <time>2018-10-11T07:14:25Z</time>
      </trkpt>
      <trkpt lat="42.36903" lon="2.63157">
        <ele>734</ele>
        <time>2018-10-11T07:14:27Z</time>
      </trkpt>
      <trkpt lat="42.36901" lon="2.63181">
        <ele>736</ele>
        <time>2018-10-11T07:14:28Z</time>
      </trkpt>
      <trkpt lat="42.36892" lon="2.63266">
        <ele>742</ele>
        <time>2018-10-11T07:14:32Z</time>
      </trkpt>
      <trkpt lat="42.36886" lon="2.63307">
        <ele>742</ele>
        <time>2018-10-11T07:14:34Z</time>
      </trkpt>
      <trkpt lat="42.36884" lon="2.63351">
        <ele>746</ele>
        <time>2018-10-11T07:14:36Z</time>
      </trkpt>
      <trkpt lat="42.3688" lon="2.63394">
        <ele>746</ele>
        <time>2018-10-11T07:14:38Z</time>
      </trkpt>
      <trkpt lat="42.36873" lon="2.63438">
        <ele>749</ele>
        <time>2018-10-11T07:14:40Z</time>
      </trkpt>
      <trkpt lat="42.36864" lon="2.63478">
        <ele>749</ele>
        <time>2018-10-11T07:14:42Z</time>
      </trkpt>
      <trkpt lat="42.3686" lon="2.63561">
        <ele>753</ele>
        <time>2018-10-11T07:14:46Z</time>
      </trkpt>
      <trkpt lat="42.3686" lon="2.63626">
        <ele>757</ele>
        <time>2018-10-11T07:14:49Z</time>
      </trkpt>
      <trkpt lat="42.3684" lon="2.63687">
        <ele>757</ele>
        <time>2018-10-11T07:14:53Z</time>
      </trkpt>
      <trkpt lat="42.36838" lon="2.63718">
        <ele>759</ele>
        <time>2018-10-11T07:14:55Z</time>
      </trkpt>
      <trkpt lat="42.36844" lon="2.63786">
        <ele>763</ele>
        <time>2018-10-11T07:14:59Z</time>
      </trkpt>
      <trkpt lat="42.36845" lon="2.63804">
        <ele>763</ele>
        <time>2018-10-11T07:15:00Z</time>
      </trkpt>
      <trkpt lat="42.3686" lon="2.63878">
        <ele>767</ele>
        <time>2018-10-11T07:15:04Z</time>
      </trkpt>
      <trkpt lat="42.36865" lon="2.63897">
        <ele>768</ele>
        <time>2018-10-11T07:15:05Z</time>
      </trkpt>
      <trkpt lat="42.36867" lon="2.63982">
        <ele>770</ele>
        <time>2018-10-11T07:15:09Z</time>
      </trkpt>
      <trkpt lat="42.3686" lon="2.64037">
        <ele>772</ele>
        <time>2018-10-11T07:15:12Z</time>
      </trkpt>
      <trkpt lat="42.36864" lon="2.64054">
        <ele>772</ele>
        <time>2018-10-11T07:15:13Z</time>
      </trkpt>
      <trkpt lat="42.36889" lon="2.64122">
        <ele>772</ele>
        <time>2018-10-11T07:15:17Z</time>
      </trkpt>
      <trkpt lat="42.36905" lon="2.64155">
        <ele>773</ele>
        <time>2018-10-11T07:15:19Z</time>
      </trkpt>
      <trkpt lat="42.36943" lon="2.64195">
        <ele>784</ele>
        <time>2018-10-11T07:15:23Z</time>
      </trkpt>
      <trkpt lat="42.36958" lon="2.64223">
        <ele>787</ele>
        <time>2018-10-11T07:15:26Z</time>
      </trkpt>
      <trkpt lat="42.36947" lon="2.64244">
        <ele>786</ele>
        <time>2018-10-11T07:15:28Z</time>
      </trkpt>
      <trkpt lat="42.36938" lon="2.6425">
        <ele>793</ele>
        <time>2018-10-11T07:15:29Z</time>
      </trkpt>
      <trkpt lat="42.3692" lon="2.64263">
        <ele>790</ele>
        <time>2018-10-11T07:15:31Z</time>
      </trkpt>
      <trkpt lat="42.36891" lon="2.64304">
        <ele>785</ele>
        <time>2018-10-11T07:15:35Z</time>
      </trkpt>
      <trkpt lat="42.36872" lon="2.64362">
        <ele>793</ele>
        <time>2018-10-11T07:15:39Z</time>
      </trkpt>
      <trkpt lat="42.36875" lon="2.64429">
        <ele>800</ele>
        <time>2018-10-11T07:15:43Z</time>
      </trkpt>
      <trkpt lat="42.36874" lon="2.64481">
        <ele>802</ele>
        <time>2018-10-11T07:15:46Z</time>
      </trkpt>
      <trkpt lat="42.36871" lon="2.64499">
        <ele>801</ele>
        <time>2018-10-11T07:15:47Z</time>
      </trkpt>
      <trkpt lat="42.36863" lon="2.64534">
        <ele>805</ele>
        <time>2018-10-11T07:15:49Z</time>
      </trkpt>
      <trkpt lat="42.36858" lon="2.64572">
        <ele>805</ele>
        <time>2018-10-11T07:15:51Z</time>
      </trkpt>
      <trkpt lat="42.36843" lon="2.64627">
        <ele>811</ele>
        <time>2018-10-11T07:15:54Z</time>
      </trkpt>
      <trkpt lat="42.36834" lon="2.64643">
        <ele>811</ele>
        <time>2018-10-11T07:15:55Z</time>
      </trkpt>
      <trkpt lat="42.36816" lon="2.64676">
        <ele>808</ele>
        <time>2018-10-11T07:15:57Z</time>
      </trkpt>
      <trkpt lat="42.36798" lon="2.64752">
        <ele>816</ele>
        <time>2018-10-11T07:16:01Z</time>
      </trkpt>
      <trkpt lat="42.36778" lon="2.64835">
        <ele>821</ele>
        <time>2018-10-11T07:16:06Z</time>
      </trkpt>
      <trkpt lat="42.36772" lon="2.64848">
        <ele>821</ele>
        <time>2018-10-11T07:16:07Z</time>
      </trkpt>
      <trkpt lat="42.36743" lon="2.64898">
        <ele>824</ele>
        <time>2018-10-11T07:16:11Z</time>
      </trkpt>
      <trkpt lat="42.36696" lon="2.65002">
        <ele>822</ele>
        <time>2018-10-11T07:16:18Z</time>
      </trkpt>
      <trkpt lat="42.36673" lon="2.65075">
        <ele>820</ele>
        <time>2018-10-11T07:16:23Z</time>
      </trkpt>
      <trkpt lat="42.36652" lon="2.65143">
        <ele>816</ele>
        <time>2018-10-11T07:16:27Z</time>
      </trkpt>
      <trkpt lat="42.36644" lon="2.65164">
        <ele>816</ele>
        <time>2018-10-11T07:16:30Z</time>
      </trkpt>
      <trkpt lat="42.36644" lon="2.65163">
        <ele>816</ele>
        <time>2018-10-11T07:16:35Z</time>
      </trkpt>
      <trkpt lat="42.36647" lon="2.65157">
        <ele>816</ele>
        <time>2018-10-11T07:17:08Z</time>
      </trkpt>
      <trkpt lat="42.36647" lon="2.65156">
        <ele>816</ele>
        <time>2018-10-11T07:17:46Z</time>
      </trkpt>
      <trkpt lat="42.36647" lon="2.65156">
        <ele>816</ele>
        <time>2018-10-11T07:17:53Z</time>
      </trkpt>
      <trkpt lat="42.36644" lon="2.65171">
        <ele>815</ele>
        <time>2018-10-11T07:17:57Z</time>
      </trkpt>
      <trkpt lat="42.36637" lon="2.65207">
        <ele>814</ele>
        <time>2018-10-11T07:18:01Z</time>
      </trkpt>
      <trkpt lat="42.36635" lon="2.65221">
        <ele>814</ele>
        <time>2018-10-11T07:18:02Z</time>
      </trkpt>
      <trkpt lat="42.36634" lon="2.65235">
        <ele>814</ele>
        <time>2018-10-11T07:18:03Z</time>
      </trkpt>
      <trkpt lat="42.36638" lon="2.65311">
        <ele>811</ele>
        <time>2018-10-11T07:18:08Z</time>
      </trkpt>
      <trkpt lat="42.36638" lon="2.65344">
        <ele>807</ele>
        <time>2018-10-11T07:18:10Z</time>
      </trkpt>
      <trkpt lat="42.36618" lon="2.65437">
        <ele>799</ele>
        <time>2018-10-11T07:18:15Z</time>
      </trkpt>
      <trkpt lat="42.36589" lon="2.65533">
        <ele>795</ele>
        <time>2018-10-11T07:18:20Z</time>
      </trkpt>
      <trkpt lat="42.36566" lon="2.65577">
        <ele>810</ele>
        <time>2018-10-11T07:18:23Z</time>
      </trkpt>
      <trkpt lat="42.36552" lon="2.65619">
        <ele>806</ele>
        <time>2018-10-11T07:18:26Z</time>
      </trkpt>
      <trkpt lat="42.36551" lon="2.65636">
        <ele>804</ele>
        <time>2018-10-11T07:18:27Z</time>
      </trkpt>
      <trkpt lat="42.36528" lon="2.65689">
        <ele>792</ele>
        <time>2018-10-11T07:18:31Z</time>
      </trkpt>
      <trkpt lat="42.36516" lon="2.65698">
        <ele>792</ele>
        <time>2018-10-11T07:18:32Z</time>
      </trkpt>
      <trkpt lat="42.3646" lon="2.6576">
        <ele>788</ele>
        <time>2018-10-11T07:18:37Z</time>
      </trkpt>
      <trkpt lat="42.36429" lon="2.65797">
        <ele>787</ele>
        <time>2018-10-11T07:18:40Z</time>
      </trkpt>
      <trkpt lat="42.36408" lon="2.65809">
        <ele>797</ele>
        <time>2018-10-11T07:18:42Z</time>
      </trkpt>
      <trkpt lat="42.36398" lon="2.65821">
        <ele>795</ele>
        <time>2018-10-11T07:18:44Z</time>
      </trkpt>
      <trkpt lat="42.36397" lon="2.65829">
        <ele>794</ele>
        <time>2018-10-11T07:18:45Z</time>
      </trkpt>
      <trkpt lat="42.36407" lon="2.65837">
        <ele>782</ele>
        <time>2018-10-11T07:18:47Z</time>
      </trkpt>
      <trkpt lat="42.36423" lon="2.65828">
        <ele>784</ele>
        <time>2018-10-11T07:18:49Z</time>
      </trkpt>
      <trkpt lat="42.36477" lon="2.65779">
        <ele>784</ele>
        <time>2018-10-11T07:18:54Z</time>
      </trkpt>
      <trkpt lat="42.36489" lon="2.65769">
        <ele>784</ele>
        <time>2018-10-11T07:18:55Z</time>
      </trkpt>
      <trkpt lat="42.36531" lon="2.65751">
        <ele>771</ele>
        <time>2018-10-11T07:18:58Z</time>
      </trkpt>
      <trkpt lat="42.36559" lon="2.65748">
        <ele>779</ele>
        <time>2018-10-11T07:19:00Z</time>
      </trkpt>
      <trkpt lat="42.36602" lon="2.6571">
        <ele>759</ele>
        <time>2018-10-11T07:19:04Z</time>
      </trkpt>
      <trkpt lat="42.36609" lon="2.65694">
        <ele>760</ele>
        <time>2018-10-11T07:19:05Z</time>
      </trkpt>
      <trkpt lat="42.36657" lon="2.65567">
        <ele>772</ele>
        <time>2018-10-11T07:19:12Z</time>
      </trkpt>
      <trkpt lat="42.36684" lon="2.65517">
        <ele>762</ele>
        <time>2018-10-11T07:19:15Z</time>
      </trkpt>
      <trkpt lat="42.36717" lon="2.65472">
        <ele>766</ele>
        <time>2018-10-11T07:19:18Z</time>
      </trkpt>
      <trkpt lat="42.36727" lon="2.65457">
        <ele>766</ele>
        <time>2018-10-11T07:19:19Z</time>
      </trkpt>
      <trkpt lat="42.36751" lon="2.65409">
        <ele>766</ele>
        <time>2018-10-11T07:19:22Z</time>
      </trkpt>
      <trkpt lat="42.36773" lon="2.65388">
        <ele>775</ele>
        <time>2018-10-11T07:19:25Z</time>
      </trkpt>
      <trkpt lat="42.36787" lon="2.654">
        <ele>776</ele>
        <time>2018-10-11T07:19:27Z</time>
      </trkpt>
      <trkpt lat="42.36791" lon="2.65412">
        <ele>775</ele>
        <time>2018-10-11T07:19:28Z</time>
      </trkpt>
      <trkpt lat="42.36794" lon="2.65427">
        <ele>766</ele>
        <time>2018-10-11T07:19:29Z</time>
      </trkpt>
      <trkpt lat="42.36799" lon="2.65526">
        <ele>754</ele>
        <time>2018-10-11T07:19:34Z</time>
      </trkpt>
      <trkpt lat="42.36797" lon="2.65602">
        <ele>745</ele>
        <time>2018-10-11T07:19:37Z</time>
      </trkpt>
      <trkpt lat="42.36792" lon="2.65678">
        <ele>738</ele>
        <time>2018-10-11T07:19:40Z</time>
      </trkpt>
      <trkpt lat="42.3679" lon="2.65729">
        <ele>736</ele>
        <time>2018-10-11T07:19:42Z</time>
      </trkpt>
      <trkpt lat="42.36789" lon="2.6578">
        <ele>731</ele>
        <time>2018-10-11T07:19:44Z</time>
      </trkpt>
      <trkpt lat="42.36791" lon="2.65858">
        <ele>727</ele>
        <time>2018-10-11T07:19:47Z</time>
      </trkpt>
      <trkpt lat="42.3679" lon="2.6591">
        <ele>724</ele>
        <time>2018-10-11T07:19:49Z</time>
      </trkpt>
      <trkpt lat="42.36786" lon="2.65958">
        <ele>719</ele>
        <time>2018-10-11T07:19:51Z</time>
      </trkpt>
      <trkpt lat="42.36793" lon="2.66046">
        <ele>709</ele>
        <time>2018-10-11T07:19:55Z</time>
      </trkpt>
      <trkpt lat="42.36796" lon="2.66113">
        <ele>703</ele>
        <time>2018-10-11T07:19:58Z</time>
      </trkpt>
      <trkpt lat="42.36781" lon="2.66156">
        <ele>701</ele>
        <time>2018-10-11T07:20:00Z</time>
      </trkpt>
      <trkpt lat="42.36769" lon="2.66175">
        <ele>705</ele>
        <time>2018-10-11T07:20:01Z</time>
      </trkpt>
      <trkpt lat="42.36743" lon="2.66211">
        <ele>693</ele>
        <time>2018-10-11T07:20:03Z</time>
      </trkpt>
      <trkpt lat="42.36725" lon="2.66251">
        <ele>699</ele>
        <time>2018-10-11T07:20:05Z</time>
      </trkpt>
      <trkpt lat="42.36719" lon="2.66298">
        <ele>699</ele>
        <time>2018-10-11T07:20:07Z</time>
      </trkpt>
      <trkpt lat="42.36719" lon="2.66347">
        <ele>708</ele>
        <time>2018-10-11T07:20:09Z</time>
      </trkpt>
      <trkpt lat="42.367" lon="2.66411">
        <ele>710</ele>
        <time>2018-10-11T07:20:12Z</time>
      </trkpt>
      <trkpt lat="42.36689" lon="2.6643">
        <ele>716</ele>
        <time>2018-10-11T07:20:13Z</time>
      </trkpt>
      <trkpt lat="42.36667" lon="2.665">
        <ele>713</ele>
        <time>2018-10-11T07:20:16Z</time>
      </trkpt>
      <trkpt lat="42.36663" lon="2.66526">
        <ele>709</ele>
        <time>2018-10-11T07:20:17Z</time>
      </trkpt>
      <trkpt lat="42.36642" lon="2.66667">
        <ele>709</ele>
        <time>2018-10-11T07:20:22Z</time>
      </trkpt>
      <trkpt lat="42.3664" lon="2.6676">
        <ele>706</ele>
        <time>2018-10-11T07:20:25Z</time>
      </trkpt>
      <trkpt lat="42.36642" lon="2.66824">
        <ele>707</ele>
        <time>2018-10-11T07:20:27Z</time>
      </trkpt>
      <trkpt lat="42.36646" lon="2.66922">
        <ele>716</ele>
        <time>2018-10-11T07:20:30Z</time>
      </trkpt>
      <trkpt lat="42.36652" lon="2.67018">
        <ele>719</ele>
        <time>2018-10-11T07:20:33Z</time>
      </trkpt>
      <trkpt lat="42.36662" lon="2.67111">
        <ele>724</ele>
        <time>2018-10-11T07:20:36Z</time>
      </trkpt>
      <trkpt lat="42.36665" lon="2.67141">
        <ele>726</ele>
        <time>2018-10-11T07:20:37Z</time>
      </trkpt>
      <trkpt lat="42.36671" lon="2.67194">
        <ele>749</ele>
        <time>2018-10-11T07:20:39Z</time>
      </trkpt>
      <trkpt lat="42.36667" lon="2.6724">
        <ele>742</ele>
        <time>2018-10-11T07:20:41Z</time>
      </trkpt>
      <trkpt lat="42.36647" lon="2.67273">
        <ele>750</ele>
        <time>2018-10-11T07:20:43Z</time>
      </trkpt>
      <trkpt lat="42.36618" lon="2.67287">
        <ele>752</ele>
        <time>2018-10-11T07:20:45Z</time>
      </trkpt>
      <trkpt lat="42.36603" lon="2.67289">
        <ele>752</ele>
        <time>2018-10-11T07:20:46Z</time>
      </trkpt>
      <trkpt lat="42.36539" lon="2.67291">
        <ele>752</ele>
        <time>2018-10-11T07:20:50Z</time>
      </trkpt>
      <trkpt lat="42.36506" lon="2.67298">
        <ele>753</ele>
        <time>2018-10-11T07:20:52Z</time>
      </trkpt>
      <trkpt lat="42.36473" lon="2.67305">
        <ele>750</ele>
        <time>2018-10-11T07:20:54Z</time>
      </trkpt>
      <trkpt lat="42.36439" lon="2.67313">
        <ele>750</ele>
        <time>2018-10-11T07:20:56Z</time>
      </trkpt>
      <trkpt lat="42.36387" lon="2.67325">
        <ele>742</ele>
        <time>2018-10-11T07:20:59Z</time>
      </trkpt>
      <trkpt lat="42.36336" lon="2.67362">
        <ele>749</ele>
        <time>2018-10-11T07:21:03Z</time>
      </trkpt>
      <trkpt lat="42.36326" lon="2.67415">
        <ele>740</ele>
        <time>2018-10-11T07:21:06Z</time>
      </trkpt>
      <trkpt lat="42.36344" lon="2.67466">
        <ele>749</ele>
        <time>2018-10-11T07:21:09Z</time>
      </trkpt>
      <trkpt lat="42.36371" lon="2.67489">
        <ele>750</ele>
        <time>2018-10-11T07:21:11Z</time>
      </trkpt>
      <trkpt lat="42.36402" lon="2.67508">
        <ele>746</ele>
        <time>2018-10-11T07:21:13Z</time>
      </trkpt>
      <trkpt lat="42.36437" lon="2.67521">
        <ele>751</ele>
        <time>2018-10-11T07:21:15Z</time>
      </trkpt>
      <trkpt lat="42.36516" lon="2.67539">
        <ele>759</ele>
        <time>2018-10-11T07:21:19Z</time>
      </trkpt>
      <trkpt lat="42.36537" lon="2.67543">
        <ele>759</ele>
        <time>2018-10-11T07:21:20Z</time>
      </trkpt>
      <trkpt lat="42.36576" lon="2.6755">
        <ele>758</ele>
        <time>2018-10-11T07:21:22Z</time>
      </trkpt>
      <trkpt lat="42.36593" lon="2.67554">
        <ele>765</ele>
        <time>2018-10-11T07:21:23Z</time>
      </trkpt>
      <trkpt lat="42.36646" lon="2.67592">
        <ele>762</ele>
        <time>2018-10-11T07:21:27Z</time>
      </trkpt>
      <trkpt lat="42.36658" lon="2.6763">
        <ele>758</ele>
        <time>2018-10-11T07:21:29Z</time>
      </trkpt>
      <trkpt lat="42.36668" lon="2.67691">
        <ele>762</ele>
        <time>2018-10-11T07:21:32Z</time>
      </trkpt>
      <trkpt lat="42.36687" lon="2.6772">
        <ele>761</ele>
        <time>2018-10-11T07:21:34Z</time>
      </trkpt>
      <trkpt lat="42.367" lon="2.6773">
        <ele>763</ele>
        <time>2018-10-11T07:21:35Z</time>
      </trkpt>
      <trkpt lat="42.36755" lon="2.678">
        <ele>768</ele>
        <time>2018-10-11T07:21:40Z</time>
      </trkpt>
      <trkpt lat="42.36756" lon="2.67866">
        <ele>761</ele>
        <time>2018-10-11T07:21:43Z</time>
      </trkpt>
      <trkpt lat="42.36749" lon="2.67905">
        <ele>757</ele>
        <time>2018-10-11T07:21:45Z</time>
      </trkpt>
      <trkpt lat="42.36754" lon="2.67947">
        <ele>758</ele>
        <time>2018-10-11T07:21:48Z</time>
      </trkpt>
      <trkpt lat="42.36779" lon="2.67968">
        <ele>757</ele>
        <time>2018-10-11T07:21:51Z</time>
      </trkpt>
      <trkpt lat="42.36801" lon="2.67963">
        <ele>755</ele>
        <time>2018-10-11T07:21:53Z</time>
      </trkpt>
      <trkpt lat="42.36821" lon="2.67939">
        <ele>755</ele>
        <time>2018-10-11T07:21:55Z</time>
      </trkpt>
      <trkpt lat="42.3683" lon="2.67922">
        <ele>754</ele>
        <time>2018-10-11T07:21:56Z</time>
      </trkpt>
      <trkpt lat="42.36893" lon="2.67831">
        <ele>755</ele>
        <time>2018-10-11T07:22:01Z</time>
      </trkpt>
      <trkpt lat="42.36908" lon="2.67814">
        <ele>753</ele>
        <time>2018-10-11T07:22:02Z</time>
      </trkpt>
      <trkpt lat="42.36946" lon="2.67756">
        <ele>742</ele>
        <time>2018-10-11T07:22:05Z</time>
      </trkpt>
      <trkpt lat="42.36988" lon="2.67705">
        <ele>751</ele>
        <time>2018-10-11T07:22:08Z</time>
      </trkpt>
      <trkpt lat="42.37042" lon="2.67669">
        <ele>738</ele>
        <time>2018-10-11T07:22:11Z</time>
      </trkpt>
      <trkpt lat="42.37076" lon="2.67647">
        <ele>747</ele>
        <time>2018-10-11T07:22:13Z</time>
      </trkpt>
      <trkpt lat="42.37124" lon="2.67638">
        <ele>749</ele>
        <time>2018-10-11T07:22:16Z</time>
      </trkpt>
      <trkpt lat="42.37168" lon="2.67658">
        <ele>751</ele>
        <time>2018-10-11T07:22:19Z</time>
      </trkpt>
      <trkpt lat="42.37185" lon="2.6769">
        <ele>753</ele>
        <time>2018-10-11T07:22:21Z</time>
      </trkpt>
      <trkpt lat="42.37183" lon="2.67728">
        <ele>752</ele>
        <time>2018-10-11T07:22:23Z</time>
      </trkpt>
      <trkpt lat="42.37175" lon="2.67746">
        <ele>747</ele>
        <time>2018-10-11T07:22:24Z</time>
      </trkpt>
      <trkpt lat="42.3715" lon="2.67799">
        <ele>736</ele>
        <time>2018-10-11T07:22:27Z</time>
      </trkpt>
      <trkpt lat="42.37136" lon="2.67873">
        <ele>736</ele>
        <time>2018-10-11T07:22:31Z</time>
      </trkpt>
      <trkpt lat="42.37139" lon="2.67894">
        <ele>738</ele>
        <time>2018-10-11T07:22:32Z</time>
      </trkpt>
      <trkpt lat="42.37143" lon="2.68009">
        <ele>748</ele>
        <time>2018-10-11T07:22:37Z</time>
      </trkpt>
      <trkpt lat="42.37135" lon="2.68059">
        <ele>745</ele>
        <time>2018-10-11T07:22:39Z</time>
      </trkpt>
      <trkpt lat="42.37123" lon="2.6813">
        <ele>741</ele>
        <time>2018-10-11T07:22:42Z</time>
      </trkpt>
      <trkpt lat="42.3713" lon="2.68208">
        <ele>737</ele>
        <time>2018-10-11T07:22:46Z</time>
      </trkpt>
      <trkpt lat="42.37146" lon="2.6831">
        <ele>731</ele>
        <time>2018-10-11T07:22:51Z</time>
      </trkpt>
      <trkpt lat="42.37155" lon="2.68345">
        <ele>726</ele>
        <time>2018-10-11T07:22:53Z</time>
      </trkpt>
      <trkpt lat="42.37176" lon="2.68369">
        <ele>735</ele>
        <time>2018-10-11T07:22:55Z</time>
      </trkpt>
      <trkpt lat="42.37205" lon="2.68388">
        <ele>734</ele>
        <time>2018-10-11T07:22:57Z</time>
      </trkpt>
      <trkpt lat="42.37235" lon="2.68407">
        <ele>732</ele>
        <time>2018-10-11T07:22:59Z</time>
      </trkpt>
      <trkpt lat="42.37296" lon="2.68411">
        <ele>732</ele>
        <time>2018-10-11T07:23:03Z</time>
      </trkpt>
      <trkpt lat="42.37326" lon="2.68395">
        <ele>731</ele>
        <time>2018-10-11T07:23:05Z</time>
      </trkpt>
      <trkpt lat="42.37379" lon="2.68373">
        <ele>733</ele>
        <time>2018-10-11T07:23:09Z</time>
      </trkpt>
      <trkpt lat="42.37403" lon="2.68387">
        <ele>730</ele>
        <time>2018-10-11T07:23:11Z</time>
      </trkpt>
      <trkpt lat="42.37427" lon="2.68409">
        <ele>725</ele>
        <time>2018-10-11T07:23:13Z</time>
      </trkpt>
      <trkpt lat="42.37488" lon="2.68428">
        <ele>713</ele>
        <time>2018-10-11T07:23:17Z</time>
      </trkpt>
      <trkpt lat="42.37504" lon="2.68424">
        <ele>719</ele>
        <time>2018-10-11T07:23:18Z</time>
      </trkpt>
      <trkpt lat="42.37562" lon="2.6842">
        <ele>723</ele>
        <time>2018-10-11T07:23:22Z</time>
      </trkpt>
      <trkpt lat="42.37581" lon="2.68443">
        <ele>722</ele>
        <time>2018-10-11T07:23:24Z</time>
      </trkpt>
      <trkpt lat="42.37585" lon="2.68481">
        <ele>725</ele>
        <time>2018-10-11T07:23:26Z</time>
      </trkpt>
      <trkpt lat="42.37581" lon="2.68503">
        <ele>716</ele>
        <time>2018-10-11T07:23:27Z</time>
      </trkpt>
      <trkpt lat="42.37571" lon="2.68551">
        <ele>705</ele>
        <time>2018-10-11T07:23:29Z</time>
      </trkpt>
      <trkpt lat="42.37564" lon="2.68662">
        <ele>700</ele>
        <time>2018-10-11T07:23:33Z</time>
      </trkpt>
      <trkpt lat="42.37564" lon="2.68718">
        <ele>692</ele>
        <time>2018-10-11T07:23:35Z</time>
      </trkpt>
      <trkpt lat="42.37563" lon="2.68771">
        <ele>688</ele>
        <time>2018-10-11T07:23:37Z</time>
      </trkpt>
      <trkpt lat="42.37568" lon="2.68813">
        <ele>685</ele>
        <time>2018-10-11T07:23:39Z</time>
      </trkpt>
      <trkpt lat="42.37584" lon="2.68839">
        <ele>685</ele>
        <time>2018-10-11T07:23:41Z</time>
      </trkpt>
      <trkpt lat="42.37608" lon="2.68844">
        <ele>675</ele>
        <time>2018-10-11T07:23:43Z</time>
      </trkpt>
      <trkpt lat="42.37651" lon="2.68821">
        <ele>683</ele>
        <time>2018-10-11T07:23:46Z</time>
      </trkpt>
      <trkpt lat="42.37713" lon="2.68768">
        <ele>677</ele>
        <time>2018-10-11T07:23:50Z</time>
      </trkpt>
      <trkpt lat="42.37763" lon="2.68745">
        <ele>675</ele>
        <time>2018-10-11T07:23:53Z</time>
      </trkpt>
      <trkpt lat="42.3778" lon="2.68744">
        <ele>673</ele>
        <time>2018-10-11T07:23:54Z</time>
      </trkpt>
      <trkpt lat="42.37818" lon="2.68735">
        <ele>666</ele>
        <time>2018-10-11T07:23:57Z</time>
      </trkpt>
      <trkpt lat="42.37832" lon="2.68709">
        <ele>669</ele>
        <time>2018-10-11T07:23:59Z</time>
      </trkpt>
      <trkpt lat="42.37832" lon="2.68675">
        <ele>667</ele>
        <time>2018-10-11T07:24:01Z</time>
      </trkpt>
      <trkpt lat="42.37815" lon="2.68645">
        <ele>674</ele>
        <time>2018-10-11T07:24:03Z</time>
      </trkpt>
      <trkpt lat="42.37787" lon="2.68595">
        <ele>678</ele>
        <time>2018-10-11T07:24:07Z</time>
      </trkpt>
      <trkpt lat="42.37793" lon="2.68565">
        <ele>681</ele>
        <time>2018-10-11T07:24:09Z</time>
      </trkpt>
      <trkpt lat="42.37814" lon="2.68546">
        <ele>681</ele>
        <time>2018-10-11T07:24:11Z</time>
      </trkpt>
      <trkpt lat="42.37828" lon="2.68543">
        <ele>681</ele>
        <time>2018-10-11T07:24:12Z</time>
      </trkpt>
      <trkpt lat="42.37861" lon="2.68539">
        <ele>676</ele>
        <time>2018-10-11T07:24:14Z</time>
      </trkpt>
      <trkpt lat="42.37926" lon="2.68565">
        <ele>668</ele>
        <time>2018-10-11T07:24:18Z</time>
      </trkpt>
      <trkpt lat="42.37985" lon="2.68604">
        <ele>655</ele>
        <time>2018-10-11T07:24:22Z</time>
      </trkpt>
      <trkpt lat="42.38002" lon="2.68608">
        <ele>658</ele>
        <time>2018-10-11T07:24:23Z</time>
      </trkpt>
      <trkpt lat="42.38046" lon="2.68637">
        <ele>656</ele>
        <time>2018-10-11T07:24:26Z</time>
      </trkpt>
      <trkpt lat="42.38066" lon="2.68674">
        <ele>647</ele>
        <time>2018-10-11T07:24:28Z</time>
      </trkpt>
      <trkpt lat="42.38082" lon="2.68743">
        <ele>643</ele>
        <time>2018-10-11T07:24:31Z</time>
      </trkpt>
      <trkpt lat="42.38083" lon="2.68768">
        <ele>639</ele>
        <time>2018-10-11T07:24:32Z</time>
      </trkpt>
      <trkpt lat="42.38082" lon="2.68795">
        <ele>636</ele>
        <time>2018-10-11T07:24:33Z</time>
      </trkpt>
      <trkpt lat="42.38068" lon="2.68932">
        <ele>633</ele>
        <time>2018-10-11T07:24:38Z</time>
      </trkpt>
      <trkpt lat="42.38065" lon="2.68958">
        <ele>632</ele>
        <time>2018-10-11T07:24:39Z</time>
      </trkpt>
      <trkpt lat="42.3807" lon="2.69023">
        <ele>632</ele>
        <time>2018-10-11T07:24:42Z</time>
      </trkpt>
      <trkpt lat="42.38077" lon="2.69041">
        <ele>631</ele>
        <time>2018-10-11T07:24:43Z</time>
      </trkpt>
      <trkpt lat="42.3811" lon="2.69112">
        <ele>631</ele>
        <time>2018-10-11T07:24:47Z</time>
      </trkpt>
      <trkpt lat="42.38112" lon="2.69158">
        <ele>630</ele>
        <time>2018-10-11T07:24:49Z</time>
      </trkpt>
      <trkpt lat="42.38108" lon="2.69208">
        <ele>631</ele>
        <time>2018-10-11T07:24:51Z</time>
      </trkpt>
      <trkpt lat="42.3808" lon="2.69297">
        <ele>627</ele>
        <time>2018-10-11T07:24:55Z</time>
      </trkpt>
      <trkpt lat="42.38061" lon="2.69347">
        <ele>626</ele>
        <time>2018-10-11T07:24:58Z</time>
      </trkpt>
      <trkpt lat="42.38066" lon="2.6938">
        <ele>623</ele>
        <time>2018-10-11T07:25:00Z</time>
      </trkpt>
      <trkpt lat="42.38093" lon="2.69422">
        <ele>631</ele>
        <time>2018-10-11T07:25:03Z</time>
      </trkpt>
      <trkpt lat="42.38103" lon="2.69452">
        <ele>632</ele>
        <time>2018-10-11T07:25:05Z</time>
      </trkpt>
      <trkpt lat="42.38098" lon="2.69484">
        <ele>631</ele>
        <time>2018-10-11T07:25:07Z</time>
      </trkpt>
      <trkpt lat="42.38076" lon="2.69506">
        <ele>626</ele>
        <time>2018-10-11T07:25:09Z</time>
      </trkpt>
      <trkpt lat="42.37997" lon="2.69553">
        <ele>607</ele>
        <time>2018-10-11T07:25:14Z</time>
      </trkpt>
      <trkpt lat="42.37968" lon="2.69596">
        <ele>607</ele>
        <time>2018-10-11T07:25:17Z</time>
      </trkpt>
      <trkpt lat="42.37965" lon="2.69636">
        <ele>605</ele>
        <time>2018-10-11T07:25:19Z</time>
      </trkpt>
      <trkpt lat="42.37982" lon="2.69697">
        <ele>602</ele>
        <time>2018-10-11T07:25:22Z</time>
      </trkpt>
      <trkpt lat="42.38" lon="2.69775">
        <ele>594</ele>
        <time>2018-10-11T07:25:26Z</time>
      </trkpt>
      <trkpt lat="42.37998" lon="2.6982">
        <ele>592</ele>
        <time>2018-10-11T07:25:28Z</time>
      </trkpt>
      <trkpt lat="42.38018" lon="2.69917">
        <ele>579</ele>
        <time>2018-10-11T07:25:32Z</time>
      </trkpt>
      <trkpt lat="42.38028" lon="2.69987">
        <ele>577</ele>
        <time>2018-10-11T07:25:35Z</time>
      </trkpt>
      <trkpt lat="42.38022" lon="2.70029">
        <ele>577</ele>
        <time>2018-10-11T07:25:37Z</time>
      </trkpt>
      <trkpt lat="42.38016" lon="2.70048">
        <ele>578</ele>
        <time>2018-10-11T07:25:38Z</time>
      </trkpt>
      <trkpt lat="42.38002" lon="2.70084">
        <ele>581</ele>
        <time>2018-10-11T07:25:40Z</time>
      </trkpt>
      <trkpt lat="42.37994" lon="2.70151">
        <ele>575</ele>
        <time>2018-10-11T07:25:44Z</time>
      </trkpt>
      <trkpt lat="42.38009" lon="2.70186">
        <ele>576</ele>
        <time>2018-10-11T07:25:46Z</time>
      </trkpt>
      <trkpt lat="42.38069" lon="2.70283">
        <ele>571</ele>
        <time>2018-10-11T07:25:51Z</time>
      </trkpt>
      <trkpt lat="42.38082" lon="2.70305">
        <ele>570</ele>
        <time>2018-10-11T07:25:52Z</time>
      </trkpt>
      <trkpt lat="42.38119" lon="2.70367">
        <ele>575</ele>
        <time>2018-10-11T07:25:55Z</time>
      </trkpt>
      <trkpt lat="42.38131" lon="2.70387">
        <ele>575</ele>
        <time>2018-10-11T07:25:56Z</time>
      </trkpt>
      <trkpt lat="42.38155" lon="2.70468">
        <ele>574</ele>
        <time>2018-10-11T07:26:00Z</time>
      </trkpt>
      <trkpt lat="42.38148" lon="2.70512">
        <ele>577</ele>
        <time>2018-10-11T07:26:02Z</time>
      </trkpt>
      <trkpt lat="42.38128" lon="2.70552">
        <ele>576</ele>
        <time>2018-10-11T07:26:04Z</time>
      </trkpt>
      <trkpt lat="42.38073" lon="2.70634">
        <ele>562</ele>
        <time>2018-10-11T07:26:08Z</time>
      </trkpt>
      <trkpt lat="42.38046" lon="2.70674">
        <ele>563</ele>
        <time>2018-10-11T07:26:10Z</time>
      </trkpt>
      <trkpt lat="42.38033" lon="2.70693">
        <ele>561</ele>
        <time>2018-10-11T07:26:11Z</time>
      </trkpt>
      <trkpt lat="42.38021" lon="2.70711">
        <ele>561</ele>
        <time>2018-10-11T07:26:12Z</time>
      </trkpt>
      <trkpt lat="42.38011" lon="2.70729">
        <ele>559</ele>
        <time>2018-10-11T07:26:13Z</time>
      </trkpt>
      <trkpt lat="42.37992" lon="2.70786">
        <ele>545</ele>
        <time>2018-10-11T07:26:16Z</time>
      </trkpt>
      <trkpt lat="42.37994" lon="2.70828">
        <ele>544</ele>
        <time>2018-10-11T07:26:18Z</time>
      </trkpt>
      <trkpt lat="42.38011" lon="2.70889">
        <ele>543</ele>
        <time>2018-10-11T07:26:21Z</time>
      </trkpt>
      <trkpt lat="42.38044" lon="2.70945">
        <ele>540</ele>
        <time>2018-10-11T07:26:24Z</time>
      </trkpt>
      <trkpt lat="42.3809" lon="2.70988">
        <ele>546</ele>
        <time>2018-10-11T07:26:27Z</time>
      </trkpt>
      <trkpt lat="42.38146" lon="2.71009">
        <ele>535</ele>
        <time>2018-10-11T07:26:30Z</time>
      </trkpt>
      <trkpt lat="42.38186" lon="2.71009">
        <ele>526</ele>
        <time>2018-10-11T07:26:32Z</time>
      </trkpt>
      <trkpt lat="42.38245" lon="2.70988">
        <ele>529</ele>
        <time>2018-10-11T07:26:35Z</time>
      </trkpt>
      <trkpt lat="42.3828" lon="2.70961">
        <ele>525</ele>
        <time>2018-10-11T07:26:37Z</time>
      </trkpt>
      <trkpt lat="42.38309" lon="2.70924">
        <ele>523</ele>
        <time>2018-10-11T07:26:39Z</time>
      </trkpt>
      <trkpt lat="42.38363" lon="2.70844">
        <ele>516</ele>
        <time>2018-10-11T07:26:43Z</time>
      </trkpt>
      <trkpt lat="42.38394" lon="2.70812">
        <ele>518</ele>
        <time>2018-10-11T07:26:45Z</time>
      </trkpt>
      <trkpt lat="42.38425" lon="2.70789">
        <ele>504</ele>
        <time>2018-10-11T07:26:47Z</time>
      </trkpt>
      <trkpt lat="42.38439" lon="2.70778">
        <ele>503</ele>
        <time>2018-10-11T07:26:48Z</time>
      </trkpt>
      <trkpt lat="42.38471" lon="2.70733">
        <ele>501</ele>
        <time>2018-10-11T07:26:51Z</time>
      </trkpt>
      <trkpt lat="42.38477" lon="2.70713">
        <ele>501</ele>
        <time>2018-10-11T07:26:52Z</time>
      </trkpt>
      <trkpt lat="42.38486" lon="2.7067">
        <ele>494</ele>
        <time>2018-10-11T07:26:54Z</time>
      </trkpt>
      <trkpt lat="42.38498" lon="2.7063">
        <ele>501</ele>
        <time>2018-10-11T07:26:56Z</time>
      </trkpt>
      <trkpt lat="42.38533" lon="2.70591">
        <ele>484</ele>
        <time>2018-10-11T07:26:59Z</time>
      </trkpt>
      <trkpt lat="42.38564" lon="2.70586">
        <ele>479</ele>
        <time>2018-10-11T07:27:01Z</time>
      </trkpt>
      <trkpt lat="42.38593" lon="2.70599">
        <ele>478</ele>
        <time>2018-10-11T07:27:03Z</time>
      </trkpt>
      <trkpt lat="42.38616" lon="2.70629">
        <ele>480</ele>
        <time>2018-10-11T07:27:05Z</time>
      </trkpt>
      <trkpt lat="42.38629" lon="2.70674">
        <ele>477</ele>
        <time>2018-10-11T07:27:07Z</time>
      </trkpt>
      <trkpt lat="42.3863" lon="2.70701">
        <ele>476</ele>
        <time>2018-10-11T07:27:08Z</time>
      </trkpt>
      <trkpt lat="42.38631" lon="2.70858">
        <ele>468</ele>
        <time>2018-10-11T07:27:13Z</time>
      </trkpt>
      <trkpt lat="42.3863" lon="2.70961">
        <ele>476</ele>
        <time>2018-10-11T07:27:16Z</time>
      </trkpt>
      <trkpt lat="42.38625" lon="2.71052">
        <ele>483</ele>
        <time>2018-10-11T07:27:19Z</time>
      </trkpt>
      <trkpt lat="42.38605" lon="2.7113">
        <ele>492</ele>
        <time>2018-10-11T07:27:22Z</time>
      </trkpt>
      <trkpt lat="42.38565" lon="2.71194">
        <ele>486</ele>
        <time>2018-10-11T07:27:25Z</time>
      </trkpt>
      <trkpt lat="42.38549" lon="2.71212">
        <ele>486</ele>
        <time>2018-10-11T07:27:26Z</time>
      </trkpt>
      <trkpt lat="42.38519" lon="2.71243">
        <ele>482</ele>
        <time>2018-10-11T07:27:28Z</time>
      </trkpt>
      <trkpt lat="42.38479" lon="2.71311">
        <ele>478</ele>
        <time>2018-10-11T07:27:32Z</time>
      </trkpt>
      <trkpt lat="42.38474" lon="2.71373">
        <ele>484</ele>
        <time>2018-10-11T07:27:35Z</time>
      </trkpt>
      <trkpt lat="42.38477" lon="2.71421">
        <ele>485</ele>
        <time>2018-10-11T07:27:37Z</time>
      </trkpt>
      <trkpt lat="42.38486" lon="2.71521">
        <ele>476</ele>
        <time>2018-10-11T07:27:41Z</time>
      </trkpt>
      <trkpt lat="42.38489" lon="2.71545">
        <ele>474</ele>
        <time>2018-10-11T07:27:42Z</time>
      </trkpt>
      <trkpt lat="42.3852" lon="2.71632">
        <ele>468</ele>
        <time>2018-10-11T07:27:46Z</time>
      </trkpt>
      <trkpt lat="42.38533" lon="2.71651">
        <ele>467</ele>
        <time>2018-10-11T07:27:47Z</time>
      </trkpt>
      <trkpt lat="42.38548" lon="2.71668">
        <ele>463</ele>
        <time>2018-10-11T07:27:48Z</time>
      </trkpt>
      <trkpt lat="42.38595" lon="2.71716">
        <ele>464</ele>
        <time>2018-10-11T07:27:51Z</time>
      </trkpt>
      <trkpt lat="42.3863" lon="2.71774">
        <ele>463</ele>
        <time>2018-10-11T07:27:54Z</time>
      </trkpt>
      <trkpt lat="42.38637" lon="2.71823">
        <ele>462</ele>
        <time>2018-10-11T07:27:56Z</time>
      </trkpt>
      <trkpt lat="42.38636" lon="2.7185">
        <ele>459</ele>
        <time>2018-10-11T07:27:57Z</time>
      </trkpt>
      <trkpt lat="42.38632" lon="2.71901">
        <ele>458</ele>
        <time>2018-10-11T07:27:59Z</time>
      </trkpt>
      <trkpt lat="42.38645" lon="2.71986">
        <ele>453</ele>
        <time>2018-10-11T07:28:03Z</time>
      </trkpt>
      <trkpt lat="42.38648" lon="2.72019">
        <ele>455</ele>
        <time>2018-10-11T07:28:05Z</time>
      </trkpt>
      <trkpt lat="42.38638" lon="2.72051">
        <ele>457</ele>
        <time>2018-10-11T07:28:07Z</time>
      </trkpt>
      <trkpt lat="42.38615" lon="2.72076">
        <ele>455</ele>
        <time>2018-10-11T07:28:09Z</time>
      </trkpt>
      <trkpt lat="42.38557" lon="2.72122">
        <ele>457</ele>
        <time>2018-10-11T07:28:13Z</time>
      </trkpt>
      <trkpt lat="42.38508" lon="2.72162">
        <ele>456</ele>
        <time>2018-10-11T07:28:16Z</time>
      </trkpt>
      <trkpt lat="42.38452" lon="2.72202">
        <ele>458</ele>
        <time>2018-10-11T07:28:19Z</time>
      </trkpt>
      <trkpt lat="42.38389" lon="2.72235">
        <ele>455</ele>
        <time>2018-10-11T07:28:22Z</time>
      </trkpt>
      <trkpt lat="42.38329" lon="2.72263">
        <ele>461</ele>
        <time>2018-10-11T07:28:25Z</time>
      </trkpt>
      <trkpt lat="42.38311" lon="2.72274">
        <ele>461</ele>
        <time>2018-10-11T07:28:26Z</time>
      </trkpt>
      <trkpt lat="42.38293" lon="2.72287">
        <ele>462</ele>
        <time>2018-10-11T07:28:27Z</time>
      </trkpt>
      <trkpt lat="42.38228" lon="2.7236">
        <ele>467</ele>
        <time>2018-10-11T07:28:31Z</time>
      </trkpt>
      <trkpt lat="42.38187" lon="2.72423">
        <ele>472</ele>
        <time>2018-10-11T07:28:34Z</time>
      </trkpt>
      <trkpt lat="42.38154" lon="2.72514">
        <ele>462</ele>
        <time>2018-10-11T07:28:38Z</time>
      </trkpt>
      <trkpt lat="42.38149" lon="2.7254">
        <ele>459</ele>
        <time>2018-10-11T07:28:39Z</time>
      </trkpt>
      <trkpt lat="42.38139" lon="2.72615">
        <ele>457</ele>
        <time>2018-10-11T07:28:42Z</time>
      </trkpt>
      <trkpt lat="42.38151" lon="2.72695">
        <ele>455</ele>
        <time>2018-10-11T07:28:46Z</time>
      </trkpt>
      <trkpt lat="42.38188" lon="2.72741">
        <ele>462</ele>
        <time>2018-10-11T07:28:49Z</time>
      </trkpt>
      <trkpt lat="42.38235" lon="2.72781">
        <ele>455</ele>
        <time>2018-10-11T07:28:52Z</time>
      </trkpt>
      <trkpt lat="42.3828" lon="2.7285">
        <ele>453</ele>
        <time>2018-10-11T07:28:56Z</time>
      </trkpt>
      <trkpt lat="42.38284" lon="2.72872">
        <ele>454</ele>
        <time>2018-10-11T07:28:57Z</time>
      </trkpt>
      <trkpt lat="42.38281" lon="2.72913">
        <ele>453</ele>
        <time>2018-10-11T07:28:59Z</time>
      </trkpt>
      <trkpt lat="42.38263" lon="2.72947">
        <ele>457</ele>
        <time>2018-10-11T07:29:01Z</time>
      </trkpt>
      <trkpt lat="42.38236" lon="2.72973">
        <ele>453</ele>
        <time>2018-10-11T07:29:03Z</time>
      </trkpt>
      <trkpt lat="42.38169" lon="2.73015">
        <ele>458</ele>
        <time>2018-10-11T07:29:07Z</time>
      </trkpt>
      <trkpt lat="42.38115" lon="2.7305">
        <ele>459</ele>
        <time>2018-10-11T07:29:10Z</time>
      </trkpt>
      <trkpt lat="42.38087" lon="2.73079">
        <ele>460</ele>
        <time>2018-10-11T07:29:12Z</time>
      </trkpt>
      <trkpt lat="42.38071" lon="2.73117">
        <ele>458</ele>
        <time>2018-10-11T07:29:14Z</time>
      </trkpt>
      <trkpt lat="42.3807" lon="2.73157">
        <ele>458</ele>
        <time>2018-10-11T07:29:16Z</time>
      </trkpt>
      <trkpt lat="42.38093" lon="2.73213">
        <ele>459</ele>
        <time>2018-10-11T07:29:19Z</time>
      </trkpt>
      <trkpt lat="42.3812" lon="2.73243">
        <ele>459</ele>
        <time>2018-10-11T07:29:21Z</time>
      </trkpt>
      <trkpt lat="42.38181" lon="2.73297">
        <ele>456</ele>
        <time>2018-10-11T07:29:25Z</time>
      </trkpt>
      <trkpt lat="42.3823" lon="2.73322">
        <ele>455</ele>
        <time>2018-10-11T07:29:28Z</time>
      </trkpt>
      <trkpt lat="42.38286" lon="2.73321">
        <ele>452</ele>
        <time>2018-10-11T07:29:31Z</time>
      </trkpt>
      <trkpt lat="42.38339" lon="2.73286">
        <ele>442</ele>
        <time>2018-10-11T07:29:34Z</time>
      </trkpt>
      <trkpt lat="42.38367" lon="2.73249">
        <ele>450</ele>
        <time>2018-10-11T07:29:36Z</time>
      </trkpt>
      <trkpt lat="42.38391" lon="2.73211">
        <ele>448</ele>
        <time>2018-10-11T07:29:38Z</time>
      </trkpt>
      <trkpt lat="42.38426" lon="2.73172">
        <ele>443</ele>
        <time>2018-10-11T07:29:41Z</time>
      </trkpt>
      <trkpt lat="42.3844" lon="2.73165">
        <ele>448</ele>
        <time>2018-10-11T07:29:42Z</time>
      </trkpt>
      <trkpt lat="42.38469" lon="2.73162">
        <ele>447</ele>
        <time>2018-10-11T07:29:44Z</time>
      </trkpt>
      <trkpt lat="42.38509" lon="2.73184">
        <ele>437</ele>
        <time>2018-10-11T07:29:47Z</time>
      </trkpt>
      <trkpt lat="42.38536" lon="2.73234">
        <ele>433</ele>
        <time>2018-10-11T07:29:50Z</time>
      </trkpt>
      <trkpt lat="42.3854" lon="2.7328">
        <ele>427</ele>
        <time>2018-10-11T07:29:52Z</time>
      </trkpt>
      <trkpt lat="42.38528" lon="2.73329">
        <ele>425</ele>
        <time>2018-10-11T07:29:54Z</time>
      </trkpt>
      <trkpt lat="42.38519" lon="2.73353">
        <ele>428</ele>
        <time>2018-10-11T07:29:55Z</time>
      </trkpt>
      <trkpt lat="42.38498" lon="2.73403">
        <ele>425</ele>
        <time>2018-10-11T07:29:57Z</time>
      </trkpt>
      <trkpt lat="42.38483" lon="2.73514">
        <ele>433</ele>
        <time>2018-10-11T07:30:01Z</time>
      </trkpt>
      <trkpt lat="42.38493" lon="2.73603">
        <ele>438</ele>
        <time>2018-10-11T07:30:04Z</time>
      </trkpt>
      <trkpt lat="42.38508" lon="2.73714">
        <ele>442</ele>
        <time>2018-10-11T07:30:08Z</time>
      </trkpt>
      <trkpt lat="42.38523" lon="2.73787">
        <ele>442</ele>
        <time>2018-10-11T07:30:11Z</time>
      </trkpt>
      <trkpt lat="42.38573" lon="2.73896">
        <ele>440</ele>
        <time>2018-10-11T07:30:16Z</time>
      </trkpt>
      <trkpt lat="42.38605" lon="2.73957">
        <ele>440</ele>
        <time>2018-10-11T07:30:19Z</time>
      </trkpt>
      <trkpt lat="42.38625" lon="2.74024">
        <ele>437</ele>
        <time>2018-10-11T07:30:22Z</time>
      </trkpt>
      <trkpt lat="42.38622" lon="2.74097">
        <ele>432</ele>
        <time>2018-10-11T07:30:25Z</time>
      </trkpt>
      <trkpt lat="42.38616" lon="2.74123">
        <ele>431</ele>
        <time>2018-10-11T07:30:26Z</time>
      </trkpt>
      <trkpt lat="42.38595" lon="2.74206">
        <ele>424</ele>
        <time>2018-10-11T07:30:29Z</time>
      </trkpt>
      <trkpt lat="42.38581" lon="2.74262">
        <ele>416</ele>
        <time>2018-10-11T07:30:31Z</time>
      </trkpt>
      <trkpt lat="42.38566" lon="2.74318">
        <ele>414</ele>
        <time>2018-10-11T07:30:33Z</time>
      </trkpt>
      <trkpt lat="42.38552" lon="2.74373">
        <ele>408</ele>
        <time>2018-10-11T07:30:35Z</time>
      </trkpt>
      <trkpt lat="42.38544" lon="2.744">
        <ele>407</ele>
        <time>2018-10-11T07:30:36Z</time>
      </trkpt>
      <trkpt lat="42.38509" lon="2.74467">
        <ele>396</ele>
        <time>2018-10-11T07:30:39Z</time>
      </trkpt>
      <trkpt lat="42.38494" lon="2.74485">
        <ele>395</ele>
        <time>2018-10-11T07:30:40Z</time>
      </trkpt>
      <trkpt lat="42.3846" lon="2.74514">
        <ele>390</ele>
        <time>2018-10-11T07:30:42Z</time>
      </trkpt>
      <trkpt lat="42.38402" lon="2.74555">
        <ele>390</ele>
        <time>2018-10-11T07:30:45Z</time>
      </trkpt>
      <trkpt lat="42.38364" lon="2.74582">
        <ele>389</ele>
        <time>2018-10-11T07:30:47Z</time>
      </trkpt>
      <trkpt lat="42.38327" lon="2.74609">
        <ele>385</ele>
        <time>2018-10-11T07:30:49Z</time>
      </trkpt>
      <trkpt lat="42.38309" lon="2.74623">
        <ele>384</ele>
        <time>2018-10-11T07:30:50Z</time>
      </trkpt>
      <trkpt lat="42.38253" lon="2.74698">
        <ele>380</ele>
        <time>2018-10-11T07:30:54Z</time>
      </trkpt>
      <trkpt lat="42.3823" lon="2.74767">
        <ele>384</ele>
        <time>2018-10-11T07:30:57Z</time>
      </trkpt>
      <trkpt lat="42.38226" lon="2.7479">
        <ele>383</ele>
        <time>2018-10-11T07:30:58Z</time>
      </trkpt>
      <trkpt lat="42.38224" lon="2.74811">
        <ele>382</ele>
        <time>2018-10-11T07:30:59Z</time>
      </trkpt>
      <trkpt lat="42.38224" lon="2.74849">
        <ele>374</ele>
        <time>2018-10-11T07:31:01Z</time>
      </trkpt>
      <trkpt lat="42.38227" lon="2.7488">
        <ele>372</ele>
        <time>2018-10-11T07:31:03Z</time>
      </trkpt>
      <trkpt lat="42.38235" lon="2.74914">
        <ele>369</ele>
        <time>2018-10-11T07:31:06Z</time>
      </trkpt>
      <trkpt lat="42.38239" lon="2.74928">
        <ele>365</ele>
        <time>2018-10-11T07:31:09Z</time>
      </trkpt>
      <trkpt lat="42.38241" lon="2.7493">
        <ele>365</ele>
        <time>2018-10-11T07:31:11Z</time>
      </trkpt>
      <trkpt lat="42.38229" lon="2.74926">
        <ele>365</ele>
        <time>2018-10-11T08:08:38Z</time>
      </trkpt>
      <trkpt lat="42.3824" lon="2.74924">
        <ele>366</ele>
        <time>2018-10-11T08:08:48Z</time>
      </trkpt>
      <trkpt lat="42.38245" lon="2.74929">
        <ele>365</ele>
        <time>2018-10-11T08:09:04Z</time>
      </trkpt>
      <trkpt lat="42.38259" lon="2.74962">
        <ele>361</ele>
        <time>2018-10-11T08:09:10Z</time>
      </trkpt>
      <trkpt lat="42.38279" lon="2.74995">
        <ele>360</ele>
        <time>2018-10-11T08:09:14Z</time>
      </trkpt>
      <trkpt lat="42.38328" lon="2.75048">
        <ele>355</ele>
        <time>2018-10-11T08:09:21Z</time>
      </trkpt>
      <trkpt lat="42.38369" lon="2.75088">
        <ele>348</ele>
        <time>2018-10-11T08:09:26Z</time>
      </trkpt>
      <trkpt lat="42.38403" lon="2.75122">
        <ele>347</ele>
        <time>2018-10-11T08:09:30Z</time>
      </trkpt>
      <trkpt lat="42.38434" lon="2.75155">
        <ele>348</ele>
        <time>2018-10-11T08:09:34Z</time>
      </trkpt>
      <trkpt lat="42.38453" lon="2.75181">
        <ele>347</ele>
        <time>2018-10-11T08:09:37Z</time>
      </trkpt>
      <trkpt lat="42.38458" lon="2.75191">
        <ele>348</ele>
        <time>2018-10-11T08:09:38Z</time>
      </trkpt>
      <trkpt lat="42.38471" lon="2.75228">
        <ele>348</ele>
        <time>2018-10-11T08:09:43Z</time>
      </trkpt>
      <trkpt lat="42.38471" lon="2.75229">
        <ele>348</ele>
        <time>2018-10-11T08:09:47Z</time>
      </trkpt>
      <trkpt lat="42.38469" lon="2.75228">
        <ele>347</ele>
        <time>2018-10-11T08:10:16Z</time>
      </trkpt>
      <trkpt lat="42.38472" lon="2.75234">
        <ele>348</ele>
        <time>2018-10-11T08:10:19Z</time>
      </trkpt>
      <trkpt lat="42.3848" lon="2.75268">
        <ele>346</ele>
        <time>2018-10-11T08:10:25Z</time>
      </trkpt>
      <trkpt lat="42.38487" lon="2.75315">
        <ele>346</ele>
        <time>2018-10-11T08:10:30Z</time>
      </trkpt>
      <trkpt lat="42.3851" lon="2.75355">
        <ele>347</ele>
        <time>2018-10-11T08:10:35Z</time>
      </trkpt>
      <trkpt lat="42.38531" lon="2.75366">
        <ele>348</ele>
        <time>2018-10-11T08:10:38Z</time>
      </trkpt>
      <trkpt lat="42.38553" lon="2.75371">
        <ele>348</ele>
        <time>2018-10-11T08:10:41Z</time>
      </trkpt>
      <trkpt lat="42.38587" lon="2.75402">
        <ele>350</ele>
        <time>2018-10-11T08:10:47Z</time>
      </trkpt>
      <trkpt lat="42.3859" lon="2.75411">
        <ele>349</ele>
        <time>2018-10-11T08:10:48Z</time>
      </trkpt>
      <trkpt lat="42.38611" lon="2.75495">
        <ele>349</ele>
        <time>2018-10-11T08:10:56Z</time>
      </trkpt>
      <trkpt lat="42.3863" lon="2.75562">
        <ele>351</ele>
        <time>2018-10-11T08:11:02Z</time>
      </trkpt>
      <trkpt lat="42.3866" lon="2.75676">
        <ele>351</ele>
        <time>2018-10-11T08:11:11Z</time>
      </trkpt>
      <trkpt lat="42.38696" lon="2.75808">
        <ele>354</ele>
        <time>2018-10-11T08:11:21Z</time>
      </trkpt>
      <trkpt lat="42.38713" lon="2.75875">
        <ele>353</ele>
        <time>2018-10-11T08:11:26Z</time>
      </trkpt>
      <trkpt lat="42.38739" lon="2.75915">
        <ele>354</ele>
        <time>2018-10-11T08:11:30Z</time>
      </trkpt>
      <trkpt lat="42.38758" lon="2.75928">
        <ele>355</ele>
        <time>2018-10-11T08:11:32Z</time>
      </trkpt>
      <trkpt lat="42.38786" lon="2.7597">
        <ele>355</ele>
        <time>2018-10-11T08:11:36Z</time>
      </trkpt>
      <trkpt lat="42.3879" lon="2.76015">
        <ele>354</ele>
        <time>2018-10-11T08:11:39Z</time>
      </trkpt>
      <trkpt lat="42.38783" lon="2.76046">
        <ele>354</ele>
        <time>2018-10-11T08:11:41Z</time>
      </trkpt>
      <trkpt lat="42.38746" lon="2.76171">
        <ele>355</ele>
        <time>2018-10-11T08:11:49Z</time>
      </trkpt>
      <trkpt lat="42.38749" lon="2.76223">
        <ele>353</ele>
        <time>2018-10-11T08:11:53Z</time>
      </trkpt>
      <trkpt lat="42.38755" lon="2.76234">
        <ele>356</ele>
        <time>2018-10-11T08:11:54Z</time>
      </trkpt>
      <trkpt lat="42.38813" lon="2.76333">
        <ele>351</ele>
        <time>2018-10-11T08:12:02Z</time>
      </trkpt>
      <trkpt lat="42.3885" lon="2.7638">
        <ele>349</ele>
        <time>2018-10-11T08:12:06Z</time>
      </trkpt>
      <trkpt lat="42.38879" lon="2.76413">
        <ele>348</ele>
        <time>2018-10-11T08:12:09Z</time>
      </trkpt>
      <trkpt lat="42.38899" lon="2.76432">
        <ele>341</ele>
        <time>2018-10-11T08:12:11Z</time>
      </trkpt>
      <trkpt lat="42.38941" lon="2.76439">
        <ele>340</ele>
        <time>2018-10-11T08:12:15Z</time>
      </trkpt>
      <trkpt lat="42.38984" lon="2.7642">
        <ele>340</ele>
        <time>2018-10-11T08:12:19Z</time>
      </trkpt>
      <trkpt lat="42.39007" lon="2.76414">
        <ele>344</ele>
        <time>2018-10-11T08:12:21Z</time>
      </trkpt>
      <trkpt lat="42.39029" lon="2.76419">
        <ele>339</ele>
        <time>2018-10-11T08:12:23Z</time>
      </trkpt>
      <trkpt lat="42.39057" lon="2.76447">
        <ele>338</ele>
        <time>2018-10-11T08:12:26Z</time>
      </trkpt>
      <trkpt lat="42.39064" lon="2.7646">
        <ele>338</ele>
        <time>2018-10-11T08:12:27Z</time>
      </trkpt>
      <trkpt lat="42.39088" lon="2.76518">
        <ele>341</ele>
        <time>2018-10-11T08:12:31Z</time>
      </trkpt>
      <trkpt lat="42.39094" lon="2.76578">
        <ele>342</ele>
        <time>2018-10-11T08:12:35Z</time>
      </trkpt>
      <trkpt lat="42.39078" lon="2.76622">
        <ele>342</ele>
        <time>2018-10-11T08:12:38Z</time>
      </trkpt>
      <trkpt lat="42.39048" lon="2.76655">
        <ele>342</ele>
        <time>2018-10-11T08:12:41Z</time>
      </trkpt>
      <trkpt lat="42.39022" lon="2.7667">
        <ele>347</ele>
        <time>2018-10-11T08:12:43Z</time>
      </trkpt>
      <trkpt lat="42.38908" lon="2.76716">
        <ele>337</ele>
        <time>2018-10-11T08:12:51Z</time>
      </trkpt>
      <trkpt lat="42.3881" lon="2.76765">
        <ele>338</ele>
        <time>2018-10-11T08:12:58Z</time>
      </trkpt>
      <trkpt lat="42.38729" lon="2.76811">
        <ele>327</ele>
        <time>2018-10-11T08:13:04Z</time>
      </trkpt>
      <trkpt lat="42.38716" lon="2.76819">
        <ele>325</ele>
        <time>2018-10-11T08:13:05Z</time>
      </trkpt>
      <trkpt lat="42.38678" lon="2.76865">
        <ele>329</ele>
        <time>2018-10-11T08:13:09Z</time>
      </trkpt>
      <trkpt lat="42.38673" lon="2.76881">
        <ele>330</ele>
        <time>2018-10-11T08:13:10Z</time>
      </trkpt>
      <trkpt lat="42.38671" lon="2.76898">
        <ele>329</ele>
        <time>2018-10-11T08:13:11Z</time>
      </trkpt>
      <trkpt lat="42.38667" lon="2.76932">
        <ele>333</ele>
        <time>2018-10-11T08:13:13Z</time>
      </trkpt>
      <trkpt lat="42.38643" lon="2.7699">
        <ele>325</ele>
        <time>2018-10-11T08:13:17Z</time>
      </trkpt>
      <trkpt lat="42.38599" lon="2.77076">
        <ele>323</ele>
        <time>2018-10-11T08:13:23Z</time>
      </trkpt>
      <trkpt lat="42.3858" lon="2.77162">
        <ele>317</ele>
        <time>2018-10-11T08:13:28Z</time>
      </trkpt>
      <trkpt lat="42.38553" lon="2.7731">
        <ele>317</ele>
        <time>2018-10-11T08:13:36Z</time>
      </trkpt>
      <trkpt lat="42.38515" lon="2.77416">
        <ele>317</ele>
        <time>2018-10-11T08:13:42Z</time>
      </trkpt>
      <trkpt lat="42.3848" lon="2.77481">
        <ele>318</ele>
        <time>2018-10-11T08:13:46Z</time>
      </trkpt>
      <trkpt lat="42.38443" lon="2.77542">
        <ele>318</ele>
        <time>2018-10-11T08:13:50Z</time>
      </trkpt>
      <trkpt lat="42.38414" lon="2.77587">
        <ele>317</ele>
        <time>2018-10-11T08:13:53Z</time>
      </trkpt>
      <trkpt lat="42.38405" lon="2.77601">
        <ele>315</ele>
        <time>2018-10-11T08:13:54Z</time>
      </trkpt>
      <trkpt lat="42.38382" lon="2.77669">
        <ele>309</ele>
        <time>2018-10-11T08:13:58Z</time>
      </trkpt>
      <trkpt lat="42.38386" lon="2.77724">
        <ele>307</ele>
        <time>2018-10-11T08:14:01Z</time>
      </trkpt>
      <trkpt lat="42.38391" lon="2.77741">
        <ele>306</ele>
        <time>2018-10-11T08:14:02Z</time>
      </trkpt>
      <trkpt lat="42.38408" lon="2.77771">
        <ele>301</ele>
        <time>2018-10-11T08:14:04Z</time>
      </trkpt>
      <trkpt lat="42.38443" lon="2.77801">
        <ele>295</ele>
        <time>2018-10-11T08:14:07Z</time>
      </trkpt>
      <trkpt lat="42.38486" lon="2.77807">
        <ele>294</ele>
        <time>2018-10-11T08:14:10Z</time>
      </trkpt>
      <trkpt lat="42.38557" lon="2.7782">
        <ele>294</ele>
        <time>2018-10-11T08:14:15Z</time>
      </trkpt>
      <trkpt lat="42.38593" lon="2.77855">
        <ele>285</ele>
        <time>2018-10-11T08:14:18Z</time>
      </trkpt>
      <trkpt lat="42.38628" lon="2.7789">
        <ele>282</ele>
        <time>2018-10-11T08:14:21Z</time>
      </trkpt>
      <trkpt lat="42.38658" lon="2.77897">
        <ele>280</ele>
        <time>2018-10-11T08:14:23Z</time>
      </trkpt>
      <trkpt lat="42.38705" lon="2.77899">
        <ele>278</ele>
        <time>2018-10-11T08:14:26Z</time>
      </trkpt>
      <trkpt lat="42.38762" lon="2.77933">
        <ele>270</ele>
        <time>2018-10-11T08:14:30Z</time>
      </trkpt>
      <trkpt lat="42.38781" lon="2.77965">
        <ele>268</ele>
        <time>2018-10-11T08:14:32Z</time>
      </trkpt>
      <trkpt lat="42.38821" lon="2.78012">
        <ele>263</ele>
        <time>2018-10-11T08:14:37Z</time>
      </trkpt>
      <trkpt lat="42.38848" lon="2.78036">
        <ele>262</ele>
        <time>2018-10-11T08:14:40Z</time>
      </trkpt>
      <trkpt lat="42.38855" lon="2.78047">
        <ele>261</ele>
        <time>2018-10-11T08:14:41Z</time>
      </trkpt>
      <trkpt lat="42.3889" lon="2.78067">
        <ele>261</ele>
        <time>2018-10-11T08:14:45Z</time>
      </trkpt>
      <trkpt lat="42.38911" lon="2.78083">
        <ele>260</ele>
        <time>2018-10-11T08:14:48Z</time>
      </trkpt>
      <trkpt lat="42.38914" lon="2.78106">
        <ele>259</ele>
        <time>2018-10-11T08:14:50Z</time>
      </trkpt>
      <trkpt lat="42.38914" lon="2.7813">
        <ele>260</ele>
        <time>2018-10-11T08:14:52Z</time>
      </trkpt>
      <trkpt lat="42.38904" lon="2.7816">
        <ele>262</ele>
        <time>2018-10-11T08:14:55Z</time>
      </trkpt>
      <trkpt lat="42.38895" lon="2.78165">
        <ele>261</ele>
        <time>2018-10-11T08:14:56Z</time>
      </trkpt>
      <trkpt lat="42.38876" lon="2.78174">
        <ele>265</ele>
        <time>2018-10-11T08:14:58Z</time>
      </trkpt>
      <trkpt lat="42.3884" lon="2.7821">
        <ele>265</ele>
        <time>2018-10-11T08:15:02Z</time>
      </trkpt>
      <trkpt lat="42.38777" lon="2.78315">
        <ele>264</ele>
        <time>2018-10-11T08:15:10Z</time>
      </trkpt>
      <trkpt lat="42.3873" lon="2.78376">
        <ele>260</ele>
        <time>2018-10-11T08:15:15Z</time>
      </trkpt>
      <trkpt lat="42.38673" lon="2.78478">
        <ele>268</ele>
        <time>2018-10-11T08:15:22Z</time>
      </trkpt>
      <trkpt lat="42.38633" lon="2.78523">
        <ele>264</ele>
        <time>2018-10-11T08:15:26Z</time>
      </trkpt>
      <trkpt lat="42.38599" lon="2.78578">
        <ele>263</ele>
        <time>2018-10-11T08:15:30Z</time>
      </trkpt>
      <trkpt lat="42.38556" lon="2.78623">
        <ele>265</ele>
        <time>2018-10-11T08:15:34Z</time>
      </trkpt>
      <trkpt lat="42.3853" lon="2.78634">
        <ele>265</ele>
        <time>2018-10-11T08:15:36Z</time>
      </trkpt>
      <trkpt lat="42.38444" lon="2.78661">
        <ele>258</ele>
        <time>2018-10-11T08:15:42Z</time>
      </trkpt>
      <trkpt lat="42.38396" lon="2.78699">
        <ele>257</ele>
        <time>2018-10-11T08:15:46Z</time>
      </trkpt>
      <trkpt lat="42.38373" lon="2.78724">
        <ele>257</ele>
        <time>2018-10-11T08:15:48Z</time>
      </trkpt>
      <trkpt lat="42.3832" lon="2.78756">
        <ele>259</ele>
        <time>2018-10-11T08:15:52Z</time>
      </trkpt>
      <trkpt lat="42.38305" lon="2.7876">
        <ele>260</ele>
        <time>2018-10-11T08:15:53Z</time>
      </trkpt>
      <trkpt lat="42.38262" lon="2.78765">
        <ele>258</ele>
        <time>2018-10-11T08:15:56Z</time>
      </trkpt>
      <trkpt lat="42.38208" lon="2.7879">
        <ele>257</ele>
        <time>2018-10-11T08:16:00Z</time>
      </trkpt>
      <trkpt lat="42.38104" lon="2.78863">
        <ele>263</ele>
        <time>2018-10-11T08:16:08Z</time>
      </trkpt>
      <trkpt lat="42.38053" lon="2.789">
        <ele>259</ele>
        <time>2018-10-11T08:16:12Z</time>
      </trkpt>
      <trkpt lat="42.38003" lon="2.78923">
        <ele>257</ele>
        <time>2018-10-11T08:16:16Z</time>
      </trkpt>
      <trkpt lat="42.3796" lon="2.78963">
        <ele>252</ele>
        <time>2018-10-11T08:16:20Z</time>
      </trkpt>
      <trkpt lat="42.37921" lon="2.79016">
        <ele>250</ele>
        <time>2018-10-11T08:16:24Z</time>
      </trkpt>
      <trkpt lat="42.37903" lon="2.79078">
        <ele>246</ele>
        <time>2018-10-11T08:16:28Z</time>
      </trkpt>
      <trkpt lat="42.379" lon="2.79246">
        <ele>225</ele>
        <time>2018-10-11T08:16:37Z</time>
      </trkpt>
      <trkpt lat="42.37889" lon="2.79321">
        <ele>210</ele>
        <time>2018-10-11T08:16:41Z</time>
      </trkpt>
      <trkpt lat="42.37855" lon="2.79406">
        <ele>220</ele>
        <time>2018-10-11T08:16:46Z</time>
      </trkpt>
      <trkpt lat="42.37825" lon="2.79449">
        <ele>233</ele>
        <time>2018-10-11T08:16:49Z</time>
      </trkpt>
      <trkpt lat="42.37754" lon="2.79517">
        <ele>250</ele>
        <time>2018-10-11T08:16:55Z</time>
      </trkpt>
      <trkpt lat="42.37743" lon="2.79527">
        <ele>242</ele>
        <time>2018-10-11T08:16:56Z</time>
      </trkpt>
      <trkpt lat="42.3772" lon="2.79542">
        <ele>241</ele>
        <time>2018-10-11T08:16:58Z</time>
      </trkpt>
      <trkpt lat="42.37696" lon="2.79573">
        <ele>239</ele>
        <time>2018-10-11T08:17:01Z</time>
      </trkpt>
      <trkpt lat="42.37681" lon="2.79629">
        <ele>254</ele>
        <time>2018-10-11T08:17:05Z</time>
      </trkpt>
      <trkpt lat="42.37666" lon="2.79654">
        <ele>243</ele>
        <time>2018-10-11T08:17:07Z</time>
      </trkpt>
      <trkpt lat="42.37649" lon="2.79699">
        <ele>248</ele>
        <time>2018-10-11T08:17:10Z</time>
      </trkpt>
      <trkpt lat="42.37615" lon="2.79763">
        <ele>257</ele>
        <time>2018-10-11T08:17:15Z</time>
      </trkpt>
      <trkpt lat="42.37601" lon="2.79804">
        <ele>260</ele>
        <time>2018-10-11T08:17:18Z</time>
      </trkpt>
      <trkpt lat="42.37583" lon="2.79841">
        <ele>257</ele>
        <time>2018-10-11T08:17:21Z</time>
      </trkpt>
      <trkpt lat="42.37565" lon="2.79861">
        <ele>258</ele>
        <time>2018-10-11T08:17:23Z</time>
      </trkpt>
      <trkpt lat="42.37535" lon="2.79877">
        <ele>257</ele>
        <time>2018-10-11T08:17:26Z</time>
      </trkpt>
      <trkpt lat="42.37498" lon="2.79908">
        <ele>250</ele>
        <time>2018-10-11T08:17:30Z</time>
      </trkpt>
      <trkpt lat="42.37469" lon="2.79958">
        <ele>252</ele>
        <time>2018-10-11T08:17:34Z</time>
      </trkpt>
      <trkpt lat="42.37453" lon="2.80015">
        <ele>264</ele>
        <time>2018-10-11T08:17:38Z</time>
      </trkpt>
      <trkpt lat="42.3745" lon="2.80029">
        <ele>265</ele>
        <time>2018-10-11T08:17:39Z</time>
      </trkpt>
      <trkpt lat="42.37425" lon="2.80054">
        <ele>266</ele>
        <time>2018-10-11T08:17:42Z</time>
      </trkpt>
      <trkpt lat="42.37414" lon="2.80057">
        <ele>257</ele>
        <time>2018-10-11T08:17:43Z</time>
      </trkpt>
      <trkpt lat="42.37388" lon="2.80077">
        <ele>256</ele>
        <time>2018-10-11T08:17:46Z</time>
      </trkpt>
      <trkpt lat="42.37361" lon="2.80086">
        <ele>263</ele>
        <time>2018-10-11T08:17:49Z</time>
      </trkpt>
      <trkpt lat="42.37335" lon="2.80084">
        <ele>256</ele>
        <time>2018-10-11T08:17:52Z</time>
      </trkpt>
      <trkpt lat="42.37311" lon="2.80106">
        <ele>253</ele>
        <time>2018-10-11T08:17:55Z</time>
      </trkpt>
      <trkpt lat="42.37294" lon="2.80143">
        <ele>253</ele>
        <time>2018-10-11T08:17:58Z</time>
      </trkpt>
      <trkpt lat="42.37273" lon="2.80222">
        <ele>256</ele>
        <time>2018-10-11T08:18:03Z</time>
      </trkpt>
      <trkpt lat="42.37275" lon="2.80288">
        <ele>255</ele>
        <time>2018-10-11T08:18:07Z</time>
      </trkpt>
      <trkpt lat="42.37299" lon="2.80325">
        <ele>256</ele>
        <time>2018-10-11T08:18:10Z</time>
      </trkpt>
      <trkpt lat="42.37309" lon="2.80334">
        <ele>254</ele>
        <time>2018-10-11T08:18:11Z</time>
      </trkpt>
      <trkpt lat="42.3735" lon="2.80391">
        <ele>262</ele>
        <time>2018-10-11T08:18:16Z</time>
      </trkpt>
      <trkpt lat="42.37345" lon="2.80439">
        <ele>266</ele>
        <time>2018-10-11T08:18:19Z</time>
      </trkpt>
      <trkpt lat="42.37338" lon="2.80453">
        <ele>267</ele>
        <time>2018-10-11T08:18:20Z</time>
      </trkpt>
      <trkpt lat="42.37324" lon="2.80483">
        <ele>261</ele>
        <time>2018-10-11T08:18:22Z</time>
      </trkpt>
      <trkpt lat="42.37318" lon="2.80551">
        <ele>265</ele>
        <time>2018-10-11T08:18:26Z</time>
      </trkpt>
      <trkpt lat="42.37323" lon="2.80586">
        <ele>270</ele>
        <time>2018-10-11T08:18:28Z</time>
      </trkpt>
      <trkpt lat="42.37312" lon="2.80652">
        <ele>272</ele>
        <time>2018-10-11T08:18:32Z</time>
      </trkpt>
      <trkpt lat="42.37256" lon="2.80773">
        <ele>277</ele>
        <time>2018-10-11T08:18:40Z</time>
      </trkpt>
      <trkpt lat="42.37203" lon="2.80889">
        <ele>274</ele>
        <time>2018-10-11T08:18:48Z</time>
      </trkpt>
      <trkpt lat="42.37174" lon="2.80951">
        <ele>268</ele>
        <time>2018-10-11T08:18:52Z</time>
      </trkpt>
      <trkpt lat="42.37168" lon="2.80966">
        <ele>267</ele>
        <time>2018-10-11T08:18:53Z</time>
      </trkpt>
      <trkpt lat="42.37162" lon="2.80983">
        <ele>275</ele>
        <time>2018-10-11T08:18:54Z</time>
      </trkpt>
      <trkpt lat="42.37154" lon="2.81017">
        <ele>270</ele>
        <time>2018-10-11T08:18:56Z</time>
      </trkpt>
      <trkpt lat="42.3713" lon="2.81079">
        <ele>270</ele>
        <time>2018-10-11T08:19:00Z</time>
      </trkpt>
      <trkpt lat="42.37122" lon="2.8111">
        <ele>265</ele>
        <time>2018-10-11T08:19:02Z</time>
      </trkpt>
      <trkpt lat="42.37105" lon="2.81174">
        <ele>260</ele>
        <time>2018-10-11T08:19:06Z</time>
      </trkpt>
      <trkpt lat="42.37104" lon="2.81191">
        <ele>259</ele>
        <time>2018-10-11T08:19:07Z</time>
      </trkpt>
      <trkpt lat="42.37101" lon="2.81324">
        <ele>246</ele>
        <time>2018-10-11T08:19:14Z</time>
      </trkpt>
      <trkpt lat="42.371" lon="2.81363">
        <ele>243</ele>
        <time>2018-10-11T08:19:16Z</time>
      </trkpt>
      <trkpt lat="42.37097" lon="2.81443">
        <ele>244</ele>
        <time>2018-10-11T08:19:20Z</time>
      </trkpt>
      <trkpt lat="42.37085" lon="2.81542">
        <ele>242</ele>
        <time>2018-10-11T08:19:25Z</time>
      </trkpt>
      <trkpt lat="42.37073" lon="2.81599">
        <ele>244</ele>
        <time>2018-10-11T08:19:28Z</time>
      </trkpt>
      <trkpt lat="42.37076" lon="2.81674">
        <ele>240</ele>
        <time>2018-10-11T08:19:32Z</time>
      </trkpt>
      <trkpt lat="42.37099" lon="2.81722">
        <ele>234</ele>
        <time>2018-10-11T08:19:35Z</time>
      </trkpt>
      <trkpt lat="42.37128" lon="2.81765">
        <ele>232</ele>
        <time>2018-10-11T08:19:38Z</time>
      </trkpt>
      <trkpt lat="42.37146" lon="2.81824">
        <ele>230</ele>
        <time>2018-10-11T08:19:42Z</time>
      </trkpt>
      <trkpt lat="42.37126" lon="2.81859">
        <ele>229</ele>
        <time>2018-10-11T08:19:45Z</time>
      </trkpt>
      <trkpt lat="42.37108" lon="2.81881">
        <ele>229</ele>
        <time>2018-10-11T08:19:47Z</time>
      </trkpt>
      <trkpt lat="42.37089" lon="2.81925">
        <ele>227</ele>
        <time>2018-10-11T08:19:50Z</time>
      </trkpt>
      <trkpt lat="42.37056" lon="2.81961">
        <ele>226</ele>
        <time>2018-10-11T08:19:54Z</time>
      </trkpt>
      <trkpt lat="42.37044" lon="2.81964">
        <ele>226</ele>
        <time>2018-10-11T08:19:55Z</time>
      </trkpt>
      <trkpt lat="42.37021" lon="2.81968">
        <ele>226</ele>
        <time>2018-10-11T08:19:57Z</time>
      </trkpt>
      <trkpt lat="42.37" lon="2.81976">
        <ele>227</ele>
        <time>2018-10-11T08:19:59Z</time>
      </trkpt>
      <trkpt lat="42.36983" lon="2.81997">
        <ele>226</ele>
        <time>2018-10-11T08:20:01Z</time>
      </trkpt>
      <trkpt lat="42.36939" lon="2.82048">
        <ele>223</ele>
        <time>2018-10-11T08:20:06Z</time>
      </trkpt>
      <trkpt lat="42.369" lon="2.82113">
        <ele>224</ele>
        <time>2018-10-11T08:20:11Z</time>
      </trkpt>
      <trkpt lat="42.36893" lon="2.82128">
        <ele>224</ele>
        <time>2018-10-11T08:20:12Z</time>
      </trkpt>
      <trkpt lat="42.36886" lon="2.82142">
        <ele>224</ele>
        <time>2018-10-11T08:20:13Z</time>
      </trkpt>
      <trkpt lat="42.36876" lon="2.82203">
        <ele>218</ele>
        <time>2018-10-11T08:20:17Z</time>
      </trkpt>
      <trkpt lat="42.3688" lon="2.82219">
        <ele>218</ele>
        <time>2018-10-11T08:20:18Z</time>
      </trkpt>
      <trkpt lat="42.36889" lon="2.82266">
        <ele>213</ele>
        <time>2018-10-11T08:20:21Z</time>
      </trkpt>
      <trkpt lat="42.36879" lon="2.82312">
        <ele>212</ele>
        <time>2018-10-11T08:20:24Z</time>
      </trkpt>
      <trkpt lat="42.3686" lon="2.82328">
        <ele>211</ele>
        <time>2018-10-11T08:20:26Z</time>
      </trkpt>
      <trkpt lat="42.3682" lon="2.82343">
        <ele>212</ele>
        <time>2018-10-11T08:20:30Z</time>
      </trkpt>
      <trkpt lat="42.36801" lon="2.82377">
        <ele>213</ele>
        <time>2018-10-11T08:20:33Z</time>
      </trkpt>
      <trkpt lat="42.36795" lon="2.82408">
        <ele>212</ele>
        <time>2018-10-11T08:20:35Z</time>
      </trkpt>
      <trkpt lat="42.3679" lon="2.82441">
        <ele>206</ele>
        <time>2018-10-11T08:20:37Z</time>
      </trkpt>
      <trkpt lat="42.36773" lon="2.82506">
        <ele>200</ele>
        <time>2018-10-11T08:20:41Z</time>
      </trkpt>
      <trkpt lat="42.36729" lon="2.82571">
        <ele>202</ele>
        <time>2018-10-11T08:20:46Z</time>
      </trkpt>
      <trkpt lat="42.36717" lon="2.82581">
        <ele>204</ele>
        <time>2018-10-11T08:20:47Z</time>
      </trkpt>
      <trkpt lat="42.36634" lon="2.82652">
        <ele>207</ele>
        <time>2018-10-11T08:20:54Z</time>
      </trkpt>
      <trkpt lat="42.36599" lon="2.82711">
        <ele>199</ele>
        <time>2018-10-11T08:20:58Z</time>
      </trkpt>
      <trkpt lat="42.36583" lon="2.82774">
        <ele>202</ele>
        <time>2018-10-11T08:21:02Z</time>
      </trkpt>
      <trkpt lat="42.36592" lon="2.82822">
        <ele>199</ele>
        <time>2018-10-11T08:21:05Z</time>
      </trkpt>
      <trkpt lat="42.36608" lon="2.82848">
        <ele>201</ele>
        <time>2018-10-11T08:21:07Z</time>
      </trkpt>
      <trkpt lat="42.36626" lon="2.8287">
        <ele>200</ele>
        <time>2018-10-11T08:21:09Z</time>
      </trkpt>
      <trkpt lat="42.36642" lon="2.82907">
        <ele>200</ele>
        <time>2018-10-11T08:21:12Z</time>
      </trkpt>
      <trkpt lat="42.36638" lon="2.82933">
        <ele>201</ele>
        <time>2018-10-11T08:21:14Z</time>
      </trkpt>
      <trkpt lat="42.36633" lon="2.82945">
        <ele>202</ele>
        <time>2018-10-11T08:21:15Z</time>
      </trkpt>
      <trkpt lat="42.36618" lon="2.82982">
        <ele>203</ele>
        <time>2018-10-11T08:21:18Z</time>
      </trkpt>
      <trkpt lat="42.36614" lon="2.83047">
        <ele>200</ele>
        <time>2018-10-11T08:21:23Z</time>
      </trkpt>
      <trkpt lat="42.36634" lon="2.8316">
        <ele>198</ele>
        <time>2018-10-11T08:21:31Z</time>
      </trkpt>
      <trkpt lat="42.36631" lon="2.83218">
        <ele>198</ele>
        <time>2018-10-11T08:21:35Z</time>
      </trkpt>
      <trkpt lat="42.36603" lon="2.83361">
        <ele>199</ele>
        <time>2018-10-11T08:21:45Z</time>
      </trkpt>
      <trkpt lat="42.36601" lon="2.83373">
        <ele>199</ele>
        <time>2018-10-11T08:21:46Z</time>
      </trkpt>
      <trkpt lat="42.36594" lon="2.83412">
        <ele>199</ele>
        <time>2018-10-11T08:21:50Z</time>
      </trkpt>
      <trkpt lat="42.36594" lon="2.83424">
        <ele>198</ele>
        <time>2018-10-11T08:21:53Z</time>
      </trkpt>
      <trkpt lat="42.36594" lon="2.83425">
        <ele>198</ele>
        <time>2018-10-11T08:21:59Z</time>
      </trkpt>
      <trkpt lat="42.36595" lon="2.83423">
        <ele>198</ele>
        <time>2018-10-11T08:22:31Z</time>
      </trkpt>
      <trkpt lat="42.36595" lon="2.83423">
        <ele>198</ele>
        <time>2018-10-11T08:22:37Z</time>
      </trkpt>
      <trkpt lat="42.36596" lon="2.83431">
        <ele>197</ele>
        <time>2018-10-11T08:22:40Z</time>
      </trkpt>
      <trkpt lat="42.36605" lon="2.8348">
        <ele>196</ele>
        <time>2018-10-11T08:22:47Z</time>
      </trkpt>
      <trkpt lat="42.36615" lon="2.83535">
        <ele>194</ele>
        <time>2018-10-11T08:22:52Z</time>
      </trkpt>
      <trkpt lat="42.36623" lon="2.83586">
        <ele>192</ele>
        <time>2018-10-11T08:22:56Z</time>
      </trkpt>
      <trkpt lat="42.36614" lon="2.83635">
        <ele>191</ele>
        <time>2018-10-11T08:23:00Z</time>
      </trkpt>
      <trkpt lat="42.3657" lon="2.83745">
        <ele>186</ele>
        <time>2018-10-11T08:23:08Z</time>
      </trkpt>
      <trkpt lat="42.36551" lon="2.8379">
        <ele>185</ele>
        <time>2018-10-11T08:23:11Z</time>
      </trkpt>
      <trkpt lat="42.36538" lon="2.83821">
        <ele>185</ele>
        <time>2018-10-11T08:23:13Z</time>
      </trkpt>
      <trkpt lat="42.36514" lon="2.83882">
        <ele>182</ele>
        <time>2018-10-11T08:23:17Z</time>
      </trkpt>
      <trkpt lat="42.36508" lon="2.83898">
        <ele>182</ele>
        <time>2018-10-11T08:23:18Z</time>
      </trkpt>
      <trkpt lat="42.36503" lon="2.83963">
        <ele>178</ele>
        <time>2018-10-11T08:23:22Z</time>
      </trkpt>
      <trkpt lat="42.36492" lon="2.84004">
        <ele>177</ele>
        <time>2018-10-11T08:23:25Z</time>
      </trkpt>
      <trkpt lat="42.36482" lon="2.84041">
        <ele>175</ele>
        <time>2018-10-11T08:23:28Z</time>
      </trkpt>
      <trkpt lat="42.36467" lon="2.84106">
        <ele>166</ele>
        <time>2018-10-11T08:23:33Z</time>
      </trkpt>
      <trkpt lat="42.36446" lon="2.84111">
        <ele>166</ele>
        <time>2018-10-11T08:23:35Z</time>
      </trkpt>
      <trkpt lat="42.3641" lon="2.84112">
        <ele>167</ele>
        <time>2018-10-11T08:23:38Z</time>
      </trkpt>
      <trkpt lat="42.36345" lon="2.84115">
        <ele>167</ele>
        <time>2018-10-11T08:23:43Z</time>
      </trkpt>
      <trkpt lat="42.36314" lon="2.84135">
        <ele>166</ele>
        <time>2018-10-11T08:23:46Z</time>
      </trkpt>
      <trkpt lat="42.36295" lon="2.84173">
        <ele>160</ele>
        <time>2018-10-11T08:23:49Z</time>
      </trkpt>
      <trkpt lat="42.36296" lon="2.84217">
        <ele>159</ele>
        <time>2018-10-11T08:23:52Z</time>
      </trkpt>
      <trkpt lat="42.36316" lon="2.84253">
        <ele>154</ele>
        <time>2018-10-11T08:23:55Z</time>
      </trkpt>
      <trkpt lat="42.36325" lon="2.84282">
        <ele>154</ele>
        <time>2018-10-11T08:23:57Z</time>
      </trkpt>
      <trkpt lat="42.36327" lon="2.84297">
        <ele>153</ele>
        <time>2018-10-11T08:23:58Z</time>
      </trkpt>
      <trkpt lat="42.36327" lon="2.84346">
        <ele>150</ele>
        <time>2018-10-11T08:24:01Z</time>
      </trkpt>
      <trkpt lat="42.36326" lon="2.84398">
        <ele>147</ele>
        <time>2018-10-11T08:24:04Z</time>
      </trkpt>
      <trkpt lat="42.36307" lon="2.84462">
        <ele>145</ele>
        <time>2018-10-11T08:24:08Z</time>
      </trkpt>
      <trkpt lat="42.3626" lon="2.84552">
        <ele>140</ele>
        <time>2018-10-11T08:24:14Z</time>
      </trkpt>
      <trkpt lat="42.36229" lon="2.84612">
        <ele>142</ele>
        <time>2018-10-11T08:24:18Z</time>
      </trkpt>
      <trkpt lat="42.36216" lon="2.84678">
        <ele>141</ele>
        <time>2018-10-11T08:24:22Z</time>
      </trkpt>
      <trkpt lat="42.36217" lon="2.84695">
        <ele>141</ele>
        <time>2018-10-11T08:24:23Z</time>
      </trkpt>
      <trkpt lat="42.36244" lon="2.84862">
        <ele>137</ele>
        <time>2018-10-11T08:24:32Z</time>
      </trkpt>
      <trkpt lat="42.36247" lon="2.8488">
        <ele>136</ele>
        <time>2018-10-11T08:24:33Z</time>
      </trkpt>
      <trkpt lat="42.36258" lon="2.84952">
        <ele>130</ele>
        <time>2018-10-11T08:24:37Z</time>
      </trkpt>
      <trkpt lat="42.36261" lon="2.84971">
        <ele>129</ele>
        <time>2018-10-11T08:24:38Z</time>
      </trkpt>
      <trkpt lat="42.36257" lon="2.85044">
        <ele>126</ele>
        <time>2018-10-11T08:24:42Z</time>
      </trkpt>
      <trkpt lat="42.36255" lon="2.8508">
        <ele>126</ele>
        <time>2018-10-11T08:24:44Z</time>
      </trkpt>
      <trkpt lat="42.36267" lon="2.8517">
        <ele>124</ele>
        <time>2018-10-11T08:24:49Z</time>
      </trkpt>
      <trkpt lat="42.36289" lon="2.85313">
        <ele>123</ele>
        <time>2018-10-11T08:24:57Z</time>
      </trkpt>
      <trkpt lat="42.36298" lon="2.85345">
        <ele>127</ele>
        <time>2018-10-11T08:24:59Z</time>
      </trkpt>
      <trkpt lat="42.36324" lon="2.85383">
        <ele>129</ele>
        <time>2018-10-11T08:25:02Z</time>
      </trkpt>
      <trkpt lat="42.36387" lon="2.85441">
        <ele>128</ele>
        <time>2018-10-11T08:25:08Z</time>
      </trkpt>
      <trkpt lat="42.36412" lon="2.85491">
        <ele>127</ele>
        <time>2018-10-11T08:25:12Z</time>
      </trkpt>
      <trkpt lat="42.36419" lon="2.85553">
        <ele>121</ele>
        <time>2018-10-11T08:25:16Z</time>
      </trkpt>
      <trkpt lat="42.36407" lon="2.856">
        <ele>123</ele>
        <time>2018-10-11T08:25:19Z</time>
      </trkpt>
      <trkpt lat="42.36393" lon="2.85628">
        <ele>123</ele>
        <time>2018-10-11T08:25:21Z</time>
      </trkpt>
      <trkpt lat="42.36377" lon="2.85655">
        <ele>122</ele>
        <time>2018-10-11T08:25:23Z</time>
      </trkpt>
      <trkpt lat="42.36361" lon="2.85701">
        <ele>117</ele>
        <time>2018-10-11T08:25:26Z</time>
      </trkpt>
      <trkpt lat="42.36359" lon="2.85751">
        <ele>114</ele>
        <time>2018-10-11T08:25:29Z</time>
      </trkpt>
      <trkpt lat="42.36372" lon="2.85849">
        <ele>119</ele>
        <time>2018-10-11T08:25:36Z</time>
      </trkpt>
      <trkpt lat="42.36375" lon="2.8588">
        <ele>120</ele>
        <time>2018-10-11T08:25:40Z</time>
      </trkpt>
      <trkpt lat="42.36375" lon="2.85879">
        <ele>120</ele>
        <time>2018-10-11T08:25:45Z</time>
      </trkpt>
      <trkpt lat="42.36376" lon="2.85877">
        <ele>120</ele>
        <time>2018-10-11T08:26:15Z</time>
      </trkpt>
      <trkpt lat="42.36376" lon="2.85876">
        <ele>120</ele>
        <time>2018-10-11T08:26:29Z</time>
      </trkpt>
      <trkpt lat="42.36378" lon="2.85884">
        <ele>120</ele>
        <time>2018-10-11T08:26:32Z</time>
      </trkpt>
      <trkpt lat="42.36398" lon="2.85898">
        <ele>120</ele>
        <time>2018-10-11T08:26:37Z</time>
      </trkpt>
      <trkpt lat="42.36437" lon="2.859">
        <ele>120</ele>
        <time>2018-10-11T08:26:42Z</time>
      </trkpt>
      <trkpt lat="42.36447" lon="2.85902">
        <ele>120</ele>
        <time>2018-10-11T08:26:43Z</time>
      </trkpt>
      <trkpt lat="42.36518" lon="2.85917">
        <ele>125</ele>
        <time>2018-10-11T08:26:50Z</time>
      </trkpt>
      <trkpt lat="42.36551" lon="2.85932">
        <ele>129</ele>
        <time>2018-10-11T08:26:53Z</time>
      </trkpt>
      <trkpt lat="42.3661" lon="2.85935">
        <ele>133</ele>
        <time>2018-10-11T08:26:58Z</time>
      </trkpt>
      <trkpt lat="42.36622" lon="2.85934">
        <ele>134</ele>
        <time>2018-10-11T08:26:59Z</time>
      </trkpt>
      <trkpt lat="42.36666" lon="2.85944">
        <ele>135</ele>
        <time>2018-10-11T08:27:03Z</time>
      </trkpt>
      <trkpt lat="42.36676" lon="2.85945">
        <ele>138</ele>
        <time>2018-10-11T08:27:04Z</time>
      </trkpt>
      <trkpt lat="42.36687" lon="2.85942">
        <ele>139</ele>
        <time>2018-10-11T08:27:05Z</time>
      </trkpt>
      <trkpt lat="42.3671" lon="2.85935">
        <ele>139</ele>
        <time>2018-10-11T08:27:07Z</time>
      </trkpt>
      <trkpt lat="42.36733" lon="2.8593">
        <ele>139</ele>
        <time>2018-10-11T08:27:09Z</time>
      </trkpt>
      <trkpt lat="42.36754" lon="2.85931">
        <ele>141</ele>
        <time>2018-10-11T08:27:11Z</time>
      </trkpt>
      <trkpt lat="42.36781" lon="2.85942">
        <ele>146</ele>
        <time>2018-10-11T08:27:14Z</time>
      </trkpt>
      <trkpt lat="42.36795" lon="2.85932">
        <ele>146</ele>
        <time>2018-10-11T08:27:16Z</time>
      </trkpt>
      <trkpt lat="42.36798" lon="2.85922">
        <ele>146</ele>
        <time>2018-10-11T08:27:17Z</time>
      </trkpt>
      <trkpt lat="42.36824" lon="2.85872">
        <ele>138</ele>
        <time>2018-10-11T08:27:22Z</time>
      </trkpt>
      <trkpt lat="42.36834" lon="2.85868">
        <ele>142</ele>
        <time>2018-10-11T08:27:23Z</time>
      </trkpt>
      <trkpt lat="42.36866" lon="2.8586">
        <ele>143</ele>
        <time>2018-10-11T08:27:26Z</time>
      </trkpt>
      <trkpt lat="42.36878" lon="2.85858">
        <ele>144</ele>
        <time>2018-10-11T08:27:27Z</time>
      </trkpt>
      <trkpt lat="42.36927" lon="2.85863">
        <ele>150</ele>
        <time>2018-10-11T08:27:31Z</time>
      </trkpt>
      <trkpt lat="42.36939" lon="2.85866">
        <ele>151</ele>
        <time>2018-10-11T08:27:32Z</time>
      </trkpt>
      <trkpt lat="42.3695" lon="2.85868">
        <ele>152</ele>
        <time>2018-10-11T08:27:33Z</time>
      </trkpt>
      <trkpt lat="42.36984" lon="2.85847">
        <ele>153</ele>
        <time>2018-10-11T08:27:37Z</time>
      </trkpt>
      <trkpt lat="42.36996" lon="2.85824">
        <ele>150</ele>
        <time>2018-10-11T08:27:39Z</time>
      </trkpt>
      <trkpt lat="42.37009" lon="2.85785">
        <ele>154</ele>
        <time>2018-10-11T08:27:42Z</time>
      </trkpt>
      <trkpt lat="42.37033" lon="2.85738">
        <ele>148</ele>
        <time>2018-10-11T08:27:46Z</time>
      </trkpt>
      <trkpt lat="42.3705" lon="2.8572">
        <ele>148</ele>
        <time>2018-10-11T08:27:48Z</time>
      </trkpt>
      <trkpt lat="42.37086" lon="2.85719">
        <ele>153</ele>
        <time>2018-10-11T08:27:52Z</time>
      </trkpt>
      <trkpt lat="42.37093" lon="2.85729">
        <ele>155</ele>
        <time>2018-10-11T08:27:53Z</time>
      </trkpt>
      <trkpt lat="42.37113" lon="2.85763">
        <ele>164</ele>
        <time>2018-10-11T08:27:56Z</time>
      </trkpt>
      <trkpt lat="42.37152" lon="2.85797">
        <ele>167</ele>
        <time>2018-10-11T08:28:00Z</time>
      </trkpt>
      <trkpt lat="42.37176" lon="2.85805">
        <ele>170</ele>
        <time>2018-10-11T08:28:02Z</time>
      </trkpt>
      <trkpt lat="42.37215" lon="2.85804">
        <ele>169</ele>
        <time>2018-10-11T08:28:06Z</time>
      </trkpt>
      <trkpt lat="42.3723" lon="2.85818">
        <ele>171</ele>
        <time>2018-10-11T08:28:08Z</time>
      </trkpt>
      <trkpt lat="42.37273" lon="2.85846">
        <ele>179</ele>
        <time>2018-10-11T08:28:13Z</time>
      </trkpt>
      <trkpt lat="42.37307" lon="2.85849">
        <ele>179</ele>
        <time>2018-10-11T08:28:16Z</time>
      </trkpt>
      <trkpt lat="42.37343" lon="2.85869">
        <ele>181</ele>
        <time>2018-10-11T08:28:20Z</time>
      </trkpt>
      <trkpt lat="42.37352" lon="2.85877">
        <ele>182</ele>
        <time>2018-10-11T08:28:21Z</time>
      </trkpt>
      <trkpt lat="42.37415" lon="2.85909">
        <ele>184</ele>
        <time>2018-10-11T08:28:27Z</time>
      </trkpt>
      <trkpt lat="42.37511" lon="2.85951">
        <ele>184</ele>
        <time>2018-10-11T08:28:35Z</time>
      </trkpt>
      <trkpt lat="42.37601" lon="2.85992">
        <ele>183</ele>
        <time>2018-10-11T08:28:43Z</time>
      </trkpt>
      <trkpt lat="42.37685" lon="2.86045">
        <ele>179</ele>
        <time>2018-10-11T08:28:51Z</time>
      </trkpt>
      <trkpt lat="42.37694" lon="2.86051">
        <ele>179</ele>
        <time>2018-10-11T08:28:52Z</time>
      </trkpt>
      <trkpt lat="42.37732" lon="2.86054">
        <ele>180</ele>
        <time>2018-10-11T08:28:56Z</time>
      </trkpt>
      <trkpt lat="42.37823" lon="2.86021">
        <ele>179</ele>
        <time>2018-10-11T08:29:04Z</time>
      </trkpt>
      <trkpt lat="42.37834" lon="2.86017">
        <ele>176</ele>
        <time>2018-10-11T08:29:05Z</time>
      </trkpt>
      <trkpt lat="42.37863" lon="2.85978">
        <ele>180</ele>
        <time>2018-10-11T08:29:09Z</time>
      </trkpt>
      <trkpt lat="42.37897" lon="2.85947">
        <ele>181</ele>
        <time>2018-10-11T08:29:13Z</time>
      </trkpt>
      <trkpt lat="42.3793" lon="2.85944">
        <ele>181</ele>
        <time>2018-10-11T08:29:16Z</time>
      </trkpt>
      <trkpt lat="42.37953" lon="2.85951">
        <ele>181</ele>
        <time>2018-10-11T08:29:18Z</time>
      </trkpt>
      <trkpt lat="42.37976" lon="2.85962">
        <ele>181</ele>
        <time>2018-10-11T08:29:20Z</time>
      </trkpt>
      <trkpt lat="42.38028" lon="2.86012">
        <ele>175</ele>
        <time>2018-10-11T08:29:25Z</time>
      </trkpt>
      <trkpt lat="42.3808" lon="2.86059">
        <ele>173</ele>
        <time>2018-10-11T08:29:30Z</time>
      </trkpt>
      <trkpt lat="42.381" lon="2.86073">
        <ele>175</ele>
        <time>2018-10-11T08:29:32Z</time>
      </trkpt>
      <trkpt lat="42.38116" lon="2.86106">
        <ele>175</ele>
        <time>2018-10-11T08:29:35Z</time>
      </trkpt>
      <trkpt lat="42.38108" lon="2.86126">
        <ele>175</ele>
        <time>2018-10-11T08:29:37Z</time>
      </trkpt>
      <trkpt lat="42.38087" lon="2.86175">
        <ele>171</ele>
        <time>2018-10-11T08:29:42Z</time>
      </trkpt>
      <trkpt lat="42.38104" lon="2.86204">
        <ele>171</ele>
        <time>2018-10-11T08:29:45Z</time>
      </trkpt>
      <trkpt lat="42.38132" lon="2.86215">
        <ele>172</ele>
        <time>2018-10-11T08:29:48Z</time>
      </trkpt>
      <trkpt lat="42.38206" lon="2.86215">
        <ele>177</ele>
        <time>2018-10-11T08:29:55Z</time>
      </trkpt>
      <trkpt lat="42.38265" lon="2.86215">
        <ele>176</ele>
        <time>2018-10-11T08:30:00Z</time>
      </trkpt>
      <trkpt lat="42.38318" lon="2.86193">
        <ele>177</ele>
        <time>2018-10-11T08:30:05Z</time>
      </trkpt>
      <trkpt lat="42.38328" lon="2.86186">
        <ele>178</ele>
        <time>2018-10-11T08:30:06Z</time>
      </trkpt>
      <trkpt lat="42.38359" lon="2.86142">
        <ele>182</ele>
        <time>2018-10-11T08:30:10Z</time>
      </trkpt>
      <trkpt lat="42.38408" lon="2.86094">
        <ele>182</ele>
        <time>2018-10-11T08:30:15Z</time>
      </trkpt>
      <trkpt lat="42.38465" lon="2.86065">
        <ele>182</ele>
        <time>2018-10-11T08:30:20Z</time>
      </trkpt>
      <trkpt lat="42.38487" lon="2.86057">
        <ele>181</ele>
        <time>2018-10-11T08:30:22Z</time>
      </trkpt>
      <trkpt lat="42.38518" lon="2.86022">
        <ele>177</ele>
        <time>2018-10-11T08:30:26Z</time>
      </trkpt>
      <trkpt lat="42.3856" lon="2.85901">
        <ele>174</ele>
        <time>2018-10-11T08:30:34Z</time>
      </trkpt>
      <trkpt lat="42.38594" lon="2.85806">
        <ele>166</ele>
        <time>2018-10-11T08:30:40Z</time>
      </trkpt>
      <trkpt lat="42.38603" lon="2.85743">
        <ele>168</ele>
        <time>2018-10-11T08:30:44Z</time>
      </trkpt>
      <trkpt lat="42.38627" lon="2.85692">
        <ele>167</ele>
        <time>2018-10-11T08:30:48Z</time>
      </trkpt>
      <trkpt lat="42.3866" lon="2.85635">
        <ele>169</ele>
        <time>2018-10-11T08:30:53Z</time>
      </trkpt>
      <trkpt lat="42.38675" lon="2.85597">
        <ele>164</ele>
        <time>2018-10-11T08:30:56Z</time>
      </trkpt>
      <trkpt lat="42.38684" lon="2.85587">
        <ele>164</ele>
        <time>2018-10-11T08:30:57Z</time>
      </trkpt>
      <trkpt lat="42.38703" lon="2.85569">
        <ele>166</ele>
        <time>2018-10-11T08:30:59Z</time>
      </trkpt>
      <trkpt lat="42.38762" lon="2.8554">
        <ele>163</ele>
        <time>2018-10-11T08:31:04Z</time>
      </trkpt>
      <trkpt lat="42.38812" lon="2.85521">
        <ele>163</ele>
        <time>2018-10-11T08:31:08Z</time>
      </trkpt>
      <trkpt lat="42.3886" lon="2.85472">
        <ele>161</ele>
        <time>2018-10-11T08:31:13Z</time>
      </trkpt>
      <trkpt lat="42.38873" lon="2.85445">
        <ele>161</ele>
        <time>2018-10-11T08:31:15Z</time>
      </trkpt>
      <trkpt lat="42.38879" lon="2.85387">
        <ele>163</ele>
        <time>2018-10-11T08:31:19Z</time>
      </trkpt>
      <trkpt lat="42.38881" lon="2.85343">
        <ele>163</ele>
        <time>2018-10-11T08:31:22Z</time>
      </trkpt>
      <trkpt lat="42.38907" lon="2.85315">
        <ele>162</ele>
        <time>2018-10-11T08:31:25Z</time>
      </trkpt>
      <trkpt lat="42.38929" lon="2.85303">
        <ele>156</ele>
        <time>2018-10-11T08:31:27Z</time>
      </trkpt>
      <trkpt lat="42.38987" lon="2.8528">
        <ele>154</ele>
        <time>2018-10-11T08:31:32Z</time>
      </trkpt>
      <trkpt lat="42.39045" lon="2.85227">
        <ele>151</ele>
        <time>2018-10-11T08:31:38Z</time>
      </trkpt>
      <trkpt lat="42.39074" lon="2.85198">
        <ele>151</ele>
        <time>2018-10-11T08:31:41Z</time>
      </trkpt>
      <trkpt lat="42.39126" lon="2.85175">
        <ele>148</ele>
        <time>2018-10-11T08:31:46Z</time>
      </trkpt>
      <trkpt lat="42.39229" lon="2.85147">
        <ele>148</ele>
        <time>2018-10-11T08:31:55Z</time>
      </trkpt>
      <trkpt lat="42.39264" lon="2.85137">
        <ele>144</ele>
        <time>2018-10-11T08:31:58Z</time>
      </trkpt>
      <trkpt lat="42.39295" lon="2.85101">
        <ele>142</ele>
        <time>2018-10-11T08:32:02Z</time>
      </trkpt>
      <trkpt lat="42.39327" lon="2.8504">
        <ele>144</ele>
        <time>2018-10-11T08:32:07Z</time>
      </trkpt>
      <trkpt lat="42.39372" lon="2.85002">
        <ele>138</ele>
        <time>2018-10-11T08:32:12Z</time>
      </trkpt>
      <trkpt lat="42.3938" lon="2.84997">
        <ele>140</ele>
        <time>2018-10-11T08:32:13Z</time>
      </trkpt>
      <trkpt lat="42.3941" lon="2.84955">
        <ele>141</ele>
        <time>2018-10-11T08:32:18Z</time>
      </trkpt>
      <trkpt lat="42.39443" lon="2.84888">
        <ele>143</ele>
        <time>2018-10-11T08:32:25Z</time>
      </trkpt>
      <trkpt lat="42.39457" lon="2.84874">
        <ele>144</ele>
        <time>2018-10-11T08:32:28Z</time>
      </trkpt>
      <trkpt lat="42.39461" lon="2.84872">
        <ele>144</ele>
        <time>2018-10-11T08:32:29Z</time>
      </trkpt>
      <trkpt lat="42.39469" lon="2.84869">
        <ele>143</ele>
        <time>2018-10-11T08:32:34Z</time>
      </trkpt>
      <trkpt lat="42.3947" lon="2.84872">
        <ele>143</ele>
        <time>2018-10-11T08:33:04Z</time>
      </trkpt>
      <trkpt lat="42.3947" lon="2.84872">
        <ele>143</ele>
        <time>2018-10-11T08:33:08Z</time>
      </trkpt>
      <trkpt lat="42.39475" lon="2.8487">
        <ele>143</ele>
        <time>2018-10-11T08:33:10Z</time>
      </trkpt>
      <trkpt lat="42.39503" lon="2.84855">
        <ele>141</ele>
        <time>2018-10-11T08:33:15Z</time>
      </trkpt>
      <trkpt lat="42.3953" lon="2.84822">
        <ele>145</ele>
        <time>2018-10-11T08:33:19Z</time>
      </trkpt>
      <trkpt lat="42.39567" lon="2.84812">
        <ele>143</ele>
        <time>2018-10-11T08:33:23Z</time>
      </trkpt>
      <trkpt lat="42.39595" lon="2.84829">
        <ele>139</ele>
        <time>2018-10-11T08:33:26Z</time>
      </trkpt>
      <trkpt lat="42.39617" lon="2.84858">
        <ele>139</ele>
        <time>2018-10-11T08:33:29Z</time>
      </trkpt>
      <trkpt lat="42.3963" lon="2.8489">
        <ele>140</ele>
        <time>2018-10-11T08:33:32Z</time>
      </trkpt>
      <trkpt lat="42.39621" lon="2.84913">
        <ele>140</ele>
        <time>2018-10-11T08:33:34Z</time>
      </trkpt>
      <trkpt lat="42.39574" lon="2.8498">
        <ele>140</ele>
        <time>2018-10-11T08:33:40Z</time>
      </trkpt>
      <trkpt lat="42.39521" lon="2.85035">
        <ele>143</ele>
        <time>2018-10-11T08:33:45Z</time>
      </trkpt>
      <trkpt lat="42.395" lon="2.85055">
        <ele>145</ele>
        <time>2018-10-11T08:33:47Z</time>
      </trkpt>
      <trkpt lat="42.39475" lon="2.85103">
        <ele>142</ele>
        <time>2018-10-11T08:33:51Z</time>
      </trkpt>
      <trkpt lat="42.39483" lon="2.85142">
        <ele>142</ele>
        <time>2018-10-11T08:33:54Z</time>
      </trkpt>
      <trkpt lat="42.39498" lon="2.8516">
        <ele>145</ele>
        <time>2018-10-11T08:33:56Z</time>
      </trkpt>
      <trkpt lat="42.39544" lon="2.85198">
        <ele>147</ele>
        <time>2018-10-11T08:34:01Z</time>
      </trkpt>
      <trkpt lat="42.39559" lon="2.8524">
        <ele>147</ele>
        <time>2018-10-11T08:34:05Z</time>
      </trkpt>
      <trkpt lat="42.39547" lon="2.85261">
        <ele>145</ele>
        <time>2018-10-11T08:34:07Z</time>
      </trkpt>
      <trkpt lat="42.39496" lon="2.85323">
        <ele>142</ele>
        <time>2018-10-11T08:34:13Z</time>
      </trkpt>
      <trkpt lat="42.39473" lon="2.85373">
        <ele>141</ele>
        <time>2018-10-11T08:34:17Z</time>
      </trkpt>
      <trkpt lat="42.39472" lon="2.85404">
        <ele>141</ele>
        <time>2018-10-11T08:34:19Z</time>
      </trkpt>
      <trkpt lat="42.39483" lon="2.85546">
        <ele>140</ele>
        <time>2018-10-11T08:34:27Z</time>
      </trkpt>
      <trkpt lat="42.39494" lon="2.85686">
        <ele>138</ele>
        <time>2018-10-11T08:34:35Z</time>
      </trkpt>
      <trkpt lat="42.39495" lon="2.85702">
        <ele>137</ele>
        <time>2018-10-11T08:34:36Z</time>
      </trkpt>
      <trkpt lat="42.39502" lon="2.85734">
        <ele>138</ele>
        <time>2018-10-11T08:34:38Z</time>
      </trkpt>
      <trkpt lat="42.39516" lon="2.85764">
        <ele>135</ele>
        <time>2018-10-11T08:34:40Z</time>
      </trkpt>
      <trkpt lat="42.39601" lon="2.85906">
        <ele>130</ele>
        <time>2018-10-11T08:34:49Z</time>
      </trkpt>
      <trkpt lat="42.39641" lon="2.85971">
        <ele>132</ele>
        <time>2018-10-11T08:34:53Z</time>
      </trkpt>
      <trkpt lat="42.39689" lon="2.86051">
        <ele>135</ele>
        <time>2018-10-11T08:34:58Z</time>
      </trkpt>
      <trkpt lat="42.39788" lon="2.86215">
        <ele>135</ele>
        <time>2018-10-11T08:35:08Z</time>
      </trkpt>
      <trkpt lat="42.39853" lon="2.86323">
        <ele>133</ele>
        <time>2018-10-11T08:35:15Z</time>
      </trkpt>
      <trkpt lat="42.39898" lon="2.86397">
        <ele>130</ele>
        <time>2018-10-11T08:35:20Z</time>
      </trkpt>
      <trkpt lat="42.39969" lon="2.86514">
        <ele>120</ele>
        <time>2018-10-11T08:35:27Z</time>
      </trkpt>
      <trkpt lat="42.39991" lon="2.86549">
        <ele>119</ele>
        <time>2018-10-11T08:35:29Z</time>
      </trkpt>
      <trkpt lat="42.40012" lon="2.86585">
        <ele>117</ele>
        <time>2018-10-11T08:35:31Z</time>
      </trkpt>
      <trkpt lat="42.40054" lon="2.86655">
        <ele>116</ele>
        <time>2018-10-11T08:35:35Z</time>
      </trkpt>
      <trkpt lat="42.40065" lon="2.86673">
        <ele>116</ele>
        <time>2018-10-11T08:35:36Z</time>
      </trkpt>
      <trkpt lat="42.40096" lon="2.86726">
        <ele>116</ele>
        <time>2018-10-11T08:35:39Z</time>
      </trkpt>
      <trkpt lat="42.40156" lon="2.86824">
        <ele>111</ele>
        <time>2018-10-11T08:35:45Z</time>
      </trkpt>
      <trkpt lat="42.40254" lon="2.86996">
        <ele>110</ele>
        <time>2018-10-11T08:35:56Z</time>
      </trkpt>
      <trkpt lat="42.40306" lon="2.8713">
        <ele>107</ele>
        <time>2018-10-11T08:36:04Z</time>
      </trkpt>
      <trkpt lat="42.40312" lon="2.87147">
        <ele>106</ele>
        <time>2018-10-11T08:36:05Z</time>
      </trkpt>
      <trkpt lat="42.40322" lon="2.8722">
        <ele>103</ele>
        <time>2018-10-11T08:36:09Z</time>
      </trkpt>
      <trkpt lat="42.40322" lon="2.87239">
        <ele>101</ele>
        <time>2018-10-11T08:36:10Z</time>
      </trkpt>
      <trkpt lat="42.40313" lon="2.87337">
        <ele>97</ele>
        <time>2018-10-11T08:36:15Z</time>
      </trkpt>
      <trkpt lat="42.40319" lon="2.87397">
        <ele>97</ele>
        <time>2018-10-11T08:36:18Z</time>
      </trkpt>
      <trkpt lat="42.40322" lon="2.87417">
        <ele>96</ele>
        <time>2018-10-11T08:36:19Z</time>
      </trkpt>
      <trkpt lat="42.40348" lon="2.87529">
        <ele>94</ele>
        <time>2018-10-11T08:36:25Z</time>
      </trkpt>
      <trkpt lat="42.40384" lon="2.87675">
        <ele>93</ele>
        <time>2018-10-11T08:36:33Z</time>
      </trkpt>
      <trkpt lat="42.40392" lon="2.87708">
        <ele>93</ele>
        <time>2018-10-11T08:36:35Z</time>
      </trkpt>
      <trkpt lat="42.40412" lon="2.87791">
        <ele>95</ele>
        <time>2018-10-11T08:36:41Z</time>
      </trkpt>
      <trkpt lat="42.40417" lon="2.87813">
        <ele>96</ele>
        <time>2018-10-11T08:36:43Z</time>
      </trkpt>
      <trkpt lat="42.40414" lon="2.87856">
        <ele>97</ele>
        <time>2018-10-11T08:36:48Z</time>
      </trkpt>
      <trkpt lat="42.4041" lon="2.87904">
        <ele>98</ele>
        <time>2018-10-11T08:36:53Z</time>
      </trkpt>
      <trkpt lat="42.40424" lon="2.87927">
        <ele>100</ele>
        <time>2018-10-11T08:36:56Z</time>
      </trkpt>
      <trkpt lat="42.40446" lon="2.87968">
        <ele>100</ele>
        <time>2018-10-11T08:37:01Z</time>
      </trkpt>
      <trkpt lat="42.40454" lon="2.88001">
        <ele>102</ele>
        <time>2018-10-11T08:37:04Z</time>
      </trkpt>
      <trkpt lat="42.40459" lon="2.88024">
        <ele>102</ele>
        <time>2018-10-11T08:37:06Z</time>
      </trkpt>
      <trkpt lat="42.40476" lon="2.88096">
        <ele>104</ele>
        <time>2018-10-11T08:37:13Z</time>
      </trkpt>
      <trkpt lat="42.40479" lon="2.88122">
        <ele>105</ele>
        <time>2018-10-11T08:37:16Z</time>
      </trkpt>
      <trkpt lat="42.40491" lon="2.88152">
        <ele>106</ele>
        <time>2018-10-11T08:37:20Z</time>
      </trkpt>
      <trkpt lat="42.40494" lon="2.88185">
        <ele>109</ele>
        <time>2018-10-11T08:37:24Z</time>
      </trkpt>
      <trkpt lat="42.40491" lon="2.88193">
        <ele>109</ele>
        <time>2018-10-11T08:37:25Z</time>
      </trkpt>
      <trkpt lat="42.40471" lon="2.88244">
        <ele>112</ele>
        <time>2018-10-11T08:37:30Z</time>
      </trkpt>
      <trkpt lat="42.40462" lon="2.88266">
        <ele>116</ele>
        <time>2018-10-11T08:37:32Z</time>
      </trkpt>
      <trkpt lat="42.40444" lon="2.88306">
        <ele>116</ele>
        <time>2018-10-11T08:37:37Z</time>
      </trkpt>
      <trkpt lat="42.40437" lon="2.88319">
        <ele>116</ele>
        <time>2018-10-11T08:37:41Z</time>
      </trkpt>
      <trkpt lat="42.40436" lon="2.88319">
        <ele>115</ele>
        <time>2018-10-11T08:37:49Z</time>
      </trkpt>
      <trkpt lat="42.40435" lon="2.8832">
        <ele>115</ele>
        <time>2018-10-11T08:38:29Z</time>
      </trkpt>
      <trkpt lat="42.40436" lon="2.88319">
        <ele>115</ele>
        <time>2018-10-11T08:38:49Z</time>
      </trkpt>
      <trkpt lat="42.40433" lon="2.8833">
        <ele>115</ele>
        <time>2018-10-11T08:38:53Z</time>
      </trkpt>
      <trkpt lat="42.40422" lon="2.88358">
        <ele>120</ele>
        <time>2018-10-11T08:38:58Z</time>
      </trkpt>
      <trkpt lat="42.4042" lon="2.88373">
        <ele>122</ele>
        <time>2018-10-11T08:39:00Z</time>
      </trkpt>
      <trkpt lat="42.40422" lon="2.8839">
        <ele>123</ele>
        <time>2018-10-11T08:39:02Z</time>
      </trkpt>
      <trkpt lat="42.4042" lon="2.88408">
        <ele>123</ele>
        <time>2018-10-11T08:39:04Z</time>
      </trkpt>
      <trkpt lat="42.40402" lon="2.88422">
        <ele>124</ele>
        <time>2018-10-11T08:39:07Z</time>
      </trkpt>
      <trkpt lat="42.40367" lon="2.88448">
        <ele>125</ele>
        <time>2018-10-11T08:39:12Z</time>
      </trkpt>
      <trkpt lat="42.40319" lon="2.88509">
        <ele>128</ele>
        <time>2018-10-11T08:39:19Z</time>
      </trkpt>
      <trkpt lat="42.40288" lon="2.88549">
        <ele>129</ele>
        <time>2018-10-11T08:39:23Z</time>
      </trkpt>
      <trkpt lat="42.40271" lon="2.88571">
        <ele>129</ele>
        <time>2018-10-11T08:39:25Z</time>
      </trkpt>
      <trkpt lat="42.40247" lon="2.88602">
        <ele>129</ele>
        <time>2018-10-11T08:39:28Z</time>
      </trkpt>
      <trkpt lat="42.40236" lon="2.88632">
        <ele>132</ele>
        <time>2018-10-11T08:39:31Z</time>
      </trkpt>
      <trkpt lat="42.40229" lon="2.88659">
        <ele>135</ele>
        <time>2018-10-11T08:39:34Z</time>
      </trkpt>
      <trkpt lat="42.40214" lon="2.88667">
        <ele>142</ele>
        <time>2018-10-11T08:39:36Z</time>
      </trkpt>
      <trkpt lat="42.40189" lon="2.88679">
        <ele>139</ele>
        <time>2018-10-11T08:39:39Z</time>
      </trkpt>
      <trkpt lat="42.40177" lon="2.88696">
        <ele>140</ele>
        <time>2018-10-11T08:39:41Z</time>
      </trkpt>
      <trkpt lat="42.40148" lon="2.88717">
        <ele>136</ele>
        <time>2018-10-11T08:39:45Z</time>
      </trkpt>
      <trkpt lat="42.40122" lon="2.88727">
        <ele>135</ele>
        <time>2018-10-11T08:39:48Z</time>
      </trkpt>
      <trkpt lat="42.40115" lon="2.88734">
        <ele>136</ele>
        <time>2018-10-11T08:39:49Z</time>
      </trkpt>
      <trkpt lat="42.40081" lon="2.88766">
        <ele>138</ele>
        <time>2018-10-11T08:39:53Z</time>
      </trkpt>
      <trkpt lat="42.40063" lon="2.88783">
        <ele>138</ele>
        <time>2018-10-11T08:39:55Z</time>
      </trkpt>
      <trkpt lat="42.40042" lon="2.88828">
        <ele>139</ele>
        <time>2018-10-11T08:39:59Z</time>
      </trkpt>
      <trkpt lat="42.40044" lon="2.88851">
        <ele>145</ele>
        <time>2018-10-11T08:40:01Z</time>
      </trkpt>
      <trkpt lat="42.40041" lon="2.88901">
        <ele>146</ele>
        <time>2018-10-11T08:40:06Z</time>
      </trkpt>
      <trkpt lat="42.40021" lon="2.88918">
        <ele>149</ele>
        <time>2018-10-11T08:40:09Z</time>
      </trkpt>
      <trkpt lat="42.40018" lon="2.88939">
        <ele>150</ele>
        <time>2018-10-11T08:40:11Z</time>
      </trkpt>
      <trkpt lat="42.40012" lon="2.89001">
        <ele>154</ele>
        <time>2018-10-11T08:40:16Z</time>
      </trkpt>
      <trkpt lat="42.39997" lon="2.89037">
        <ele>149</ele>
        <time>2018-10-11T08:40:19Z</time>
      </trkpt>
      <trkpt lat="42.3999" lon="2.89089">
        <ele>154</ele>
        <time>2018-10-11T08:40:23Z</time>
      </trkpt>
      <trkpt lat="42.39993" lon="2.89116">
        <ele>153</ele>
        <time>2018-10-11T08:40:25Z</time>
      </trkpt>
      <trkpt lat="42.40016" lon="2.89151">
        <ele>159</ele>
        <time>2018-10-11T08:40:29Z</time>
      </trkpt>
      <trkpt lat="42.40026" lon="2.89177">
        <ele>161</ele>
        <time>2018-10-11T08:40:32Z</time>
      </trkpt>
      <trkpt lat="42.40021" lon="2.89197">
        <ele>161</ele>
        <time>2018-10-11T08:40:34Z</time>
      </trkpt>
      <trkpt lat="42.40011" lon="2.89216">
        <ele>161</ele>
        <time>2018-10-11T08:40:36Z</time>
      </trkpt>
      <trkpt lat="42.40013" lon="2.89254">
        <ele>163</ele>
        <time>2018-10-11T08:40:40Z</time>
      </trkpt>
      <trkpt lat="42.40019" lon="2.89261">
        <ele>164</ele>
        <time>2018-10-11T08:40:41Z</time>
      </trkpt>
      <trkpt lat="42.40032" lon="2.89274">
        <ele>167</ele>
        <time>2018-10-11T08:40:43Z</time>
      </trkpt>
      <trkpt lat="42.4004" lon="2.89291">
        <ele>168</ele>
        <time>2018-10-11T08:40:45Z</time>
      </trkpt>
      <trkpt lat="42.40031" lon="2.89318">
        <ele>168</ele>
        <time>2018-10-11T08:40:48Z</time>
      </trkpt>
      <trkpt lat="42.40007" lon="2.89324">
        <ele>168</ele>
        <time>2018-10-11T08:40:51Z</time>
      </trkpt>
      <trkpt lat="42.39988" lon="2.89326">
        <ele>166</ele>
        <time>2018-10-11T08:40:53Z</time>
      </trkpt>
      <trkpt lat="42.39961" lon="2.89348">
        <ele>169</ele>
        <time>2018-10-11T08:40:57Z</time>
      </trkpt>
      <trkpt lat="42.39957" lon="2.89358">
        <ele>169</ele>
        <time>2018-10-11T08:40:58Z</time>
      </trkpt>
      <trkpt lat="42.39936" lon="2.89425">
        <ele>173</ele>
        <time>2018-10-11T08:41:04Z</time>
      </trkpt>
      <trkpt lat="42.39932" lon="2.89438">
        <ele>173</ele>
        <time>2018-10-11T08:41:05Z</time>
      </trkpt>
      <trkpt lat="42.39935" lon="2.89485">
        <ele>174</ele>
        <time>2018-10-11T08:41:09Z</time>
      </trkpt>
      <trkpt lat="42.39941" lon="2.89495">
        <ele>174</ele>
        <time>2018-10-11T08:41:10Z</time>
      </trkpt>
      <trkpt lat="42.39956" lon="2.8953">
        <ele>175</ele>
        <time>2018-10-11T08:41:13Z</time>
      </trkpt>
      <trkpt lat="42.39971" lon="2.89603">
        <ele>176</ele>
        <time>2018-10-11T08:41:18Z</time>
      </trkpt>
      <trkpt lat="42.39974" lon="2.8962">
        <ele>176</ele>
        <time>2018-10-11T08:41:19Z</time>
      </trkpt>
      <trkpt lat="42.39997" lon="2.89735">
        <ele>177</ele>
        <time>2018-10-11T08:41:26Z</time>
      </trkpt>
      <trkpt lat="42.40006" lon="2.89761">
        <ele>180</ele>
        <time>2018-10-11T08:41:28Z</time>
      </trkpt>
      <trkpt lat="42.40021" lon="2.89779">
        <ele>179</ele>
        <time>2018-10-11T08:41:30Z</time>
      </trkpt>
      <trkpt lat="42.40106" lon="2.89853">
        <ele>177</ele>
        <time>2018-10-11T08:41:39Z</time>
      </trkpt>
      <trkpt lat="42.40198" lon="2.89933">
        <ele>179</ele>
        <time>2018-10-11T08:41:48Z</time>
      </trkpt>
      <trkpt lat="42.40303" lon="2.90025">
        <ele>181</ele>
        <time>2018-10-11T08:41:58Z</time>
      </trkpt>
      <trkpt lat="42.40379" lon="2.90077">
        <ele>183</ele>
        <time>2018-10-11T08:42:04Z</time>
      </trkpt>
      <trkpt lat="42.40392" lon="2.90086">
        <ele>184</ele>
        <time>2018-10-11T08:42:05Z</time>
      </trkpt>
      <trkpt lat="42.40446" lon="2.90123">
        <ele>187</ele>
        <time>2018-10-11T08:42:09Z</time>
      </trkpt>
      <trkpt lat="42.40474" lon="2.90141">
        <ele>187</ele>
        <time>2018-10-11T08:42:11Z</time>
      </trkpt>
      <trkpt lat="42.40516" lon="2.9017">
        <ele>188</ele>
        <time>2018-10-11T08:42:14Z</time>
      </trkpt>
      <trkpt lat="42.4053" lon="2.90179">
        <ele>189</ele>
        <time>2018-10-11T08:42:15Z</time>
      </trkpt>
      <trkpt lat="42.40616" lon="2.90239">
        <ele>192</ele>
        <time>2018-10-11T08:42:21Z</time>
      </trkpt>
      <trkpt lat="42.4066" lon="2.90268">
        <ele>194</ele>
        <time>2018-10-11T08:42:24Z</time>
      </trkpt>
      <trkpt lat="42.40704" lon="2.90298">
        <ele>196</ele>
        <time>2018-10-11T08:42:27Z</time>
      </trkpt>
      <trkpt lat="42.40778" lon="2.90349">
        <ele>198</ele>
        <time>2018-10-11T08:42:32Z</time>
      </trkpt>
      <trkpt lat="42.40861" lon="2.90405">
        <ele>201</ele>
        <time>2018-10-11T08:42:38Z</time>
      </trkpt>
      <trkpt lat="42.40953" lon="2.90469">
        <ele>205</ele>
        <time>2018-10-11T08:42:46Z</time>
      </trkpt>
      <trkpt lat="42.4097" lon="2.90479">
        <ele>206</ele>
        <time>2018-10-11T08:42:48Z</time>
      </trkpt>
      <trkpt lat="42.41005" lon="2.90492">
        <ele>207</ele>
        <time>2018-10-11T08:42:52Z</time>
      </trkpt>
      <trkpt lat="42.41046" lon="2.90511">
        <ele>206</ele>
        <time>2018-10-11T08:42:56Z</time>
      </trkpt>
      <trkpt lat="42.41095" lon="2.90532">
        <ele>207</ele>
        <time>2018-10-11T08:43:00Z</time>
      </trkpt>
      <trkpt lat="42.41108" lon="2.90538">
        <ele>208</ele>
        <time>2018-10-11T08:43:01Z</time>
      </trkpt>
      <trkpt lat="42.41185" lon="2.90563">
        <ele>211</ele>
        <time>2018-10-11T08:43:07Z</time>
      </trkpt>
      <trkpt lat="42.41277" lon="2.9057">
        <ele>215</ele>
        <time>2018-10-11T08:43:14Z</time>
      </trkpt>
      <trkpt lat="42.41289" lon="2.90572">
        <ele>216</ele>
        <time>2018-10-11T08:43:15Z</time>
      </trkpt>
      <trkpt lat="42.41325" lon="2.906">
        <ele>215</ele>
        <time>2018-10-11T08:43:19Z</time>
      </trkpt>
      <trkpt lat="42.4133" lon="2.90614">
        <ele>213</ele>
        <time>2018-10-11T08:43:20Z</time>
      </trkpt>
      <trkpt lat="42.41337" lon="2.90642">
        <ele>219</ele>
        <time>2018-10-11T08:43:22Z</time>
      </trkpt>
      <trkpt lat="42.41365" lon="2.90685">
        <ele>214</ele>
        <time>2018-10-11T08:43:26Z</time>
      </trkpt>
      <trkpt lat="42.41426" lon="2.90729">
        <ele>220</ele>
        <time>2018-10-11T08:43:32Z</time>
      </trkpt>
      <trkpt lat="42.41448" lon="2.9074">
        <ele>222</ele>
        <time>2018-10-11T08:43:34Z</time>
      </trkpt>
      <trkpt lat="42.41497" lon="2.90751">
        <ele>220</ele>
        <time>2018-10-11T08:43:39Z</time>
      </trkpt>
      <trkpt lat="42.41506" lon="2.90768">
        <ele>225</ele>
        <time>2018-10-11T08:43:41Z</time>
      </trkpt>
      <trkpt lat="42.41506" lon="2.9078">
        <ele>226</ele>
        <time>2018-10-11T08:43:42Z</time>
      </trkpt>
      <trkpt lat="42.41517" lon="2.90834">
        <ele>217</ele>
        <time>2018-10-11T08:43:47Z</time>
      </trkpt>
      <trkpt lat="42.41555" lon="2.90881">
        <ele>221</ele>
        <time>2018-10-11T08:43:52Z</time>
      </trkpt>
      <trkpt lat="42.41573" lon="2.90934">
        <ele>218</ele>
        <time>2018-10-11T08:43:56Z</time>
      </trkpt>
      <trkpt lat="42.41577" lon="2.90964">
        <ele>215</ele>
        <time>2018-10-11T08:43:58Z</time>
      </trkpt>
      <trkpt lat="42.41598" lon="2.91014">
        <ele>219</ele>
        <time>2018-10-11T08:44:02Z</time>
      </trkpt>
      <trkpt lat="42.41625" lon="2.91022">
        <ele>223</ele>
        <time>2018-10-11T08:44:05Z</time>
      </trkpt>
      <trkpt lat="42.41638" lon="2.91035">
        <ele>224</ele>
        <time>2018-10-11T08:44:07Z</time>
      </trkpt>
      <trkpt lat="42.4164" lon="2.91059">
        <ele>223</ele>
        <time>2018-10-11T08:44:09Z</time>
      </trkpt>
      <trkpt lat="42.41641" lon="2.91115">
        <ele>220</ele>
        <time>2018-10-11T08:44:13Z</time>
      </trkpt>
      <trkpt lat="42.41657" lon="2.91167">
        <ele>221</ele>
        <time>2018-10-11T08:44:17Z</time>
      </trkpt>
      <trkpt lat="42.417" lon="2.91228">
        <ele>224</ele>
        <time>2018-10-11T08:44:22Z</time>
      </trkpt>
      <trkpt lat="42.4175" lon="2.91301">
        <ele>224</ele>
        <time>2018-10-11T08:44:27Z</time>
      </trkpt>
      <trkpt lat="42.41799" lon="2.9137">
        <ele>222</ele>
        <time>2018-10-11T08:44:32Z</time>
      </trkpt>
      <trkpt lat="42.41838" lon="2.91426">
        <ele>223</ele>
        <time>2018-10-11T08:44:37Z</time>
      </trkpt>
      <trkpt lat="42.41844" lon="2.91436">
        <ele>224</ele>
        <time>2018-10-11T08:44:38Z</time>
      </trkpt>
      <trkpt lat="42.41851" lon="2.91483">
        <ele>225</ele>
        <time>2018-10-11T08:44:42Z</time>
      </trkpt>
      <trkpt lat="42.41842" lon="2.91534">
        <ele>225</ele>
        <time>2018-10-11T08:44:46Z</time>
      </trkpt>
      <trkpt lat="42.41851" lon="2.91577">
        <ele>226</ele>
        <time>2018-10-11T08:44:50Z</time>
      </trkpt>
      <trkpt lat="42.41861" lon="2.91598">
        <ele>227</ele>
        <time>2018-10-11T08:44:52Z</time>
      </trkpt>
      <trkpt lat="42.41861" lon="2.91636">
        <ele>227</ele>
        <time>2018-10-11T08:44:55Z</time>
      </trkpt>
      <trkpt lat="42.41846" lon="2.91708">
        <ele>224</ele>
        <time>2018-10-11T08:45:00Z</time>
      </trkpt>
      <trkpt lat="42.41857" lon="2.91756">
        <ele>222</ele>
        <time>2018-10-11T08:45:04Z</time>
      </trkpt>
      <trkpt lat="42.4187" lon="2.91774">
        <ele>223</ele>
        <time>2018-10-11T08:45:06Z</time>
      </trkpt>
      <trkpt lat="42.41878" lon="2.91795">
        <ele>224</ele>
        <time>2018-10-11T08:45:08Z</time>
      </trkpt>
      <trkpt lat="42.41874" lon="2.91818">
        <ele>224</ele>
        <time>2018-10-11T08:45:10Z</time>
      </trkpt>
      <trkpt lat="42.41868" lon="2.91827">
        <ele>223</ele>
        <time>2018-10-11T08:45:11Z</time>
      </trkpt>
      <trkpt lat="42.41826" lon="2.91876">
        <ele>216</ele>
        <time>2018-10-11T08:45:16Z</time>
      </trkpt>
      <trkpt lat="42.41809" lon="2.91922">
        <ele>215</ele>
        <time>2018-10-11T08:45:20Z</time>
      </trkpt>
      <trkpt lat="42.41814" lon="2.91985">
        <ele>214</ele>
        <time>2018-10-11T08:45:25Z</time>
      </trkpt>
      <trkpt lat="42.4181" lon="2.9201">
        <ele>214</ele>
        <time>2018-10-11T08:45:27Z</time>
      </trkpt>
      <trkpt lat="42.41797" lon="2.92026">
        <ele>213</ele>
        <time>2018-10-11T08:45:29Z</time>
      </trkpt>
      <trkpt lat="42.41781" lon="2.92037">
        <ele>212</ele>
        <time>2018-10-11T08:45:31Z</time>
      </trkpt>
      <trkpt lat="42.4176" lon="2.92072">
        <ele>210</ele>
        <time>2018-10-11T08:45:35Z</time>
      </trkpt>
      <trkpt lat="42.4176" lon="2.92096">
        <ele>209</ele>
        <time>2018-10-11T08:45:37Z</time>
      </trkpt>
      <trkpt lat="42.41764" lon="2.92166">
        <ele>206</ele>
        <time>2018-10-11T08:45:42Z</time>
      </trkpt>
      <trkpt lat="42.4178" lon="2.92222">
        <ele>204</ele>
        <time>2018-10-11T08:45:46Z</time>
      </trkpt>
      <trkpt lat="42.41798" lon="2.92259">
        <ele>200</ele>
        <time>2018-10-11T08:45:49Z</time>
      </trkpt>
      <trkpt lat="42.41827" lon="2.92286">
        <ele>200</ele>
        <time>2018-10-11T08:45:53Z</time>
      </trkpt>
      <trkpt lat="42.41836" lon="2.92289">
        <ele>202</ele>
        <time>2018-10-11T08:45:54Z</time>
      </trkpt>
      <trkpt lat="42.41868" lon="2.92299">
        <ele>202</ele>
        <time>2018-10-11T08:45:58Z</time>
      </trkpt>
      <trkpt lat="42.4189" lon="2.92305">
        <ele>202</ele>
        <time>2018-10-11T08:46:01Z</time>
      </trkpt>
      <trkpt lat="42.41933" lon="2.92323">
        <ele>202</ele>
        <time>2018-10-11T08:46:07Z</time>
      </trkpt>
      <trkpt lat="42.41958" lon="2.92355">
        <ele>200</ele>
        <time>2018-10-11T08:46:12Z</time>
      </trkpt>
      <trkpt lat="42.41961" lon="2.92362">
        <ele>200</ele>
        <time>2018-10-11T08:46:13Z</time>
      </trkpt>
      <trkpt lat="42.41969" lon="2.92393">
        <ele>199</ele>
        <time>2018-10-11T08:46:19Z</time>
      </trkpt>
      <trkpt lat="42.41969" lon="2.92396">
        <ele>199</ele>
        <time>2018-10-11T08:46:21Z</time>
      </trkpt>
      <trkpt lat="42.41964" lon="2.92402">
        <ele>199</ele>
        <time>2018-10-11T08:50:13Z</time>
      </trkpt>
      <trkpt lat="42.41962" lon="2.92403">
        <ele>199</ele>
        <time>2018-10-11T08:50:24Z</time>
      </trkpt>
      <trkpt lat="42.41965" lon="2.92404">
        <ele>199</ele>
        <time>2018-10-11T08:50:47Z</time>
      </trkpt>
      <trkpt lat="42.41966" lon="2.92403">
        <ele>199</ele>
        <time>2018-10-11T08:51:01Z</time>
      </trkpt>
      <trkpt lat="42.41966" lon="2.92401">
        <ele>199</ele>
        <time>2018-10-11T08:51:46Z</time>
      </trkpt>
      <trkpt lat="42.41967" lon="2.92401">
        <ele>199</ele>
        <time>2018-10-11T08:52:14Z</time>
      </trkpt>
      <trkpt lat="42.41967" lon="2.92402">
        <ele>199</ele>
        <time>2018-10-11T08:52:24Z</time>
      </trkpt>
      <trkpt lat="42.41966" lon="2.92402">
        <ele>199</ele>
        <time>2018-10-11T08:52:40Z</time>
      </trkpt>
      <trkpt lat="42.41966" lon="2.92402">
        <ele>199</ele>
        <time>2018-10-11T08:52:59Z</time>
      </trkpt>
      <trkpt lat="42.41966" lon="2.92401">
        <ele>199</ele>
        <time>2018-10-11T08:53:38Z</time>
      </trkpt>
      <trkpt lat="42.41966" lon="2.924">
        <ele>199</ele>
        <time>2018-10-11T08:54:31Z</time>
      </trkpt>
      <trkpt lat="42.41967" lon="2.924">
        <ele>199</ele>
        <time>2018-10-11T08:54:51Z</time>
      </trkpt>
      <trkpt lat="42.41967" lon="2.92402">
        <ele>199</ele>
        <time>2018-10-11T08:54:52Z</time>
      </trkpt>
      <trkpt lat="42.41964" lon="2.92413">
        <ele>199</ele>
        <time>2018-10-11T08:54:59Z</time>
      </trkpt>
      <trkpt lat="42.41965" lon="2.92413">
        <ele>199</ele>
        <time>2018-10-11T08:55:09Z</time>
      </trkpt>
      <trkpt lat="42.41965" lon="2.92414">
        <ele>199</ele>
        <time>2018-10-11T08:55:19Z</time>
      </trkpt>
      <trkpt lat="42.41961" lon="2.92422">
        <ele>196</ele>
        <time>2018-10-11T08:55:28Z</time>
      </trkpt>
      <trkpt lat="42.41962" lon="2.92424">
        <ele>196</ele>
        <time>2018-10-11T08:55:52Z</time>
      </trkpt>
      <trkpt lat="42.41968" lon="2.92448">
        <ele>195</ele>
        <time>2018-10-11T08:55:59Z</time>
      </trkpt>
      <trkpt lat="42.41984" lon="2.925">
        <ele>196</ele>
        <time>2018-10-11T08:56:08Z</time>
      </trkpt>
      <trkpt lat="42.41999" lon="2.92555">
        <ele>193</ele>
        <time>2018-10-11T08:56:17Z</time>
      </trkpt>
      <trkpt lat="42.42002" lon="2.92566">
        <ele>195</ele>
        <time>2018-10-11T08:56:22Z</time>
      </trkpt>
      <trkpt lat="42.42002" lon="2.92568">
        <ele>195</ele>
        <time>2018-10-11T08:56:24Z</time>
      </trkpt>
      <trkpt lat="42.41998" lon="2.92573">
        <ele>193</ele>
        <time>2018-10-11T08:56:28Z</time>
      </trkpt>
      <trkpt lat="42.41989" lon="2.92579">
        <ele>192</ele>
        <time>2018-10-11T08:56:35Z</time>
      </trkpt>
      <trkpt lat="42.41988" lon="2.92576">
        <ele>192</ele>
        <time>2018-10-11T08:56:53Z</time>
      </trkpt>
      <trkpt lat="42.41987" lon="2.92578">
        <ele>192</ele>
        <time>2018-10-11T08:57:14Z</time>
      </trkpt>
      <trkpt lat="42.41986" lon="2.92595">
        <ele>190</ele>
        <time>2018-10-11T08:57:19Z</time>
      </trkpt>
      <trkpt lat="42.41989" lon="2.92606">
        <ele>190</ele>
        <time>2018-10-11T08:57:21Z</time>
      </trkpt>
      <trkpt lat="42.42004" lon="2.92672">
        <ele>187</ele>
        <time>2018-10-11T08:57:31Z</time>
      </trkpt>
      <trkpt lat="42.4201" lon="2.92706">
        <ele>188</ele>
        <time>2018-10-11T08:57:37Z</time>
      </trkpt>
      <trkpt lat="42.4201" lon="2.92707">
        <ele>189</ele>
        <time>2018-10-11T08:57:42Z</time>
      </trkpt>
      <trkpt lat="42.4201" lon="2.92707">
        <ele>188</ele>
        <time>2018-10-11T08:57:58Z</time>
      </trkpt>
      <trkpt lat="42.42008" lon="2.92706">
        <ele>188</ele>
        <time>2018-10-11T08:58:41Z</time>
      </trkpt>
      <trkpt lat="42.42009" lon="2.92707">
        <ele>188</ele>
        <time>2018-10-11T08:58:45Z</time>
      </trkpt>
      <trkpt lat="42.41998" lon="2.92719">
        <ele>186</ele>
        <time>2018-10-11T08:58:51Z</time>
      </trkpt>
      <trkpt lat="42.41969" lon="2.92741">
        <ele>185</ele>
        <time>2018-10-11T08:58:57Z</time>
      </trkpt>
      <trkpt lat="42.41929" lon="2.9279">
        <ele>185</ele>
        <time>2018-10-11T08:59:04Z</time>
      </trkpt>
      <trkpt lat="42.41887" lon="2.92843">
        <ele>183</ele>
        <time>2018-10-11T08:59:10Z</time>
      </trkpt>
      <trkpt lat="42.41835" lon="2.9291">
        <ele>182</ele>
        <time>2018-10-11T08:59:16Z</time>
      </trkpt>
      <trkpt lat="42.41787" lon="2.92975">
        <ele>178</ele>
        <time>2018-10-11T08:59:21Z</time>
      </trkpt>
      <trkpt lat="42.41744" lon="2.93029">
        <ele>175</ele>
        <time>2018-10-11T08:59:25Z</time>
      </trkpt>
      <trkpt lat="42.41675" lon="2.93108">
        <ele>173</ele>
        <time>2018-10-11T08:59:31Z</time>
      </trkpt>
      <trkpt lat="42.41542" lon="2.93244">
        <ele>168</ele>
        <time>2018-10-11T08:59:42Z</time>
      </trkpt>
      <trkpt lat="42.41431" lon="2.93354">
        <ele>165</ele>
        <time>2018-10-11T08:59:51Z</time>
      </trkpt>
      <trkpt lat="42.41408" lon="2.9338">
        <ele>163</ele>
        <time>2018-10-11T08:59:53Z</time>
      </trkpt>
      <trkpt lat="42.4134" lon="2.93462">
        <ele>164</ele>
        <time>2018-10-11T08:59:59Z</time>
      </trkpt>
      <trkpt lat="42.41267" lon="2.93557">
        <ele>162</ele>
        <time>2018-10-11T09:00:06Z</time>
      </trkpt>
      <trkpt lat="42.41207" lon="2.93607">
        <ele>159</ele>
        <time>2018-10-11T09:00:11Z</time>
      </trkpt>
      <trkpt lat="42.41116" lon="2.9366">
        <ele>156</ele>
        <time>2018-10-11T09:00:18Z</time>
      </trkpt>
      <trkpt lat="42.41056" lon="2.93711">
        <ele>155</ele>
        <time>2018-10-11T09:00:23Z</time>
      </trkpt>
      <trkpt lat="42.4102" lon="2.93738">
        <ele>154</ele>
        <time>2018-10-11T09:00:26Z</time>
      </trkpt>
      <trkpt lat="42.40979" lon="2.93781">
        <ele>153</ele>
        <time>2018-10-11T09:00:30Z</time>
      </trkpt>
      <trkpt lat="42.40907" lon="2.93887">
        <ele>150</ele>
        <time>2018-10-11T09:00:38Z</time>
      </trkpt>
      <trkpt lat="42.40898" lon="2.93901">
        <ele>150</ele>
        <time>2018-10-11T09:00:39Z</time>
      </trkpt>
      <trkpt lat="42.40855" lon="2.93941">
        <ele>149</ele>
        <time>2018-10-11T09:00:43Z</time>
      </trkpt>
      <trkpt lat="42.40825" lon="2.93969">
        <ele>148</ele>
        <time>2018-10-11T09:00:46Z</time>
      </trkpt>
      <trkpt lat="42.40749" lon="2.94078">
        <ele>148</ele>
        <time>2018-10-11T09:00:54Z</time>
      </trkpt>
      <trkpt lat="42.40728" lon="2.94108">
        <ele>147</ele>
        <time>2018-10-11T09:00:56Z</time>
      </trkpt>
      <trkpt lat="42.40611" lon="2.94279">
        <ele>144</ele>
        <time>2018-10-11T09:01:07Z</time>
      </trkpt>
      <trkpt lat="42.40602" lon="2.94295">
        <ele>144</ele>
        <time>2018-10-11T09:01:08Z</time>
      </trkpt>
      <trkpt lat="42.40586" lon="2.94345">
        <ele>144</ele>
        <time>2018-10-11T09:01:11Z</time>
      </trkpt>
      <trkpt lat="42.40558" lon="2.94397">
        <ele>144</ele>
        <time>2018-10-11T09:01:15Z</time>
      </trkpt>
      <trkpt lat="42.40549" lon="2.94408">
        <ele>144</ele>
        <time>2018-10-11T09:01:16Z</time>
      </trkpt>
      <trkpt lat="42.40513" lon="2.94477">
        <ele>143</ele>
        <time>2018-10-11T09:01:21Z</time>
      </trkpt>
      <trkpt lat="42.40504" lon="2.94537">
        <ele>144</ele>
        <time>2018-10-11T09:01:25Z</time>
      </trkpt>
      <trkpt lat="42.40508" lon="2.94642">
        <ele>145</ele>
        <time>2018-10-11T09:01:31Z</time>
      </trkpt>
      <trkpt lat="42.40517" lon="2.9469">
        <ele>145</ele>
        <time>2018-10-11T09:01:34Z</time>
      </trkpt>
      <trkpt lat="42.40511" lon="2.94728">
        <ele>145</ele>
        <time>2018-10-11T09:01:37Z</time>
      </trkpt>
      <trkpt lat="42.40504" lon="2.94737">
        <ele>145</ele>
        <time>2018-10-11T09:01:38Z</time>
      </trkpt>
      <trkpt lat="42.40446" lon="2.9479">
        <ele>144</ele>
        <time>2018-10-11T09:01:44Z</time>
      </trkpt>
      <trkpt lat="42.40416" lon="2.94839">
        <ele>144</ele>
        <time>2018-10-11T09:01:48Z</time>
      </trkpt>
      <trkpt lat="42.40399" lon="2.94862">
        <ele>144</ele>
        <time>2018-10-11T09:01:50Z</time>
      </trkpt>
      <trkpt lat="42.40369" lon="2.94893">
        <ele>144</ele>
        <time>2018-10-11T09:01:53Z</time>
      </trkpt>
      <trkpt lat="42.40318" lon="2.94914">
        <ele>144</ele>
        <time>2018-10-11T09:01:57Z</time>
      </trkpt>
      <trkpt lat="42.40238" lon="2.94926">
        <ele>145</ele>
        <time>2018-10-11T09:02:03Z</time>
      </trkpt>
      <trkpt lat="42.40211" lon="2.94935">
        <ele>145</ele>
        <time>2018-10-11T09:02:05Z</time>
      </trkpt>
      <trkpt lat="42.4015" lon="2.94974">
        <ele>146</ele>
        <time>2018-10-11T09:02:10Z</time>
      </trkpt>
      <trkpt lat="42.40128" lon="2.94993">
        <ele>146</ele>
        <time>2018-10-11T09:02:12Z</time>
      </trkpt>
      <trkpt lat="42.40094" lon="2.95047">
        <ele>147</ele>
        <time>2018-10-11T09:02:16Z</time>
      </trkpt>
      <trkpt lat="42.40049" lon="2.95117">
        <ele>148</ele>
        <time>2018-10-11T09:02:21Z</time>
      </trkpt>
      <trkpt lat="42.40031" lon="2.95148">
        <ele>148</ele>
        <time>2018-10-11T09:02:23Z</time>
      </trkpt>
      <trkpt lat="42.40005" lon="2.95194">
        <ele>149</ele>
        <time>2018-10-11T09:02:26Z</time>
      </trkpt>
      <trkpt lat="42.39965" lon="2.95227">
        <ele>150</ele>
        <time>2018-10-11T09:02:30Z</time>
      </trkpt>
      <trkpt lat="42.39934" lon="2.95219">
        <ele>150</ele>
        <time>2018-10-11T09:02:33Z</time>
      </trkpt>
      <trkpt lat="42.39924" lon="2.95212">
        <ele>150</ele>
        <time>2018-10-11T09:02:34Z</time>
      </trkpt>
      <trkpt lat="42.39846" lon="2.95145">
        <ele>148</ele>
        <time>2018-10-11T09:02:41Z</time>
      </trkpt>
      <trkpt lat="42.39763" lon="2.95074">
        <ele>146</ele>
        <time>2018-10-11T09:02:48Z</time>
      </trkpt>
      <trkpt lat="42.39727" lon="2.95045">
        <ele>145</ele>
        <time>2018-10-11T09:02:51Z</time>
      </trkpt>
      <trkpt lat="42.39693" lon="2.95016">
        <ele>145</ele>
        <time>2018-10-11T09:02:54Z</time>
      </trkpt>
      <trkpt lat="42.3965" lon="2.94954">
        <ele>148</ele>
        <time>2018-10-11T09:02:59Z</time>
      </trkpt>
      <trkpt lat="42.39613" lon="2.94917">
        <ele>149</ele>
        <time>2018-10-11T09:03:03Z</time>
      </trkpt>
      <trkpt lat="42.39602" lon="2.94913">
        <ele>150</ele>
        <time>2018-10-11T09:03:04Z</time>
      </trkpt>
      <trkpt lat="42.3958" lon="2.94905">
        <ele>151</ele>
        <time>2018-10-11T09:03:06Z</time>
      </trkpt>
      <trkpt lat="42.39539" lon="2.94875">
        <ele>151</ele>
        <time>2018-10-11T09:03:10Z</time>
      </trkpt>
      <trkpt lat="42.39484" lon="2.948">
        <ele>149</ele>
        <time>2018-10-11T09:03:17Z</time>
      </trkpt>
      <trkpt lat="42.39478" lon="2.9479">
        <ele>148</ele>
        <time>2018-10-11T09:03:18Z</time>
      </trkpt>
      <trkpt lat="42.39463" lon="2.94774">
        <ele>148</ele>
        <time>2018-10-11T09:03:20Z</time>
      </trkpt>
      <trkpt lat="42.39434" lon="2.9477">
        <ele>147</ele>
        <time>2018-10-11T09:03:23Z</time>
      </trkpt>
      <trkpt lat="42.39413" lon="2.94771">
        <ele>145</ele>
        <time>2018-10-11T09:03:25Z</time>
      </trkpt>
      <trkpt lat="42.39368" lon="2.94761">
        <ele>143</ele>
        <time>2018-10-11T09:03:29Z</time>
      </trkpt>
      <trkpt lat="42.39333" lon="2.94742">
        <ele>138</ele>
        <time>2018-10-11T09:03:32Z</time>
      </trkpt>
      <trkpt lat="42.39321" lon="2.94735">
        <ele>137</ele>
        <time>2018-10-11T09:03:33Z</time>
      </trkpt>
      <trkpt lat="42.39299" lon="2.94722">
        <ele>136</ele>
        <time>2018-10-11T09:03:35Z</time>
      </trkpt>
      <trkpt lat="42.39285" lon="2.94713">
        <ele>136</ele>
        <time>2018-10-11T09:03:37Z</time>
      </trkpt>
      <trkpt lat="42.3928" lon="2.94709">
        <ele>136</ele>
        <time>2018-10-11T09:03:39Z</time>
      </trkpt>
      <trkpt lat="42.39277" lon="2.94708">
        <ele>136</ele>
        <time>2018-10-11T09:03:44Z</time>
      </trkpt>
      <trkpt lat="42.39277" lon="2.94708">
        <ele>136</ele>
        <time>2018-10-11T09:03:52Z</time>
      </trkpt>
      <trkpt lat="42.39279" lon="2.9471">
        <ele>136</ele>
        <time>2018-10-11T09:04:34Z</time>
      </trkpt>
      <trkpt lat="42.39281" lon="2.9471">
        <ele>136</ele>
        <time>2018-10-11T09:05:03Z</time>
      </trkpt>
      <trkpt lat="42.39279" lon="2.94708">
        <ele>136</ele>
        <time>2018-10-11T09:05:31Z</time>
      </trkpt>
      <trkpt lat="42.39264" lon="2.94705">
        <ele>135</ele>
        <time>2018-10-11T09:05:35Z</time>
      </trkpt>
      <trkpt lat="42.39233" lon="2.94706">
        <ele>135</ele>
        <time>2018-10-11T09:05:39Z</time>
      </trkpt>
      <trkpt lat="42.39208" lon="2.94701">
        <ele>136</ele>
        <time>2018-10-11T09:05:42Z</time>
      </trkpt>
      <trkpt lat="42.39192" lon="2.94687">
        <ele>136</ele>
        <time>2018-10-11T09:05:44Z</time>
      </trkpt>
      <trkpt lat="42.39169" lon="2.94662">
        <ele>137</ele>
        <time>2018-10-11T09:05:47Z</time>
      </trkpt>
      <trkpt lat="42.39139" lon="2.94654">
        <ele>137</ele>
        <time>2018-10-11T09:05:50Z</time>
      </trkpt>
      <trkpt lat="42.39091" lon="2.94653">
        <ele>138</ele>
        <time>2018-10-11T09:05:54Z</time>
      </trkpt>
      <trkpt lat="42.39057" lon="2.94651">
        <ele>138</ele>
        <time>2018-10-11T09:05:57Z</time>
      </trkpt>
      <trkpt lat="42.39026" lon="2.94619">
        <ele>137</ele>
        <time>2018-10-11T09:06:01Z</time>
      </trkpt>
      <trkpt lat="42.39007" lon="2.94568">
        <ele>134</ele>
        <time>2018-10-11T09:06:05Z</time>
      </trkpt>
      <trkpt lat="42.38996" lon="2.94548">
        <ele>131</ele>
        <time>2018-10-11T09:06:07Z</time>
      </trkpt>
      <trkpt lat="42.3898" lon="2.9454">
        <ele>130</ele>
        <time>2018-10-11T09:06:09Z</time>
      </trkpt>
      <trkpt lat="42.38959" lon="2.9454">
        <ele>130</ele>
        <time>2018-10-11T09:06:11Z</time>
      </trkpt>
      <trkpt lat="42.38913" lon="2.94545">
        <ele>127</ele>
        <time>2018-10-11T09:06:15Z</time>
      </trkpt>
      <trkpt lat="42.38873" lon="2.94517">
        <ele>126</ele>
        <time>2018-10-11T09:06:19Z</time>
      </trkpt>
      <trkpt lat="42.38823" lon="2.94429">
        <ele>127</ele>
        <time>2018-10-11T09:06:26Z</time>
      </trkpt>
      <trkpt lat="42.3879" lon="2.94348">
        <ele>124</ele>
        <time>2018-10-11T09:06:32Z</time>
      </trkpt>
      <trkpt lat="42.38786" lon="2.94335">
        <ele>124</ele>
        <time>2018-10-11T09:06:33Z</time>
      </trkpt>
      <trkpt lat="42.38775" lon="2.94312">
        <ele>122</ele>
        <time>2018-10-11T09:06:35Z</time>
      </trkpt>
      <trkpt lat="42.38749" lon="2.94284">
        <ele>122</ele>
        <time>2018-10-11T09:06:38Z</time>
      </trkpt>
      <trkpt lat="42.38727" lon="2.94271">
        <ele>121</ele>
        <time>2018-10-11T09:06:40Z</time>
      </trkpt>
      <trkpt lat="42.38691" lon="2.9427">
        <ele>121</ele>
        <time>2018-10-11T09:06:43Z</time>
      </trkpt>
      <trkpt lat="42.38668" lon="2.94282">
        <ele>121</ele>
        <time>2018-10-11T09:06:45Z</time>
      </trkpt>
      <trkpt lat="42.38577" lon="2.94355">
        <ele>121</ele>
        <time>2018-10-11T09:06:53Z</time>
      </trkpt>
      <trkpt lat="42.38507" lon="2.9442">
        <ele>122</ele>
        <time>2018-10-11T09:06:59Z</time>
      </trkpt>
      <trkpt lat="42.384" lon="2.9448">
        <ele>121</ele>
        <time>2018-10-11T09:07:07Z</time>
      </trkpt>
      <trkpt lat="42.38371" lon="2.94491">
        <ele>120</ele>
        <time>2018-10-11T09:07:09Z</time>
      </trkpt>
      <trkpt lat="42.38316" lon="2.94513">
        <ele>119</ele>
        <time>2018-10-11T09:07:13Z</time>
      </trkpt>
      <trkpt lat="42.38291" lon="2.94524">
        <ele>119</ele>
        <time>2018-10-11T09:07:15Z</time>
      </trkpt>
      <trkpt lat="42.38266" lon="2.94526">
        <ele>119</ele>
        <time>2018-10-11T09:07:17Z</time>
      </trkpt>
      <trkpt lat="42.38218" lon="2.94515">
        <ele>118</ele>
        <time>2018-10-11T09:07:21Z</time>
      </trkpt>
      <trkpt lat="42.38195" lon="2.94524">
        <ele>118</ele>
        <time>2018-10-11T09:07:23Z</time>
      </trkpt>
      <trkpt lat="42.38183" lon="2.9453">
        <ele>118</ele>
        <time>2018-10-11T09:07:24Z</time>
      </trkpt>
      <trkpt lat="42.38116" lon="2.9458">
        <ele>117</ele>
        <time>2018-10-11T09:07:30Z</time>
      </trkpt>
      <trkpt lat="42.38032" lon="2.94648">
        <ele>118</ele>
        <time>2018-10-11T09:07:37Z</time>
      </trkpt>
      <trkpt lat="42.3798" lon="2.94719">
        <ele>118</ele>
        <time>2018-10-11T09:07:42Z</time>
      </trkpt>
      <trkpt lat="42.3794" lon="2.94803">
        <ele>119</ele>
        <time>2018-10-11T09:07:47Z</time>
      </trkpt>
      <trkpt lat="42.37894" lon="2.94849">
        <ele>118</ele>
        <time>2018-10-11T09:07:51Z</time>
      </trkpt>
      <trkpt lat="42.3788" lon="2.94856">
        <ele>119</ele>
        <time>2018-10-11T09:07:52Z</time>
      </trkpt>
      <trkpt lat="42.37837" lon="2.94872">
        <ele>119</ele>
        <time>2018-10-11T09:07:55Z</time>
      </trkpt>
      <trkpt lat="42.37777" lon="2.94884">
        <ele>117</ele>
        <time>2018-10-11T09:07:59Z</time>
      </trkpt>
      <trkpt lat="42.37748" lon="2.94897">
        <ele>116</ele>
        <time>2018-10-11T09:08:01Z</time>
      </trkpt>
      <trkpt lat="42.37663" lon="2.94952">
        <ele>117</ele>
        <time>2018-10-11T09:08:07Z</time>
      </trkpt>
      <trkpt lat="42.37529" lon="2.95028">
        <ele>119</ele>
        <time>2018-10-11T09:08:16Z</time>
      </trkpt>
      <trkpt lat="42.37514" lon="2.95035">
        <ele>119</ele>
        <time>2018-10-11T09:08:17Z</time>
      </trkpt>
      <trkpt lat="42.37441" lon="2.95082">
        <ele>119</ele>
        <time>2018-10-11T09:08:22Z</time>
      </trkpt>
      <trkpt lat="42.37407" lon="2.95118">
        <ele>120</ele>
        <time>2018-10-11T09:08:25Z</time>
      </trkpt>
      <trkpt lat="42.37362" lon="2.95136">
        <ele>120</ele>
        <time>2018-10-11T09:08:29Z</time>
      </trkpt>
      <trkpt lat="42.37349" lon="2.95134">
        <ele>120</ele>
        <time>2018-10-11T09:08:30Z</time>
      </trkpt>
      <trkpt lat="42.37239" lon="2.95099">
        <ele>120</ele>
        <time>2018-10-11T09:08:38Z</time>
      </trkpt>
      <trkpt lat="42.37198" lon="2.95076">
        <ele>120</ele>
        <time>2018-10-11T09:08:41Z</time>
      </trkpt>
      <trkpt lat="42.3713" lon="2.95062">
        <ele>121</ele>
        <time>2018-10-11T09:08:46Z</time>
      </trkpt>
      <trkpt lat="42.37105" lon="2.95064">
        <ele>121</ele>
        <time>2018-10-11T09:08:48Z</time>
      </trkpt>
      <trkpt lat="42.37071" lon="2.95048">
        <ele>118</ele>
        <time>2018-10-11T09:08:51Z</time>
      </trkpt>
      <trkpt lat="42.37057" lon="2.95022">
        <ele>118</ele>
        <time>2018-10-11T09:08:53Z</time>
      </trkpt>
      <trkpt lat="42.3704" lon="2.94978">
        <ele>117</ele>
        <time>2018-10-11T09:08:58Z</time>
      </trkpt>
      <trkpt lat="42.37039" lon="2.94976">
        <ele>117</ele>
        <time>2018-10-11T09:08:59Z</time>
      </trkpt>
      <trkpt lat="42.37039" lon="2.94974">
        <ele>117</ele>
        <time>2018-10-11T09:09:05Z</time>
      </trkpt>
      <trkpt lat="42.3704" lon="2.94973">
        <ele>117</ele>
        <time>2018-10-11T09:09:29Z</time>
      </trkpt>
      <trkpt lat="42.37041" lon="2.94974">
        <ele>117</ele>
        <time>2018-10-11T09:09:56Z</time>
      </trkpt>
      <trkpt lat="42.37032" lon="2.94973">
        <ele>117</ele>
        <time>2018-10-11T09:10:00Z</time>
      </trkpt>
      <trkpt lat="42.37003" lon="2.95009">
        <ele>116</ele>
        <time>2018-10-11T09:10:06Z</time>
      </trkpt>
      <trkpt lat="42.36941" lon="2.95082">
        <ele>115</ele>
        <time>2018-10-11T09:10:14Z</time>
      </trkpt>
      <trkpt lat="42.36874" lon="2.95161">
        <ele>117</ele>
        <time>2018-10-11T09:10:21Z</time>
      </trkpt>
      <trkpt lat="42.36833" lon="2.95211">
        <ele>118</ele>
        <time>2018-10-11T09:10:25Z</time>
      </trkpt>
      <trkpt lat="42.36805" lon="2.95273">
        <ele>116</ele>
        <time>2018-10-11T09:10:29Z</time>
      </trkpt>
      <trkpt lat="42.36777" lon="2.95374">
        <ele>112</ele>
        <time>2018-10-11T09:10:34Z</time>
      </trkpt>
      <trkpt lat="42.36759" lon="2.95435">
        <ele>109</ele>
        <time>2018-10-11T09:10:37Z</time>
      </trkpt>
      <trkpt lat="42.36754" lon="2.95455">
        <ele>108</ele>
        <time>2018-10-11T09:10:38Z</time>
      </trkpt>
      <trkpt lat="42.36717" lon="2.95579">
        <ele>104</ele>
        <time>2018-10-11T09:10:44Z</time>
      </trkpt>
      <trkpt lat="42.36694" lon="2.95661">
        <ele>103</ele>
        <time>2018-10-11T09:10:48Z</time>
      </trkpt>
      <trkpt lat="42.36677" lon="2.95717">
        <ele>102</ele>
        <time>2018-10-11T09:10:51Z</time>
      </trkpt>
      <trkpt lat="42.36629" lon="2.95791">
        <ele>103</ele>
        <time>2018-10-11T09:10:56Z</time>
      </trkpt>
      <trkpt lat="42.36556" lon="2.95873">
        <ele>101</ele>
        <time>2018-10-11T09:11:02Z</time>
      </trkpt>
      <trkpt lat="42.36543" lon="2.95884">
        <ele>101</ele>
        <time>2018-10-11T09:11:03Z</time>
      </trkpt>
      <trkpt lat="42.36487" lon="2.95926">
        <ele>98</ele>
        <time>2018-10-11T09:11:07Z</time>
      </trkpt>
      <trkpt lat="42.36446" lon="2.95981">
        <ele>99</ele>
        <time>2018-10-11T09:11:11Z</time>
      </trkpt>
      <trkpt lat="42.36375" lon="2.9612">
        <ele>96</ele>
        <time>2018-10-11T09:11:19Z</time>
      </trkpt>
      <trkpt lat="42.36366" lon="2.96137">
        <ele>95</ele>
        <time>2018-10-11T09:11:20Z</time>
      </trkpt>
      <trkpt lat="42.36308" lon="2.96211">
        <ele>92</ele>
        <time>2018-10-11T09:11:25Z</time>
      </trkpt>
      <trkpt lat="42.36238" lon="2.96294">
        <ele>90</ele>
        <time>2018-10-11T09:11:31Z</time>
      </trkpt>
      <trkpt lat="42.36212" lon="2.96366">
        <ele>86</ele>
        <time>2018-10-11T09:11:35Z</time>
      </trkpt>
      <trkpt lat="42.36158" lon="2.96585">
        <ele>82</ele>
        <time>2018-10-11T09:11:46Z</time>
      </trkpt>
      <trkpt lat="42.36154" lon="2.96604">
        <ele>81</ele>
        <time>2018-10-11T09:11:47Z</time>
      </trkpt>
      <trkpt lat="42.3615" lon="2.96722">
        <ele>79</ele>
        <time>2018-10-11T09:11:53Z</time>
      </trkpt>
      <trkpt lat="42.36149" lon="2.96911">
        <ele>76</ele>
        <time>2018-10-11T09:12:02Z</time>
      </trkpt>
      <trkpt lat="42.36147" lon="2.97074">
        <ele>77</ele>
        <time>2018-10-11T09:12:10Z</time>
      </trkpt>
      <trkpt lat="42.36148" lon="2.97092">
        <ele>76</ele>
        <time>2018-10-11T09:12:11Z</time>
      </trkpt>
      <trkpt lat="42.36164" lon="2.97157">
        <ele>76</ele>
        <time>2018-10-11T09:12:15Z</time>
      </trkpt>
      <trkpt lat="42.36179" lon="2.97183">
        <ele>76</ele>
        <time>2018-10-11T09:12:17Z</time>
      </trkpt>
      <trkpt lat="42.36219" lon="2.97249">
        <ele>76</ele>
        <time>2018-10-11T09:12:23Z</time>
      </trkpt>
      <trkpt lat="42.36249" lon="2.973">
        <ele>75</ele>
        <time>2018-10-11T09:12:29Z</time>
      </trkpt>
      <trkpt lat="42.36268" lon="2.97332">
        <ele>77</ele>
        <time>2018-10-11T09:12:35Z</time>
      </trkpt>
      <trkpt lat="42.3627" lon="2.97338">
        <ele>76</ele>
        <time>2018-10-11T09:12:41Z</time>
      </trkpt>
      <trkpt lat="42.3627" lon="2.97336">
        <ele>76</ele>
        <time>2018-10-11T09:13:00Z</time>
      </trkpt>
      <trkpt lat="42.3627" lon="2.97336">
        <ele>76</ele>
        <time>2018-10-11T09:13:49Z</time>
      </trkpt>
      <trkpt lat="42.36269" lon="2.97335">
        <ele>76</ele>
        <time>2018-10-11T09:14:32Z</time>
      </trkpt>
      <trkpt lat="42.36269" lon="2.97335">
        <ele>76</ele>
        <time>2018-10-11T09:14:33Z</time>
      </trkpt>
      <trkpt lat="42.36271" lon="2.97341">
        <ele>76</ele>
        <time>2018-10-11T09:14:36Z</time>
      </trkpt>
      <trkpt lat="42.36265" lon="2.97361">
        <ele>76</ele>
        <time>2018-10-11T09:14:41Z</time>
      </trkpt>
      <trkpt lat="42.36246" lon="2.97363">
        <ele>74</ele>
        <time>2018-10-11T09:14:44Z</time>
      </trkpt>
      <trkpt lat="42.36172" lon="2.97354">
        <ele>73</ele>
        <time>2018-10-11T09:14:52Z</time>
      </trkpt>
      <trkpt lat="42.36125" lon="2.97364">
        <ele>71</ele>
        <time>2018-10-11T09:14:56Z</time>
      </trkpt>
      <trkpt lat="42.36043" lon="2.97392">
        <ele>70</ele>
        <time>2018-10-11T09:15:02Z</time>
      </trkpt>
      <trkpt lat="42.3595" lon="2.97425">
        <ele>68</ele>
        <time>2018-10-11T09:15:08Z</time>
      </trkpt>
      <trkpt lat="42.35839" lon="2.97451">
        <ele>68</ele>
        <time>2018-10-11T09:15:15Z</time>
      </trkpt>
      <trkpt lat="42.3569" lon="2.97445">
        <ele>71</ele>
        <time>2018-10-11T09:15:24Z</time>
      </trkpt>
      <trkpt lat="42.35594" lon="2.97443">
        <ele>72</ele>
        <time>2018-10-11T09:15:30Z</time>
      </trkpt>
      <trkpt lat="42.35518" lon="2.9746">
        <ele>70</ele>
        <time>2018-10-11T09:15:35Z</time>
      </trkpt>
      <trkpt lat="42.35474" lon="2.9748">
        <ele>68</ele>
        <time>2018-10-11T09:15:39Z</time>
      </trkpt>
      <trkpt lat="42.35407" lon="2.97511">
        <ele>64</ele>
        <time>2018-10-11T09:15:45Z</time>
      </trkpt>
      <trkpt lat="42.35337" lon="2.97527">
        <ele>64</ele>
        <time>2018-10-11T09:15:50Z</time>
      </trkpt>
      <trkpt lat="42.35261" lon="2.97534">
        <ele>63</ele>
        <time>2018-10-11T09:15:56Z</time>
      </trkpt>
      <trkpt lat="42.35171" lon="2.97542">
        <ele>61</ele>
        <time>2018-10-11T09:16:04Z</time>
      </trkpt>
      <trkpt lat="42.35141" lon="2.97543">
        <ele>59</ele>
        <time>2018-10-11T09:16:08Z</time>
      </trkpt>
      <trkpt lat="42.35138" lon="2.97543">
        <ele>59</ele>
        <time>2018-10-11T09:16:09Z</time>
      </trkpt>
      <trkpt lat="42.35135" lon="2.97543">
        <ele>59</ele>
        <time>2018-10-11T09:16:13Z</time>
      </trkpt>
      <trkpt lat="42.35135" lon="2.97543">
        <ele>59</ele>
        <time>2018-10-11T09:16:16Z</time>
      </trkpt>
      <trkpt lat="42.3513" lon="2.97555">
        <ele>59</ele>
        <time>2018-10-11T09:16:22Z</time>
      </trkpt>
      <trkpt lat="42.35131" lon="2.97556">
        <ele>59</ele>
        <time>2018-10-11T09:16:29Z</time>
      </trkpt>
      <trkpt lat="42.35132" lon="2.97555">
        <ele>59</ele>
        <time>2018-10-11T09:16:45Z</time>
      </trkpt>
      <trkpt lat="42.35133" lon="2.97556">
        <ele>59</ele>
        <time>2018-10-11T09:17:20Z</time>
      </trkpt>
      <trkpt lat="42.35133" lon="2.97557">
        <ele>59</ele>
        <time>2018-10-11T09:17:21Z</time>
      </trkpt>
      <trkpt lat="42.35134" lon="2.97585">
        <ele>59</ele>
        <time>2018-10-11T09:17:27Z</time>
      </trkpt>
      <trkpt lat="42.35134" lon="2.97632">
        <ele>59</ele>
        <time>2018-10-11T09:17:32Z</time>
      </trkpt>
      <trkpt lat="42.35134" lon="2.97692">
        <ele>57</ele>
        <time>2018-10-11T09:17:37Z</time>
      </trkpt>
      <trkpt lat="42.35135" lon="2.97744">
        <ele>55</ele>
        <time>2018-10-11T09:17:41Z</time>
      </trkpt>
      <trkpt lat="42.3514" lon="2.97799">
        <ele>51</ele>
        <time>2018-10-11T09:17:45Z</time>
      </trkpt>
      <trkpt lat="42.3514" lon="2.97827">
        <ele>50</ele>
        <time>2018-10-11T09:17:47Z</time>
      </trkpt>
      <trkpt lat="42.3513" lon="2.97892">
        <ele>50</ele>
        <time>2018-10-11T09:17:52Z</time>
      </trkpt>
      <trkpt lat="42.35117" lon="2.97947">
        <ele>52</ele>
        <time>2018-10-11T09:17:56Z</time>
      </trkpt>
      <trkpt lat="42.3511" lon="2.97977">
        <ele>52</ele>
        <time>2018-10-11T09:17:58Z</time>
      </trkpt>
      <trkpt lat="42.35093" lon="2.98037">
        <ele>54</ele>
        <time>2018-10-11T09:18:02Z</time>
      </trkpt>
      <trkpt lat="42.35087" lon="2.98082">
        <ele>55</ele>
        <time>2018-10-11T09:18:05Z</time>
      </trkpt>
      <trkpt lat="42.35096" lon="2.9816">
        <ele>57</ele>
        <time>2018-10-11T09:18:10Z</time>
      </trkpt>
      <trkpt lat="42.3512" lon="2.98216">
        <ele>58</ele>
        <time>2018-10-11T09:18:14Z</time>
      </trkpt>
      <trkpt lat="42.35176" lon="2.98303">
        <ele>62</ele>
        <time>2018-10-11T09:18:21Z</time>
      </trkpt>
      <trkpt lat="42.35192" lon="2.9833">
        <ele>62</ele>
        <time>2018-10-11T09:18:23Z</time>
      </trkpt>
      <trkpt lat="42.35222" lon="2.98404">
        <ele>62</ele>
        <time>2018-10-11T09:18:28Z</time>
      </trkpt>
      <trkpt lat="42.35242" lon="2.98466">
        <ele>59</ele>
        <time>2018-10-11T09:18:33Z</time>
      </trkpt>
      <trkpt lat="42.35245" lon="2.98476">
        <ele>59</ele>
        <time>2018-10-11T09:18:34Z</time>
      </trkpt>
      <trkpt lat="42.3526" lon="2.98527">
        <ele>59</ele>
        <time>2018-10-11T09:18:39Z</time>
      </trkpt>
      <trkpt lat="42.35297" lon="2.98577">
        <ele>60</ele>
        <time>2018-10-11T09:18:44Z</time>
      </trkpt>
      <trkpt lat="42.35308" lon="2.98584">
        <ele>61</ele>
        <time>2018-10-11T09:18:45Z</time>
      </trkpt>
      <trkpt lat="42.35349" lon="2.98628">
        <ele>63</ele>
        <time>2018-10-11T09:18:50Z</time>
      </trkpt>
      <trkpt lat="42.35354" lon="2.98642">
        <ele>63</ele>
        <time>2018-10-11T09:18:51Z</time>
      </trkpt>
      <trkpt lat="42.35377" lon="2.98723">
        <ele>65</ele>
        <time>2018-10-11T09:18:56Z</time>
      </trkpt>
      <trkpt lat="42.35397" lon="2.98825">
        <ele>65</ele>
        <time>2018-10-11T09:19:02Z</time>
      </trkpt>
      <trkpt lat="42.35418" lon="2.98882">
        <ele>63</ele>
        <time>2018-10-11T09:19:06Z</time>
      </trkpt>
      <trkpt lat="42.35456" lon="2.9894">
        <ele>61</ele>
        <time>2018-10-11T09:19:11Z</time>
      </trkpt>
      <trkpt lat="42.35464" lon="2.98952">
        <ele>61</ele>
        <time>2018-10-11T09:19:12Z</time>
      </trkpt>
      <trkpt lat="42.35508" lon="2.99035">
        <ele>59</ele>
        <time>2018-10-11T09:19:18Z</time>
      </trkpt>
      <trkpt lat="42.35532" lon="2.99096">
        <ele>58</ele>
        <time>2018-10-11T09:19:22Z</time>
      </trkpt>
      <trkpt lat="42.3554" lon="2.99165">
        <ele>57</ele>
        <time>2018-10-11T09:19:26Z</time>
      </trkpt>
      <trkpt lat="42.35554" lon="2.99228">
        <ele>58</ele>
        <time>2018-10-11T09:19:30Z</time>
      </trkpt>
      <trkpt lat="42.35569" lon="2.99256">
        <ele>58</ele>
        <time>2018-10-11T09:19:32Z</time>
      </trkpt>
      <trkpt lat="42.35633" lon="2.99341">
        <ele>59</ele>
        <time>2018-10-11T09:19:39Z</time>
      </trkpt>
      <trkpt lat="42.35695" lon="2.99407">
        <ele>60</ele>
        <time>2018-10-11T09:19:45Z</time>
      </trkpt>
      <trkpt lat="42.35719" lon="2.99446">
        <ele>59</ele>
        <time>2018-10-11T09:19:48Z</time>
      </trkpt>
      <trkpt lat="42.35772" lon="2.99567">
        <ele>60</ele>
        <time>2018-10-11T09:19:56Z</time>
      </trkpt>
      <trkpt lat="42.35834" lon="2.99688">
        <ele>56</ele>
        <time>2018-10-11T09:20:04Z</time>
      </trkpt>
      <trkpt lat="42.35859" lon="2.9973">
        <ele>54</ele>
        <time>2018-10-11T09:20:07Z</time>
      </trkpt>
      <trkpt lat="42.35893" lon="2.99774">
        <ele>53</ele>
        <time>2018-10-11T09:20:11Z</time>
      </trkpt>
      <trkpt lat="42.3591" lon="2.99794">
        <ele>52</ele>
        <time>2018-10-11T09:20:14Z</time>
      </trkpt>
      <trkpt lat="42.35913" lon="2.99798">
        <ele>52</ele>
        <time>2018-10-11T09:20:15Z</time>
      </trkpt>
      <trkpt lat="42.35916" lon="2.99801">
        <ele>52</ele>
        <time>2018-10-11T09:20:19Z</time>
      </trkpt>
      <trkpt lat="42.35915" lon="2.99801">
        <ele>52</ele>
        <time>2018-10-11T09:20:29Z</time>
      </trkpt>
      <trkpt lat="42.35914" lon="2.99799">
        <ele>52</ele>
        <time>2018-10-11T09:21:01Z</time>
      </trkpt>
      <trkpt lat="42.35914" lon="2.99799">
        <ele>52</ele>
        <time>2018-10-11T09:21:05Z</time>
      </trkpt>
      <trkpt lat="42.35916" lon="2.99804">
        <ele>52</ele>
        <time>2018-10-11T09:21:08Z</time>
      </trkpt>
      <trkpt lat="42.3591" lon="2.99829">
        <ele>52</ele>
        <time>2018-10-11T09:21:13Z</time>
      </trkpt>
      <trkpt lat="42.35883" lon="2.99875">
        <ele>52</ele>
        <time>2018-10-11T09:21:19Z</time>
      </trkpt>
      <trkpt lat="42.35838" lon="2.99957">
        <ele>53</ele>
        <time>2018-10-11T09:21:27Z</time>
      </trkpt>
      <trkpt lat="42.35831" lon="3.00004">
        <ele>52</ele>
        <time>2018-10-11T09:21:32Z</time>
      </trkpt>
      <trkpt lat="42.35835" lon="3.0003">
        <ele>53</ele>
        <time>2018-10-11T09:21:37Z</time>
      </trkpt>
      <trkpt lat="42.35835" lon="3.00029">
        <ele>53</ele>
        <time>2018-10-11T09:21:46Z</time>
      </trkpt>
      <trkpt lat="42.35836" lon="3.00029">
        <ele>53</ele>
        <time>2018-10-11T09:22:15Z</time>
      </trkpt>
      <trkpt lat="42.35845" lon="3.00035">
        <ele>53</ele>
        <time>2018-10-11T09:22:20Z</time>
      </trkpt>
      <trkpt lat="42.35875" lon="3.00028">
        <ele>54</ele>
        <time>2018-10-11T09:22:27Z</time>
      </trkpt>
      <trkpt lat="42.35924" lon="3.00012">
        <ele>55</ele>
        <time>2018-10-11T09:22:34Z</time>
      </trkpt>
      <trkpt lat="42.35961" lon="2.99997">
        <ele>56</ele>
        <time>2018-10-11T09:22:40Z</time>
      </trkpt>
      <trkpt lat="42.35973" lon="2.9999">
        <ele>57</ele>
        <time>2018-10-11T09:22:45Z</time>
      </trkpt>
      <trkpt lat="42.35974" lon="2.9999">
        <ele>57</ele>
        <time>2018-10-11T09:22:47Z</time>
      </trkpt>
      <trkpt lat="42.35981" lon="3.00002">
        <ele>57</ele>
        <time>2018-10-11T09:22:52Z</time>
      </trkpt>
      <trkpt lat="42.35983" lon="3.00007">
        <ele>57</ele>
        <time>2018-10-11T09:22:53Z</time>
      </trkpt>
      <trkpt lat="42.35993" lon="3.00044">
        <ele>56</ele>
        <time>2018-10-11T09:22:59Z</time>
      </trkpt>
      <trkpt lat="42.35995" lon="3.0008">
        <ele>56</ele>
        <time>2018-10-11T09:23:04Z</time>
      </trkpt>
      <trkpt lat="42.36006" lon="3.00111">
        <ele>55</ele>
        <time>2018-10-11T09:23:08Z</time>
      </trkpt>
      <trkpt lat="42.36011" lon="3.00118">
        <ele>55</ele>
        <time>2018-10-11T09:23:09Z</time>
      </trkpt>
      <trkpt lat="42.36032" lon="3.0015">
        <ele>54</ele>
        <time>2018-10-11T09:23:15Z</time>
      </trkpt>
      <trkpt lat="42.36038" lon="3.00161">
        <ele>54</ele>
        <time>2018-10-11T09:23:20Z</time>
      </trkpt>
      <trkpt lat="42.36038" lon="3.0016">
        <ele>54</ele>
        <time>2018-10-11T09:23:33Z</time>
      </trkpt>
      <trkpt lat="42.36038" lon="3.00159">
        <ele>54</ele>
        <time>2018-10-11T09:24:19Z</time>
      </trkpt>
      <trkpt lat="42.36038" lon="3.00159">
        <ele>54</ele>
        <time>2018-10-11T09:24:58Z</time>
      </trkpt>
      <trkpt lat="42.36046" lon="3.00172">
        <ele>53</ele>
        <time>2018-10-11T09:25:03Z</time>
      </trkpt>
      <trkpt lat="42.36048" lon="3.00178">
        <ele>53</ele>
        <time>2018-10-11T09:25:04Z</time>
      </trkpt>
      <trkpt lat="42.36057" lon="3.00226">
        <ele>53</ele>
        <time>2018-10-11T09:25:10Z</time>
      </trkpt>
      <trkpt lat="42.36059" lon="3.0025">
        <ele>53</ele>
        <time>2018-10-11T09:25:12Z</time>
      </trkpt>
      <trkpt lat="42.36059" lon="3.00263">
        <ele>53</ele>
        <time>2018-10-11T09:25:13Z</time>
      </trkpt>
      <trkpt lat="42.36064" lon="3.00328">
        <ele>54</ele>
        <time>2018-10-11T09:25:18Z</time>
      </trkpt>
      <trkpt lat="42.36079" lon="3.00379">
        <ele>54</ele>
        <time>2018-10-11T09:25:22Z</time>
      </trkpt>
      <trkpt lat="42.36106" lon="3.00475">
        <ele>54</ele>
        <time>2018-10-11T09:25:28Z</time>
      </trkpt>
      <trkpt lat="42.36118" lon="3.00531">
        <ele>54</ele>
        <time>2018-10-11T09:25:31Z</time>
      </trkpt>
      <trkpt lat="42.36149" lon="3.00625">
        <ele>56</ele>
        <time>2018-10-11T09:25:36Z</time>
      </trkpt>
      <trkpt lat="42.36169" lon="3.00677">
        <ele>57</ele>
        <time>2018-10-11T09:25:39Z</time>
      </trkpt>
      <trkpt lat="42.36218" lon="3.00746">
        <ele>56</ele>
        <time>2018-10-11T09:25:44Z</time>
      </trkpt>
      <trkpt lat="42.36278" lon="3.00794">
        <ele>57</ele>
        <time>2018-10-11T09:25:49Z</time>
      </trkpt>
      <trkpt lat="42.36315" lon="3.00819">
        <ele>58</ele>
        <time>2018-10-11T09:25:52Z</time>
      </trkpt>
      <trkpt lat="42.36353" lon="3.0087">
        <ele>59</ele>
        <time>2018-10-11T09:25:56Z</time>
      </trkpt>
      <trkpt lat="42.36397" lon="3.00967">
        <ele>60</ele>
        <time>2018-10-11T09:26:02Z</time>
      </trkpt>
      <trkpt lat="42.36421" lon="3.01061">
        <ele>63</ele>
        <time>2018-10-11T09:26:07Z</time>
      </trkpt>
      <trkpt lat="42.36428" lon="3.01102">
        <ele>64</ele>
        <time>2018-10-11T09:26:09Z</time>
      </trkpt>
      <trkpt lat="42.36442" lon="3.01185">
        <ele>66</ele>
        <time>2018-10-11T09:26:13Z</time>
      </trkpt>
      <trkpt lat="42.36454" lon="3.01263">
        <ele>68</ele>
        <time>2018-10-11T09:26:17Z</time>
      </trkpt>
      <trkpt lat="42.36446" lon="3.01335">
        <ele>69</ele>
        <time>2018-10-11T09:26:21Z</time>
      </trkpt>
      <trkpt lat="42.36439" lon="3.01351">
        <ele>70</ele>
        <time>2018-10-11T09:26:22Z</time>
      </trkpt>
      <trkpt lat="42.3641" lon="3.01417">
        <ele>71</ele>
        <time>2018-10-11T09:26:26Z</time>
      </trkpt>
      <trkpt lat="42.36388" lon="3.01486">
        <ele>70</ele>
        <time>2018-10-11T09:26:30Z</time>
      </trkpt>
      <trkpt lat="42.36376" lon="3.01597">
        <ele>72</ele>
        <time>2018-10-11T09:26:36Z</time>
      </trkpt>
      <trkpt lat="42.36387" lon="3.01666">
        <ele>74</ele>
        <time>2018-10-11T09:26:40Z</time>
      </trkpt>
      <trkpt lat="42.36394" lon="3.01681">
        <ele>74</ele>
        <time>2018-10-11T09:26:41Z</time>
      </trkpt>
      <trkpt lat="42.3641" lon="3.0171">
        <ele>74</ele>
        <time>2018-10-11T09:26:43Z</time>
      </trkpt>
      <trkpt lat="42.36418" lon="3.01725">
        <ele>75</ele>
        <time>2018-10-11T09:26:44Z</time>
      </trkpt>
      <trkpt lat="42.36443" lon="3.01796">
        <ele>75</ele>
        <time>2018-10-11T09:26:48Z</time>
      </trkpt>
      <trkpt lat="42.36483" lon="3.01879">
        <ele>77</ele>
        <time>2018-10-11T09:26:53Z</time>
      </trkpt>
      <trkpt lat="42.36512" lon="3.01928">
        <ele>83</ele>
        <time>2018-10-11T09:26:56Z</time>
      </trkpt>
      <trkpt lat="42.36542" lon="3.01979">
        <ele>84</ele>
        <time>2018-10-11T09:26:59Z</time>
      </trkpt>
      <trkpt lat="42.36586" lon="3.02071">
        <ele>80</ele>
        <time>2018-10-11T09:27:04Z</time>
      </trkpt>
      <trkpt lat="42.36606" lon="3.02134">
        <ele>75</ele>
        <time>2018-10-11T09:27:07Z</time>
      </trkpt>
      <trkpt lat="42.36612" lon="3.02155">
        <ele>74</ele>
        <time>2018-10-11T09:27:08Z</time>
      </trkpt>
      <trkpt lat="42.36629" lon="3.02241">
        <ele>73</ele>
        <time>2018-10-11T09:27:12Z</time>
      </trkpt>
      <trkpt lat="42.36632" lon="3.02262">
        <ele>74</ele>
        <time>2018-10-11T09:27:13Z</time>
      </trkpt>
      <trkpt lat="42.36664" lon="3.02337">
        <ele>76</ele>
        <time>2018-10-11T09:27:17Z</time>
      </trkpt>
      <trkpt lat="42.3669" lon="3.02363">
        <ele>79</ele>
        <time>2018-10-11T09:27:19Z</time>
      </trkpt>
      <trkpt lat="42.36787" lon="3.02445">
        <ele>81</ele>
        <time>2018-10-11T09:27:26Z</time>
      </trkpt>
      <trkpt lat="42.36826" lon="3.02506">
        <ele>80</ele>
        <time>2018-10-11T09:27:30Z</time>
      </trkpt>
      <trkpt lat="42.36847" lon="3.02536">
        <ele>80</ele>
        <time>2018-10-11T09:27:32Z</time>
      </trkpt>
      <trkpt lat="42.36885" lon="3.02579">
        <ele>80</ele>
        <time>2018-10-11T09:27:35Z</time>
      </trkpt>
      <trkpt lat="42.36925" lon="3.02618">
        <ele>79</ele>
        <time>2018-10-11T09:27:38Z</time>
      </trkpt>
      <trkpt lat="42.36994" lon="3.02648">
        <ele>80</ele>
        <time>2018-10-11T09:27:43Z</time>
      </trkpt>
      <trkpt lat="42.3702" lon="3.02652">
        <ele>83</ele>
        <time>2018-10-11T09:27:45Z</time>
      </trkpt>
      <trkpt lat="42.37063" lon="3.0268">
        <ele>80</ele>
        <time>2018-10-11T09:27:49Z</time>
      </trkpt>
      <trkpt lat="42.37077" lon="3.02715">
        <ele>79</ele>
        <time>2018-10-11T09:27:52Z</time>
      </trkpt>
      <trkpt lat="42.37077" lon="3.02732">
        <ele>78</ele>
        <time>2018-10-11T09:27:54Z</time>
      </trkpt>
      <trkpt lat="42.37075" lon="3.02737">
        <ele>78</ele>
        <time>2018-10-11T09:27:55Z</time>
      </trkpt>
      <trkpt lat="42.37071" lon="3.02743">
        <ele>78</ele>
        <time>2018-10-11T09:27:59Z</time>
      </trkpt>
      <trkpt lat="42.37066" lon="3.02744">
        <ele>78</ele>
        <time>2018-10-11T09:28:01Z</time>
      </trkpt>
      <trkpt lat="42.37035" lon="3.02733">
        <ele>77</ele>
        <time>2018-10-11T09:28:06Z</time>
      </trkpt>
      <trkpt lat="42.37006" lon="3.02722">
        <ele>77</ele>
        <time>2018-10-11T09:28:09Z</time>
      </trkpt>
      <trkpt lat="42.36941" lon="3.02697">
        <ele>74</ele>
        <time>2018-10-11T09:28:15Z</time>
      </trkpt>
      <trkpt lat="42.36841" lon="3.02656">
        <ele>73</ele>
        <time>2018-10-11T09:28:23Z</time>
      </trkpt>
      <trkpt lat="42.36761" lon="3.02624">
        <ele>71</ele>
        <time>2018-10-11T09:28:29Z</time>
      </trkpt>
      <trkpt lat="42.36707" lon="3.02634">
        <ele>68</ele>
        <time>2018-10-11T09:28:33Z</time>
      </trkpt>
      <trkpt lat="42.3668" lon="3.02645">
        <ele>67</ele>
        <time>2018-10-11T09:28:35Z</time>
      </trkpt>
      <trkpt lat="42.36652" lon="3.02656">
        <ele>65</ele>
        <time>2018-10-11T09:28:37Z</time>
      </trkpt>
      <trkpt lat="42.36624" lon="3.02668">
        <ele>63</ele>
        <time>2018-10-11T09:28:39Z</time>
      </trkpt>
      <trkpt lat="42.36598" lon="3.02678">
        <ele>62</ele>
        <time>2018-10-11T09:28:41Z</time>
      </trkpt>
      <trkpt lat="42.36562" lon="3.02717">
        <ele>59</ele>
        <time>2018-10-11T09:28:45Z</time>
      </trkpt>
      <trkpt lat="42.36525" lon="3.02795">
        <ele>60</ele>
        <time>2018-10-11T09:28:50Z</time>
      </trkpt>
      <trkpt lat="42.36518" lon="3.0281">
        <ele>60</ele>
        <time>2018-10-11T09:28:51Z</time>
      </trkpt>
      <trkpt lat="42.36464" lon="3.02863">
        <ele>65</ele>
        <time>2018-10-11T09:28:56Z</time>
      </trkpt>
      <trkpt lat="42.36412" lon="3.02905">
        <ele>68</ele>
        <time>2018-10-11T09:29:00Z</time>
      </trkpt>
      <trkpt lat="42.36399" lon="3.02916">
        <ele>68</ele>
        <time>2018-10-11T09:29:01Z</time>
      </trkpt>
      <trkpt lat="42.3634" lon="3.02965">
        <ele>72</ele>
        <time>2018-10-11T09:29:06Z</time>
      </trkpt>
      <trkpt lat="42.36292" lon="3.03005">
        <ele>74</ele>
        <time>2018-10-11T09:29:10Z</time>
      </trkpt>
      <trkpt lat="42.36231" lon="3.03055">
        <ele>77</ele>
        <time>2018-10-11T09:29:15Z</time>
      </trkpt>
      <trkpt lat="42.36196" lon="3.03104">
        <ele>78</ele>
        <time>2018-10-11T09:29:19Z</time>
      </trkpt>
      <trkpt lat="42.36175" lon="3.03151">
        <ele>78</ele>
        <time>2018-10-11T09:29:22Z</time>
      </trkpt>
      <trkpt lat="42.36101" lon="3.03311">
        <ele>82</ele>
        <time>2018-10-11T09:29:32Z</time>
      </trkpt>
      <trkpt lat="42.36058" lon="3.03406">
        <ele>83</ele>
        <time>2018-10-11T09:29:39Z</time>
      </trkpt>
      <trkpt lat="42.36053" lon="3.03418">
        <ele>84</ele>
        <time>2018-10-11T09:29:40Z</time>
      </trkpt>
      <trkpt lat="42.36023" lon="3.03448">
        <ele>84</ele>
        <time>2018-10-11T09:29:44Z</time>
      </trkpt>
      <trkpt lat="42.36004" lon="3.03447">
        <ele>84</ele>
        <time>2018-10-11T09:29:46Z</time>
      </trkpt>
      <trkpt lat="42.35931" lon="3.03433">
        <ele>81</ele>
        <time>2018-10-11T09:29:52Z</time>
      </trkpt>
      <trkpt lat="42.35879" lon="3.03425">
        <ele>79</ele>
        <time>2018-10-11T09:29:56Z</time>
      </trkpt>
      <trkpt lat="42.3586" lon="3.03422">
        <ele>79</ele>
        <time>2018-10-11T09:29:58Z</time>
      </trkpt>
      <trkpt lat="42.35849" lon="3.03421">
        <ele>79</ele>
        <time>2018-10-11T09:30:00Z</time>
      </trkpt>
      <trkpt lat="42.35844" lon="3.03421">
        <ele>78</ele>
        <time>2018-10-11T09:30:03Z</time>
      </trkpt>
      <trkpt lat="42.35847" lon="3.0342">
        <ele>78</ele>
        <time>2018-10-11T09:30:18Z</time>
      </trkpt>
      <trkpt lat="42.35847" lon="3.03419">
        <ele>78</ele>
        <time>2018-10-11T09:30:36Z</time>
      </trkpt>
      <trkpt lat="42.35838" lon="3.03425">
        <ele>78</ele>
        <time>2018-10-11T09:30:40Z</time>
      </trkpt>
      <trkpt lat="42.35804" lon="3.03451">
        <ele>77</ele>
        <time>2018-10-11T09:30:46Z</time>
      </trkpt>
      <trkpt lat="42.35753" lon="3.0349">
        <ele>76</ele>
        <time>2018-10-11T09:30:52Z</time>
      </trkpt>
      <trkpt lat="42.35696" lon="3.03533">
        <ele>73</ele>
        <time>2018-10-11T09:30:57Z</time>
      </trkpt>
      <trkpt lat="42.35648" lon="3.03569">
        <ele>70</ele>
        <time>2018-10-11T09:31:01Z</time>
      </trkpt>
      <trkpt lat="42.35567" lon="3.03631">
        <ele>62</ele>
        <time>2018-10-11T09:31:08Z</time>
      </trkpt>
      <trkpt lat="42.35516" lon="3.03671">
        <ele>60</ele>
        <time>2018-10-11T09:31:13Z</time>
      </trkpt>
      <trkpt lat="42.35475" lon="3.03701">
        <ele>58</ele>
        <time>2018-10-11T09:31:18Z</time>
      </trkpt>
      <trkpt lat="42.35435" lon="3.03732">
        <ele>57</ele>
        <time>2018-10-11T09:31:24Z</time>
      </trkpt>
      <trkpt lat="42.3542" lon="3.03744">
        <ele>56</ele>
        <time>2018-10-11T09:31:28Z</time>
      </trkpt>
      <trkpt lat="42.35411" lon="3.0375">
        <ele>56</ele>
        <time>2018-10-11T09:31:33Z</time>
      </trkpt>
      <trkpt lat="42.35414" lon="3.03748">
        <ele>56</ele>
        <time>2018-10-11T09:32:28Z</time>
      </trkpt>
      <trkpt lat="42.35414" lon="3.03747">
        <ele>56</ele>
        <time>2018-10-11T09:33:21Z</time>
      </trkpt>
      <trkpt lat="42.35414" lon="3.03746">
        <ele>56</ele>
        <time>2018-10-11T09:34:02Z</time>
      </trkpt>
      <trkpt lat="42.35414" lon="3.03746">
        <ele>56</ele>
        <time>2018-10-11T09:34:24Z</time>
      </trkpt>
      <trkpt lat="42.35414" lon="3.03745">
        <ele>56</ele>
        <time>2018-10-11T09:35:16Z</time>
      </trkpt>
      <trkpt lat="42.35414" lon="3.03745">
        <ele>56</ele>
        <time>2018-10-11T09:35:30Z</time>
      </trkpt>
      <trkpt lat="42.35414" lon="3.03746">
        <ele>56</ele>
        <time>2018-10-11T09:35:47Z</time>
      </trkpt>
      <trkpt lat="42.35407" lon="3.03752">
        <ele>56</ele>
        <time>2018-10-11T09:35:59Z</time>
      </trkpt>
      <trkpt lat="42.35396" lon="3.03763">
        <ele>55</ele>
        <time>2018-10-11T09:36:03Z</time>
      </trkpt>
      <trkpt lat="42.35359" lon="3.03792">
        <ele>54</ele>
        <time>2018-10-11T09:36:10Z</time>
      </trkpt>
      <trkpt lat="42.35319" lon="3.03841">
        <ele>53</ele>
        <time>2018-10-11T09:36:17Z</time>
      </trkpt>
      <trkpt lat="42.35284" lon="3.039">
        <ele>54</ele>
        <time>2018-10-11T09:36:23Z</time>
      </trkpt>
      <trkpt lat="42.35252" lon="3.03958">
        <ele>52</ele>
        <time>2018-10-11T09:36:28Z</time>
      </trkpt>
      <trkpt lat="42.35188" lon="3.04067">
        <ele>51</ele>
        <time>2018-10-11T09:36:37Z</time>
      </trkpt>
      <trkpt lat="42.35113" lon="3.04192">
        <ele>51</ele>
        <time>2018-10-11T09:36:48Z</time>
      </trkpt>
      <trkpt lat="42.35045" lon="3.04306">
        <ele>48</ele>
        <time>2018-10-11T09:36:57Z</time>
      </trkpt>
      <trkpt lat="42.34951" lon="3.04462">
        <ele>46</ele>
        <time>2018-10-11T09:37:08Z</time>
      </trkpt>
      <trkpt lat="42.34916" lon="3.0452">
        <ele>44</ele>
        <time>2018-10-11T09:37:12Z</time>
      </trkpt>
      <trkpt lat="42.34833" lon="3.0466">
        <ele>45</ele>
        <time>2018-10-11T09:37:21Z</time>
      </trkpt>
      <trkpt lat="42.34783" lon="3.04754">
        <ele>46</ele>
        <time>2018-10-11T09:37:27Z</time>
      </trkpt>
      <trkpt lat="42.34717" lon="3.04951">
        <ele>48</ele>
        <time>2018-10-11T09:37:38Z</time>
      </trkpt>
      <trkpt lat="42.34649" lon="3.05153">
        <ele>48</ele>
        <time>2018-10-11T09:37:50Z</time>
      </trkpt>
      <trkpt lat="42.34613" lon="3.05257">
        <ele>49</ele>
        <time>2018-10-11T09:37:57Z</time>
      </trkpt>
      <trkpt lat="42.3461" lon="3.05268">
        <ele>49</ele>
        <time>2018-10-11T09:37:58Z</time>
      </trkpt>
      <trkpt lat="42.34594" lon="3.05322">
        <ele>49</ele>
        <time>2018-10-11T09:38:04Z</time>
      </trkpt>
      <trkpt lat="42.3458" lon="3.05364">
        <ele>48</ele>
        <time>2018-10-11T09:38:10Z</time>
      </trkpt>
      <trkpt lat="42.34564" lon="3.05408">
        <ele>47</ele>
        <time>2018-10-11T09:38:18Z</time>
      </trkpt>
      <trkpt lat="42.3454" lon="3.05474">
        <ele>46</ele>
        <time>2018-10-11T09:38:26Z</time>
      </trkpt>
      <trkpt lat="42.34516" lon="3.05547">
        <ele>45</ele>
        <time>2018-10-11T09:38:32Z</time>
      </trkpt>
      <trkpt lat="42.34485" lon="3.05639">
        <ele>45</ele>
        <time>2018-10-11T09:38:38Z</time>
      </trkpt>
      <trkpt lat="42.34479" lon="3.05655">
        <ele>45</ele>
        <time>2018-10-11T09:38:39Z</time>
      </trkpt>
      <trkpt lat="42.3443" lon="3.05799">
        <ele>45</ele>
        <time>2018-10-11T09:38:49Z</time>
      </trkpt>
      <trkpt lat="42.34403" lon="3.05862">
        <ele>44</ele>
        <time>2018-10-11T09:38:55Z</time>
      </trkpt>
      <trkpt lat="42.34399" lon="3.05869">
        <ele>44</ele>
        <time>2018-10-11T09:38:56Z</time>
      </trkpt>
      <trkpt lat="42.34381" lon="3.05878">
        <ele>44</ele>
        <time>2018-10-11T09:39:00Z</time>
      </trkpt>
      <trkpt lat="42.34356" lon="3.05884">
        <ele>43</ele>
        <time>2018-10-11T09:39:05Z</time>
      </trkpt>
      <trkpt lat="42.34352" lon="3.0589">
        <ele>43</ele>
        <time>2018-10-11T09:39:06Z</time>
      </trkpt>
      <trkpt lat="42.34344" lon="3.05905">
        <ele>43</ele>
        <time>2018-10-11T09:39:08Z</time>
      </trkpt>
      <trkpt lat="42.3433" lon="3.05944">
        <ele>43</ele>
        <time>2018-10-11T09:39:12Z</time>
      </trkpt>
      <trkpt lat="42.34289" lon="3.06011">
        <ele>42</ele>
        <time>2018-10-11T09:39:19Z</time>
      </trkpt>
      <trkpt lat="42.34267" lon="3.06041">
        <ele>42</ele>
        <time>2018-10-11T09:39:23Z</time>
      </trkpt>
      <trkpt lat="42.34263" lon="3.06048">
        <ele>42</ele>
        <time>2018-10-11T09:39:26Z</time>
      </trkpt>
      <trkpt lat="42.34265" lon="3.06047">
        <ele>42</ele>
        <time>2018-10-11T09:39:39Z</time>
      </trkpt>
      <trkpt lat="42.34264" lon="3.06047">
        <ele>42</ele>
        <time>2018-10-11T09:39:57Z</time>
      </trkpt>
      <trkpt lat="42.34258" lon="3.06057">
        <ele>42</ele>
        <time>2018-10-11T09:40:01Z</time>
      </trkpt>
      <trkpt lat="42.34233" lon="3.06096">
        <ele>41</ele>
        <time>2018-10-11T09:40:06Z</time>
      </trkpt>
      <trkpt lat="42.34179" lon="3.0618">
        <ele>42</ele>
        <time>2018-10-11T09:40:13Z</time>
      </trkpt>
      <trkpt lat="42.34149" lon="3.06224">
        <ele>41</ele>
        <time>2018-10-11T09:40:16Z</time>
      </trkpt>
      <trkpt lat="42.34095" lon="3.06306">
        <ele>42</ele>
        <time>2018-10-11T09:40:21Z</time>
      </trkpt>
      <trkpt lat="42.34031" lon="3.06403">
        <ele>44</ele>
        <time>2018-10-11T09:40:27Z</time>
      </trkpt>
      <trkpt lat="42.34004" lon="3.06446">
        <ele>46</ele>
        <time>2018-10-11T09:40:30Z</time>
      </trkpt>
      <trkpt lat="42.33997" lon="3.0646">
        <ele>44</ele>
        <time>2018-10-11T09:40:31Z</time>
      </trkpt>
      <trkpt lat="42.33985" lon="3.06483">
        <ele>44</ele>
        <time>2018-10-11T09:40:33Z</time>
      </trkpt>
      <trkpt lat="42.33966" lon="3.06508">
        <ele>44</ele>
        <time>2018-10-11T09:40:36Z</time>
      </trkpt>
      <trkpt lat="42.33958" lon="3.06513">
        <ele>44</ele>
        <time>2018-10-11T09:40:37Z</time>
      </trkpt>
      <trkpt lat="42.33943" lon="3.06546">
        <ele>44</ele>
        <time>2018-10-11T09:40:41Z</time>
      </trkpt>
      <trkpt lat="42.3393" lon="3.06608">
        <ele>44</ele>
        <time>2018-10-11T09:40:46Z</time>
      </trkpt>
      <trkpt lat="42.33917" lon="3.06635">
        <ele>44</ele>
        <time>2018-10-11T09:40:48Z</time>
      </trkpt>
      <trkpt lat="42.33896" lon="3.06683">
        <ele>43</ele>
        <time>2018-10-11T09:40:51Z</time>
      </trkpt>
      <trkpt lat="42.33857" lon="3.0677">
        <ele>43</ele>
        <time>2018-10-11T09:40:56Z</time>
      </trkpt>
      <trkpt lat="42.33809" lon="3.06879">
        <ele>42</ele>
        <time>2018-10-11T09:41:02Z</time>
      </trkpt>
      <trkpt lat="42.33744" lon="3.07026">
        <ele>40</ele>
        <time>2018-10-11T09:41:10Z</time>
      </trkpt>
      <trkpt lat="42.3368" lon="3.0717">
        <ele>38</ele>
        <time>2018-10-11T09:41:17Z</time>
      </trkpt>
      <trkpt lat="42.33671" lon="3.07191">
        <ele>39</ele>
        <time>2018-10-11T09:41:18Z</time>
      </trkpt>
      <trkpt lat="42.33624" lon="3.07296">
        <ele>39</ele>
        <time>2018-10-11T09:41:23Z</time>
      </trkpt>
      <trkpt lat="42.33502" lon="3.07567">
        <ele>39</ele>
        <time>2018-10-11T09:41:36Z</time>
      </trkpt>
      <trkpt lat="42.33466" lon="3.07649">
        <ele>36</ele>
        <time>2018-10-11T09:41:40Z</time>
      </trkpt>
      <trkpt lat="42.3338" lon="3.07842">
        <ele>36</ele>
        <time>2018-10-11T09:41:50Z</time>
      </trkpt>
      <trkpt lat="42.3331" lon="3.07998">
        <ele>35</ele>
        <time>2018-10-11T09:41:58Z</time>
      </trkpt>
      <trkpt lat="42.33231" lon="3.08176">
        <ele>36</ele>
        <time>2018-10-11T09:42:07Z</time>
      </trkpt>
      <trkpt lat="42.33111" lon="3.08447">
        <ele>34</ele>
        <time>2018-10-11T09:42:20Z</time>
      </trkpt>
      <trkpt lat="42.33045" lon="3.08588">
        <ele>34</ele>
        <time>2018-10-11T09:42:27Z</time>
      </trkpt>
      <trkpt lat="42.3301" lon="3.0864">
        <ele>35</ele>
        <time>2018-10-11T09:42:30Z</time>
      </trkpt>
      <trkpt lat="42.32906" lon="3.0877">
        <ele>32</ele>
        <time>2018-10-11T09:42:38Z</time>
      </trkpt>
      <trkpt lat="42.32799" lon="3.08903">
        <ele>33</ele>
        <time>2018-10-11T09:42:47Z</time>
      </trkpt>
      <trkpt lat="42.32744" lon="3.08938">
        <ele>32</ele>
        <time>2018-10-11T09:42:51Z</time>
      </trkpt>
      <trkpt lat="42.32699" lon="3.08939">
        <ele>32</ele>
        <time>2018-10-11T09:42:54Z</time>
      </trkpt>
      <trkpt lat="42.32576" lon="3.08921">
        <ele>26</ele>
        <time>2018-10-11T09:43:02Z</time>
      </trkpt>
      <trkpt lat="42.32532" lon="3.08918">
        <ele>26</ele>
        <time>2018-10-11T09:43:05Z</time>
      </trkpt>
      <trkpt lat="42.32477" lon="3.08929">
        <ele>25</ele>
        <time>2018-10-11T09:43:09Z</time>
      </trkpt>
      <trkpt lat="42.32428" lon="3.08955">
        <ele>25</ele>
        <time>2018-10-11T09:43:13Z</time>
      </trkpt>
      <trkpt lat="42.324" lon="3.08976">
        <ele>25</ele>
        <time>2018-10-11T09:43:16Z</time>
      </trkpt>
      <trkpt lat="42.32384" lon="3.08991">
        <ele>25</ele>
        <time>2018-10-11T09:43:19Z</time>
      </trkpt>
      <trkpt lat="42.32382" lon="3.08994">
        <ele>25</ele>
        <time>2018-10-11T09:43:20Z</time>
      </trkpt>
      <trkpt lat="42.32382" lon="3.08995">
        <ele>25</ele>
        <time>2018-10-11T09:43:25Z</time>
      </trkpt>
      <trkpt lat="42.32385" lon="3.08993">
        <ele>25</ele>
        <time>2018-10-11T09:44:03Z</time>
      </trkpt>
      <trkpt lat="42.32385" lon="3.08993">
        <ele>25</ele>
        <time>2018-10-11T09:44:13Z</time>
      </trkpt>
      <trkpt lat="42.32386" lon="3.08994">
        <ele>25</ele>
        <time>2018-10-11T09:44:57Z</time>
      </trkpt>
      <trkpt lat="42.32386" lon="3.08994">
        <ele>25</ele>
        <time>2018-10-11T09:44:59Z</time>
      </trkpt>
      <trkpt lat="42.32382" lon="3.08999">
        <ele>25</ele>
        <time>2018-10-11T09:45:02Z</time>
      </trkpt>
      <trkpt lat="42.3237" lon="3.09006">
        <ele>26</ele>
        <time>2018-10-11T09:45:06Z</time>
      </trkpt>
      <trkpt lat="42.32361" lon="3.09008">
        <ele>26</ele>
        <time>2018-10-11T09:45:08Z</time>
      </trkpt>
      <trkpt lat="42.32343" lon="3.09026">
        <ele>26</ele>
        <time>2018-10-11T09:45:12Z</time>
      </trkpt>
      <trkpt lat="42.32344" lon="3.09049">
        <ele>26</ele>
        <time>2018-10-11T09:45:15Z</time>
      </trkpt>
      <trkpt lat="42.32359" lon="3.09063">
        <ele>26</ele>
        <time>2018-10-11T09:45:18Z</time>
      </trkpt>
      <trkpt lat="42.32365" lon="3.09065">
        <ele>26</ele>
        <time>2018-10-11T09:45:19Z</time>
      </trkpt>
      <trkpt lat="42.32392" lon="3.09082">
        <ele>26</ele>
        <time>2018-10-11T09:45:24Z</time>
      </trkpt>
      <trkpt lat="42.32439" lon="3.09132">
        <ele>28</ele>
        <time>2018-10-11T09:45:33Z</time>
      </trkpt>
      <trkpt lat="42.32461" lon="3.0916">
        <ele>28</ele>
        <time>2018-10-11T09:45:38Z</time>
      </trkpt>
      <trkpt lat="42.32482" lon="3.09195">
        <ele>29</ele>
        <time>2018-10-11T09:45:44Z</time>
      </trkpt>
      <trkpt lat="42.32506" lon="3.09236">
        <ele>30</ele>
        <time>2018-10-11T09:45:49Z</time>
      </trkpt>
      <trkpt lat="42.32532" lon="3.09256">
        <ele>31</ele>
        <time>2018-10-11T09:45:54Z</time>
      </trkpt>
      <trkpt lat="42.32546" lon="3.09271">
        <ele>32</ele>
        <time>2018-10-11T09:45:57Z</time>
      </trkpt>
      <trkpt lat="42.32567" lon="3.09315">
        <ele>33</ele>
        <time>2018-10-11T09:46:04Z</time>
      </trkpt>
      <trkpt lat="42.32587" lon="3.09337">
        <ele>34</ele>
        <time>2018-10-11T09:46:08Z</time>
      </trkpt>
      <trkpt lat="42.32633" lon="3.09371">
        <ele>34</ele>
        <time>2018-10-11T09:46:16Z</time>
      </trkpt>
      <trkpt lat="42.32651" lon="3.09387">
        <ele>34</ele>
        <time>2018-10-11T09:46:23Z</time>
      </trkpt>
      <trkpt lat="42.32651" lon="3.09397">
        <ele>34</ele>
        <time>2018-10-11T09:46:28Z</time>
      </trkpt>
      <trkpt lat="42.32638" lon="3.09423">
        <ele>37</ele>
        <time>2018-10-11T09:46:34Z</time>
      </trkpt>
      <trkpt lat="42.32642" lon="3.09439">
        <ele>37</ele>
        <time>2018-10-11T09:46:38Z</time>
      </trkpt>
      <trkpt lat="42.32645" lon="3.09442">
        <ele>37</ele>
        <time>2018-10-11T09:46:42Z</time>
      </trkpt>
      <trkpt lat="42.32647" lon="3.09436">
        <ele>37</ele>
        <time>2018-10-11T09:47:23Z</time>
      </trkpt>
      <trkpt lat="42.32646" lon="3.09437">
        <ele>37</ele>
        <time>2018-10-11T09:47:50Z</time>
      </trkpt>
      <trkpt lat="42.32659" lon="3.09457">
        <ele>38</ele>
        <time>2018-10-11T09:47:56Z</time>
      </trkpt>
      <trkpt lat="42.32685" lon="3.09495">
        <ele>38</ele>
        <time>2018-10-11T09:48:03Z</time>
      </trkpt>
      <trkpt lat="42.32715" lon="3.09524">
        <ele>39</ele>
        <time>2018-10-11T09:48:08Z</time>
      </trkpt>
      <trkpt lat="42.32741" lon="3.09571">
        <ele>39</ele>
        <time>2018-10-11T09:48:14Z</time>
      </trkpt>
      <trkpt lat="42.32761" lon="3.09636">
        <ele>39</ele>
        <time>2018-10-11T09:48:22Z</time>
      </trkpt>
      <trkpt lat="42.32783" lon="3.09722">
        <ele>43</ele>
        <time>2018-10-11T09:48:30Z</time>
      </trkpt>
      <trkpt lat="42.32789" lon="3.09759">
        <ele>44</ele>
        <time>2018-10-11T09:48:33Z</time>
      </trkpt>
      <trkpt lat="42.32789" lon="3.09784">
        <ele>44</ele>
        <time>2018-10-11T09:48:35Z</time>
      </trkpt>
      <trkpt lat="42.32776" lon="3.09835">
        <ele>45</ele>
        <time>2018-10-11T09:48:39Z</time>
      </trkpt>
      <trkpt lat="42.32771" lon="3.09846">
        <ele>45</ele>
        <time>2018-10-11T09:48:40Z</time>
      </trkpt>
      <trkpt lat="42.32749" lon="3.09902">
        <ele>48</ele>
        <time>2018-10-11T09:48:46Z</time>
      </trkpt>
      <trkpt lat="42.32739" lon="3.09962">
        <ele>49</ele>
        <time>2018-10-11T09:48:51Z</time>
      </trkpt>
      <trkpt lat="42.32742" lon="3.10007">
        <ele>46</ele>
        <time>2018-10-11T09:48:55Z</time>
      </trkpt>
      <trkpt lat="42.32774" lon="3.10111">
        <ele>45</ele>
        <time>2018-10-11T09:49:03Z</time>
      </trkpt>
      <trkpt lat="42.32808" lon="3.1021">
        <ele>47</ele>
        <time>2018-10-11T09:49:10Z</time>
      </trkpt>
      <trkpt lat="42.32823" lon="3.10257">
        <ele>49</ele>
        <time>2018-10-11T09:49:13Z</time>
      </trkpt>
      <trkpt lat="42.32854" lon="3.10363">
        <ele>49</ele>
        <time>2018-10-11T09:49:20Z</time>
      </trkpt>
      <trkpt lat="42.32886" lon="3.10426">
        <ele>50</ele>
        <time>2018-10-11T09:49:25Z</time>
      </trkpt>
      <trkpt lat="42.32922" lon="3.10503">
        <ele>50</ele>
        <time>2018-10-11T09:49:31Z</time>
      </trkpt>
      <trkpt lat="42.32932" lon="3.10525">
        <ele>51</ele>
        <time>2018-10-11T09:49:34Z</time>
      </trkpt>
      <trkpt lat="42.32935" lon="3.10534">
        <ele>51</ele>
        <time>2018-10-11T09:49:38Z</time>
      </trkpt>
      <trkpt lat="42.32934" lon="3.10533">
        <ele>51</ele>
        <time>2018-10-11T09:49:47Z</time>
      </trkpt>
      <trkpt lat="42.32933" lon="3.10531">
        <ele>51</ele>
        <time>2018-10-11T09:50:29Z</time>
      </trkpt>
      <trkpt lat="42.32932" lon="3.10532">
        <ele>51</ele>
        <time>2018-10-11T09:50:55Z</time>
      </trkpt>
      <trkpt lat="42.32933" lon="3.10532">
        <ele>51</ele>
        <time>2018-10-11T09:51:01Z</time>
      </trkpt>
      <trkpt lat="42.32935" lon="3.10536">
        <ele>52</ele>
        <time>2018-10-11T09:51:03Z</time>
      </trkpt>
      <trkpt lat="42.32953" lon="3.10574">
        <ele>52</ele>
        <time>2018-10-11T09:51:10Z</time>
      </trkpt>
      <trkpt lat="42.32963" lon="3.10605">
        <ele>53</ele>
        <time>2018-10-11T09:51:13Z</time>
      </trkpt>
      <trkpt lat="42.32977" lon="3.1067">
        <ele>55</ele>
        <time>2018-10-11T09:51:19Z</time>
      </trkpt>
      <trkpt lat="42.32982" lon="3.10706">
        <ele>56</ele>
        <time>2018-10-11T09:51:22Z</time>
      </trkpt>
      <trkpt lat="42.32988" lon="3.1073">
        <ele>55</ele>
        <time>2018-10-11T09:51:24Z</time>
      </trkpt>
      <trkpt lat="42.32999" lon="3.10752">
        <ele>54</ele>
        <time>2018-10-11T09:51:26Z</time>
      </trkpt>
      <trkpt lat="42.33041" lon="3.10809">
        <ele>55</ele>
        <time>2018-10-11T09:51:31Z</time>
      </trkpt>
      <trkpt lat="42.33062" lon="3.10864">
        <ele>57</ele>
        <time>2018-10-11T09:51:35Z</time>
      </trkpt>
      <trkpt lat="42.33064" lon="3.1088">
        <ele>57</ele>
        <time>2018-10-11T09:51:36Z</time>
      </trkpt>
      <trkpt lat="42.33069" lon="3.10984">
        <ele>60</ele>
        <time>2018-10-11T09:51:42Z</time>
      </trkpt>
      <trkpt lat="42.3307" lon="3.11002">
        <ele>60</ele>
        <time>2018-10-11T09:51:43Z</time>
      </trkpt>
      <trkpt lat="42.33074" lon="3.11077">
        <ele>62</ele>
        <time>2018-10-11T09:51:47Z</time>
      </trkpt>
      <trkpt lat="42.33073" lon="3.11135">
        <ele>65</ele>
        <time>2018-10-11T09:51:50Z</time>
      </trkpt>
      <trkpt lat="42.33072" lon="3.11154">
        <ele>66</ele>
        <time>2018-10-11T09:51:51Z</time>
      </trkpt>
      <trkpt lat="42.33063" lon="3.11267">
        <ele>75</ele>
        <time>2018-10-11T09:51:57Z</time>
      </trkpt>
      <trkpt lat="42.33062" lon="3.11285">
        <ele>75</ele>
        <time>2018-10-11T09:51:58Z</time>
      </trkpt>
      <trkpt lat="42.33057" lon="3.1134">
        <ele>79</ele>
        <time>2018-10-11T09:52:01Z</time>
      </trkpt>
      <trkpt lat="42.33056" lon="3.11377">
        <ele>79</ele>
        <time>2018-10-11T09:52:03Z</time>
      </trkpt>
      <trkpt lat="42.33061" lon="3.11427">
        <ele>84</ele>
        <time>2018-10-11T09:52:06Z</time>
      </trkpt>
      <trkpt lat="42.33055" lon="3.11481">
        <ele>85</ele>
        <time>2018-10-11T09:52:10Z</time>
      </trkpt>
      <trkpt lat="42.33054" lon="3.11493">
        <ele>85</ele>
        <time>2018-10-11T09:52:11Z</time>
      </trkpt>
      <trkpt lat="42.33054" lon="3.1154">
        <ele>90</ele>
        <time>2018-10-11T09:52:15Z</time>
      </trkpt>
      <trkpt lat="42.33049" lon="3.1155">
        <ele>90</ele>
        <time>2018-10-11T09:52:16Z</time>
      </trkpt>
      <trkpt lat="42.33031" lon="3.1158">
        <ele>89</ele>
        <time>2018-10-11T09:52:19Z</time>
      </trkpt>
      <trkpt lat="42.3302" lon="3.11634">
        <ele>95</ele>
        <time>2018-10-11T09:52:23Z</time>
      </trkpt>
      <trkpt lat="42.33019" lon="3.11665">
        <ele>95</ele>
        <time>2018-10-11T09:52:25Z</time>
      </trkpt>
      <trkpt lat="42.33016" lon="3.11729">
        <ele>100</ele>
        <time>2018-10-11T09:52:29Z</time>
      </trkpt>
      <trkpt lat="42.33012" lon="3.11759">
        <ele>98</ele>
        <time>2018-10-11T09:52:31Z</time>
      </trkpt>
      <trkpt lat="42.3302" lon="3.11802">
        <ele>100</ele>
        <time>2018-10-11T09:52:35Z</time>
      </trkpt>
      <trkpt lat="42.33035" lon="3.11802">
        <ele>101</ele>
        <time>2018-10-11T09:52:37Z</time>
      </trkpt>
      <trkpt lat="42.33042" lon="3.11785">
        <ele>103</ele>
        <time>2018-10-11T09:52:39Z</time>
      </trkpt>
      <trkpt lat="42.33061" lon="3.11731">
        <ele>106</ele>
        <time>2018-10-11T09:52:44Z</time>
      </trkpt>
      <trkpt lat="42.3308" lon="3.11683">
        <ele>107</ele>
        <time>2018-10-11T09:52:48Z</time>
      </trkpt>
      <trkpt lat="42.33109" lon="3.1164">
        <ele>116</ele>
        <time>2018-10-11T09:52:52Z</time>
      </trkpt>
      <trkpt lat="42.33156" lon="3.11597">
        <ele>121</ele>
        <time>2018-10-11T09:52:57Z</time>
      </trkpt>
      <trkpt lat="42.33181" lon="3.11564">
        <ele>127</ele>
        <time>2018-10-11T09:53:00Z</time>
      </trkpt>
      <trkpt lat="42.33205" lon="3.11506">
        <ele>128</ele>
        <time>2018-10-11T09:53:04Z</time>
      </trkpt>
      <trkpt lat="42.33216" lon="3.11477">
        <ele>124</ele>
        <time>2018-10-11T09:53:06Z</time>
      </trkpt>
      <trkpt lat="42.33249" lon="3.11446">
        <ele>126</ele>
        <time>2018-10-11T09:53:10Z</time>
      </trkpt>
      <trkpt lat="42.33274" lon="3.11461">
        <ele>128</ele>
        <time>2018-10-11T09:53:13Z</time>
      </trkpt>
      <trkpt lat="42.33291" lon="3.11496">
        <ele>129</ele>
        <time>2018-10-11T09:53:16Z</time>
      </trkpt>
      <trkpt lat="42.333" lon="3.11542">
        <ele>137</ele>
        <time>2018-10-11T09:53:19Z</time>
      </trkpt>
      <trkpt lat="42.33312" lon="3.1159">
        <ele>144</ele>
        <time>2018-10-11T09:53:22Z</time>
      </trkpt>
      <trkpt lat="42.33315" lon="3.11607">
        <ele>145</ele>
        <time>2018-10-11T09:53:23Z</time>
      </trkpt>
      <trkpt lat="42.33321" lon="3.11679">
        <ele>153</ele>
        <time>2018-10-11T09:53:27Z</time>
      </trkpt>
      <trkpt lat="42.3334" lon="3.11746">
        <ele>157</ele>
        <time>2018-10-11T09:53:31Z</time>
      </trkpt>
      <trkpt lat="42.33379" lon="3.11793">
        <ele>161</ele>
        <time>2018-10-11T09:53:35Z</time>
      </trkpt>
      <trkpt lat="42.33426" lon="3.11829">
        <ele>163</ele>
        <time>2018-10-11T09:53:39Z</time>
      </trkpt>
      <trkpt lat="42.33462" lon="3.11854">
        <ele>168</ele>
        <time>2018-10-11T09:53:42Z</time>
      </trkpt>
      <trkpt lat="42.33495" lon="3.11878">
        <ele>169</ele>
        <time>2018-10-11T09:53:45Z</time>
      </trkpt>
      <trkpt lat="42.33532" lon="3.11877">
        <ele>173</ele>
        <time>2018-10-11T09:53:49Z</time>
      </trkpt>
      <trkpt lat="42.33582" lon="3.11844">
        <ele>176</ele>
        <time>2018-10-11T09:53:54Z</time>
      </trkpt>
      <trkpt lat="42.33616" lon="3.1182">
        <ele>178</ele>
        <time>2018-10-11T09:53:57Z</time>
      </trkpt>
      <trkpt lat="42.33653" lon="3.11795">
        <ele>179</ele>
        <time>2018-10-11T09:54:00Z</time>
      </trkpt>
      <trkpt lat="42.33664" lon="3.11787">
        <ele>179</ele>
        <time>2018-10-11T09:54:01Z</time>
      </trkpt>
      <trkpt lat="42.33676" lon="3.11779">
        <ele>184</ele>
        <time>2018-10-11T09:54:02Z</time>
      </trkpt>
      <trkpt lat="42.33707" lon="3.11775">
        <ele>185</ele>
        <time>2018-10-11T09:54:05Z</time>
      </trkpt>
      <trkpt lat="42.33717" lon="3.11797">
        <ele>187</ele>
        <time>2018-10-11T09:54:07Z</time>
      </trkpt>
      <trkpt lat="42.33712" lon="3.11824">
        <ele>189</ele>
        <time>2018-10-11T09:54:09Z</time>
      </trkpt>
      <trkpt lat="42.33696" lon="3.11881">
        <ele>196</ele>
        <time>2018-10-11T09:54:13Z</time>
      </trkpt>
      <trkpt lat="42.33691" lon="3.11915">
        <ele>197</ele>
        <time>2018-10-11T09:54:15Z</time>
      </trkpt>
      <trkpt lat="42.33683" lon="3.11985">
        <ele>202</ele>
        <time>2018-10-11T09:54:19Z</time>
      </trkpt>
      <trkpt lat="42.3369" lon="3.12049">
        <ele>207</ele>
        <time>2018-10-11T09:54:23Z</time>
      </trkpt>
      <trkpt lat="42.33695" lon="3.12065">
        <ele>207</ele>
        <time>2018-10-11T09:54:24Z</time>
      </trkpt>
      <trkpt lat="42.33712" lon="3.12112">
        <ele>210</ele>
        <time>2018-10-11T09:54:27Z</time>
      </trkpt>
      <trkpt lat="42.33722" lon="3.1218">
        <ele>211</ele>
        <time>2018-10-11T09:54:31Z</time>
      </trkpt>
      <trkpt lat="42.33715" lon="3.1221">
        <ele>210</ele>
        <time>2018-10-11T09:54:33Z</time>
      </trkpt>
      <trkpt lat="42.33705" lon="3.12237">
        <ele>209</ele>
        <time>2018-10-11T09:54:35Z</time>
      </trkpt>
      <trkpt lat="42.33696" lon="3.12294">
        <ele>211</ele>
        <time>2018-10-11T09:54:39Z</time>
      </trkpt>
      <trkpt lat="42.33697" lon="3.12309">
        <ele>212</ele>
        <time>2018-10-11T09:54:40Z</time>
      </trkpt>
      <trkpt lat="42.33702" lon="3.12385">
        <ele>216</ele>
        <time>2018-10-11T09:54:45Z</time>
      </trkpt>
      <trkpt lat="42.337" lon="3.12465">
        <ele>223</ele>
        <time>2018-10-11T09:54:50Z</time>
      </trkpt>
      <trkpt lat="42.33696" lon="3.12511">
        <ele>228</ele>
        <time>2018-10-11T09:54:53Z</time>
      </trkpt>
      <trkpt lat="42.3369" lon="3.12558">
        <ele>230</ele>
        <time>2018-10-11T09:54:56Z</time>
      </trkpt>
      <trkpt lat="42.33677" lon="3.12604">
        <ele>233</ele>
        <time>2018-10-11T09:54:59Z</time>
      </trkpt>
      <trkpt lat="42.33657" lon="3.12647">
        <ele>246</ele>
        <time>2018-10-11T09:55:02Z</time>
      </trkpt>
      <trkpt lat="42.3365" lon="3.12661">
        <ele>246</ele>
        <time>2018-10-11T09:55:03Z</time>
      </trkpt>
      <trkpt lat="42.3364" lon="3.12722">
        <ele>256</ele>
        <time>2018-10-11T09:55:07Z</time>
      </trkpt>
      <trkpt lat="42.33652" lon="3.12783">
        <ele>261</ele>
        <time>2018-10-11T09:55:11Z</time>
      </trkpt>
      <trkpt lat="42.33661" lon="3.12848">
        <ele>260</ele>
        <time>2018-10-11T09:55:16Z</time>
      </trkpt>
      <trkpt lat="42.33658" lon="3.12874">
        <ele>262</ele>
        <time>2018-10-11T09:55:18Z</time>
      </trkpt>
      <trkpt lat="42.33657" lon="3.12886">
        <ele>262</ele>
        <time>2018-10-11T09:55:19Z</time>
      </trkpt>
      <trkpt lat="42.33643" lon="3.12907">
        <ele>262</ele>
        <time>2018-10-11T09:55:22Z</time>
      </trkpt>
      <trkpt lat="42.33633" lon="3.12895">
        <ele>266</ele>
        <time>2018-10-11T09:55:24Z</time>
      </trkpt>
      <trkpt lat="42.33637" lon="3.12862">
        <ele>266</ele>
        <time>2018-10-11T09:55:27Z</time>
      </trkpt>
      <trkpt lat="42.3363" lon="3.12826">
        <ele>266</ele>
        <time>2018-10-11T09:55:30Z</time>
      </trkpt>
      <trkpt lat="42.33605" lon="3.12777">
        <ele>269</ele>
        <time>2018-10-11T09:55:34Z</time>
      </trkpt>
      <trkpt lat="42.33592" lon="3.12751">
        <ele>274</ele>
        <time>2018-10-11T09:55:36Z</time>
      </trkpt>
      <trkpt lat="42.33577" lon="3.12728">
        <ele>276</ele>
        <time>2018-10-11T09:55:38Z</time>
      </trkpt>
      <trkpt lat="42.3356" lon="3.12713">
        <ele>275</ele>
        <time>2018-10-11T09:55:40Z</time>
      </trkpt>
      <trkpt lat="42.3354" lon="3.127">
        <ele>275</ele>
        <time>2018-10-11T09:55:42Z</time>
      </trkpt>
      <trkpt lat="42.33499" lon="3.12692">
        <ele>273</ele>
        <time>2018-10-11T09:55:46Z</time>
      </trkpt>
      <trkpt lat="42.33473" lon="3.12713">
        <ele>274</ele>
        <time>2018-10-11T09:55:49Z</time>
      </trkpt>
      <trkpt lat="42.33462" lon="3.12739">
        <ele>275</ele>
        <time>2018-10-11T09:55:51Z</time>
      </trkpt>
      <trkpt lat="42.33444" lon="3.12799">
        <ele>288</ele>
        <time>2018-10-11T09:55:55Z</time>
      </trkpt>
      <trkpt lat="42.33425" lon="3.12843">
        <ele>294</ele>
        <time>2018-10-11T09:55:58Z</time>
      </trkpt>
      <trkpt lat="42.33405" lon="3.12886">
        <ele>291</ele>
        <time>2018-10-11T09:56:01Z</time>
      </trkpt>
      <trkpt lat="42.33393" lon="3.12917">
        <ele>304</ele>
        <time>2018-10-11T09:56:03Z</time>
      </trkpt>
      <trkpt lat="42.3336" lon="3.12967">
        <ele>306</ele>
        <time>2018-10-11T09:56:07Z</time>
      </trkpt>
      <trkpt lat="42.33336" lon="3.12977">
        <ele>308</ele>
        <time>2018-10-11T09:56:09Z</time>
      </trkpt>
      <trkpt lat="42.33299" lon="3.12982">
        <ele>306</ele>
        <time>2018-10-11T09:56:12Z</time>
      </trkpt>
      <trkpt lat="42.33276" lon="3.12993">
        <ele>308</ele>
        <time>2018-10-11T09:56:14Z</time>
      </trkpt>
      <trkpt lat="42.33255" lon="3.13011">
        <ele>319</ele>
        <time>2018-10-11T09:56:16Z</time>
      </trkpt>
      <trkpt lat="42.33244" lon="3.1302">
        <ele>322</ele>
        <time>2018-10-11T09:56:17Z</time>
      </trkpt>
      <trkpt lat="42.332" lon="3.1308">
        <ele>328</ele>
        <time>2018-10-11T09:56:22Z</time>
      </trkpt>
      <trkpt lat="42.33177" lon="3.13119">
        <ele>335</ele>
        <time>2018-10-11T09:56:25Z</time>
      </trkpt>
      <trkpt lat="42.33169" lon="3.13132">
        <ele>335</ele>
        <time>2018-10-11T09:56:26Z</time>
      </trkpt>
      <trkpt lat="42.33162" lon="3.13144">
        <ele>337</ele>
        <time>2018-10-11T09:56:27Z</time>
      </trkpt>
      <trkpt lat="42.33141" lon="3.13163">
        <ele>338</ele>
        <time>2018-10-11T09:56:30Z</time>
      </trkpt>
      <trkpt lat="42.3313" lon="3.13147">
        <ele>338</ele>
        <time>2018-10-11T09:56:32Z</time>
      </trkpt>
      <trkpt lat="42.33129" lon="3.13135">
        <ele>338</ele>
        <time>2018-10-11T09:56:33Z</time>
      </trkpt>
      <trkpt lat="42.33134" lon="3.13077">
        <ele>334</ele>
        <time>2018-10-11T09:56:37Z</time>
      </trkpt>
      <trkpt lat="42.33137" lon="3.13063">
        <ele>333</ele>
        <time>2018-10-11T09:56:38Z</time>
      </trkpt>
      <trkpt lat="42.33147" lon="3.13019">
        <ele>331</ele>
        <time>2018-10-11T09:56:42Z</time>
      </trkpt>
      <trkpt lat="42.33133" lon="3.13006">
        <ele>332</ele>
        <time>2018-10-11T09:56:45Z</time>
      </trkpt>
      <trkpt lat="42.33115" lon="3.1302">
        <ele>334</ele>
        <time>2018-10-11T09:56:48Z</time>
      </trkpt>
      <trkpt lat="42.33107" lon="3.13041">
        <ele>335</ele>
        <time>2018-10-11T09:56:50Z</time>
      </trkpt>
      <trkpt lat="42.33086" lon="3.13106">
        <ele>341</ele>
        <time>2018-10-11T09:56:55Z</time>
      </trkpt>
      <trkpt lat="42.33069" lon="3.13151">
        <ele>347</ele>
        <time>2018-10-11T09:56:58Z</time>
      </trkpt>
      <trkpt lat="42.33053" lon="3.1318">
        <ele>350</ele>
        <time>2018-10-11T09:57:00Z</time>
      </trkpt>
      <trkpt lat="42.33034" lon="3.13226">
        <ele>352</ele>
        <time>2018-10-11T09:57:03Z</time>
      </trkpt>
      <trkpt lat="42.3303" lon="3.13243">
        <ele>353</ele>
        <time>2018-10-11T09:57:04Z</time>
      </trkpt>
      <trkpt lat="42.33018" lon="3.13311">
        <ele>355</ele>
        <time>2018-10-11T09:57:08Z</time>
      </trkpt>
      <trkpt lat="42.33017" lon="3.13328">
        <ele>355</ele>
        <time>2018-10-11T09:57:09Z</time>
      </trkpt>
      <trkpt lat="42.33016" lon="3.13343">
        <ele>357</ele>
        <time>2018-10-11T09:57:10Z</time>
      </trkpt>
      <trkpt lat="42.33006" lon="3.13402">
        <ele>358</ele>
        <time>2018-10-11T09:57:14Z</time>
      </trkpt>
      <trkpt lat="42.33003" lon="3.13415">
        <ele>359</ele>
        <time>2018-10-11T09:57:15Z</time>
      </trkpt>
      <trkpt lat="42.32999" lon="3.13427">
        <ele>359</ele>
        <time>2018-10-11T09:57:16Z</time>
      </trkpt>
      <trkpt lat="42.32975" lon="3.13452">
        <ele>359</ele>
        <time>2018-10-11T09:57:20Z</time>
      </trkpt>
      <trkpt lat="42.32951" lon="3.13474">
        <ele>359</ele>
        <time>2018-10-11T09:57:25Z</time>
      </trkpt>
      <trkpt lat="42.32964" lon="3.13495">
        <ele>360</ele>
        <time>2018-10-11T09:57:28Z</time>
      </trkpt>
      <trkpt lat="42.32971" lon="3.13501">
        <ele>367</ele>
        <time>2018-10-11T09:57:29Z</time>
      </trkpt>
      <trkpt lat="42.32993" lon="3.1352">
        <ele>369</ele>
        <time>2018-10-11T09:57:32Z</time>
      </trkpt>
      <trkpt lat="42.33003" lon="3.13554">
        <ele>379</ele>
        <time>2018-10-11T09:57:36Z</time>
      </trkpt>
      <trkpt lat="42.32998" lon="3.1356">
        <ele>374</ele>
        <time>2018-10-11T09:57:37Z</time>
      </trkpt>
      <trkpt lat="42.32983" lon="3.13557">
        <ele>373</ele>
        <time>2018-10-11T09:57:39Z</time>
      </trkpt>
      <trkpt lat="42.32954" lon="3.13549">
        <ele>369</ele>
        <time>2018-10-11T09:57:43Z</time>
      </trkpt>
      <trkpt lat="42.32941" lon="3.13575">
        <ele>370</ele>
        <time>2018-10-11T09:57:46Z</time>
      </trkpt>
      <trkpt lat="42.32935" lon="3.13596">
        <ele>377</ele>
        <time>2018-10-11T09:57:48Z</time>
      </trkpt>
      <trkpt lat="42.3292" lon="3.13645">
        <ele>383</ele>
        <time>2018-10-11T09:57:52Z</time>
      </trkpt>
      <trkpt lat="42.32912" lon="3.13671">
        <ele>382</ele>
        <time>2018-10-11T09:57:54Z</time>
      </trkpt>
      <trkpt lat="42.32903" lon="3.13729">
        <ele>384</ele>
        <time>2018-10-11T09:57:58Z</time>
      </trkpt>
      <trkpt lat="42.329" lon="3.13744">
        <ele>387</ele>
        <time>2018-10-11T09:57:59Z</time>
      </trkpt>
      <trkpt lat="42.32891" lon="3.1377">
        <ele>391</ele>
        <time>2018-10-11T09:58:01Z</time>
      </trkpt>
      <trkpt lat="42.32878" lon="3.13821">
        <ele>392</ele>
        <time>2018-10-11T09:58:05Z</time>
      </trkpt>
      <trkpt lat="42.3288" lon="3.1385">
        <ele>400</ele>
        <time>2018-10-11T09:58:07Z</time>
      </trkpt>
      <trkpt lat="42.32884" lon="3.13878">
        <ele>402</ele>
        <time>2018-10-11T09:58:09Z</time>
      </trkpt>
      <trkpt lat="42.32875" lon="3.13927">
        <ele>410</ele>
        <time>2018-10-11T09:58:13Z</time>
      </trkpt>
      <trkpt lat="42.32847" lon="3.13942">
        <ele>407</ele>
        <time>2018-10-11T09:58:16Z</time>
      </trkpt>
      <trkpt lat="42.32833" lon="3.13958">
        <ele>402</ele>
        <time>2018-10-11T09:58:18Z</time>
      </trkpt>
      <trkpt lat="42.32826" lon="3.13994">
        <ele>407</ele>
        <time>2018-10-11T09:58:21Z</time>
      </trkpt>
      <trkpt lat="42.32816" lon="3.14017">
        <ele>412</ele>
        <time>2018-10-11T09:58:23Z</time>
      </trkpt>
      <trkpt lat="42.32808" lon="3.14026">
        <ele>412</ele>
        <time>2018-10-11T09:58:24Z</time>
      </trkpt>
      <trkpt lat="42.32791" lon="3.14042">
        <ele>413</ele>
        <time>2018-10-11T09:58:26Z</time>
      </trkpt>
      <trkpt lat="42.32748" lon="3.14048">
        <ele>415</ele>
        <time>2018-10-11T09:58:30Z</time>
      </trkpt>
      <trkpt lat="42.32697" lon="3.14045">
        <ele>418</ele>
        <time>2018-10-11T09:58:35Z</time>
      </trkpt>
      <trkpt lat="42.32688" lon="3.14052">
        <ele>418</ele>
        <time>2018-10-11T09:58:36Z</time>
      </trkpt>
      <trkpt lat="42.32651" lon="3.14088">
        <ele>429</ele>
        <time>2018-10-11T09:58:40Z</time>
      </trkpt>
      <trkpt lat="42.32631" lon="3.1411">
        <ele>432</ele>
        <time>2018-10-11T09:58:42Z</time>
      </trkpt>
      <trkpt lat="42.32611" lon="3.14135">
        <ele>433</ele>
        <time>2018-10-11T09:58:44Z</time>
      </trkpt>
      <trkpt lat="42.3259" lon="3.14191">
        <ele>437</ele>
        <time>2018-10-11T09:58:48Z</time>
      </trkpt>
      <trkpt lat="42.32572" lon="3.14267">
        <ele>443</ele>
        <time>2018-10-11T09:58:53Z</time>
      </trkpt>
      <trkpt lat="42.32559" lon="3.14298">
        <ele>444</ele>
        <time>2018-10-11T09:58:55Z</time>
      </trkpt>
      <trkpt lat="42.32546" lon="3.1433">
        <ele>445</ele>
        <time>2018-10-11T09:58:57Z</time>
      </trkpt>
      <trkpt lat="42.32533" lon="3.14361">
        <ele>447</ele>
        <time>2018-10-11T09:58:59Z</time>
      </trkpt>
      <trkpt lat="42.32531" lon="3.14419">
        <ele>449</ele>
        <time>2018-10-11T09:59:03Z</time>
      </trkpt>
      <trkpt lat="42.32537" lon="3.14432">
        <ele>449</ele>
        <time>2018-10-11T09:59:04Z</time>
      </trkpt>
      <trkpt lat="42.32565" lon="3.14483">
        <ele>452</ele>
        <time>2018-10-11T09:59:08Z</time>
      </trkpt>
      <trkpt lat="42.3258" lon="3.1451">
        <ele>455</ele>
        <time>2018-10-11T09:59:10Z</time>
      </trkpt>
      <trkpt lat="42.32598" lon="3.14575">
        <ele>459</ele>
        <time>2018-10-11T09:59:14Z</time>
      </trkpt>
      <trkpt lat="42.326" lon="3.14592">
        <ele>462</ele>
        <time>2018-10-11T09:59:15Z</time>
      </trkpt>
      <trkpt lat="42.32601" lon="3.14626">
        <ele>463</ele>
        <time>2018-10-11T09:59:17Z</time>
      </trkpt>
      <trkpt lat="42.32617" lon="3.14699">
        <ele>469</ele>
        <time>2018-10-11T09:59:22Z</time>
      </trkpt>
      <trkpt lat="42.32616" lon="3.14741">
        <ele>470</ele>
        <time>2018-10-11T09:59:25Z</time>
      </trkpt>
      <trkpt lat="42.32611" lon="3.14753">
        <ele>472</ele>
        <time>2018-10-11T09:59:26Z</time>
      </trkpt>
      <trkpt lat="42.32594" lon="3.1479">
        <ele>472</ele>
        <time>2018-10-11T09:59:29Z</time>
      </trkpt>
      <trkpt lat="42.32593" lon="3.14825">
        <ele>472</ele>
        <time>2018-10-11T09:59:32Z</time>
      </trkpt>
      <trkpt lat="42.32597" lon="3.14848">
        <ele>474</ele>
        <time>2018-10-11T09:59:34Z</time>
      </trkpt>
      <trkpt lat="42.32617" lon="3.14898">
        <ele>477</ele>
        <time>2018-10-11T09:59:39Z</time>
      </trkpt>
      <trkpt lat="42.32635" lon="3.14928">
        <ele>479</ele>
        <time>2018-10-11T09:59:42Z</time>
      </trkpt>
      <trkpt lat="42.32653" lon="3.14982">
        <ele>480</ele>
        <time>2018-10-11T09:59:46Z</time>
      </trkpt>
      <trkpt lat="42.32684" lon="3.15162">
        <ele>483</ele>
        <time>2018-10-11T09:59:57Z</time>
      </trkpt>
      <trkpt lat="42.32705" lon="3.15243">
        <ele>485</ele>
        <time>2018-10-11T10:00:02Z</time>
      </trkpt>
      <trkpt lat="42.32733" lon="3.15284">
        <ele>489</ele>
        <time>2018-10-11T10:00:06Z</time>
      </trkpt>
      <trkpt lat="42.32743" lon="3.15289">
        <ele>489</ele>
        <time>2018-10-11T10:00:07Z</time>
      </trkpt>
      <trkpt lat="42.32802" lon="3.15335">
        <ele>486</ele>
        <time>2018-10-11T10:00:13Z</time>
      </trkpt>
      <trkpt lat="42.3284" lon="3.1538">
        <ele>480</ele>
        <time>2018-10-11T10:00:17Z</time>
      </trkpt>
      <trkpt lat="42.3286" lon="3.15431">
        <ele>488</ele>
        <time>2018-10-11T10:00:21Z</time>
      </trkpt>
      <trkpt lat="42.32867" lon="3.15473">
        <ele>490</ele>
        <time>2018-10-11T10:00:24Z</time>
      </trkpt>
      <trkpt lat="42.32891" lon="3.15491">
        <ele>490</ele>
        <time>2018-10-11T10:00:27Z</time>
      </trkpt>
      <trkpt lat="42.32927" lon="3.15505">
        <ele>490</ele>
        <time>2018-10-11T10:00:31Z</time>
      </trkpt>
      <trkpt lat="42.32947" lon="3.15527">
        <ele>490</ele>
        <time>2018-10-11T10:00:35Z</time>
      </trkpt>
      <trkpt lat="42.3295" lon="3.15543">
        <ele>491</ele>
        <time>2018-10-11T10:00:37Z</time>
      </trkpt>
      <trkpt lat="42.32952" lon="3.15596">
        <ele>500</ele>
        <time>2018-10-11T10:00:42Z</time>
      </trkpt>
      <trkpt lat="42.32953" lon="3.15608">
        <ele>500</ele>
        <time>2018-10-11T10:00:43Z</time>
      </trkpt>
      <trkpt lat="42.32958" lon="3.15631">
        <ele>500</ele>
        <time>2018-10-11T10:00:45Z</time>
      </trkpt>
      <trkpt lat="42.32975" lon="3.1567">
        <ele>502</ele>
        <time>2018-10-11T10:00:49Z</time>
      </trkpt>
      <trkpt lat="42.3298" lon="3.15701">
        <ele>502</ele>
        <time>2018-10-11T10:00:53Z</time>
      </trkpt>
      <trkpt lat="42.32975" lon="3.15709">
        <ele>502</ele>
        <time>2018-10-11T10:00:55Z</time>
      </trkpt>
      <trkpt lat="42.32971" lon="3.15712">
        <ele>502</ele>
        <time>2018-10-11T10:00:57Z</time>
      </trkpt>
      <trkpt lat="42.32964" lon="3.15696">
        <ele>503</ele>
        <time>2018-10-11T10:07:42Z</time>
      </trkpt>
      <trkpt lat="42.32961" lon="3.15686">
        <ele>503</ele>
        <time>2018-10-11T10:07:47Z</time>
      </trkpt>
      <trkpt lat="42.32962" lon="3.1569">
        <ele>503</ele>
        <time>2018-10-11T10:07:49Z</time>
      </trkpt>
      <trkpt lat="42.32964" lon="3.15693">
        <ele>503</ele>
        <time>2018-10-11T10:07:52Z</time>
      </trkpt>
      <trkpt lat="42.32966" lon="3.157">
        <ele>503</ele>
        <time>2018-10-11T10:07:57Z</time>
      </trkpt>
      <trkpt lat="42.32962" lon="3.15706">
        <ele>503</ele>
        <time>2018-10-11T10:08:05Z</time>
      </trkpt>
      <trkpt lat="42.32951" lon="3.15713">
        <ele>503</ele>
        <time>2018-10-11T10:08:08Z</time>
      </trkpt>
      <trkpt lat="42.32928" lon="3.15723">
        <ele>505</ele>
        <time>2018-10-11T10:08:13Z</time>
      </trkpt>
      <trkpt lat="42.32921" lon="3.15726">
        <ele>505</ele>
        <time>2018-10-11T10:08:15Z</time>
      </trkpt>
      <trkpt lat="42.32918" lon="3.15727">
        <ele>506</ele>
        <time>2018-10-11T10:08:19Z</time>
      </trkpt>
      <trkpt lat="42.32918" lon="3.15727">
        <ele>506</ele>
        <time>2018-10-11T10:08:25Z</time>
      </trkpt>
      <trkpt lat="42.32918" lon="3.15728">
        <ele>506</ele>
        <time>2018-10-11T10:08:32Z</time>
      </trkpt>
      <trkpt lat="42.32919" lon="3.15728">
        <ele>506</ele>
        <time>2018-10-11T10:08:45Z</time>
      </trkpt>
      <trkpt lat="42.32919" lon="3.15728">
        <ele>506</ele>
        <time>2018-10-11T10:08:57Z</time>
      </trkpt>
      <trkpt lat="42.32919" lon="3.15727">
        <ele>506</ele>
        <time>2018-10-11T10:09:23Z</time>
      </trkpt>
      <trkpt lat="42.32919" lon="3.15727">
        <ele>506</ele>
        <time>2018-10-11T10:09:25Z</time>
      </trkpt>
      <trkpt lat="42.32914" lon="3.15729">
        <ele>511</ele>
        <time>2018-10-11T10:09:28Z</time>
      </trkpt>
      <trkpt lat="42.32907" lon="3.15734">
        <ele>511</ele>
        <time>2018-10-11T10:09:30Z</time>
      </trkpt>
      <trkpt lat="42.32882" lon="3.15751">
        <ele>515</ele>
        <time>2018-10-11T10:09:35Z</time>
      </trkpt>
      <trkpt lat="42.32856" lon="3.15794">
        <ele>518</ele>
        <time>2018-10-11T10:09:40Z</time>
      </trkpt>
      <trkpt lat="42.32852" lon="3.15804">
        <ele>518</ele>
        <time>2018-10-11T10:09:41Z</time>
      </trkpt>
      <trkpt lat="42.32846" lon="3.15827">
        <ele>520</ele>
        <time>2018-10-11T10:09:43Z</time>
      </trkpt>
      <trkpt lat="42.32807" lon="3.15908">
        <ele>521</ele>
        <time>2018-10-11T10:09:51Z</time>
      </trkpt>
      <trkpt lat="42.32797" lon="3.15928">
        <ele>515</ele>
        <time>2018-10-11T10:09:53Z</time>
      </trkpt>
      <trkpt lat="42.32792" lon="3.15939">
        <ele>515</ele>
        <time>2018-10-11T10:09:54Z</time>
      </trkpt>
      <trkpt lat="42.32768" lon="3.15967">
        <ele>515</ele>
        <time>2018-10-11T10:09:58Z</time>
      </trkpt>
      <trkpt lat="42.32754" lon="3.15974">
        <ele>515</ele>
        <time>2018-10-11T10:10:00Z</time>
      </trkpt>
      <trkpt lat="42.32713" lon="3.16009">
        <ele>515</ele>
        <time>2018-10-11T10:10:06Z</time>
      </trkpt>
      <trkpt lat="42.32669" lon="3.16059">
        <ele>511</ele>
        <time>2018-10-11T10:10:13Z</time>
      </trkpt>
      <trkpt lat="42.32636" lon="3.1607">
        <ele>524</ele>
        <time>2018-10-11T10:10:18Z</time>
      </trkpt>
      <trkpt lat="42.32618" lon="3.16075">
        <ele>527</ele>
        <time>2018-10-11T10:10:21Z</time>
      </trkpt>
      <trkpt lat="42.32581" lon="3.16094">
        <ele>525</ele>
        <time>2018-10-11T10:10:30Z</time>
      </trkpt>
      <trkpt lat="42.32575" lon="3.16097">
        <ele>525</ele>
        <time>2018-10-11T10:10:32Z</time>
      </trkpt>
      <trkpt lat="42.32571" lon="3.16101">
        <ele>524</ele>
        <time>2018-10-11T10:10:38Z</time>
      </trkpt>
      <trkpt lat="42.32569" lon="3.16103">
        <ele>524</ele>
        <time>2018-10-11T10:10:54Z</time>
      </trkpt>
      <trkpt lat="42.32569" lon="3.16103">
        <ele>524</ele>
        <time>2018-10-11T10:11:15Z</time>
      </trkpt>
      <trkpt lat="42.32569" lon="3.16103">
        <ele>524</ele>
        <time>2018-10-11T10:11:22Z</time>
      </trkpt>
      <trkpt lat="42.32569" lon="3.16102">
        <ele>524</ele>
        <time>2018-10-11T10:11:36Z</time>
      </trkpt>
      <trkpt lat="42.32567" lon="3.16103">
        <ele>524</ele>
        <time>2018-10-11T10:11:53Z</time>
      </trkpt>
      <trkpt lat="42.32558" lon="3.16116">
        <ele>523</ele>
        <time>2018-10-11T10:12:04Z</time>
      </trkpt>
      <trkpt lat="42.32543" lon="3.16127">
        <ele>524</ele>
        <time>2018-10-11T10:12:17Z</time>
      </trkpt>
      <trkpt lat="42.32529" lon="3.16139">
        <ele>524</ele>
        <time>2018-10-11T10:12:30Z</time>
      </trkpt>
      <trkpt lat="42.32515" lon="3.16146">
        <ele>525</ele>
        <time>2018-10-11T10:12:41Z</time>
      </trkpt>
      <trkpt lat="42.32506" lon="3.16163">
        <ele>525</ele>
        <time>2018-10-11T10:12:51Z</time>
      </trkpt>
      <trkpt lat="42.32493" lon="3.16186">
        <ele>533</ele>
        <time>2018-10-11T10:13:04Z</time>
      </trkpt>
      <trkpt lat="42.32483" lon="3.16211">
        <ele>535</ele>
        <time>2018-10-11T10:13:19Z</time>
      </trkpt>
      <trkpt lat="42.32482" lon="3.16231">
        <ele>530</ele>
        <time>2018-10-11T10:13:29Z</time>
      </trkpt>
      <trkpt lat="42.32487" lon="3.16257">
        <ele>519</ele>
        <time>2018-10-11T10:13:43Z</time>
      </trkpt>
      <trkpt lat="42.32485" lon="3.16285">
        <ele>524</ele>
        <time>2018-10-11T10:13:58Z</time>
      </trkpt>
      <trkpt lat="42.32483" lon="3.16316">
        <ele>521</ele>
        <time>2018-10-11T10:14:14Z</time>
      </trkpt>
      <trkpt lat="42.32484" lon="3.16339">
        <ele>513</ele>
        <time>2018-10-11T10:14:26Z</time>
      </trkpt>
      <trkpt lat="42.32486" lon="3.1637">
        <ele>514</ele>
        <time>2018-10-11T10:14:42Z</time>
      </trkpt>
      <trkpt lat="42.3248" lon="3.16392">
        <ele>512</ele>
        <time>2018-10-11T10:14:54Z</time>
      </trkpt>
      <trkpt lat="42.32465" lon="3.16409">
        <ele>515</ele>
        <time>2018-10-11T10:15:08Z</time>
      </trkpt>
      <trkpt lat="42.3245" lon="3.16424">
        <ele>505</ele>
        <time>2018-10-11T10:15:22Z</time>
      </trkpt>
      <trkpt lat="42.32432" lon="3.16436">
        <ele>509</ele>
        <time>2018-10-11T10:15:37Z</time>
      </trkpt>
      <trkpt lat="42.32417" lon="3.1644">
        <ele>510</ele>
        <time>2018-10-11T10:15:48Z</time>
      </trkpt>
      <trkpt lat="42.32404" lon="3.16445">
        <ele>526</ele>
        <time>2018-10-11T10:15:58Z</time>
      </trkpt>
      <trkpt lat="42.32386" lon="3.16455">
        <ele>526</ele>
        <time>2018-10-11T10:16:12Z</time>
      </trkpt>
      <trkpt lat="42.32366" lon="3.16466">
        <ele>527</ele>
        <time>2018-10-11T10:16:28Z</time>
      </trkpt>
      <trkpt lat="42.32349" lon="3.16477">
        <ele>528</ele>
        <time>2018-10-11T10:16:42Z</time>
      </trkpt>
      <trkpt lat="42.32342" lon="3.16493">
        <ele>527</ele>
        <time>2018-10-11T10:16:52Z</time>
      </trkpt>
      <trkpt lat="42.32335" lon="3.16518">
        <ele>516</ele>
        <time>2018-10-11T10:17:06Z</time>
      </trkpt>
      <trkpt lat="42.32325" lon="3.16541">
        <ele>537</ele>
        <time>2018-10-11T10:17:20Z</time>
      </trkpt>
      <trkpt lat="42.3232" lon="3.1655">
        <ele>537</ele>
        <time>2018-10-11T10:17:27Z</time>
      </trkpt>
      <trkpt lat="42.32324" lon="3.16552">
        <ele>536</ele>
        <time>2018-10-11T10:17:33Z</time>
      </trkpt>
      <trkpt lat="42.32325" lon="3.16548">
        <ele>536</ele>
        <time>2018-10-11T10:17:35Z</time>
      </trkpt>
      <trkpt lat="42.32334" lon="3.16528">
        <ele>513</ele>
        <time>2018-10-11T10:17:48Z</time>
      </trkpt>
      <trkpt lat="42.32342" lon="3.165">
        <ele>527</ele>
        <time>2018-10-11T10:18:05Z</time>
      </trkpt>
      <trkpt lat="42.32352" lon="3.16478">
        <ele>528</ele>
        <time>2018-10-11T10:18:20Z</time>
      </trkpt>
      <trkpt lat="42.32363" lon="3.16471">
        <ele>527</ele>
        <time>2018-10-11T10:18:30Z</time>
      </trkpt>
      <trkpt lat="42.32385" lon="3.16458">
        <ele>526</ele>
        <time>2018-10-11T10:18:48Z</time>
      </trkpt>
      <trkpt lat="42.32404" lon="3.16447">
        <ele>525</ele>
        <time>2018-10-11T10:19:03Z</time>
      </trkpt>
      <trkpt lat="42.32419" lon="3.16443">
        <ele>508</ele>
        <time>2018-10-11T10:19:17Z</time>
      </trkpt>
      <trkpt lat="42.32433" lon="3.16439">
        <ele>508</ele>
        <time>2018-10-11T10:19:29Z</time>
      </trkpt>
      <trkpt lat="42.32449" lon="3.16427">
        <ele>505</ele>
        <time>2018-10-11T10:19:44Z</time>
      </trkpt>
      <trkpt lat="42.3246" lon="3.16416">
        <ele>516</ele>
        <time>2018-10-11T10:19:55Z</time>
      </trkpt>
      <trkpt lat="42.32477" lon="3.16399">
        <ele>512</ele>
        <time>2018-10-11T10:20:10Z</time>
      </trkpt>
      <trkpt lat="42.32487" lon="3.16385">
        <ele>512</ele>
        <time>2018-10-11T10:20:21Z</time>
      </trkpt>
      <trkpt lat="42.32489" lon="3.16366">
        <ele>514</ele>
        <time>2018-10-11T10:20:32Z</time>
      </trkpt>
      <trkpt lat="42.32488" lon="3.16361">
        <ele>514</ele>
        <time>2018-10-11T10:20:40Z</time>
      </trkpt>
      <trkpt lat="42.32488" lon="3.1636">
        <ele>514</ele>
        <time>2018-10-11T10:20:41Z</time>
      </trkpt>
      <trkpt lat="42.32488" lon="3.16357">
        <ele>514</ele>
        <time>2018-10-11T10:20:43Z</time>
      </trkpt>
      <trkpt lat="42.32485" lon="3.16334">
        <ele>512</ele>
        <time>2018-10-11T10:20:58Z</time>
      </trkpt>
      <trkpt lat="42.32486" lon="3.16332">
        <ele>517</ele>
        <time>2018-10-11T10:21:50Z</time>
      </trkpt>
      <trkpt lat="42.32485" lon="3.16324">
        <ele>519</ele>
        <time>2018-10-11T10:22:04Z</time>
      </trkpt>
      <trkpt lat="42.32486" lon="3.16295">
        <ele>524</ele>
        <time>2018-10-11T10:22:20Z</time>
      </trkpt>
      <trkpt lat="42.32488" lon="3.16284">
        <ele>524</ele>
        <time>2018-10-11T10:22:32Z</time>
      </trkpt>
      <trkpt lat="42.32489" lon="3.16275">
        <ele>523</ele>
        <time>2018-10-11T10:22:40Z</time>
      </trkpt>
      <trkpt lat="42.32489" lon="3.1625">
        <ele>520</ele>
        <time>2018-10-11T10:22:54Z</time>
      </trkpt>
      <trkpt lat="42.32483" lon="3.16225">
        <ele>532</ele>
        <time>2018-10-11T10:23:09Z</time>
      </trkpt>
      <trkpt lat="42.32489" lon="3.16202">
        <ele>534</ele>
        <time>2018-10-11T10:23:22Z</time>
      </trkpt>
      <trkpt lat="42.32502" lon="3.16173">
        <ele>519</ele>
        <time>2018-10-11T10:23:40Z</time>
      </trkpt>
      <trkpt lat="42.32512" lon="3.16156">
        <ele>524</ele>
        <time>2018-10-11T10:23:53Z</time>
      </trkpt>
      <trkpt lat="42.32527" lon="3.16145">
        <ele>524</ele>
        <time>2018-10-11T10:24:07Z</time>
      </trkpt>
      <trkpt lat="42.3254" lon="3.16132">
        <ele>523</ele>
        <time>2018-10-11T10:24:21Z</time>
      </trkpt>
      <trkpt lat="42.32558" lon="3.16119">
        <ele>523</ele>
        <time>2018-10-11T10:24:37Z</time>
      </trkpt>
      <trkpt lat="42.32574" lon="3.16106">
        <ele>524</ele>
        <time>2018-10-11T10:24:51Z</time>
      </trkpt>
      <trkpt lat="42.3259" lon="3.16093">
        <ele>516</ele>
        <time>2018-10-11T10:25:05Z</time>
      </trkpt>
      <trkpt lat="42.32603" lon="3.16085">
        <ele>512</ele>
        <time>2018-10-11T10:25:19Z</time>
      </trkpt>
      <trkpt lat="42.32603" lon="3.16085">
        <ele>512</ele>
        <time>2018-10-11T10:25:21Z</time>
      </trkpt>
      <trkpt lat="42.32604" lon="3.16082">
        <ele>527</ele>
        <time>2018-10-11T10:28:05Z</time>
      </trkpt>
      <trkpt lat="42.32601" lon="3.16084">
        <ele>513</ele>
        <time>2018-10-11T10:28:11Z</time>
      </trkpt>
      <trkpt lat="42.32602" lon="3.16086">
        <ele>513</ele>
        <time>2018-10-11T10:28:27Z</time>
      </trkpt>
      <trkpt lat="42.32603" lon="3.16086">
        <ele>512</ele>
        <time>2018-10-11T10:28:44Z</time>
      </trkpt>
      <trkpt lat="42.32606" lon="3.16084">
        <ele>511</ele>
        <time>2018-10-11T10:28:46Z</time>
      </trkpt>
      <trkpt lat="42.32634" lon="3.16071">
        <ele>525</ele>
        <time>2018-10-11T10:28:54Z</time>
      </trkpt>
      <trkpt lat="42.32651" lon="3.16069">
        <ele>521</ele>
        <time>2018-10-11T10:28:57Z</time>
      </trkpt>
      <trkpt lat="42.3268" lon="3.16052">
        <ele>512</ele>
        <time>2018-10-11T10:29:02Z</time>
      </trkpt>
      <trkpt lat="42.32725" lon="3.15998">
        <ele>525</ele>
        <time>2018-10-11T10:29:11Z</time>
      </trkpt>
      <trkpt lat="42.32749" lon="3.15976">
        <ele>525</ele>
        <time>2018-10-11T10:29:15Z</time>
      </trkpt>
      <trkpt lat="42.3277" lon="3.15966">
        <ele>515</ele>
        <time>2018-10-11T10:29:18Z</time>
      </trkpt>
      <trkpt lat="42.32783" lon="3.15959">
        <ele>515</ele>
        <time>2018-10-11T10:29:20Z</time>
      </trkpt>
      <trkpt lat="42.32797" lon="3.15935">
        <ele>515</ele>
        <time>2018-10-11T10:29:23Z</time>
      </trkpt>
      <trkpt lat="42.32842" lon="3.15847">
        <ele>517</ele>
        <time>2018-10-11T10:29:32Z</time>
      </trkpt>
      <trkpt lat="42.32846" lon="3.15838">
        <ele>518</ele>
        <time>2018-10-11T10:29:33Z</time>
      </trkpt>
      <trkpt lat="42.32859" lon="3.15791">
        <ele>517</ele>
        <time>2018-10-11T10:29:38Z</time>
      </trkpt>
      <trkpt lat="42.3287" lon="3.15769">
        <ele>517</ele>
        <time>2018-10-11T10:29:41Z</time>
      </trkpt>
      <trkpt lat="42.32912" lon="3.15733">
        <ele>511</ele>
        <time>2018-10-11T10:29:49Z</time>
      </trkpt>
      <trkpt lat="42.32944" lon="3.15718">
        <ele>504</ele>
        <time>2018-10-11T10:29:54Z</time>
      </trkpt>
      <trkpt lat="42.3295" lon="3.15715">
        <ele>503</ele>
        <time>2018-10-11T10:29:55Z</time>
      </trkpt>
      <trkpt lat="42.32965" lon="3.15716">
        <ele>503</ele>
        <time>2018-10-11T10:29:58Z</time>
      </trkpt>
      <trkpt lat="42.32969" lon="3.15737">
        <ele>502</ele>
        <time>2018-10-11T10:30:01Z</time>
      </trkpt>
      <trkpt lat="42.32965" lon="3.15799">
        <ele>497</ele>
        <time>2018-10-11T10:30:07Z</time>
      </trkpt>
      <trkpt lat="42.32964" lon="3.1581">
        <ele>497</ele>
        <time>2018-10-11T10:30:08Z</time>
      </trkpt>
      <trkpt lat="42.3296" lon="3.15846">
        <ele>488</ele>
        <time>2018-10-11T10:30:11Z</time>
      </trkpt>
      <trkpt lat="42.32959" lon="3.15858">
        <ele>488</ele>
        <time>2018-10-11T10:30:12Z</time>
      </trkpt>
      <trkpt lat="42.32943" lon="3.15893">
        <ele>488</ele>
        <time>2018-10-11T10:30:16Z</time>
      </trkpt>
      <trkpt lat="42.32936" lon="3.15899">
        <ele>489</ele>
        <time>2018-10-11T10:30:17Z</time>
      </trkpt>
      <trkpt lat="42.32907" lon="3.1594">
        <ele>496</ele>
        <time>2018-10-11T10:30:22Z</time>
      </trkpt>
      <trkpt lat="42.32902" lon="3.15972">
        <ele>493</ele>
        <time>2018-10-11T10:30:25Z</time>
      </trkpt>
      <trkpt lat="42.32901" lon="3.16018">
        <ele>483</ele>
        <time>2018-10-11T10:30:29Z</time>
      </trkpt>
      <trkpt lat="42.329" lon="3.1603">
        <ele>482</ele>
        <time>2018-10-11T10:30:30Z</time>
      </trkpt>
      <trkpt lat="42.32887" lon="3.16066">
        <ele>479</ele>
        <time>2018-10-11T10:30:34Z</time>
      </trkpt>
      <trkpt lat="42.32864" lon="3.16073">
        <ele>480</ele>
        <time>2018-10-11T10:30:37Z</time>
      </trkpt>
      <trkpt lat="42.32855" lon="3.16073">
        <ele>480</ele>
        <time>2018-10-11T10:30:38Z</time>
      </trkpt>
      <trkpt lat="42.32847" lon="3.16072">
        <ele>479</ele>
        <time>2018-10-11T10:30:39Z</time>
      </trkpt>
      <trkpt lat="42.32806" lon="3.16077">
        <ele>488</ele>
        <time>2018-10-11T10:30:44Z</time>
      </trkpt>
      <trkpt lat="42.32773" lon="3.16087">
        <ele>474</ele>
        <time>2018-10-11T10:30:48Z</time>
      </trkpt>
      <trkpt lat="42.32734" lon="3.16101">
        <ele>482</ele>
        <time>2018-10-11T10:30:53Z</time>
      </trkpt>
      <trkpt lat="42.32727" lon="3.1611">
        <ele>481</ele>
        <time>2018-10-11T10:30:54Z</time>
      </trkpt>
      <trkpt lat="42.32708" lon="3.16137">
        <ele>477</ele>
        <time>2018-10-11T10:30:57Z</time>
      </trkpt>
      <trkpt lat="42.32675" lon="3.16156">
        <ele>475</ele>
        <time>2018-10-11T10:31:01Z</time>
      </trkpt>
      <trkpt lat="42.32647" lon="3.16159">
        <ele>487</ele>
        <time>2018-10-11T10:31:04Z</time>
      </trkpt>
      <trkpt lat="42.32609" lon="3.16186">
        <ele>473</ele>
        <time>2018-10-11T10:31:09Z</time>
      </trkpt>
      <trkpt lat="42.3258" lon="3.16204">
        <ele>491</ele>
        <time>2018-10-11T10:31:13Z</time>
      </trkpt>
      <trkpt lat="42.32542" lon="3.1622">
        <ele>495</ele>
        <time>2018-10-11T10:31:18Z</time>
      </trkpt>
      <trkpt lat="42.32534" lon="3.1625">
        <ele>487</ele>
        <time>2018-10-11T10:31:21Z</time>
      </trkpt>
      <trkpt lat="42.32535" lon="3.16262">
        <ele>486</ele>
        <time>2018-10-11T10:31:22Z</time>
      </trkpt>
      <trkpt lat="42.32541" lon="3.16315">
        <ele>483</ele>
        <time>2018-10-11T10:31:26Z</time>
      </trkpt>
      <trkpt lat="42.32561" lon="3.16356">
        <ele>472</ele>
        <time>2018-10-11T10:31:30Z</time>
      </trkpt>
      <trkpt lat="42.3258" lon="3.16389">
        <ele>468</ele>
        <time>2018-10-11T10:31:34Z</time>
      </trkpt>
      <trkpt lat="42.32573" lon="3.16415">
        <ele>463</ele>
        <time>2018-10-11T10:31:37Z</time>
      </trkpt>
      <trkpt lat="42.32552" lon="3.16455">
        <ele>465</ele>
        <time>2018-10-11T10:31:41Z</time>
      </trkpt>
      <trkpt lat="42.32535" lon="3.16503">
        <ele>455</ele>
        <time>2018-10-11T10:31:45Z</time>
      </trkpt>
      <trkpt lat="42.32509" lon="3.16533">
        <ele>455</ele>
        <time>2018-10-11T10:31:49Z</time>
      </trkpt>
      <trkpt lat="42.32501" lon="3.16538">
        <ele>454</ele>
        <time>2018-10-11T10:31:50Z</time>
      </trkpt>
      <trkpt lat="42.32468" lon="3.16545">
        <ele>470</ele>
        <time>2018-10-11T10:31:54Z</time>
      </trkpt>
      <trkpt lat="42.32434" lon="3.16546">
        <ele>475</ele>
        <time>2018-10-11T10:31:58Z</time>
      </trkpt>
      <trkpt lat="42.32402" lon="3.16572">
        <ele>490</ele>
        <time>2018-10-11T10:32:03Z</time>
      </trkpt>
      <trkpt lat="42.32404" lon="3.16601">
        <ele>485</ele>
        <time>2018-10-11T10:32:06Z</time>
      </trkpt>
      <trkpt lat="42.32407" lon="3.1661">
        <ele>485</ele>
        <time>2018-10-11T10:32:07Z</time>
      </trkpt>
      <trkpt lat="42.32426" lon="3.16678">
        <ele>456</ele>
        <time>2018-10-11T10:32:14Z</time>
      </trkpt>
      <trkpt lat="42.32433" lon="3.16709">
        <ele>447</ele>
        <time>2018-10-11T10:32:17Z</time>
      </trkpt>
      <trkpt lat="42.32435" lon="3.16743">
        <ele>449</ele>
        <time>2018-10-11T10:32:20Z</time>
      </trkpt>
      <trkpt lat="42.32423" lon="3.16776">
        <ele>441</ele>
        <time>2018-10-11T10:32:23Z</time>
      </trkpt>
      <trkpt lat="42.32416" lon="3.16782">
        <ele>459</ele>
        <time>2018-10-11T10:32:24Z</time>
      </trkpt>
      <trkpt lat="42.3239" lon="3.16782">
        <ele>461</ele>
        <time>2018-10-11T10:32:27Z</time>
      </trkpt>
      <trkpt lat="42.32374" lon="3.16777">
        <ele>464</ele>
        <time>2018-10-11T10:32:29Z</time>
      </trkpt>
      <trkpt lat="42.32345" lon="3.16787">
        <ele>466</ele>
        <time>2018-10-11T10:32:33Z</time>
      </trkpt>
      <trkpt lat="42.32335" lon="3.16806">
        <ele>464</ele>
        <time>2018-10-11T10:32:35Z</time>
      </trkpt>
      <trkpt lat="42.32322" lon="3.1684">
        <ele>470</ele>
        <time>2018-10-11T10:32:38Z</time>
      </trkpt>
      <trkpt lat="42.32312" lon="3.16908">
        <ele>469</ele>
        <time>2018-10-11T10:32:43Z</time>
      </trkpt>
      <trkpt lat="42.32302" lon="3.16978">
        <ele>470</ele>
        <time>2018-10-11T10:32:48Z</time>
      </trkpt>
      <trkpt lat="42.32304" lon="3.17028">
        <ele>473</ele>
        <time>2018-10-11T10:32:52Z</time>
      </trkpt>
      <trkpt lat="42.32321" lon="3.17059">
        <ele>472</ele>
        <time>2018-10-11T10:32:55Z</time>
      </trkpt>
      <trkpt lat="42.32329" lon="3.17066">
        <ele>471</ele>
        <time>2018-10-11T10:32:56Z</time>
      </trkpt>
      <trkpt lat="42.32338" lon="3.17071">
        <ele>460</ele>
        <time>2018-10-11T10:32:57Z</time>
      </trkpt>
      <trkpt lat="42.32406" lon="3.1712">
        <ele>458</ele>
        <time>2018-10-11T10:33:05Z</time>
      </trkpt>
      <trkpt lat="42.32456" lon="3.17156">
        <ele>449</ele>
        <time>2018-10-11T10:33:11Z</time>
      </trkpt>
      <trkpt lat="42.32464" lon="3.17161">
        <ele>448</ele>
        <time>2018-10-11T10:33:12Z</time>
      </trkpt>
      <trkpt lat="42.32481" lon="3.17188">
        <ele>450</ele>
        <time>2018-10-11T10:33:16Z</time>
      </trkpt>
      <trkpt lat="42.32478" lon="3.17214">
        <ele>450</ele>
        <time>2018-10-11T10:33:19Z</time>
      </trkpt>
      <trkpt lat="42.32457" lon="3.17245">
        <ele>451</ele>
        <time>2018-10-11T10:33:23Z</time>
      </trkpt>
      <trkpt lat="42.32443" lon="3.17256">
        <ele>446</ele>
        <time>2018-10-11T10:33:25Z</time>
      </trkpt>
      <trkpt lat="42.3243" lon="3.17265">
        <ele>446</ele>
        <time>2018-10-11T10:33:27Z</time>
      </trkpt>
      <trkpt lat="42.32418" lon="3.17288">
        <ele>442</ele>
        <time>2018-10-11T10:33:31Z</time>
      </trkpt>
      <trkpt lat="42.32428" lon="3.17304">
        <ele>439</ele>
        <time>2018-10-11T10:33:34Z</time>
      </trkpt>
      <trkpt lat="42.32439" lon="3.1731">
        <ele>439</ele>
        <time>2018-10-11T10:33:36Z</time>
      </trkpt>
      <trkpt lat="42.32471" lon="3.17314">
        <ele>440</ele>
        <time>2018-10-11T10:33:40Z</time>
      </trkpt>
      <trkpt lat="42.32479" lon="3.17311">
        <ele>440</ele>
        <time>2018-10-11T10:33:41Z</time>
      </trkpt>
      <trkpt lat="42.32514" lon="3.17297">
        <ele>437</ele>
        <time>2018-10-11T10:33:45Z</time>
      </trkpt>
      <trkpt lat="42.32523" lon="3.17294">
        <ele>436</ele>
        <time>2018-10-11T10:33:46Z</time>
      </trkpt>
      <trkpt lat="42.32538" lon="3.17283">
        <ele>436</ele>
        <time>2018-10-11T10:33:48Z</time>
      </trkpt>
      <trkpt lat="42.32557" lon="3.1725">
        <ele>436</ele>
        <time>2018-10-11T10:33:52Z</time>
      </trkpt>
      <trkpt lat="42.32575" lon="3.17251">
        <ele>432</ele>
        <time>2018-10-11T10:33:55Z</time>
      </trkpt>
      <trkpt lat="42.32582" lon="3.17281">
        <ele>433</ele>
        <time>2018-10-11T10:33:58Z</time>
      </trkpt>
      <trkpt lat="42.32596" lon="3.17311">
        <ele>418</ele>
        <time>2018-10-11T10:34:01Z</time>
      </trkpt>
      <trkpt lat="42.3261" lon="3.17327">
        <ele>415</ele>
        <time>2018-10-11T10:34:03Z</time>
      </trkpt>
      <trkpt lat="42.32621" lon="3.17359">
        <ele>409</ele>
        <time>2018-10-11T10:34:06Z</time>
      </trkpt>
      <trkpt lat="42.3262" lon="3.17397">
        <ele>408</ele>
        <time>2018-10-11T10:34:09Z</time>
      </trkpt>
      <trkpt lat="42.32602" lon="3.1742">
        <ele>407</ele>
        <time>2018-10-11T10:34:12Z</time>
      </trkpt>
      <trkpt lat="42.32594" lon="3.17422">
        <ele>409</ele>
        <time>2018-10-11T10:34:13Z</time>
      </trkpt>
      <trkpt lat="42.32577" lon="3.17423">
        <ele>413</ele>
        <time>2018-10-11T10:34:15Z</time>
      </trkpt>
      <trkpt lat="42.32559" lon="3.17436">
        <ele>409</ele>
        <time>2018-10-11T10:34:18Z</time>
      </trkpt>
      <trkpt lat="42.32555" lon="3.17444">
        <ele>408</ele>
        <time>2018-10-11T10:34:19Z</time>
      </trkpt>
      <trkpt lat="42.32546" lon="3.17473">
        <ele>404</ele>
        <time>2018-10-11T10:34:22Z</time>
      </trkpt>
      <trkpt lat="42.3255" lon="3.17496">
        <ele>403</ele>
        <time>2018-10-11T10:34:24Z</time>
      </trkpt>
      <trkpt lat="42.32556" lon="3.17561">
        <ele>389</ele>
        <time>2018-10-11T10:34:29Z</time>
      </trkpt>
      <trkpt lat="42.32545" lon="3.17582">
        <ele>387</ele>
        <time>2018-10-11T10:34:31Z</time>
      </trkpt>
      <trkpt lat="42.32536" lon="3.17603">
        <ele>375</ele>
        <time>2018-10-11T10:34:34Z</time>
      </trkpt>
      <trkpt lat="42.32538" lon="3.17617">
        <ele>375</ele>
        <time>2018-10-11T10:34:37Z</time>
      </trkpt>
      <trkpt lat="42.32547" lon="3.1762">
        <ele>375</ele>
        <time>2018-10-11T10:34:40Z</time>
      </trkpt>
      <trkpt lat="42.32577" lon="3.1762">
        <ele>378</ele>
        <time>2018-10-11T10:34:45Z</time>
      </trkpt>
      <trkpt lat="42.32605" lon="3.17604">
        <ele>379</ele>
        <time>2018-10-11T10:34:49Z</time>
      </trkpt>
      <trkpt lat="42.32611" lon="3.17596">
        <ele>379</ele>
        <time>2018-10-11T10:34:50Z</time>
      </trkpt>
      <trkpt lat="42.32616" lon="3.17565">
        <ele>388</ele>
        <time>2018-10-11T10:34:53Z</time>
      </trkpt>
      <trkpt lat="42.32621" lon="3.17534">
        <ele>389</ele>
        <time>2018-10-11T10:34:56Z</time>
      </trkpt>
      <trkpt lat="42.32632" lon="3.17519">
        <ele>388</ele>
        <time>2018-10-11T10:34:58Z</time>
      </trkpt>
      <trkpt lat="42.32655" lon="3.17502">
        <ele>385</ele>
        <time>2018-10-11T10:35:01Z</time>
      </trkpt>
      <trkpt lat="42.32672" lon="3.17489">
        <ele>379</ele>
        <time>2018-10-11T10:35:03Z</time>
      </trkpt>
      <trkpt lat="42.32697" lon="3.17454">
        <ele>372</ele>
        <time>2018-10-11T10:35:07Z</time>
      </trkpt>
      <trkpt lat="42.32717" lon="3.17439">
        <ele>367</ele>
        <time>2018-10-11T10:35:11Z</time>
      </trkpt>
      <trkpt lat="42.32723" lon="3.17453">
        <ele>365</ele>
        <time>2018-10-11T10:35:13Z</time>
      </trkpt>
      <trkpt lat="42.32721" lon="3.17462">
        <ele>366</ele>
        <time>2018-10-11T10:35:14Z</time>
      </trkpt>
      <trkpt lat="42.3271" lon="3.17479">
        <ele>368</ele>
        <time>2018-10-11T10:35:16Z</time>
      </trkpt>
      <trkpt lat="42.3269" lon="3.17505">
        <ele>369</ele>
        <time>2018-10-11T10:35:19Z</time>
      </trkpt>
      <trkpt lat="42.32674" lon="3.1755">
        <ele>366</ele>
        <time>2018-10-11T10:35:23Z</time>
      </trkpt>
      <trkpt lat="42.32676" lon="3.17562">
        <ele>365</ele>
        <time>2018-10-11T10:35:24Z</time>
      </trkpt>
      <trkpt lat="42.32685" lon="3.17629">
        <ele>355</ele>
        <time>2018-10-11T10:35:29Z</time>
      </trkpt>
      <trkpt lat="42.32686" lon="3.17643">
        <ele>355</ele>
        <time>2018-10-11T10:35:30Z</time>
      </trkpt>
      <trkpt lat="42.32671" lon="3.17695">
        <ele>349</ele>
        <time>2018-10-11T10:35:34Z</time>
      </trkpt>
      <trkpt lat="42.32667" lon="3.17704">
        <ele>353</ele>
        <time>2018-10-11T10:35:35Z</time>
      </trkpt>
      <trkpt lat="42.32666" lon="3.17728">
        <ele>348</ele>
        <time>2018-10-11T10:35:38Z</time>
      </trkpt>
      <trkpt lat="42.32686" lon="3.1773">
        <ele>344</ele>
        <time>2018-10-11T10:35:41Z</time>
      </trkpt>
      <trkpt lat="42.32708" lon="3.1771">
        <ele>344</ele>
        <time>2018-10-11T10:35:44Z</time>
      </trkpt>
      <trkpt lat="42.3273" lon="3.17663">
        <ele>346</ele>
        <time>2018-10-11T10:35:48Z</time>
      </trkpt>
      <trkpt lat="42.32732" lon="3.17634">
        <ele>348</ele>
        <time>2018-10-11T10:35:50Z</time>
      </trkpt>
      <trkpt lat="42.32731" lon="3.17592">
        <ele>347</ele>
        <time>2018-10-11T10:35:53Z</time>
      </trkpt>
      <trkpt lat="42.32743" lon="3.17547">
        <ele>354</ele>
        <time>2018-10-11T10:35:57Z</time>
      </trkpt>
      <trkpt lat="42.32768" lon="3.17493">
        <ele>335</ele>
        <time>2018-10-11T10:36:03Z</time>
      </trkpt>
      <trkpt lat="42.32786" lon="3.17484">
        <ele>327</ele>
        <time>2018-10-11T10:36:06Z</time>
      </trkpt>
      <trkpt lat="42.32792" lon="3.17498">
        <ele>325</ele>
        <time>2018-10-11T10:36:08Z</time>
      </trkpt>
      <trkpt lat="42.32782" lon="3.17525">
        <ele>327</ele>
        <time>2018-10-11T10:36:11Z</time>
      </trkpt>
      <trkpt lat="42.32767" lon="3.17554">
        <ele>329</ele>
        <time>2018-10-11T10:36:14Z</time>
      </trkpt>
      <trkpt lat="42.32765" lon="3.176">
        <ele>330</ele>
        <time>2018-10-11T10:36:18Z</time>
      </trkpt>
      <trkpt lat="42.3277" lon="3.1761">
        <ele>328</ele>
        <time>2018-10-11T10:36:19Z</time>
      </trkpt>
      <trkpt lat="42.3278" lon="3.17631">
        <ele>327</ele>
        <time>2018-10-11T10:36:21Z</time>
      </trkpt>
      <trkpt lat="42.32807" lon="3.1766">
        <ele>323</ele>
        <time>2018-10-11T10:36:25Z</time>
      </trkpt>
      <trkpt lat="42.32831" lon="3.17688">
        <ele>323</ele>
        <time>2018-10-11T10:36:29Z</time>
      </trkpt>
      <trkpt lat="42.32832" lon="3.17722">
        <ele>324</ele>
        <time>2018-10-11T10:36:32Z</time>
      </trkpt>
      <trkpt lat="42.32827" lon="3.17772">
        <ele>320</ele>
        <time>2018-10-11T10:36:36Z</time>
      </trkpt>
      <trkpt lat="42.32841" lon="3.17853">
        <ele>310</ele>
        <time>2018-10-11T10:36:42Z</time>
      </trkpt>
      <trkpt lat="42.32846" lon="3.17867">
        <ele>309</ele>
        <time>2018-10-11T10:36:43Z</time>
      </trkpt>
      <trkpt lat="42.32874" lon="3.17937">
        <ele>296</ele>
        <time>2018-10-11T10:36:48Z</time>
      </trkpt>
      <trkpt lat="42.32901" lon="3.17977">
        <ele>295</ele>
        <time>2018-10-11T10:36:52Z</time>
      </trkpt>
      <trkpt lat="42.32941" lon="3.18015">
        <ele>290</ele>
        <time>2018-10-11T10:36:57Z</time>
      </trkpt>
      <trkpt lat="42.32949" lon="3.18024">
        <ele>289</ele>
        <time>2018-10-11T10:36:58Z</time>
      </trkpt>
      <trkpt lat="42.32971" lon="3.18053">
        <ele>288</ele>
        <time>2018-10-11T10:37:01Z</time>
      </trkpt>
      <trkpt lat="42.32984" lon="3.18074">
        <ele>288</ele>
        <time>2018-10-11T10:37:03Z</time>
      </trkpt>
      <trkpt lat="42.32991" lon="3.18084">
        <ele>285</ele>
        <time>2018-10-11T10:37:04Z</time>
      </trkpt>
      <trkpt lat="42.33033" lon="3.18126">
        <ele>279</ele>
        <time>2018-10-11T10:37:09Z</time>
      </trkpt>
      <trkpt lat="42.33067" lon="3.18151">
        <ele>279</ele>
        <time>2018-10-11T10:37:13Z</time>
      </trkpt>
      <trkpt lat="42.33088" lon="3.1817">
        <ele>278</ele>
        <time>2018-10-11T10:37:16Z</time>
      </trkpt>
      <trkpt lat="42.33132" lon="3.18217">
        <ele>271</ele>
        <time>2018-10-11T10:37:23Z</time>
      </trkpt>
      <trkpt lat="42.33181" lon="3.18263">
        <ele>261</ele>
        <time>2018-10-11T10:37:30Z</time>
      </trkpt>
      <trkpt lat="42.33195" lon="3.18276">
        <ele>257</ele>
        <time>2018-10-11T10:37:32Z</time>
      </trkpt>
      <trkpt lat="42.33218" lon="3.18308">
        <ele>254</ele>
        <time>2018-10-11T10:37:36Z</time>
      </trkpt>
      <trkpt lat="42.33227" lon="3.18322">
        <ele>254</ele>
        <time>2018-10-11T10:37:38Z</time>
      </trkpt>
      <trkpt lat="42.33232" lon="3.18355">
        <ele>251</ele>
        <time>2018-10-11T10:37:42Z</time>
      </trkpt>
      <trkpt lat="42.33216" lon="3.18371">
        <ele>251</ele>
        <time>2018-10-11T10:37:45Z</time>
      </trkpt>
      <trkpt lat="42.33208" lon="3.18372">
        <ele>251</ele>
        <time>2018-10-11T10:37:46Z</time>
      </trkpt>
      <trkpt lat="42.33191" lon="3.18374">
        <ele>251</ele>
        <time>2018-10-11T10:37:48Z</time>
      </trkpt>
      <trkpt lat="42.33166" lon="3.18377">
        <ele>258</ele>
        <time>2018-10-11T10:37:51Z</time>
      </trkpt>
      <trkpt lat="42.3315" lon="3.18381">
        <ele>258</ele>
        <time>2018-10-11T10:37:53Z</time>
      </trkpt>
      <trkpt lat="42.33126" lon="3.18397">
        <ele>259</ele>
        <time>2018-10-11T10:37:57Z</time>
      </trkpt>
      <trkpt lat="42.33123" lon="3.18402">
        <ele>259</ele>
        <time>2018-10-11T10:37:58Z</time>
      </trkpt>
      <trkpt lat="42.33118" lon="3.18413">
        <ele>259</ele>
        <time>2018-10-11T10:38:00Z</time>
      </trkpt>
      <trkpt lat="42.3311" lon="3.1844">
        <ele>243</ele>
        <time>2018-10-11T10:38:07Z</time>
      </trkpt>
      <trkpt lat="42.33109" lon="3.1844">
        <ele>244</ele>
        <time>2018-10-11T10:38:14Z</time>
      </trkpt>
      <trkpt lat="42.33111" lon="3.18438">
        <ele>244</ele>
        <time>2018-10-11T10:38:34Z</time>
      </trkpt>
      <trkpt lat="42.33111" lon="3.18438">
        <ele>244</ele>
        <time>2018-10-11T10:38:56Z</time>
      </trkpt>
      <trkpt lat="42.33112" lon="3.18438">
        <ele>244</ele>
        <time>2018-10-11T10:39:21Z</time>
      </trkpt>
      <trkpt lat="42.33112" lon="3.18438">
        <ele>243</ele>
        <time>2018-10-11T10:39:28Z</time>
      </trkpt>
      <trkpt lat="42.33111" lon="3.18444">
        <ele>243</ele>
        <time>2018-10-11T10:39:31Z</time>
      </trkpt>
      <trkpt lat="42.33098" lon="3.18482">
        <ele>239</ele>
        <time>2018-10-11T10:39:37Z</time>
      </trkpt>
      <trkpt lat="42.33079" lon="3.18529">
        <ele>242</ele>
        <time>2018-10-11T10:39:42Z</time>
      </trkpt>
      <trkpt lat="42.33048" lon="3.18574">
        <ele>240</ele>
        <time>2018-10-11T10:39:47Z</time>
      </trkpt>
      <trkpt lat="42.33028" lon="3.18604">
        <ele>226</ele>
        <time>2018-10-11T10:39:50Z</time>
      </trkpt>
      <trkpt lat="42.33021" lon="3.18613">
        <ele>226</ele>
        <time>2018-10-11T10:39:51Z</time>
      </trkpt>
      <trkpt lat="42.32984" lon="3.18641">
        <ele>228</ele>
        <time>2018-10-11T10:39:56Z</time>
      </trkpt>
      <trkpt lat="42.32972" lon="3.18665">
        <ele>224</ele>
        <time>2018-10-11T10:40:00Z</time>
      </trkpt>
      <trkpt lat="42.32985" lon="3.18677">
        <ele>209</ele>
        <time>2018-10-11T10:40:03Z</time>
      </trkpt>
      <trkpt lat="42.33003" lon="3.18666">
        <ele>221</ele>
        <time>2018-10-11T10:40:06Z</time>
      </trkpt>
      <trkpt lat="42.33028" lon="3.18636">
        <ele>219</ele>
        <time>2018-10-11T10:40:10Z</time>
      </trkpt>
      <trkpt lat="42.33076" lon="3.18584">
        <ele>219</ele>
        <time>2018-10-11T10:40:16Z</time>
      </trkpt>
      <trkpt lat="42.33094" lon="3.18569">
        <ele>216</ele>
        <time>2018-10-11T10:40:18Z</time>
      </trkpt>
      <trkpt lat="42.33126" lon="3.1853">
        <ele>214</ele>
        <time>2018-10-11T10:40:22Z</time>
      </trkpt>
      <trkpt lat="42.33154" lon="3.18487">
        <ele>224</ele>
        <time>2018-10-11T10:40:26Z</time>
      </trkpt>
      <trkpt lat="42.33168" lon="3.18473">
        <ele>220</ele>
        <time>2018-10-11T10:40:28Z</time>
      </trkpt>
      <trkpt lat="42.33194" lon="3.18473">
        <ele>222</ele>
        <time>2018-10-11T10:40:31Z</time>
      </trkpt>
      <trkpt lat="42.33204" lon="3.18476">
        <ele>222</ele>
        <time>2018-10-11T10:40:32Z</time>
      </trkpt>
      <trkpt lat="42.33222" lon="3.18487">
        <ele>220</ele>
        <time>2018-10-11T10:40:34Z</time>
      </trkpt>
      <trkpt lat="42.33231" lon="3.18496">
        <ele>218</ele>
        <time>2018-10-11T10:40:35Z</time>
      </trkpt>
      <trkpt lat="42.33259" lon="3.18528">
        <ele>200</ele>
        <time>2018-10-11T10:40:38Z</time>
      </trkpt>
      <trkpt lat="42.33277" lon="3.18549">
        <ele>195</ele>
        <time>2018-10-11T10:40:40Z</time>
      </trkpt>
      <trkpt lat="42.33285" lon="3.18559">
        <ele>194</ele>
        <time>2018-10-11T10:40:41Z</time>
      </trkpt>
      <trkpt lat="42.333" lon="3.18583">
        <ele>192</ele>
        <time>2018-10-11T10:40:43Z</time>
      </trkpt>
      <trkpt lat="42.33313" lon="3.18606">
        <ele>176</ele>
        <time>2018-10-11T10:40:45Z</time>
      </trkpt>
      <trkpt lat="42.33338" lon="3.18623">
        <ele>170</ele>
        <time>2018-10-11T10:40:49Z</time>
      </trkpt>
      <trkpt lat="42.33354" lon="3.18604">
        <ele>172</ele>
        <time>2018-10-11T10:40:52Z</time>
      </trkpt>
      <trkpt lat="42.33358" lon="3.18594">
        <ele>173</ele>
        <time>2018-10-11T10:40:53Z</time>
      </trkpt>
      <trkpt lat="42.33377" lon="3.18549">
        <ele>185</ele>
        <time>2018-10-11T10:40:57Z</time>
      </trkpt>
      <trkpt lat="42.33399" lon="3.18528">
        <ele>185</ele>
        <time>2018-10-11T10:41:00Z</time>
      </trkpt>
      <trkpt lat="42.33433" lon="3.18518">
        <ele>169</ele>
        <time>2018-10-11T10:41:04Z</time>
      </trkpt>
      <trkpt lat="42.33446" lon="3.18504">
        <ele>168</ele>
        <time>2018-10-11T10:41:06Z</time>
      </trkpt>
      <trkpt lat="42.33483" lon="3.18476">
        <ele>176</ele>
        <time>2018-10-11T10:41:11Z</time>
      </trkpt>
      <trkpt lat="42.33525" lon="3.18463">
        <ele>158</ele>
        <time>2018-10-11T10:41:16Z</time>
      </trkpt>
      <trkpt lat="42.33547" lon="3.18472">
        <ele>154</ele>
        <time>2018-10-11T10:41:20Z</time>
      </trkpt>
      <trkpt lat="42.33537" lon="3.18496">
        <ele>154</ele>
        <time>2018-10-11T10:41:23Z</time>
      </trkpt>
      <trkpt lat="42.33521" lon="3.18502">
        <ele>149</ele>
        <time>2018-10-11T10:41:25Z</time>
      </trkpt>
      <trkpt lat="42.33503" lon="3.18504">
        <ele>157</ele>
        <time>2018-10-11T10:41:27Z</time>
      </trkpt>
      <trkpt lat="42.33473" lon="3.18522">
        <ele>161</ele>
        <time>2018-10-11T10:41:31Z</time>
      </trkpt>
      <trkpt lat="42.33468" lon="3.18532">
        <ele>160</ele>
        <time>2018-10-11T10:41:32Z</time>
      </trkpt>
      <trkpt lat="42.33436" lon="3.18574">
        <ele>160</ele>
        <time>2018-10-11T10:41:37Z</time>
      </trkpt>
      <trkpt lat="42.33417" lon="3.18595">
        <ele>153</ele>
        <time>2018-10-11T10:41:40Z</time>
      </trkpt>
      <trkpt lat="42.33415" lon="3.18618">
        <ele>161</ele>
        <time>2018-10-11T10:41:42Z</time>
      </trkpt>
      <trkpt lat="42.33415" lon="3.18658">
        <ele>149</ele>
        <time>2018-10-11T10:41:45Z</time>
      </trkpt>
      <trkpt lat="42.33416" lon="3.18715">
        <ele>143</ele>
        <time>2018-10-11T10:41:49Z</time>
      </trkpt>
      <trkpt lat="42.33415" lon="3.1873">
        <ele>140</ele>
        <time>2018-10-11T10:41:50Z</time>
      </trkpt>
      <trkpt lat="42.334" lon="3.18782">
        <ele>129</ele>
        <time>2018-10-11T10:41:54Z</time>
      </trkpt>
      <trkpt lat="42.33374" lon="3.18802">
        <ele>127</ele>
        <time>2018-10-11T10:41:57Z</time>
      </trkpt>
      <trkpt lat="42.33341" lon="3.18805">
        <ele>127</ele>
        <time>2018-10-11T10:42:00Z</time>
      </trkpt>
      <trkpt lat="42.33329" lon="3.18802">
        <ele>125</ele>
        <time>2018-10-11T10:42:01Z</time>
      </trkpt>
      <trkpt lat="42.33274" lon="3.1879">
        <ele>124</ele>
        <time>2018-10-11T10:42:06Z</time>
      </trkpt>
      <trkpt lat="42.33233" lon="3.18765">
        <ele>124</ele>
        <time>2018-10-11T10:42:10Z</time>
      </trkpt>
      <trkpt lat="42.33213" lon="3.18737">
        <ele>137</ele>
        <time>2018-10-11T10:42:13Z</time>
      </trkpt>
      <trkpt lat="42.33199" lon="3.18735">
        <ele>138</ele>
        <time>2018-10-11T10:42:16Z</time>
      </trkpt>
      <trkpt lat="42.33192" lon="3.1875">
        <ele>126</ele>
        <time>2018-10-11T10:42:18Z</time>
      </trkpt>
      <trkpt lat="42.33175" lon="3.18798">
        <ele>121</ele>
        <time>2018-10-11T10:42:22Z</time>
      </trkpt>
      <trkpt lat="42.33162" lon="3.18856">
        <ele>119</ele>
        <time>2018-10-11T10:42:26Z</time>
      </trkpt>
      <trkpt lat="42.33159" lon="3.18871">
        <ele>120</ele>
        <time>2018-10-11T10:42:27Z</time>
      </trkpt>
      <trkpt lat="42.33159" lon="3.18934">
        <ele>110</ele>
        <time>2018-10-11T10:42:31Z</time>
      </trkpt>
      <trkpt lat="42.33164" lon="3.18984">
        <ele>108</ele>
        <time>2018-10-11T10:42:34Z</time>
      </trkpt>
      <trkpt lat="42.33166" lon="3.19">
        <ele>101</ele>
        <time>2018-10-11T10:42:35Z</time>
      </trkpt>
      <trkpt lat="42.33172" lon="3.19051">
        <ele>89</ele>
        <time>2018-10-11T10:42:38Z</time>
      </trkpt>
      <trkpt lat="42.33174" lon="3.19068">
        <ele>91</ele>
        <time>2018-10-11T10:42:39Z</time>
      </trkpt>
      <trkpt lat="42.3318" lon="3.19102">
        <ele>87</ele>
        <time>2018-10-11T10:42:41Z</time>
      </trkpt>
      <trkpt lat="42.33188" lon="3.19135">
        <ele>84</ele>
        <time>2018-10-11T10:42:43Z</time>
      </trkpt>
      <trkpt lat="42.3319" lon="3.19193">
        <ele>79</ele>
        <time>2018-10-11T10:42:47Z</time>
      </trkpt>
      <trkpt lat="42.33187" lon="3.19249">
        <ele>78</ele>
        <time>2018-10-11T10:42:51Z</time>
      </trkpt>
      <trkpt lat="42.33175" lon="3.19305">
        <ele>68</ele>
        <time>2018-10-11T10:42:55Z</time>
      </trkpt>
      <trkpt lat="42.33151" lon="3.1933">
        <ele>73</ele>
        <time>2018-10-11T10:42:58Z</time>
      </trkpt>
      <trkpt lat="42.33111" lon="3.19354">
        <ele>64</ele>
        <time>2018-10-11T10:43:02Z</time>
      </trkpt>
      <trkpt lat="42.33074" lon="3.1935">
        <ele>65</ele>
        <time>2018-10-11T10:43:06Z</time>
      </trkpt>
      <trkpt lat="42.33046" lon="3.1931">
        <ele>72</ele>
        <time>2018-10-11T10:43:10Z</time>
      </trkpt>
      <trkpt lat="42.33029" lon="3.19294">
        <ele>72</ele>
        <time>2018-10-11T10:43:12Z</time>
      </trkpt>
      <trkpt lat="42.33011" lon="3.19281">
        <ele>72</ele>
        <time>2018-10-11T10:43:14Z</time>
      </trkpt>
      <trkpt lat="42.32995" lon="3.19268">
        <ele>65</ele>
        <time>2018-10-11T10:43:16Z</time>
      </trkpt>
      <trkpt lat="42.32972" lon="3.19268">
        <ele>61</ele>
        <time>2018-10-11T10:43:20Z</time>
      </trkpt>
      <trkpt lat="42.32968" lon="3.19282">
        <ele>60</ele>
        <time>2018-10-11T10:43:22Z</time>
      </trkpt>
      <trkpt lat="42.3298" lon="3.19301">
        <ele>59</ele>
        <time>2018-10-11T10:43:25Z</time>
      </trkpt>
      <trkpt lat="42.32987" lon="3.19305">
        <ele>59</ele>
        <time>2018-10-11T10:43:26Z</time>
      </trkpt>
      <trkpt lat="42.33012" lon="3.19316">
        <ele>67</ele>
        <time>2018-10-11T10:43:29Z</time>
      </trkpt>
      <trkpt lat="42.33034" lon="3.19352">
        <ele>60</ele>
        <time>2018-10-11T10:43:33Z</time>
      </trkpt>
      <trkpt lat="42.33035" lon="3.19365">
        <ele>59</ele>
        <time>2018-10-11T10:43:34Z</time>
      </trkpt>
      <trkpt lat="42.33037" lon="3.19418">
        <ele>48</ele>
        <time>2018-10-11T10:43:38Z</time>
      </trkpt>
      <trkpt lat="42.33033" lon="3.19453">
        <ele>46</ele>
        <time>2018-10-11T10:43:41Z</time>
      </trkpt>
      <trkpt lat="42.33036" lon="3.19482">
        <ele>44</ele>
        <time>2018-10-11T10:43:44Z</time>
      </trkpt>
      <trkpt lat="42.33053" lon="3.19499">
        <ele>45</ele>
        <time>2018-10-11T10:43:48Z</time>
      </trkpt>
      <trkpt lat="42.33078" lon="3.19504">
        <ele>42</ele>
        <time>2018-10-11T10:43:52Z</time>
      </trkpt>
      <trkpt lat="42.33117" lon="3.19482">
        <ele>44</ele>
        <time>2018-10-11T10:43:57Z</time>
      </trkpt>
      <trkpt lat="42.33141" lon="3.19458">
        <ele>44</ele>
        <time>2018-10-11T10:44:00Z</time>
      </trkpt>
      <trkpt lat="42.33165" lon="3.1945">
        <ele>44</ele>
        <time>2018-10-11T10:44:03Z</time>
      </trkpt>
      <trkpt lat="42.33179" lon="3.19462">
        <ele>39</ele>
        <time>2018-10-11T10:44:05Z</time>
      </trkpt>
      <trkpt lat="42.33208" lon="3.19484">
        <ele>38</ele>
        <time>2018-10-11T10:44:09Z</time>
      </trkpt>
      <trkpt lat="42.33227" lon="3.19506">
        <ele>30</ele>
        <time>2018-10-11T10:44:12Z</time>
      </trkpt>
      <trkpt lat="42.33229" lon="3.19515">
        <ele>29</ele>
        <time>2018-10-11T10:44:13Z</time>
      </trkpt>
      <trkpt lat="42.33248" lon="3.19549">
        <ele>26</ele>
        <time>2018-10-11T10:44:18Z</time>
      </trkpt>
      <trkpt lat="42.33255" lon="3.19553">
        <ele>26</ele>
        <time>2018-10-11T10:44:19Z</time>
      </trkpt>
      <trkpt lat="42.3327" lon="3.19558">
        <ele>25</ele>
        <time>2018-10-11T10:44:21Z</time>
      </trkpt>
      <trkpt lat="42.33311" lon="3.19551">
        <ele>26</ele>
        <time>2018-10-11T10:44:26Z</time>
      </trkpt>
      <trkpt lat="42.33326" lon="3.19544">
        <ele>26</ele>
        <time>2018-10-11T10:44:28Z</time>
      </trkpt>
      <trkpt lat="42.33346" lon="3.19554">
        <ele>23</ele>
        <time>2018-10-11T10:44:32Z</time>
      </trkpt>
      <trkpt lat="42.3335" lon="3.19561">
        <ele>22</ele>
        <time>2018-10-11T10:44:33Z</time>
      </trkpt>
      <trkpt lat="42.33361" lon="3.19589">
        <ele>18</ele>
        <time>2018-10-11T10:44:36Z</time>
      </trkpt>
      <trkpt lat="42.3337" lon="3.19612">
        <ele>16</ele>
        <time>2018-10-11T10:44:38Z</time>
      </trkpt>
      <trkpt lat="42.33377" lon="3.19635">
        <ele>15</ele>
        <time>2018-10-11T10:44:40Z</time>
      </trkpt>
      <trkpt lat="42.33385" lon="3.19663">
        <ele>14</ele>
        <time>2018-10-11T10:44:43Z</time>
      </trkpt>
      <trkpt lat="42.33391" lon="3.19698">
        <ele>9</ele>
        <time>2018-10-11T10:44:48Z</time>
      </trkpt>
      <trkpt lat="42.33392" lon="3.19701">
        <ele>9</ele>
        <time>2018-10-11T10:44:49Z</time>
      </trkpt>
      <trkpt lat="42.33391" lon="3.19704">
        <ele>9</ele>
        <time>2018-10-11T10:44:54Z</time>
      </trkpt>
      <trkpt lat="42.33391" lon="3.19703">
        <ele>9</ele>
        <time>2018-10-11T10:45:09Z</time>
      </trkpt>
      <trkpt lat="42.33386" lon="3.19709">
        <ele>8</ele>
        <time>2018-10-11T10:47:53Z</time>
      </trkpt>
      <trkpt lat="42.3339" lon="3.19705">
        <ele>9</ele>
        <time>2018-10-11T10:47:59Z</time>
      </trkpt>
      <trkpt lat="42.33389" lon="3.19704">
        <ele>9</ele>
        <time>2018-10-11T10:48:06Z</time>
      </trkpt>
      <trkpt lat="42.3339" lon="3.19703">
        <ele>9</ele>
        <time>2018-10-11T10:48:18Z</time>
      </trkpt>
      <trkpt lat="42.33389" lon="3.19703">
        <ele>9</ele>
        <time>2018-10-11T10:48:57Z</time>
      </trkpt>
      <trkpt lat="42.33389" lon="3.19703">
        <ele>9</ele>
        <time>2018-10-11T10:49:11Z</time>
      </trkpt>
      <trkpt lat="42.33389" lon="3.19704">
        <ele>9</ele>
        <time>2018-10-11T10:49:33Z</time>
      </trkpt>
      <trkpt lat="42.33398" lon="3.19714">
        <ele>8</ele>
        <time>2018-10-11T10:49:38Z</time>
      </trkpt>
      <trkpt lat="42.33404" lon="3.19717">
        <ele>8</ele>
        <time>2018-10-11T10:49:40Z</time>
      </trkpt>
      <trkpt lat="42.33423" lon="3.19728">
        <ele>5</ele>
        <time>2018-10-11T10:49:47Z</time>
      </trkpt>
      <trkpt lat="42.33422" lon="3.19727">
        <ele>5</ele>
        <time>2018-10-11T10:49:49Z</time>
      </trkpt>
      <trkpt lat="42.33423" lon="3.19731">
        <ele>5</ele>
        <time>2018-10-11T10:49:51Z</time>
      </trkpt>
      <trkpt lat="42.33415" lon="3.1976">
        <ele>4</ele>
        <time>2018-10-11T10:49:56Z</time>
      </trkpt>
      <trkpt lat="42.33414" lon="3.19798">
        <ele>3</ele>
        <time>2018-10-11T10:50:00Z</time>
      </trkpt>
      <trkpt lat="42.3344" lon="3.1989">
        <ele>2</ele>
        <time>2018-10-11T10:50:07Z</time>
      </trkpt>
      <trkpt lat="42.33444" lon="3.19903">
        <ele>2</ele>
        <time>2018-10-11T10:50:08Z</time>
      </trkpt>
      <trkpt lat="42.33481" lon="3.20029">
        <ele>3</ele>
        <time>2018-10-11T10:50:17Z</time>
      </trkpt>
      <trkpt lat="42.33501" lon="3.20101">
        <ele>3</ele>
        <time>2018-10-11T10:50:23Z</time>
      </trkpt>
      <trkpt lat="42.3353" lon="3.20197">
        <ele>4</ele>
        <time>2018-10-11T10:50:31Z</time>
      </trkpt>
      <trkpt lat="42.3355" lon="3.2026">
        <ele>5</ele>
        <time>2018-10-11T10:50:37Z</time>
      </trkpt>
      <trkpt lat="42.33555" lon="3.20276">
        <ele>5</ele>
        <time>2018-10-11T10:50:39Z</time>
      </trkpt>
      <trkpt lat="42.33553" lon="3.20303">
        <ele>5</ele>
        <time>2018-10-11T10:50:43Z</time>
      </trkpt>
      <trkpt lat="42.33542" lon="3.20324">
        <ele>5</ele>
        <time>2018-10-11T10:50:49Z</time>
      </trkpt>
      <trkpt lat="42.33542" lon="3.20322">
        <ele>5</ele>
        <time>2018-10-11T10:50:57Z</time>
      </trkpt>
      <trkpt lat="42.33542" lon="3.20319">
        <ele>5</ele>
        <time>2018-10-11T10:51:25Z</time>
      </trkpt>
      <trkpt lat="42.33537" lon="3.2033">
        <ele>5</ele>
        <time>2018-10-11T10:51:29Z</time>
      </trkpt>
      <trkpt lat="42.3352" lon="3.20361">
        <ele>10</ele>
        <time>2018-10-11T10:51:34Z</time>
      </trkpt>
      <trkpt lat="42.3349" lon="3.20389">
        <ele>12</ele>
        <time>2018-10-11T10:51:39Z</time>
      </trkpt>
      <trkpt lat="42.33425" lon="3.20415">
        <ele>11</ele>
        <time>2018-10-11T10:51:46Z</time>
      </trkpt>
      <trkpt lat="42.33415" lon="3.20419">
        <ele>13</ele>
        <time>2018-10-11T10:51:47Z</time>
      </trkpt>
      <trkpt lat="42.33371" lon="3.20436">
        <ele>18</ele>
        <time>2018-10-11T10:51:51Z</time>
      </trkpt>
      <trkpt lat="42.33295" lon="3.20464">
        <ele>12</ele>
        <time>2018-10-11T10:51:57Z</time>
      </trkpt>
      <trkpt lat="42.33242" lon="3.20491">
        <ele>9</ele>
        <time>2018-10-11T10:52:02Z</time>
      </trkpt>
      <trkpt lat="42.33234" lon="3.20494">
        <ele>9</ele>
        <time>2018-10-11T10:52:03Z</time>
      </trkpt>
      <trkpt lat="42.33213" lon="3.20494">
        <ele>8</ele>
        <time>2018-10-11T10:52:06Z</time>
      </trkpt>
      <trkpt lat="42.33188" lon="3.20511">
        <ele>11</ele>
        <time>2018-10-11T10:52:10Z</time>
      </trkpt>
      <trkpt lat="42.33159" lon="3.20523">
        <ele>10</ele>
        <time>2018-10-11T10:52:13Z</time>
      </trkpt>
      <trkpt lat="42.3312" lon="3.20523">
        <ele>10</ele>
        <time>2018-10-11T10:52:16Z</time>
      </trkpt>
      <trkpt lat="42.33045" lon="3.20525">
        <ele>11</ele>
        <time>2018-10-11T10:52:21Z</time>
      </trkpt>
      <trkpt lat="42.32991" lon="3.20525">
        <ele>11</ele>
        <time>2018-10-11T10:52:25Z</time>
      </trkpt>
      <trkpt lat="42.32927" lon="3.20528">
        <ele>11</ele>
        <time>2018-10-11T10:52:31Z</time>
      </trkpt>
      <trkpt lat="42.32909" lon="3.20529">
        <ele>12</ele>
        <time>2018-10-11T10:52:33Z</time>
      </trkpt>
      <trkpt lat="42.32882" lon="3.20516">
        <ele>12</ele>
        <time>2018-10-11T10:52:37Z</time>
      </trkpt>
      <trkpt lat="42.32869" lon="3.20522">
        <ele>12</ele>
        <time>2018-10-11T10:52:39Z</time>
      </trkpt>
      <trkpt lat="42.32841" lon="3.20531">
        <ele>12</ele>
        <time>2018-10-11T10:52:42Z</time>
      </trkpt>
      <trkpt lat="42.32787" lon="3.20532">
        <ele>14</ele>
        <time>2018-10-11T10:52:46Z</time>
      </trkpt>
      <trkpt lat="42.32708" lon="3.20534">
        <ele>15</ele>
        <time>2018-10-11T10:52:51Z</time>
      </trkpt>
      <trkpt lat="42.32574" lon="3.20537">
        <ele>15</ele>
        <time>2018-10-11T10:52:59Z</time>
      </trkpt>
      <trkpt lat="42.32494" lon="3.20546">
        <ele>17</ele>
        <time>2018-10-11T10:53:04Z</time>
      </trkpt>
      <trkpt lat="42.32478" lon="3.20551">
        <ele>17</ele>
        <time>2018-10-11T10:53:05Z</time>
      </trkpt>
      <trkpt lat="42.32428" lon="3.20565">
        <ele>16</ele>
        <time>2018-10-11T10:53:08Z</time>
      </trkpt>
      <trkpt lat="42.32255" lon="3.20613">
        <ele>15</ele>
        <time>2018-10-11T10:53:18Z</time>
      </trkpt>
      <trkpt lat="42.32223" lon="3.20623">
        <ele>14</ele>
        <time>2018-10-11T10:53:20Z</time>
      </trkpt>
      <trkpt lat="42.32117" lon="3.20651">
        <ele>14</ele>
        <time>2018-10-11T10:53:27Z</time>
      </trkpt>
      <trkpt lat="42.32105" lon="3.20655">
        <ele>15</ele>
        <time>2018-10-11T10:53:28Z</time>
      </trkpt>
      <trkpt lat="42.32068" lon="3.20697">
        <ele>17</ele>
        <time>2018-10-11T10:53:32Z</time>
      </trkpt>
      <trkpt lat="42.32062" lon="3.20712">
        <ele>18</ele>
        <time>2018-10-11T10:53:33Z</time>
      </trkpt>
      <trkpt lat="42.32053" lon="3.20766">
        <ele>23</ele>
        <time>2018-10-11T10:53:36Z</time>
      </trkpt>
      <trkpt lat="42.32056" lon="3.20915">
        <ele>27</ele>
        <time>2018-10-11T10:53:43Z</time>
      </trkpt>
      <trkpt lat="42.32056" lon="3.20953">
        <ele>30</ele>
        <time>2018-10-11T10:53:45Z</time>
      </trkpt>
      <trkpt lat="42.32048" lon="3.21003">
        <ele>37</ele>
        <time>2018-10-11T10:53:48Z</time>
      </trkpt>
      <trkpt lat="42.32031" lon="3.21029">
        <ele>35</ele>
        <time>2018-10-11T10:53:50Z</time>
      </trkpt>
      <trkpt lat="42.32011" lon="3.21052">
        <ele>35</ele>
        <time>2018-10-11T10:53:52Z</time>
      </trkpt>
      <trkpt lat="42.31964" lon="3.2108">
        <ele>26</ele>
        <time>2018-10-11T10:53:56Z</time>
      </trkpt>
      <trkpt lat="42.3194" lon="3.21088">
        <ele>31</ele>
        <time>2018-10-11T10:53:58Z</time>
      </trkpt>
      <trkpt lat="42.31905" lon="3.21111">
        <ele>33</ele>
        <time>2018-10-11T10:54:02Z</time>
      </trkpt>
      <trkpt lat="42.31896" lon="3.21109">
        <ele>33</ele>
        <time>2018-10-11T10:54:03Z</time>
      </trkpt>
      <trkpt lat="42.31846" lon="3.21087">
        <ele>33</ele>
        <time>2018-10-11T10:54:08Z</time>
      </trkpt>
      <trkpt lat="42.31797" lon="3.21052">
        <ele>31</ele>
        <time>2018-10-11T10:54:12Z</time>
      </trkpt>
      <trkpt lat="42.31756" lon="3.2102">
        <ele>29</ele>
        <time>2018-10-11T10:54:15Z</time>
      </trkpt>
      <trkpt lat="42.31715" lon="3.2099">
        <ele>27</ele>
        <time>2018-10-11T10:54:18Z</time>
      </trkpt>
      <trkpt lat="42.31654" lon="3.2096">
        <ele>31</ele>
        <time>2018-10-11T10:54:22Z</time>
      </trkpt>
      <trkpt lat="42.31612" lon="3.2094">
        <ele>30</ele>
        <time>2018-10-11T10:54:25Z</time>
      </trkpt>
      <trkpt lat="42.31567" lon="3.2094">
        <ele>34</ele>
        <time>2018-10-11T10:54:29Z</time>
      </trkpt>
      <trkpt lat="42.31556" lon="3.20945">
        <ele>35</ele>
        <time>2018-10-11T10:54:30Z</time>
      </trkpt>
      <trkpt lat="42.31507" lon="3.20946">
        <ele>36</ele>
        <time>2018-10-11T10:54:34Z</time>
      </trkpt>
      <trkpt lat="42.31494" lon="3.20943">
        <ele>39</ele>
        <time>2018-10-11T10:54:35Z</time>
      </trkpt>
      <trkpt lat="42.31452" lon="3.20936">
        <ele>41</ele>
        <time>2018-10-11T10:54:38Z</time>
      </trkpt>
      <trkpt lat="42.31393" lon="3.20917">
        <ele>35</ele>
        <time>2018-10-11T10:54:42Z</time>
      </trkpt>
      <trkpt lat="42.31337" lon="3.20893">
        <ele>37</ele>
        <time>2018-10-11T10:54:46Z</time>
      </trkpt>
      <trkpt lat="42.3127" lon="3.20885">
        <ele>34</ele>
        <time>2018-10-11T10:54:51Z</time>
      </trkpt>
      <trkpt lat="42.31241" lon="3.20898">
        <ele>33</ele>
        <time>2018-10-11T10:54:54Z</time>
      </trkpt>
      <trkpt lat="42.31237" lon="3.20921">
        <ele>36</ele>
        <time>2018-10-11T10:54:56Z</time>
      </trkpt>
      <trkpt lat="42.31246" lon="3.20944">
        <ele>36</ele>
        <time>2018-10-11T10:54:58Z</time>
      </trkpt>
      <trkpt lat="42.31285" lon="3.21023">
        <ele>45</ele>
        <time>2018-10-11T10:55:04Z</time>
      </trkpt>
      <trkpt lat="42.31307" lon="3.21071">
        <ele>48</ele>
        <time>2018-10-11T10:55:07Z</time>
      </trkpt>
      <trkpt lat="42.31323" lon="3.21106">
        <ele>47</ele>
        <time>2018-10-11T10:55:09Z</time>
      </trkpt>
      <trkpt lat="42.31372" lon="3.2121">
        <ele>56</ele>
        <time>2018-10-11T10:55:15Z</time>
      </trkpt>
      <trkpt lat="42.31386" lon="3.2124">
        <ele>59</ele>
        <time>2018-10-11T10:55:17Z</time>
      </trkpt>
      <trkpt lat="42.31402" lon="3.21264">
        <ele>59</ele>
        <time>2018-10-11T10:55:19Z</time>
      </trkpt>
      <trkpt lat="42.31421" lon="3.21322">
        <ele>73</ele>
        <time>2018-10-11T10:55:23Z</time>
      </trkpt>
      <trkpt lat="42.3142" lon="3.21339">
        <ele>69</ele>
        <time>2018-10-11T10:55:24Z</time>
      </trkpt>
      <trkpt lat="42.31417" lon="3.21356">
        <ele>78</ele>
        <time>2018-10-11T10:55:25Z</time>
      </trkpt>
      <trkpt lat="42.31406" lon="3.21409">
        <ele>66</ele>
        <time>2018-10-11T10:55:28Z</time>
      </trkpt>
      <trkpt lat="42.31375" lon="3.21481">
        <ele>67</ele>
        <time>2018-10-11T10:55:33Z</time>
      </trkpt>
      <trkpt lat="42.31371" lon="3.21533">
        <ele>78</ele>
        <time>2018-10-11T10:55:37Z</time>
      </trkpt>
      <trkpt lat="42.31362" lon="3.21565">
        <ele>79</ele>
        <time>2018-10-11T10:55:40Z</time>
      </trkpt>
      <trkpt lat="42.31353" lon="3.2157">
        <ele>77</ele>
        <time>2018-10-11T10:55:41Z</time>
      </trkpt>
      <trkpt lat="42.31303" lon="3.21586">
        <ele>73</ele>
        <time>2018-10-11T10:55:46Z</time>
      </trkpt>
      <trkpt lat="42.31281" lon="3.21594">
        <ele>71</ele>
        <time>2018-10-11T10:55:48Z</time>
      </trkpt>
      <trkpt lat="42.31248" lon="3.21629">
        <ele>69</ele>
        <time>2018-10-11T10:55:52Z</time>
      </trkpt>
      <trkpt lat="42.31229" lon="3.21641">
        <ele>69</ele>
        <time>2018-10-11T10:55:54Z</time>
      </trkpt>
      <trkpt lat="42.31195" lon="3.21651">
        <ele>70</ele>
        <time>2018-10-11T10:55:57Z</time>
      </trkpt>
      <trkpt lat="42.3117" lon="3.21658">
        <ele>72</ele>
        <time>2018-10-11T10:55:59Z</time>
      </trkpt>
      <trkpt lat="42.31102" lon="3.2168">
        <ele>74</ele>
        <time>2018-10-11T10:56:05Z</time>
      </trkpt>
      <trkpt lat="42.31082" lon="3.21714">
        <ele>81</ele>
        <time>2018-10-11T10:56:09Z</time>
      </trkpt>
      <trkpt lat="42.3107" lon="3.2175">
        <ele>90</ele>
        <time>2018-10-11T10:56:13Z</time>
      </trkpt>
      <trkpt lat="42.31047" lon="3.21742">
        <ele>84</ele>
        <time>2018-10-11T10:56:16Z</time>
      </trkpt>
      <trkpt lat="42.31041" lon="3.21733">
        <ele>85</ele>
        <time>2018-10-11T10:56:17Z</time>
      </trkpt>
      <trkpt lat="42.31012" lon="3.21711">
        <ele>85</ele>
        <time>2018-10-11T10:56:21Z</time>
      </trkpt>
      <trkpt lat="42.30989" lon="3.21685">
        <ele>91</ele>
        <time>2018-10-11T10:56:24Z</time>
      </trkpt>
      <trkpt lat="42.30979" lon="3.21647">
        <ele>83</ele>
        <time>2018-10-11T10:56:27Z</time>
      </trkpt>
      <trkpt lat="42.30971" lon="3.21637">
        <ele>84</ele>
        <time>2018-10-11T10:56:28Z</time>
      </trkpt>
      <trkpt lat="42.30946" lon="3.21607">
        <ele>86</ele>
        <time>2018-10-11T10:56:31Z</time>
      </trkpt>
      <trkpt lat="42.30926" lon="3.21566">
        <ele>83</ele>
        <time>2018-10-11T10:56:34Z</time>
      </trkpt>
      <trkpt lat="42.30904" lon="3.215">
        <ele>92</ele>
        <time>2018-10-11T10:56:38Z</time>
      </trkpt>
      <trkpt lat="42.30869" lon="3.21401">
        <ele>85</ele>
        <time>2018-10-11T10:56:44Z</time>
      </trkpt>
      <trkpt lat="42.30838" lon="3.21355">
        <ele>85</ele>
        <time>2018-10-11T10:56:48Z</time>
      </trkpt>
      <trkpt lat="42.30807" lon="3.21353">
        <ele>89</ele>
        <time>2018-10-11T10:56:51Z</time>
      </trkpt>
      <trkpt lat="42.30784" lon="3.21383">
        <ele>90</ele>
        <time>2018-10-11T10:56:54Z</time>
      </trkpt>
      <trkpt lat="42.30776" lon="3.21413">
        <ele>90</ele>
        <time>2018-10-11T10:56:56Z</time>
      </trkpt>
      <trkpt lat="42.30763" lon="3.21482">
        <ele>100</ele>
        <time>2018-10-11T10:57:00Z</time>
      </trkpt>
      <trkpt lat="42.30747" lon="3.21531">
        <ele>95</ele>
        <time>2018-10-11T10:57:03Z</time>
      </trkpt>
      <trkpt lat="42.30744" lon="3.21594">
        <ele>101</ele>
        <time>2018-10-11T10:57:07Z</time>
      </trkpt>
      <trkpt lat="42.30759" lon="3.2166">
        <ele>109</ele>
        <time>2018-10-11T10:57:11Z</time>
      </trkpt>
      <trkpt lat="42.30763" lon="3.21738">
        <ele>112</ele>
        <time>2018-10-11T10:57:15Z</time>
      </trkpt>
      <trkpt lat="42.30765" lon="3.21758">
        <ele>114</ele>
        <time>2018-10-11T10:57:16Z</time>
      </trkpt>
      <trkpt lat="42.30772" lon="3.21848">
        <ele>122</ele>
        <time>2018-10-11T10:57:21Z</time>
      </trkpt>
      <trkpt lat="42.30759" lon="3.21902">
        <ele>122</ele>
        <time>2018-10-11T10:57:25Z</time>
      </trkpt>
      <trkpt lat="42.30734" lon="3.21934">
        <ele>113</ele>
        <time>2018-10-11T10:57:28Z</time>
      </trkpt>
      <trkpt lat="42.30725" lon="3.21958">
        <ele>111</ele>
        <time>2018-10-11T10:57:30Z</time>
      </trkpt>
      <trkpt lat="42.3073" lon="3.2198">
        <ele>113</ele>
        <time>2018-10-11T10:57:32Z</time>
      </trkpt>
      <trkpt lat="42.30755" lon="3.22">
        <ele>121</ele>
        <time>2018-10-11T10:57:35Z</time>
      </trkpt>
      <trkpt lat="42.30775" lon="3.22008">
        <ele>125</ele>
        <time>2018-10-11T10:57:37Z</time>
      </trkpt>
      <trkpt lat="42.30808" lon="3.22016">
        <ele>128</ele>
        <time>2018-10-11T10:57:40Z</time>
      </trkpt>
      <trkpt lat="42.3083" lon="3.22038">
        <ele>129</ele>
        <time>2018-10-11T10:57:43Z</time>
      </trkpt>
      <trkpt lat="42.30825" lon="3.22061">
        <ele>129</ele>
        <time>2018-10-11T10:57:45Z</time>
      </trkpt>
      <trkpt lat="42.30806" lon="3.22068">
        <ele>128</ele>
        <time>2018-10-11T10:57:47Z</time>
      </trkpt>
      <trkpt lat="42.30764" lon="3.22059">
        <ele>127</ele>
        <time>2018-10-11T10:57:51Z</time>
      </trkpt>
      <trkpt lat="42.30737" lon="3.22069">
        <ele>120</ele>
        <time>2018-10-11T10:57:54Z</time>
      </trkpt>
      <trkpt lat="42.3073" lon="3.2208">
        <ele>119</ele>
        <time>2018-10-11T10:57:55Z</time>
      </trkpt>
      <trkpt lat="42.307" lon="3.2213">
        <ele>125</ele>
        <time>2018-10-11T10:57:59Z</time>
      </trkpt>
      <trkpt lat="42.30692" lon="3.22144">
        <ele>125</ele>
        <time>2018-10-11T10:58:00Z</time>
      </trkpt>
      <trkpt lat="42.30678" lon="3.22176">
        <ele>130</ele>
        <time>2018-10-11T10:58:02Z</time>
      </trkpt>
      <trkpt lat="42.30659" lon="3.22224">
        <ele>124</ele>
        <time>2018-10-11T10:58:05Z</time>
      </trkpt>
      <trkpt lat="42.30634" lon="3.22256">
        <ele>130</ele>
        <time>2018-10-11T10:58:08Z</time>
      </trkpt>
      <trkpt lat="42.30614" lon="3.22289">
        <ele>129</ele>
        <time>2018-10-11T10:58:11Z</time>
      </trkpt>
      <trkpt lat="42.3061" lon="3.22303">
        <ele>129</ele>
        <time>2018-10-11T10:58:12Z</time>
      </trkpt>
      <trkpt lat="42.30598" lon="3.22399">
        <ele>139</ele>
        <time>2018-10-11T10:58:18Z</time>
      </trkpt>
      <trkpt lat="42.30612" lon="3.22459">
        <ele>144</ele>
        <time>2018-10-11T10:58:22Z</time>
      </trkpt>
      <trkpt lat="42.30632" lon="3.22504">
        <ele>147</ele>
        <time>2018-10-11T10:58:25Z</time>
      </trkpt>
      <trkpt lat="42.30652" lon="3.22552">
        <ele>148</ele>
        <time>2018-10-11T10:58:28Z</time>
      </trkpt>
      <trkpt lat="42.30659" lon="3.22568">
        <ele>149</ele>
        <time>2018-10-11T10:58:29Z</time>
      </trkpt>
      <trkpt lat="42.30671" lon="3.22601">
        <ele>163</ele>
        <time>2018-10-11T10:58:31Z</time>
      </trkpt>
      <trkpt lat="42.30686" lon="3.22654">
        <ele>166</ele>
        <time>2018-10-11T10:58:34Z</time>
      </trkpt>
      <trkpt lat="42.30704" lon="3.22718">
        <ele>176</ele>
        <time>2018-10-11T10:58:38Z</time>
      </trkpt>
      <trkpt lat="42.30703" lon="3.22787">
        <ele>180</ele>
        <time>2018-10-11T10:58:43Z</time>
      </trkpt>
      <trkpt lat="42.30697" lon="3.22795">
        <ele>179</ele>
        <time>2018-10-11T10:58:44Z</time>
      </trkpt>
      <trkpt lat="42.3068" lon="3.22798">
        <ele>177</ele>
        <time>2018-10-11T10:58:46Z</time>
      </trkpt>
      <trkpt lat="42.30664" lon="3.22787">
        <ele>182</ele>
        <time>2018-10-11T10:58:48Z</time>
      </trkpt>
      <trkpt lat="42.30654" lon="3.22764">
        <ele>177</ele>
        <time>2018-10-11T10:58:50Z</time>
      </trkpt>
      <trkpt lat="42.30646" lon="3.22738">
        <ele>171</ele>
        <time>2018-10-11T10:58:52Z</time>
      </trkpt>
      <trkpt lat="42.30628" lon="3.22699">
        <ele>173</ele>
        <time>2018-10-11T10:58:55Z</time>
      </trkpt>
      <trkpt lat="42.30593" lon="3.2266">
        <ele>168</ele>
        <time>2018-10-11T10:58:59Z</time>
      </trkpt>
      <trkpt lat="42.30571" lon="3.22644">
        <ele>166</ele>
        <time>2018-10-11T10:59:01Z</time>
      </trkpt>
      <trkpt lat="42.3056" lon="3.22636">
        <ele>163</ele>
        <time>2018-10-11T10:59:02Z</time>
      </trkpt>
      <trkpt lat="42.3055" lon="3.22628">
        <ele>162</ele>
        <time>2018-10-11T10:59:03Z</time>
      </trkpt>
      <trkpt lat="42.30518" lon="3.22625">
        <ele>162</ele>
        <time>2018-10-11T10:59:06Z</time>
      </trkpt>
      <trkpt lat="42.30507" lon="3.2263">
        <ele>164</ele>
        <time>2018-10-11T10:59:07Z</time>
      </trkpt>
      <trkpt lat="42.30476" lon="3.22652">
        <ele>160</ele>
        <time>2018-10-11T10:59:10Z</time>
      </trkpt>
      <trkpt lat="42.30466" lon="3.2266">
        <ele>157</ele>
        <time>2018-10-11T10:59:11Z</time>
      </trkpt>
      <trkpt lat="42.30447" lon="3.22683">
        <ele>172</ele>
        <time>2018-10-11T10:59:13Z</time>
      </trkpt>
      <trkpt lat="42.30418" lon="3.22743">
        <ele>175</ele>
        <time>2018-10-11T10:59:17Z</time>
      </trkpt>
      <trkpt lat="42.30405" lon="3.22775">
        <ele>173</ele>
        <time>2018-10-11T10:59:19Z</time>
      </trkpt>
      <trkpt lat="42.30363" lon="3.22867">
        <ele>198</ele>
        <time>2018-10-11T10:59:25Z</time>
      </trkpt>
      <trkpt lat="42.30355" lon="3.22881">
        <ele>200</ele>
        <time>2018-10-11T10:59:26Z</time>
      </trkpt>
      <trkpt lat="42.30314" lon="3.22914">
        <ele>195</ele>
        <time>2018-10-11T10:59:30Z</time>
      </trkpt>
      <trkpt lat="42.30291" lon="3.22921">
        <ele>216</ele>
        <time>2018-10-11T10:59:32Z</time>
      </trkpt>
      <trkpt lat="42.30261" lon="3.22918">
        <ele>210</ele>
        <time>2018-10-11T10:59:35Z</time>
      </trkpt>
      <trkpt lat="42.30246" lon="3.22901">
        <ele>197</ele>
        <time>2018-10-11T10:59:37Z</time>
      </trkpt>
      <trkpt lat="42.30227" lon="3.22892">
        <ele>194</ele>
        <time>2018-10-11T10:59:39Z</time>
      </trkpt>
      <trkpt lat="42.30186" lon="3.22904">
        <ele>197</ele>
        <time>2018-10-11T10:59:43Z</time>
      </trkpt>
      <trkpt lat="42.30109" lon="3.22953">
        <ele>208</ele>
        <time>2018-10-11T10:59:50Z</time>
      </trkpt>
      <trkpt lat="42.30084" lon="3.22969">
        <ele>208</ele>
        <time>2018-10-11T10:59:52Z</time>
      </trkpt>
      <trkpt lat="42.30057" lon="3.22986">
        <ele>206</ele>
        <time>2018-10-11T10:59:54Z</time>
      </trkpt>
      <trkpt lat="42.30007" lon="3.23018">
        <ele>209</ele>
        <time>2018-10-11T10:59:58Z</time>
      </trkpt>
      <trkpt lat="42.2997" lon="3.23064">
        <ele>210</ele>
        <time>2018-10-11T11:00:02Z</time>
      </trkpt>
      <trkpt lat="42.29965" lon="3.2308">
        <ele>210</ele>
        <time>2018-10-11T11:00:03Z</time>
      </trkpt>
      <trkpt lat="42.29955" lon="3.23114">
        <ele>215</ele>
        <time>2018-10-11T11:00:05Z</time>
      </trkpt>
      <trkpt lat="42.29933" lon="3.23163">
        <ele>215</ele>
        <time>2018-10-11T11:00:08Z</time>
      </trkpt>
      <trkpt lat="42.29916" lon="3.23195">
        <ele>217</ele>
        <time>2018-10-11T11:00:10Z</time>
      </trkpt>
      <trkpt lat="42.2987" lon="3.23277">
        <ele>226</ele>
        <time>2018-10-11T11:00:15Z</time>
      </trkpt>
      <trkpt lat="42.2984" lon="3.23318">
        <ele>226</ele>
        <time>2018-10-11T11:00:18Z</time>
      </trkpt>
      <trkpt lat="42.29811" lon="3.23398">
        <ele>227</ele>
        <time>2018-10-11T11:00:23Z</time>
      </trkpt>
      <trkpt lat="42.29811" lon="3.23416">
        <ele>228</ele>
        <time>2018-10-11T11:00:24Z</time>
      </trkpt>
      <trkpt lat="42.29812" lon="3.23451">
        <ele>233</ele>
        <time>2018-10-11T11:00:26Z</time>
      </trkpt>
      <trkpt lat="42.2981" lon="3.23483">
        <ele>235</ele>
        <time>2018-10-11T11:00:28Z</time>
      </trkpt>
      <trkpt lat="42.29801" lon="3.23513">
        <ele>241</ele>
        <time>2018-10-11T11:00:30Z</time>
      </trkpt>
      <trkpt lat="42.29795" lon="3.23528">
        <ele>241</ele>
        <time>2018-10-11T11:00:31Z</time>
      </trkpt>
      <trkpt lat="42.29789" lon="3.23541">
        <ele>242</ele>
        <time>2018-10-11T11:00:32Z</time>
      </trkpt>
      <trkpt lat="42.29781" lon="3.23554">
        <ele>242</ele>
        <time>2018-10-11T11:00:33Z</time>
      </trkpt>
      <trkpt lat="42.29758" lon="3.23588">
        <ele>243</ele>
        <time>2018-10-11T11:00:36Z</time>
      </trkpt>
      <trkpt lat="42.29743" lon="3.23609">
        <ele>243</ele>
        <time>2018-10-11T11:00:38Z</time>
      </trkpt>
      <trkpt lat="42.29737" lon="3.23619">
        <ele>244</ele>
        <time>2018-10-11T11:00:39Z</time>
      </trkpt>
      <trkpt lat="42.29726" lon="3.23649">
        <ele>246</ele>
        <time>2018-10-11T11:00:42Z</time>
      </trkpt>
      <trkpt lat="42.2972" lon="3.23664">
        <ele>246</ele>
        <time>2018-10-11T11:00:44Z</time>
      </trkpt>
      <trkpt lat="42.29705" lon="3.23671">
        <ele>248</ele>
        <time>2018-10-11T11:00:47Z</time>
      </trkpt>
      <trkpt lat="42.29698" lon="3.23668">
        <ele>248</ele>
        <time>2018-10-11T11:00:51Z</time>
      </trkpt>
      <trkpt lat="42.29688" lon="3.23655">
        <ele>246</ele>
        <time>2018-10-11T11:00:56Z</time>
      </trkpt>
      <trkpt lat="42.2968" lon="3.23631">
        <ele>246</ele>
        <time>2018-10-11T11:01:03Z</time>
      </trkpt>
      <trkpt lat="42.29666" lon="3.23631">
        <ele>249</ele>
        <time>2018-10-11T11:01:07Z</time>
      </trkpt>
      <trkpt lat="42.29663" lon="3.23637">
        <ele>249</ele>
        <time>2018-10-11T11:01:08Z</time>
      </trkpt>
      <trkpt lat="42.29661" lon="3.23645">
        <ele>249</ele>
        <time>2018-10-11T11:01:09Z</time>
      </trkpt>
      <trkpt lat="42.29656" lon="3.23665">
        <ele>248</ele>
        <time>2018-10-11T11:01:11Z</time>
      </trkpt>
      <trkpt lat="42.2965" lon="3.23688">
        <ele>248</ele>
        <time>2018-10-11T11:01:13Z</time>
      </trkpt>
      <trkpt lat="42.29635" lon="3.23733">
        <ele>248</ele>
        <time>2018-10-11T11:01:17Z</time>
      </trkpt>
      <trkpt lat="42.29632" lon="3.23744">
        <ele>247</ele>
        <time>2018-10-11T11:01:18Z</time>
      </trkpt>
      <trkpt lat="42.2963" lon="3.23777">
        <ele>246</ele>
        <time>2018-10-11T11:01:21Z</time>
      </trkpt>
      <trkpt lat="42.29632" lon="3.23788">
        <ele>246</ele>
        <time>2018-10-11T11:01:22Z</time>
      </trkpt>
      <trkpt lat="42.29658" lon="3.23861">
        <ele>245</ele>
        <time>2018-10-11T11:01:28Z</time>
      </trkpt>
      <trkpt lat="42.29665" lon="3.23902">
        <ele>244</ele>
        <time>2018-10-11T11:01:31Z</time>
      </trkpt>
      <trkpt lat="42.29658" lon="3.23963">
        <ele>241</ele>
        <time>2018-10-11T11:01:35Z</time>
      </trkpt>
      <trkpt lat="42.29654" lon="3.23977">
        <ele>241</ele>
        <time>2018-10-11T11:01:36Z</time>
      </trkpt>
      <trkpt lat="42.29646" lon="3.24019">
        <ele>240</ele>
        <time>2018-10-11T11:01:39Z</time>
      </trkpt>
      <trkpt lat="42.29645" lon="3.24049">
        <ele>239</ele>
        <time>2018-10-11T11:01:41Z</time>
      </trkpt>
      <trkpt lat="42.29626" lon="3.24124">
        <ele>238</ele>
        <time>2018-10-11T11:01:46Z</time>
      </trkpt>
      <trkpt lat="42.29616" lon="3.24154">
        <ele>235</ele>
        <time>2018-10-11T11:01:48Z</time>
      </trkpt>
      <trkpt lat="42.296" lon="3.24199">
        <ele>235</ele>
        <time>2018-10-11T11:01:51Z</time>
      </trkpt>
      <trkpt lat="42.2959" lon="3.24229">
        <ele>232</ele>
        <time>2018-10-11T11:01:53Z</time>
      </trkpt>
      <trkpt lat="42.29575" lon="3.24274">
        <ele>217</ele>
        <time>2018-10-11T11:01:56Z</time>
      </trkpt>
      <trkpt lat="42.29572" lon="3.24303">
        <ele>215</ele>
        <time>2018-10-11T11:01:58Z</time>
      </trkpt>
      <trkpt lat="42.2958" lon="3.24325">
        <ele>216</ele>
        <time>2018-10-11T11:02:00Z</time>
      </trkpt>
      <trkpt lat="42.29587" lon="3.24333">
        <ele>219</ele>
        <time>2018-10-11T11:02:01Z</time>
      </trkpt>
      <trkpt lat="42.29624" lon="3.24372">
        <ele>229</ele>
        <time>2018-10-11T11:02:06Z</time>
      </trkpt>
      <trkpt lat="42.2963" lon="3.24408">
        <ele>230</ele>
        <time>2018-10-11T11:02:10Z</time>
      </trkpt>
      <trkpt lat="42.29608" lon="3.24416">
        <ele>226</ele>
        <time>2018-10-11T11:02:13Z</time>
      </trkpt>
      <trkpt lat="42.29599" lon="3.24414">
        <ele>225</ele>
        <time>2018-10-11T11:02:14Z</time>
      </trkpt>
      <trkpt lat="42.29548" lon="3.24424">
        <ele>214</ele>
        <time>2018-10-11T11:02:19Z</time>
      </trkpt>
      <trkpt lat="42.29524" lon="3.24457">
        <ele>212</ele>
        <time>2018-10-11T11:02:22Z</time>
      </trkpt>
      <trkpt lat="42.29495" lon="3.24515">
        <ele>201</ele>
        <time>2018-10-11T11:02:26Z</time>
      </trkpt>
      <trkpt lat="42.29486" lon="3.24556">
        <ele>198</ele>
        <time>2018-10-11T11:02:29Z</time>
      </trkpt>
      <trkpt lat="42.29494" lon="3.24579">
        <ele>200</ele>
        <time>2018-10-11T11:02:31Z</time>
      </trkpt>
      <trkpt lat="42.29507" lon="3.24603">
        <ele>209</ele>
        <time>2018-10-11T11:02:33Z</time>
      </trkpt>
      <trkpt lat="42.29522" lon="3.24666">
        <ele>207</ele>
        <time>2018-10-11T11:02:37Z</time>
      </trkpt>
      <trkpt lat="42.29517" lon="3.24698">
        <ele>206</ele>
        <time>2018-10-11T11:02:39Z</time>
      </trkpt>
      <trkpt lat="42.29512" lon="3.24727">
        <ele>205</ele>
        <time>2018-10-11T11:02:41Z</time>
      </trkpt>
      <trkpt lat="42.29514" lon="3.24753">
        <ele>204</ele>
        <time>2018-10-11T11:02:43Z</time>
      </trkpt>
      <trkpt lat="42.29507" lon="3.24775">
        <ele>207</ele>
        <time>2018-10-11T11:02:45Z</time>
      </trkpt>
      <trkpt lat="42.295" lon="3.24783">
        <ele>191</ele>
        <time>2018-10-11T11:02:46Z</time>
      </trkpt>
      <trkpt lat="42.29472" lon="3.24801">
        <ele>189</ele>
        <time>2018-10-11T11:02:49Z</time>
      </trkpt>
      <trkpt lat="42.29457" lon="3.24844">
        <ele>193</ele>
        <time>2018-10-11T11:02:53Z</time>
      </trkpt>
      <trkpt lat="42.29449" lon="3.24896">
        <ele>194</ele>
        <time>2018-10-11T11:02:58Z</time>
      </trkpt>
      <trkpt lat="42.29441" lon="3.24899">
        <ele>193</ele>
        <time>2018-10-11T11:02:59Z</time>
      </trkpt>
      <trkpt lat="42.29398" lon="3.24932">
        <ele>183</ele>
        <time>2018-10-11T11:03:04Z</time>
      </trkpt>
      <trkpt lat="42.29351" lon="3.25004">
        <ele>181</ele>
        <time>2018-10-11T11:03:10Z</time>
      </trkpt>
      <trkpt lat="42.29339" lon="3.25028">
        <ele>183</ele>
        <time>2018-10-11T11:03:12Z</time>
      </trkpt>
      <trkpt lat="42.29337" lon="3.25055">
        <ele>183</ele>
        <time>2018-10-11T11:03:14Z</time>
      </trkpt>
      <trkpt lat="42.29344" lon="3.25115">
        <ele>187</ele>
        <time>2018-10-11T11:03:18Z</time>
      </trkpt>
      <trkpt lat="42.29346" lon="3.25129">
        <ele>187</ele>
        <time>2018-10-11T11:03:19Z</time>
      </trkpt>
      <trkpt lat="42.29346" lon="3.25159">
        <ele>182</ele>
        <time>2018-10-11T11:03:21Z</time>
      </trkpt>
      <trkpt lat="42.29337" lon="3.25188">
        <ele>184</ele>
        <time>2018-10-11T11:03:23Z</time>
      </trkpt>
      <trkpt lat="42.29308" lon="3.25261">
        <ele>163</ele>
        <time>2018-10-11T11:03:28Z</time>
      </trkpt>
      <trkpt lat="42.29301" lon="3.2529">
        <ele>160</ele>
        <time>2018-10-11T11:03:30Z</time>
      </trkpt>
      <trkpt lat="42.29297" lon="3.25321">
        <ele>160</ele>
        <time>2018-10-11T11:03:32Z</time>
      </trkpt>
      <trkpt lat="42.29298" lon="3.25354">
        <ele>159</ele>
        <time>2018-10-11T11:03:34Z</time>
      </trkpt>
      <trkpt lat="42.29306" lon="3.25453">
        <ele>153</ele>
        <time>2018-10-11T11:03:40Z</time>
      </trkpt>
      <trkpt lat="42.29323" lon="3.25491">
        <ele>154</ele>
        <time>2018-10-11T11:03:44Z</time>
      </trkpt>
      <trkpt lat="42.29339" lon="3.25498">
        <ele>157</ele>
        <time>2018-10-11T11:03:46Z</time>
      </trkpt>
      <trkpt lat="42.29347" lon="3.25498">
        <ele>159</ele>
        <time>2018-10-11T11:03:47Z</time>
      </trkpt>
      <trkpt lat="42.29365" lon="3.25495">
        <ele>162</ele>
        <time>2018-10-11T11:03:49Z</time>
      </trkpt>
      <trkpt lat="42.29395" lon="3.25507">
        <ele>155</ele>
        <time>2018-10-11T11:03:53Z</time>
      </trkpt>
      <trkpt lat="42.29401" lon="3.25529">
        <ele>153</ele>
        <time>2018-10-11T11:03:55Z</time>
      </trkpt>
      <trkpt lat="42.29403" lon="3.25565">
        <ele>150</ele>
        <time>2018-10-11T11:03:58Z</time>
      </trkpt>
      <trkpt lat="42.29415" lon="3.25594">
        <ele>143</ele>
        <time>2018-10-11T11:04:02Z</time>
      </trkpt>
      <trkpt lat="42.29421" lon="3.25598">
        <ele>143</ele>
        <time>2018-10-11T11:04:03Z</time>
      </trkpt>
      <trkpt lat="42.29447" lon="3.256">
        <ele>141</ele>
        <time>2018-10-11T11:04:06Z</time>
      </trkpt>
      <trkpt lat="42.29526" lon="3.25587">
        <ele>142</ele>
        <time>2018-10-11T11:04:13Z</time>
      </trkpt>
      <trkpt lat="42.29549" lon="3.25584">
        <ele>142</ele>
        <time>2018-10-11T11:04:15Z</time>
      </trkpt>
      <trkpt lat="42.29586" lon="3.25607">
        <ele>146</ele>
        <time>2018-10-11T11:04:19Z</time>
      </trkpt>
      <trkpt lat="42.29601" lon="3.25629">
        <ele>146</ele>
        <time>2018-10-11T11:04:21Z</time>
      </trkpt>
      <trkpt lat="42.29607" lon="3.25667">
        <ele>146</ele>
        <time>2018-10-11T11:04:24Z</time>
      </trkpt>
      <trkpt lat="42.29593" lon="3.25687">
        <ele>146</ele>
        <time>2018-10-11T11:04:26Z</time>
      </trkpt>
      <trkpt lat="42.29551" lon="3.25722">
        <ele>137</ele>
        <time>2018-10-11T11:04:30Z</time>
      </trkpt>
      <trkpt lat="42.29505" lon="3.25787">
        <ele>136</ele>
        <time>2018-10-11T11:04:35Z</time>
      </trkpt>
      <trkpt lat="42.29497" lon="3.258">
        <ele>123</ele>
        <time>2018-10-11T11:04:36Z</time>
      </trkpt>
      <trkpt lat="42.29485" lon="3.25854">
        <ele>123</ele>
        <time>2018-10-11T11:04:40Z</time>
      </trkpt>
      <trkpt lat="42.29492" lon="3.25885">
        <ele>123</ele>
        <time>2018-10-11T11:04:42Z</time>
      </trkpt>
      <trkpt lat="42.29502" lon="3.25915">
        <ele>130</ele>
        <time>2018-10-11T11:04:44Z</time>
      </trkpt>
      <trkpt lat="42.29507" lon="3.25966">
        <ele>138</ele>
        <time>2018-10-11T11:04:48Z</time>
      </trkpt>
      <trkpt lat="42.29489" lon="3.25975">
        <ele>129</ele>
        <time>2018-10-11T11:04:50Z</time>
      </trkpt>
      <trkpt lat="42.29477" lon="3.25973">
        <ele>128</ele>
        <time>2018-10-11T11:04:51Z</time>
      </trkpt>
      <trkpt lat="42.29438" lon="3.25964">
        <ele>124</ele>
        <time>2018-10-11T11:04:54Z</time>
      </trkpt>
      <trkpt lat="42.29426" lon="3.25961">
        <ele>123</ele>
        <time>2018-10-11T11:04:55Z</time>
      </trkpt>
      <trkpt lat="42.29391" lon="3.25967">
        <ele>111</ele>
        <time>2018-10-11T11:04:58Z</time>
      </trkpt>
      <trkpt lat="42.29355" lon="3.26006">
        <ele>113</ele>
        <time>2018-10-11T11:05:02Z</time>
      </trkpt>
      <trkpt lat="42.29349" lon="3.26019">
        <ele>113</ele>
        <time>2018-10-11T11:05:03Z</time>
      </trkpt>
      <trkpt lat="42.29337" lon="3.26048">
        <ele>114</ele>
        <time>2018-10-11T11:05:05Z</time>
      </trkpt>
      <trkpt lat="42.29333" lon="3.26105">
        <ele>102</ele>
        <time>2018-10-11T11:05:09Z</time>
      </trkpt>
      <trkpt lat="42.29347" lon="3.26126">
        <ele>112</ele>
        <time>2018-10-11T11:05:11Z</time>
      </trkpt>
      <trkpt lat="42.294" lon="3.26173">
        <ele>113</ele>
        <time>2018-10-11T11:05:16Z</time>
      </trkpt>
      <trkpt lat="42.29418" lon="3.26205">
        <ele>123</ele>
        <time>2018-10-11T11:05:19Z</time>
      </trkpt>
      <trkpt lat="42.29415" lon="3.26217">
        <ele>112</ele>
        <time>2018-10-11T11:05:20Z</time>
      </trkpt>
      <trkpt lat="42.29397" lon="3.26233">
        <ele>112</ele>
        <time>2018-10-11T11:05:22Z</time>
      </trkpt>
      <trkpt lat="42.29333" lon="3.26265">
        <ele>107</ele>
        <time>2018-10-11T11:05:27Z</time>
      </trkpt>
      <trkpt lat="42.29292" lon="3.26304">
        <ele>93</ele>
        <time>2018-10-11T11:05:31Z</time>
      </trkpt>
      <trkpt lat="42.29282" lon="3.2635">
        <ele>94</ele>
        <time>2018-10-11T11:05:34Z</time>
      </trkpt>
      <trkpt lat="42.2929" lon="3.2641">
        <ele>95</ele>
        <time>2018-10-11T11:05:38Z</time>
      </trkpt>
      <trkpt lat="42.29303" lon="3.26467">
        <ele>98</ele>
        <time>2018-10-11T11:05:42Z</time>
      </trkpt>
      <trkpt lat="42.29293" lon="3.26498">
        <ele>96</ele>
        <time>2018-10-11T11:05:44Z</time>
      </trkpt>
      <trkpt lat="42.29266" lon="3.26536">
        <ele>93</ele>
        <time>2018-10-11T11:05:47Z</time>
      </trkpt>
      <trkpt lat="42.29247" lon="3.26579">
        <ele>81</ele>
        <time>2018-10-11T11:05:50Z</time>
      </trkpt>
      <trkpt lat="42.29241" lon="3.26642">
        <ele>76</ele>
        <time>2018-10-11T11:05:54Z</time>
      </trkpt>
      <trkpt lat="42.29246" lon="3.26657">
        <ele>79</ele>
        <time>2018-10-11T11:05:55Z</time>
      </trkpt>
      <trkpt lat="42.29264" lon="3.26708">
        <ele>88</ele>
        <time>2018-10-11T11:05:58Z</time>
      </trkpt>
      <trkpt lat="42.29267" lon="3.26771">
        <ele>80</ele>
        <time>2018-10-11T11:06:01Z</time>
      </trkpt>
      <trkpt lat="42.29267" lon="3.26834">
        <ele>72</ele>
        <time>2018-10-11T11:06:04Z</time>
      </trkpt>
      <trkpt lat="42.29268" lon="3.26874">
        <ele>73</ele>
        <time>2018-10-11T11:06:06Z</time>
      </trkpt>
      <trkpt lat="42.29281" lon="3.26928">
        <ele>73</ele>
        <time>2018-10-11T11:06:09Z</time>
      </trkpt>
      <trkpt lat="42.29289" lon="3.26956">
        <ele>76</ele>
        <time>2018-10-11T11:06:11Z</time>
      </trkpt>
      <trkpt lat="42.29283" lon="3.26976">
        <ele>76</ele>
        <time>2018-10-11T11:06:13Z</time>
      </trkpt>
      <trkpt lat="42.29255" lon="3.2699">
        <ele>71</ele>
        <time>2018-10-11T11:06:16Z</time>
      </trkpt>
      <trkpt lat="42.29234" lon="3.27003">
        <ele>67</ele>
        <time>2018-10-11T11:06:18Z</time>
      </trkpt>
      <trkpt lat="42.29176" lon="3.27025">
        <ele>61</ele>
        <time>2018-10-11T11:06:23Z</time>
      </trkpt>
      <trkpt lat="42.2912" lon="3.27031">
        <ele>54</ele>
        <time>2018-10-11T11:06:27Z</time>
      </trkpt>
      <trkpt lat="42.29092" lon="3.27024">
        <ele>53</ele>
        <time>2018-10-11T11:06:29Z</time>
      </trkpt>
      <trkpt lat="42.29066" lon="3.27007">
        <ele>50</ele>
        <time>2018-10-11T11:06:31Z</time>
      </trkpt>
      <trkpt lat="42.29024" lon="3.26993">
        <ele>42</ele>
        <time>2018-10-11T11:06:34Z</time>
      </trkpt>
      <trkpt lat="42.28997" lon="3.2699">
        <ele>40</ele>
        <time>2018-10-11T11:06:36Z</time>
      </trkpt>
      <trkpt lat="42.28984" lon="3.26988">
        <ele>37</ele>
        <time>2018-10-11T11:06:37Z</time>
      </trkpt>
      <trkpt lat="42.28944" lon="3.26984">
        <ele>32</ele>
        <time>2018-10-11T11:06:40Z</time>
      </trkpt>
      <trkpt lat="42.28932" lon="3.26983">
        <ele>32</ele>
        <time>2018-10-11T11:06:41Z</time>
      </trkpt>
      <trkpt lat="42.2892" lon="3.26983">
        <ele>31</ele>
        <time>2018-10-11T11:06:42Z</time>
      </trkpt>
      <trkpt lat="42.28895" lon="3.27001">
        <ele>28</ele>
        <time>2018-10-11T11:06:45Z</time>
      </trkpt>
      <trkpt lat="42.2889" lon="3.27042">
        <ele>26</ele>
        <time>2018-10-11T11:06:48Z</time>
      </trkpt>
      <trkpt lat="42.28892" lon="3.27057">
        <ele>27</ele>
        <time>2018-10-11T11:06:49Z</time>
      </trkpt>
      <trkpt lat="42.28907" lon="3.27119">
        <ele>25</ele>
        <time>2018-10-11T11:06:53Z</time>
      </trkpt>
      <trkpt lat="42.28928" lon="3.27159">
        <ele>27</ele>
        <time>2018-10-11T11:06:56Z</time>
      </trkpt>
      <trkpt lat="42.28938" lon="3.27168">
        <ele>21</ele>
        <time>2018-10-11T11:06:57Z</time>
      </trkpt>
      <trkpt lat="42.28973" lon="3.27198">
        <ele>22</ele>
        <time>2018-10-11T11:07:00Z</time>
      </trkpt>
      <trkpt lat="42.29008" lon="3.27227">
        <ele>23</ele>
        <time>2018-10-11T11:07:03Z</time>
      </trkpt>
      <trkpt lat="42.29043" lon="3.27239">
        <ele>26</ele>
        <time>2018-10-11T11:07:06Z</time>
      </trkpt>
      <trkpt lat="42.29054" lon="3.27238">
        <ele>27</ele>
        <time>2018-10-11T11:07:07Z</time>
      </trkpt>
      <trkpt lat="42.29082" lon="3.27247">
        <ele>25</ele>
        <time>2018-10-11T11:07:10Z</time>
      </trkpt>
      <trkpt lat="42.29087" lon="3.27256">
        <ele>26</ele>
        <time>2018-10-11T11:07:11Z</time>
      </trkpt>
      <trkpt lat="42.29083" lon="3.27288">
        <ele>18</ele>
        <time>2018-10-11T11:07:14Z</time>
      </trkpt>
      <trkpt lat="42.29078" lon="3.27297">
        <ele>18</ele>
        <time>2018-10-11T11:07:15Z</time>
      </trkpt>
      <trkpt lat="42.29047" lon="3.27349">
        <ele>13</ele>
        <time>2018-10-11T11:07:21Z</time>
      </trkpt>
      <trkpt lat="42.29038" lon="3.27365">
        <ele>12</ele>
        <time>2018-10-11T11:07:24Z</time>
      </trkpt>
      <trkpt lat="42.29036" lon="3.27367">
        <ele>12</ele>
        <time>2018-10-11T11:07:25Z</time>
      </trkpt>
      <trkpt lat="42.29024" lon="3.27381">
        <ele>11</ele>
        <time>2018-10-11T11:07:30Z</time>
      </trkpt>
      <trkpt lat="42.28997" lon="3.27407">
        <ele>8</ele>
        <time>2018-10-11T11:07:37Z</time>
      </trkpt>
      <trkpt lat="42.28994" lon="3.2741">
        <ele>8</ele>
        <time>2018-10-11T11:07:38Z</time>
      </trkpt>
      <trkpt lat="42.28992" lon="3.27416">
        <ele>8</ele>
        <time>2018-10-11T11:07:40Z</time>
      </trkpt>
      <trkpt lat="42.28999" lon="3.27424">
        <ele>8</ele>
        <time>2018-10-11T11:07:44Z</time>
      </trkpt>
      <trkpt lat="42.29006" lon="3.27419">
        <ele>8</ele>
        <time>2018-10-11T11:07:46Z</time>
      </trkpt>
      <trkpt lat="42.29013" lon="3.2741">
        <ele>10</ele>
        <time>2018-10-11T11:07:48Z</time>
      </trkpt>
      <trkpt lat="42.29022" lon="3.27403">
        <ele>10</ele>
        <time>2018-10-11T11:07:50Z</time>
      </trkpt>
      <trkpt lat="42.29031" lon="3.27398">
        <ele>11</ele>
        <time>2018-10-11T11:07:52Z</time>
      </trkpt>
      <trkpt lat="42.29053" lon="3.2739">
        <ele>12</ele>
        <time>2018-10-11T11:07:56Z</time>
      </trkpt>
      <trkpt lat="42.2907" lon="3.27384">
        <ele>13</ele>
        <time>2018-10-11T11:07:59Z</time>
      </trkpt>
      <trkpt lat="42.29095" lon="3.27386">
        <ele>21</ele>
        <time>2018-10-11T11:08:03Z</time>
      </trkpt>
      <trkpt lat="42.29107" lon="3.27391">
        <ele>21</ele>
        <time>2018-10-11T11:08:05Z</time>
      </trkpt>
      <trkpt lat="42.2913" lon="3.27403">
        <ele>23</ele>
        <time>2018-10-11T11:08:10Z</time>
      </trkpt>
      <trkpt lat="42.29131" lon="3.27404">
        <ele>23</ele>
        <time>2018-10-11T11:08:12Z</time>
      </trkpt>
      <trkpt lat="42.29131" lon="3.27405">
        <ele>23</ele>
        <time>2018-10-11T11:08:25Z</time>
      </trkpt>
      <trkpt lat="42.2913" lon="3.27406">
        <ele>23</ele>
        <time>2018-10-11T11:08:55Z</time>
      </trkpt>
      <trkpt lat="42.2913" lon="3.27406">
        <ele>23</ele>
        <time>2018-10-11T11:09:17Z</time>
      </trkpt>
      <trkpt lat="42.29148" lon="3.27411">
        <ele>24</ele>
        <time>2018-10-11T11:09:23Z</time>
      </trkpt>
      <trkpt lat="42.29165" lon="3.27425">
        <ele>22</ele>
        <time>2018-10-11T11:09:27Z</time>
      </trkpt>
      <trkpt lat="42.29174" lon="3.27436">
        <ele>24</ele>
        <time>2018-10-11T11:09:29Z</time>
      </trkpt>
      <trkpt lat="42.29196" lon="3.2745">
        <ele>25</ele>
        <time>2018-10-11T11:09:33Z</time>
      </trkpt>
      <trkpt lat="42.29227" lon="3.27455">
        <ele>26</ele>
        <time>2018-10-11T11:09:39Z</time>
      </trkpt>
      <trkpt lat="42.29257" lon="3.27453">
        <ele>35</ele>
        <time>2018-10-11T11:09:44Z</time>
      </trkpt>
      <trkpt lat="42.29271" lon="3.27448">
        <ele>36</ele>
        <time>2018-10-11T11:09:46Z</time>
      </trkpt>
      <trkpt lat="42.2929" lon="3.27428">
        <ele>37</ele>
        <time>2018-10-11T11:09:49Z</time>
      </trkpt>
      <trkpt lat="42.29303" lon="3.27411">
        <ele>42</ele>
        <time>2018-10-11T11:09:51Z</time>
      </trkpt>
      <trkpt lat="42.29331" lon="3.27403">
        <ele>42</ele>
        <time>2018-10-11T11:09:55Z</time>
      </trkpt>
      <trkpt lat="42.29342" lon="3.2743">
        <ele>50</ele>
        <time>2018-10-11T11:09:58Z</time>
      </trkpt>
      <trkpt lat="42.29342" lon="3.27453">
        <ele>54</ele>
        <time>2018-10-11T11:10:00Z</time>
      </trkpt>
      <trkpt lat="42.29336" lon="3.27497">
        <ele>47</ele>
        <time>2018-10-11T11:10:04Z</time>
      </trkpt>
      <trkpt lat="42.29316" lon="3.2753">
        <ele>43</ele>
        <time>2018-10-11T11:10:08Z</time>
      </trkpt>
      <trkpt lat="42.29307" lon="3.27534">
        <ele>43</ele>
        <time>2018-10-11T11:10:09Z</time>
      </trkpt>
      <trkpt lat="42.29257" lon="3.27557">
        <ele>40</ele>
        <time>2018-10-11T11:10:15Z</time>
      </trkpt>
      <trkpt lat="42.29225" lon="3.27596">
        <ele>38</ele>
        <time>2018-10-11T11:10:21Z</time>
      </trkpt>
      <trkpt lat="42.29221" lon="3.27631">
        <ele>38</ele>
        <time>2018-10-11T11:10:25Z</time>
      </trkpt>
      <trkpt lat="42.29227" lon="3.27691">
        <ele>37</ele>
        <time>2018-10-11T11:10:31Z</time>
      </trkpt>
      <trkpt lat="42.29231" lon="3.2771">
        <ele>35</ele>
        <time>2018-10-11T11:10:33Z</time>
      </trkpt>
      <trkpt lat="42.29247" lon="3.27732">
        <ele>35</ele>
        <time>2018-10-11T11:10:36Z</time>
      </trkpt>
      <trkpt lat="42.29254" lon="3.27737">
        <ele>38</ele>
        <time>2018-10-11T11:10:37Z</time>
      </trkpt>
      <trkpt lat="42.29276" lon="3.27749">
        <ele>40</ele>
        <time>2018-10-11T11:10:40Z</time>
      </trkpt>
      <trkpt lat="42.29311" lon="3.27755">
        <ele>41</ele>
        <time>2018-10-11T11:10:44Z</time>
      </trkpt>
      <trkpt lat="42.29337" lon="3.27773">
        <ele>46</ele>
        <time>2018-10-11T11:10:48Z</time>
      </trkpt>
      <trkpt lat="42.29333" lon="3.27795">
        <ele>41</ele>
        <time>2018-10-11T11:10:51Z</time>
      </trkpt>
      <trkpt lat="42.29319" lon="3.27813">
        <ele>42</ele>
        <time>2018-10-11T11:10:54Z</time>
      </trkpt>
      <trkpt lat="42.29273" lon="3.27851">
        <ele>41</ele>
        <time>2018-10-11T11:11:01Z</time>
      </trkpt>
      <trkpt lat="42.29259" lon="3.27857">
        <ele>41</ele>
        <time>2018-10-11T11:11:03Z</time>
      </trkpt>
      <trkpt lat="42.29234" lon="3.27889">
        <ele>36</ele>
        <time>2018-10-11T11:11:08Z</time>
      </trkpt>
      <trkpt lat="42.29206" lon="3.27966">
        <ele>38</ele>
        <time>2018-10-11T11:11:17Z</time>
      </trkpt>
      <trkpt lat="42.29205" lon="3.27974">
        <ele>38</ele>
        <time>2018-10-11T11:11:18Z</time>
      </trkpt>
      <trkpt lat="42.29213" lon="3.27998">
        <ele>38</ele>
        <time>2018-10-11T11:11:22Z</time>
      </trkpt>
      <trkpt lat="42.29224" lon="3.28008">
        <ele>41</ele>
        <time>2018-10-11T11:11:24Z</time>
      </trkpt>
      <trkpt lat="42.29242" lon="3.28035">
        <ele>41</ele>
        <time>2018-10-11T11:11:28Z</time>
      </trkpt>
      <trkpt lat="42.29249" lon="3.28045">
        <ele>42</ele>
        <time>2018-10-11T11:11:30Z</time>
      </trkpt>
      <trkpt lat="42.29277" lon="3.28063">
        <ele>47</ele>
        <time>2018-10-11T11:11:36Z</time>
      </trkpt>
      <trkpt lat="42.29298" lon="3.28085">
        <ele>48</ele>
        <time>2018-10-11T11:11:41Z</time>
      </trkpt>
      <trkpt lat="42.29305" lon="3.28093">
        <ele>48</ele>
        <time>2018-10-11T11:11:43Z</time>
      </trkpt>
      <trkpt lat="42.2933" lon="3.28108">
        <ele>49</ele>
        <time>2018-10-11T11:11:48Z</time>
      </trkpt>
      <trkpt lat="42.29344" lon="3.28111">
        <ele>50</ele>
        <time>2018-10-11T11:11:50Z</time>
      </trkpt>
      <trkpt lat="42.2936" lon="3.28112">
        <ele>50</ele>
        <time>2018-10-11T11:11:52Z</time>
      </trkpt>
      <trkpt lat="42.29402" lon="3.28101">
        <ele>50</ele>
        <time>2018-10-11T11:11:57Z</time>
      </trkpt>
      <trkpt lat="42.29446" lon="3.28108">
        <ele>47</ele>
        <time>2018-10-11T11:12:02Z</time>
      </trkpt>
      <trkpt lat="42.29465" lon="3.28127">
        <ele>46</ele>
        <time>2018-10-11T11:12:05Z</time>
      </trkpt>
      <trkpt lat="42.29474" lon="3.28146">
        <ele>45</ele>
        <time>2018-10-11T11:12:07Z</time>
      </trkpt>
      <trkpt lat="42.29482" lon="3.28168">
        <ele>40</ele>
        <time>2018-10-11T11:12:09Z</time>
      </trkpt>
      <trkpt lat="42.29508" lon="3.28209">
        <ele>38</ele>
        <time>2018-10-11T11:12:13Z</time>
      </trkpt>
      <trkpt lat="42.29515" lon="3.2822">
        <ele>38</ele>
        <time>2018-10-11T11:12:14Z</time>
      </trkpt>
      <trkpt lat="42.29526" lon="3.28244">
        <ele>37</ele>
        <time>2018-10-11T11:12:16Z</time>
      </trkpt>
      <trkpt lat="42.2953" lon="3.28256">
        <ele>32</ele>
        <time>2018-10-11T11:12:17Z</time>
      </trkpt>
      <trkpt lat="42.29559" lon="3.28291">
        <ele>31</ele>
        <time>2018-10-11T11:12:22Z</time>
      </trkpt>
      <trkpt lat="42.29574" lon="3.28297">
        <ele>31</ele>
        <time>2018-10-11T11:12:24Z</time>
      </trkpt>
      <trkpt lat="42.29591" lon="3.28302">
        <ele>33</ele>
        <time>2018-10-11T11:12:26Z</time>
      </trkpt>
      <trkpt lat="42.29639" lon="3.28311">
        <ele>34</ele>
        <time>2018-10-11T11:12:31Z</time>
      </trkpt>
      <trkpt lat="42.29679" lon="3.283">
        <ele>36</ele>
        <time>2018-10-11T11:12:35Z</time>
      </trkpt>
      <trkpt lat="42.29745" lon="3.28259">
        <ele>35</ele>
        <time>2018-10-11T11:12:42Z</time>
      </trkpt>
      <trkpt lat="42.29765" lon="3.28251">
        <ele>32</ele>
        <time>2018-10-11T11:12:44Z</time>
      </trkpt>
      <trkpt lat="42.29794" lon="3.28249">
        <ele>31</ele>
        <time>2018-10-11T11:12:47Z</time>
      </trkpt>
      <trkpt lat="42.29822" lon="3.28266">
        <ele>26</ele>
        <time>2018-10-11T11:12:50Z</time>
      </trkpt>
      <trkpt lat="42.2983" lon="3.28275">
        <ele>26</ele>
        <time>2018-10-11T11:12:51Z</time>
      </trkpt>
      <trkpt lat="42.29852" lon="3.28304">
        <ele>26</ele>
        <time>2018-10-11T11:12:54Z</time>
      </trkpt>
      <trkpt lat="42.29871" lon="3.28354">
        <ele>22</ele>
        <time>2018-10-11T11:12:58Z</time>
      </trkpt>
      <trkpt lat="42.29891" lon="3.28466">
        <ele>21</ele>
        <time>2018-10-11T11:13:06Z</time>
      </trkpt>
      <trkpt lat="42.29898" lon="3.28507">
        <ele>24</ele>
        <time>2018-10-11T11:13:09Z</time>
      </trkpt>
      <trkpt lat="42.2991" lon="3.28564">
        <ele>25</ele>
        <time>2018-10-11T11:13:14Z</time>
      </trkpt>
      <trkpt lat="42.29916" lon="3.28594">
        <ele>27</ele>
        <time>2018-10-11T11:13:19Z</time>
      </trkpt>
      <trkpt lat="42.29915" lon="3.286">
        <ele>26</ele>
        <time>2018-10-11T11:13:23Z</time>
      </trkpt>
      <trkpt lat="42.29914" lon="3.28599">
        <ele>26</ele>
        <time>2018-10-11T11:13:35Z</time>
      </trkpt>
      <trkpt lat="42.29914" lon="3.28598">
        <ele>26</ele>
        <time>2018-10-11T11:13:59Z</time>
      </trkpt>
      <trkpt lat="42.29914" lon="3.28597">
        <ele>26</ele>
        <time>2018-10-11T11:14:01Z</time>
      </trkpt>
      <trkpt lat="42.29913" lon="3.28602">
        <ele>26</ele>
        <time>2018-10-11T11:14:03Z</time>
      </trkpt>
      <trkpt lat="42.29894" lon="3.28617">
        <ele>25</ele>
        <time>2018-10-11T11:14:08Z</time>
      </trkpt>
      <trkpt lat="42.29871" lon="3.28629">
        <ele>25</ele>
        <time>2018-10-11T11:14:12Z</time>
      </trkpt>
      <trkpt lat="42.29851" lon="3.2864">
        <ele>25</ele>
        <time>2018-10-11T11:14:15Z</time>
      </trkpt>
      <trkpt lat="42.29821" lon="3.28657">
        <ele>24</ele>
        <time>2018-10-11T11:14:19Z</time>
      </trkpt>
      <trkpt lat="42.29766" lon="3.28688">
        <ele>23</ele>
        <time>2018-10-11T11:14:26Z</time>
      </trkpt>
      <trkpt lat="42.29708" lon="3.28717">
        <ele>22</ele>
        <time>2018-10-11T11:14:33Z</time>
      </trkpt>
      <trkpt lat="42.29671" lon="3.2873">
        <ele>22</ele>
        <time>2018-10-11T11:14:38Z</time>
      </trkpt>
      <trkpt lat="42.29635" lon="3.28762">
        <ele>19</ele>
        <time>2018-10-11T11:14:43Z</time>
      </trkpt>
      <trkpt lat="42.29614" lon="3.28783">
        <ele>18</ele>
        <time>2018-10-11T11:14:46Z</time>
      </trkpt>
      <trkpt lat="42.29601" lon="3.28796">
        <ele>18</ele>
        <time>2018-10-11T11:14:48Z</time>
      </trkpt>
      <trkpt lat="42.29583" lon="3.28815">
        <ele>16</ele>
        <time>2018-10-11T11:14:51Z</time>
      </trkpt>
      <trkpt lat="42.29559" lon="3.28837">
        <ele>16</ele>
        <time>2018-10-11T11:14:55Z</time>
      </trkpt>
      <trkpt lat="42.29514" lon="3.28858">
        <ele>15</ele>
        <time>2018-10-11T11:15:00Z</time>
      </trkpt>
      <trkpt lat="42.29444" lon="3.28889">
        <ele>8</ele>
        <time>2018-10-11T11:15:08Z</time>
      </trkpt>
      <trkpt lat="42.2943" lon="3.28886">
        <ele>8</ele>
        <time>2018-10-11T11:15:12Z</time>
      </trkpt>
      <trkpt lat="42.29426" lon="3.28877">
        <ele>8</ele>
        <time>2018-10-11T11:15:17Z</time>
      </trkpt>
      <trkpt lat="42.29422" lon="3.28834">
        <ele>7</ele>
        <time>2018-10-11T11:15:24Z</time>
      </trkpt>
      <trkpt lat="42.29423" lon="3.28803">
        <ele>7</ele>
        <time>2018-10-11T11:15:30Z</time>
      </trkpt>
      <trkpt lat="42.29426" lon="3.28799">
        <ele>7</ele>
        <time>2018-10-11T11:15:31Z</time>
      </trkpt>
      <trkpt lat="42.29453" lon="3.28776">
        <ele>7</ele>
        <time>2018-10-11T11:15:39Z</time>
      </trkpt>
      <trkpt lat="42.29465" lon="3.28757">
        <ele>7</ele>
        <time>2018-10-11T11:15:44Z</time>
      </trkpt>
      <trkpt lat="42.29472" lon="3.28739">
        <ele>6</ele>
        <time>2018-10-11T11:15:51Z</time>
      </trkpt>
      <trkpt lat="42.29472" lon="3.28739">
        <ele>6</ele>
        <time>2018-10-11T11:16:03Z</time>
      </trkpt>
      <trkpt lat="42.29474" lon="3.2873">
        <ele>6</ele>
        <time>2018-10-11T11:47:48Z</time>
      </trkpt>
      <trkpt lat="42.29473" lon="3.28728">
        <ele>6</ele>
        <time>2018-10-11T11:48:04Z</time>
      </trkpt>
      <trkpt lat="42.29472" lon="3.28728">
        <ele>6</ele>
        <time>2018-10-11T11:48:32Z</time>
      </trkpt>
      <trkpt lat="42.29473" lon="3.28727">
        <ele>6</ele>
        <time>2018-10-11T11:49:05Z</time>
      </trkpt>
      <trkpt lat="42.29472" lon="3.28727">
        <ele>6</ele>
        <time>2018-10-11T11:49:40Z</time>
      </trkpt>
    </trkseg>
  </trk>
</gpx>